<?xml version="1.0" encoding="UTF-8" standalone="no" ?>
<gpx xmlns="http://www.topografix.com/GPX/1/1" xmlns:xsi="http://www.w3.org/2001/XMLSchema-instance" xsi:schemaLocation="http://www.topografix.com/GPX/1/1 http://www.topografix.com/GPX/1/1/gpx.xsd" version="1.1" creator="VisuGPX - https://www.visugpx.com">
  <metadata>
    <name>Tour du mont Falourde, extrème de portage : 900m D </name>
    <desc><![CDATA[Départ de la Tinée de chez Dana, via Tournefort : chemin végétatif...
Liaison Massoin sympa puis gros portage pour aller au Lac de Bairols.
Beau sommet mais tour ultra physique ! Pour ceux qui aiment le portage... 
Dans l'autre sens c'est peut être mieux mais il n'y a pas 1100m de descente directe !
Fastudi (Ciais.g)]]></desc>
  </metadata>
  <trk>
    <name><![CDATA[Tour du mont Falourde, extrème de portage : 900m D _1]]></name>
    <trkseg>
      <trkpt lat="43.94795" lon="7.1593">
        <ele>252</ele>
        <time>2018-06-20T13:59:19.008Z</time>
      </trkpt>
      <trkpt lat="43.94796" lon="7.15926">
        <ele>252</ele>
        <time>2018-06-20T13:59:30.008Z</time>
      </trkpt>
      <trkpt lat="43.948" lon="7.15921">
        <ele>252</ele>
        <time>2018-06-20T13:59:34.008Z</time>
      </trkpt>
      <trkpt lat="43.94805" lon="7.15917">
        <ele>264</ele>
        <time>2018-06-20T13:59:38.008Z</time>
      </trkpt>
      <trkpt lat="43.9481" lon="7.15914">
        <ele>264</ele>
        <time>2018-06-20T13:59:42.008Z</time>
      </trkpt>
      <trkpt lat="43.94816" lon="7.15912">
        <ele>262</ele>
        <time>2018-06-20T13:59:47.008Z</time>
      </trkpt>
      <trkpt lat="43.94821" lon="7.15911">
        <ele>261</ele>
        <time>2018-06-20T13:59:51.008Z</time>
      </trkpt>
      <trkpt lat="43.94825" lon="7.15909">
        <ele>260</ele>
        <time>2018-06-20T13:59:55.008Z</time>
      </trkpt>
      <trkpt lat="43.94831" lon="7.15907">
        <ele>260</ele>
        <time>2018-06-20T13:59:59.008Z</time>
      </trkpt>
      <trkpt lat="43.94836" lon="7.15903">
        <ele>258</ele>
        <time>2018-06-20T14:00:03.008Z</time>
      </trkpt>
      <trkpt lat="43.9484" lon="7.159">
        <ele>259</ele>
        <time>2018-06-20T14:00:07.008Z</time>
      </trkpt>
      <trkpt lat="43.94845" lon="7.15898">
        <ele>260</ele>
        <time>2018-06-20T14:00:11.008Z</time>
      </trkpt>
      <trkpt lat="43.94849" lon="7.15898">
        <ele>260</ele>
        <time>2018-06-20T14:00:15.008Z</time>
      </trkpt>
      <trkpt lat="43.94853" lon="7.15899">
        <ele>260</ele>
        <time>2018-06-20T14:00:18.008Z</time>
      </trkpt>
      <trkpt lat="43.94857" lon="7.15898">
        <ele>261</ele>
        <time>2018-06-20T14:00:21.008Z</time>
      </trkpt>
      <trkpt lat="43.94862" lon="7.15895">
        <ele>261</ele>
        <time>2018-06-20T14:00:24.008Z</time>
      </trkpt>
      <trkpt lat="43.94866" lon="7.15891">
        <ele>262</ele>
        <time>2018-06-20T14:00:27.008Z</time>
      </trkpt>
      <trkpt lat="43.9487" lon="7.15888">
        <ele>262</ele>
        <time>2018-06-20T14:00:30.008Z</time>
      </trkpt>
      <trkpt lat="43.94874" lon="7.15884">
        <ele>262</ele>
        <time>2018-06-20T14:00:32.008Z</time>
      </trkpt>
      <trkpt lat="43.94879" lon="7.15881">
        <ele>263</ele>
        <time>2018-06-20T14:00:34.008Z</time>
      </trkpt>
      <trkpt lat="43.94884" lon="7.15878">
        <ele>263</ele>
        <time>2018-06-20T14:00:36.008Z</time>
      </trkpt>
      <trkpt lat="43.94889" lon="7.15875">
        <ele>263</ele>
        <time>2018-06-20T14:00:38.008Z</time>
      </trkpt>
      <trkpt lat="43.94895" lon="7.15872">
        <ele>263</ele>
        <time>2018-06-20T14:00:40.008Z</time>
      </trkpt>
      <trkpt lat="43.949" lon="7.15868">
        <ele>263</ele>
        <time>2018-06-20T14:00:42.008Z</time>
      </trkpt>
      <trkpt lat="43.94904" lon="7.15864">
        <ele>264</ele>
        <time>2018-06-20T14:00:44.008Z</time>
      </trkpt>
      <trkpt lat="43.94909" lon="7.15859">
        <ele>264</ele>
        <time>2018-06-20T14:00:46.008Z</time>
      </trkpt>
      <trkpt lat="43.94915" lon="7.15853">
        <ele>264</ele>
        <time>2018-06-20T14:00:49.008Z</time>
      </trkpt>
      <trkpt lat="43.9492" lon="7.15846">
        <ele>262</ele>
        <time>2018-06-20T14:00:52.008Z</time>
      </trkpt>
      <trkpt lat="43.94926" lon="7.1584">
        <ele>262</ele>
        <time>2018-06-20T14:00:55.008Z</time>
      </trkpt>
      <trkpt lat="43.94932" lon="7.1583">
        <ele>268</ele>
        <time>2018-06-20T14:00:58.008Z</time>
      </trkpt>
      <trkpt lat="43.94939" lon="7.1582">
        <ele>269</ele>
        <time>2018-06-20T14:01:01.008Z</time>
      </trkpt>
      <trkpt lat="43.94943" lon="7.15824">
        <ele>269</ele>
        <time>2018-06-20T14:01:04.008Z</time>
      </trkpt>
      <trkpt lat="43.94945" lon="7.15831">
        <ele>268</ele>
        <time>2018-06-20T14:01:06.008Z</time>
      </trkpt>
      <trkpt lat="43.94948" lon="7.15839">
        <ele>259</ele>
        <time>2018-06-20T14:01:09.008Z</time>
      </trkpt>
      <trkpt lat="43.94951" lon="7.15843">
        <ele>259</ele>
        <time>2018-06-20T14:01:11.008Z</time>
      </trkpt>
      <trkpt lat="43.94955" lon="7.15844">
        <ele>258</ele>
        <time>2018-06-20T14:01:13.008Z</time>
      </trkpt>
      <trkpt lat="43.94961" lon="7.15843">
        <ele>258</ele>
        <time>2018-06-20T14:01:16.008Z</time>
      </trkpt>
      <trkpt lat="43.94965" lon="7.15841">
        <ele>258</ele>
        <time>2018-06-20T14:01:19.008Z</time>
      </trkpt>
      <trkpt lat="43.9497" lon="7.15836">
        <ele>258</ele>
        <time>2018-06-20T14:01:23.008Z</time>
      </trkpt>
      <trkpt lat="43.94975" lon="7.15832">
        <ele>266</ele>
        <time>2018-06-20T14:01:27.008Z</time>
      </trkpt>
      <trkpt lat="43.94979" lon="7.15826">
        <ele>266</ele>
        <time>2018-06-20T14:01:31.008Z</time>
      </trkpt>
      <trkpt lat="43.94983" lon="7.15817">
        <ele>266</ele>
        <time>2018-06-20T14:01:36.008Z</time>
      </trkpt>
      <trkpt lat="43.94986" lon="7.1581">
        <ele>267</ele>
        <time>2018-06-20T14:01:40.008Z</time>
      </trkpt>
      <trkpt lat="43.9499" lon="7.15801">
        <ele>269</ele>
        <time>2018-06-20T14:01:45.008Z</time>
      </trkpt>
      <trkpt lat="43.94993" lon="7.15792">
        <ele>270</ele>
        <time>2018-06-20T14:01:50.008Z</time>
      </trkpt>
      <trkpt lat="43.94998" lon="7.15786">
        <ele>271</ele>
        <time>2018-06-20T14:01:55.008Z</time>
      </trkpt>
      <trkpt lat="43.95004" lon="7.15781">
        <ele>267</ele>
        <time>2018-06-20T14:02:00.008Z</time>
      </trkpt>
      <trkpt lat="43.9501" lon="7.15776">
        <ele>268</ele>
        <time>2018-06-20T14:02:04.008Z</time>
      </trkpt>
      <trkpt lat="43.95017" lon="7.15773">
        <ele>268</ele>
        <time>2018-06-20T14:02:07.008Z</time>
      </trkpt>
      <trkpt lat="43.95022" lon="7.15772">
        <ele>268</ele>
        <time>2018-06-20T14:02:09.008Z</time>
      </trkpt>
      <trkpt lat="43.95027" lon="7.1577">
        <ele>267</ele>
        <time>2018-06-20T14:02:11.008Z</time>
      </trkpt>
      <trkpt lat="43.95033" lon="7.15768">
        <ele>267</ele>
        <time>2018-06-20T14:02:13.008Z</time>
      </trkpt>
      <trkpt lat="43.95039" lon="7.15767">
        <ele>267</ele>
        <time>2018-06-20T14:02:15.008Z</time>
      </trkpt>
      <trkpt lat="43.95045" lon="7.15765">
        <ele>267</ele>
        <time>2018-06-20T14:02:17.008Z</time>
      </trkpt>
      <trkpt lat="43.9505" lon="7.15763">
        <ele>267</ele>
        <time>2018-06-20T14:02:19.008Z</time>
      </trkpt>
      <trkpt lat="43.95055" lon="7.15761">
        <ele>267</ele>
        <time>2018-06-20T14:02:21.008Z</time>
      </trkpt>
      <trkpt lat="43.95061" lon="7.15758">
        <ele>267</ele>
        <time>2018-06-20T14:02:23.008Z</time>
      </trkpt>
      <trkpt lat="43.95066" lon="7.15755">
        <ele>267</ele>
        <time>2018-06-20T14:02:25.008Z</time>
      </trkpt>
      <trkpt lat="43.95071" lon="7.1575">
        <ele>268</ele>
        <time>2018-06-20T14:02:27.008Z</time>
      </trkpt>
      <trkpt lat="43.95076" lon="7.15747">
        <ele>273</ele>
        <time>2018-06-20T14:02:29.008Z</time>
      </trkpt>
      <trkpt lat="43.95081" lon="7.15743">
        <ele>273</ele>
        <time>2018-06-20T14:02:31.008Z</time>
      </trkpt>
      <trkpt lat="43.95084" lon="7.15739">
        <ele>271</ele>
        <time>2018-06-20T14:02:33.008Z</time>
      </trkpt>
      <trkpt lat="43.95089" lon="7.15732">
        <ele>272</ele>
        <time>2018-06-20T14:02:36.008Z</time>
      </trkpt>
      <trkpt lat="43.95094" lon="7.15725">
        <ele>273</ele>
        <time>2018-06-20T14:02:39.008Z</time>
      </trkpt>
      <trkpt lat="43.951" lon="7.15718">
        <ele>274</ele>
        <time>2018-06-20T14:02:42.008Z</time>
      </trkpt>
      <trkpt lat="43.95105" lon="7.15712">
        <ele>275</ele>
        <time>2018-06-20T14:02:45.008Z</time>
      </trkpt>
      <trkpt lat="43.95112" lon="7.15707">
        <ele>275</ele>
        <time>2018-06-20T14:02:48.008Z</time>
      </trkpt>
      <trkpt lat="43.95118" lon="7.15701">
        <ele>275</ele>
        <time>2018-06-20T14:02:51.008Z</time>
      </trkpt>
      <trkpt lat="43.95123" lon="7.15697">
        <ele>276</ele>
        <time>2018-06-20T14:02:54.008Z</time>
      </trkpt>
      <trkpt lat="43.95129" lon="7.15692">
        <ele>275</ele>
        <time>2018-06-20T14:02:57.008Z</time>
      </trkpt>
      <trkpt lat="43.95135" lon="7.15689">
        <ele>275</ele>
        <time>2018-06-20T14:03:00.008Z</time>
      </trkpt>
      <trkpt lat="43.9514" lon="7.15687">
        <ele>275</ele>
        <time>2018-06-20T14:03:03.008Z</time>
      </trkpt>
      <trkpt lat="43.95143" lon="7.15684">
        <ele>275</ele>
        <time>2018-06-20T14:03:07.008Z</time>
      </trkpt>
      <trkpt lat="43.95147" lon="7.15679">
        <ele>275</ele>
        <time>2018-06-20T14:03:12.008Z</time>
      </trkpt>
      <trkpt lat="43.9515" lon="7.15676">
        <ele>275</ele>
        <time>2018-06-20T14:03:15.008Z</time>
      </trkpt>
      <trkpt lat="43.95153" lon="7.15673">
        <ele>275</ele>
        <time>2018-06-20T14:03:18.008Z</time>
      </trkpt>
      <trkpt lat="43.95157" lon="7.15669">
        <ele>275</ele>
        <time>2018-06-20T14:03:22.008Z</time>
      </trkpt>
      <trkpt lat="43.95161" lon="7.15665">
        <ele>279</ele>
        <time>2018-06-20T14:03:26.008Z</time>
      </trkpt>
      <trkpt lat="43.95165" lon="7.15663">
        <ele>278</ele>
        <time>2018-06-20T14:03:30.008Z</time>
      </trkpt>
      <trkpt lat="43.95169" lon="7.15659">
        <ele>276</ele>
        <time>2018-06-20T14:03:34.008Z</time>
      </trkpt>
      <trkpt lat="43.95174" lon="7.15658">
        <ele>276</ele>
        <time>2018-06-20T14:03:38.008Z</time>
      </trkpt>
      <trkpt lat="43.95178" lon="7.15656">
        <ele>277</ele>
        <time>2018-06-20T14:03:42.008Z</time>
      </trkpt>
      <trkpt lat="43.9518" lon="7.15652">
        <ele>277</ele>
        <time>2018-06-20T14:03:46.008Z</time>
      </trkpt>
      <trkpt lat="43.95176" lon="7.15649">
        <ele>277</ele>
        <time>2018-06-20T14:03:50.008Z</time>
      </trkpt>
      <trkpt lat="43.95173" lon="7.15653">
        <ele>277</ele>
        <time>2018-06-20T14:03:54.008Z</time>
      </trkpt>
      <trkpt lat="43.95169" lon="7.15656">
        <ele>276</ele>
        <time>2018-06-20T14:03:57.008Z</time>
      </trkpt>
      <trkpt lat="43.95165" lon="7.1566">
        <ele>280</ele>
        <time>2018-06-20T14:04:01.008Z</time>
      </trkpt>
      <trkpt lat="43.95165" lon="7.15666">
        <ele>277</ele>
        <time>2018-06-20T14:04:05.008Z</time>
      </trkpt>
      <trkpt lat="43.95169" lon="7.15662">
        <ele>276</ele>
        <time>2018-06-20T14:04:11.008Z</time>
      </trkpt>
      <trkpt lat="43.95165" lon="7.15658">
        <ele>280</ele>
        <time>2018-06-20T14:04:21.008Z</time>
      </trkpt>
      <trkpt lat="43.95163" lon="7.15664">
        <ele>278</ele>
        <time>2018-06-20T14:04:25.008Z</time>
      </trkpt>
      <trkpt lat="43.95167" lon="7.15662">
        <ele>276</ele>
        <time>2018-06-20T14:05:02.008Z</time>
      </trkpt>
      <trkpt lat="43.95164" lon="7.15657">
        <ele>281</ele>
        <time>2018-06-20T14:05:06.008Z</time>
      </trkpt>
      <trkpt lat="43.95168" lon="7.15647">
        <ele>277</ele>
        <time>2018-06-20T14:05:24.008Z</time>
      </trkpt>
      <trkpt lat="43.95171" lon="7.15637">
        <ele>279</ele>
        <time>2018-06-20T14:05:35.008Z</time>
      </trkpt>
      <trkpt lat="43.95169" lon="7.15627">
        <ele>280</ele>
        <time>2018-06-20T14:05:42.008Z</time>
      </trkpt>
      <trkpt lat="43.95167" lon="7.15614">
        <ele>282</ele>
        <time>2018-06-20T14:05:51.008Z</time>
      </trkpt>
      <trkpt lat="43.95174" lon="7.15609">
        <ele>283</ele>
        <time>2018-06-20T14:06:06.008Z</time>
      </trkpt>
      <trkpt lat="43.95183" lon="7.15601">
        <ele>283</ele>
        <time>2018-06-20T14:06:19.008Z</time>
      </trkpt>
      <trkpt lat="43.95193" lon="7.15597">
        <ele>283</ele>
        <time>2018-06-20T14:06:32.008Z</time>
      </trkpt>
      <trkpt lat="43.95202" lon="7.15592">
        <ele>282</ele>
        <time>2018-06-20T14:06:42.008Z</time>
      </trkpt>
      <trkpt lat="43.95212" lon="7.15586">
        <ele>281</ele>
        <time>2018-06-20T14:06:51.008Z</time>
      </trkpt>
      <trkpt lat="43.9522" lon="7.15581">
        <ele>292</ele>
        <time>2018-06-20T14:06:59.008Z</time>
      </trkpt>
      <trkpt lat="43.95228" lon="7.15577">
        <ele>291</ele>
        <time>2018-06-20T14:07:09.008Z</time>
      </trkpt>
      <trkpt lat="43.95238" lon="7.15575">
        <ele>289</ele>
        <time>2018-06-20T14:07:19.008Z</time>
      </trkpt>
      <trkpt lat="43.95247" lon="7.1557">
        <ele>288</ele>
        <time>2018-06-20T14:07:29.008Z</time>
      </trkpt>
      <trkpt lat="43.95256" lon="7.15566">
        <ele>288</ele>
        <time>2018-06-20T14:07:38.008Z</time>
      </trkpt>
      <trkpt lat="43.95263" lon="7.15558">
        <ele>291</ele>
        <time>2018-06-20T14:07:48.008Z</time>
      </trkpt>
      <trkpt lat="43.95271" lon="7.15551">
        <ele>292</ele>
        <time>2018-06-20T14:07:57.008Z</time>
      </trkpt>
      <trkpt lat="43.95275" lon="7.15539">
        <ele>294</ele>
        <time>2018-06-20T14:08:09.008Z</time>
      </trkpt>
      <trkpt lat="43.95278" lon="7.15526">
        <ele>297</ele>
        <time>2018-06-20T14:08:18.008Z</time>
      </trkpt>
      <trkpt lat="43.95272" lon="7.15532">
        <ele>296</ele>
        <time>2018-06-20T14:08:37.008Z</time>
      </trkpt>
      <trkpt lat="43.95269" lon="7.15538">
        <ele>295</ele>
        <time>2018-06-20T14:08:43.008Z</time>
      </trkpt>
      <trkpt lat="43.95263" lon="7.15543">
        <ele>294</ele>
        <time>2018-06-20T14:08:51.008Z</time>
      </trkpt>
      <trkpt lat="43.95257" lon="7.15544">
        <ele>294</ele>
        <time>2018-06-20T14:09:01.008Z</time>
      </trkpt>
      <trkpt lat="43.95252" lon="7.15545">
        <ele>293</ele>
        <time>2018-06-20T14:09:04.008Z</time>
      </trkpt>
      <trkpt lat="43.95244" lon="7.15543">
        <ele>296</ele>
        <time>2018-06-20T14:09:10.008Z</time>
      </trkpt>
      <trkpt lat="43.95241" lon="7.15539">
        <ele>297</ele>
        <time>2018-06-20T14:09:13.008Z</time>
      </trkpt>
      <trkpt lat="43.95239" lon="7.15534">
        <ele>298</ele>
        <time>2018-06-20T14:09:16.008Z</time>
      </trkpt>
      <trkpt lat="43.95237" lon="7.1553">
        <ele>299</ele>
        <time>2018-06-20T14:09:19.008Z</time>
      </trkpt>
      <trkpt lat="43.95235" lon="7.15525">
        <ele>299</ele>
        <time>2018-06-20T14:09:22.008Z</time>
      </trkpt>
      <trkpt lat="43.95233" lon="7.15521">
        <ele>300</ele>
        <time>2018-06-20T14:09:25.008Z</time>
      </trkpt>
      <trkpt lat="43.95231" lon="7.15518">
        <ele>300</ele>
        <time>2018-06-20T14:09:27.008Z</time>
      </trkpt>
      <trkpt lat="43.95229" lon="7.15513">
        <ele>301</ele>
        <time>2018-06-20T14:09:30.008Z</time>
      </trkpt>
      <trkpt lat="43.95227" lon="7.15508">
        <ele>301</ele>
        <time>2018-06-20T14:09:33.008Z</time>
      </trkpt>
      <trkpt lat="43.95226" lon="7.15504">
        <ele>302</ele>
        <time>2018-06-20T14:09:36.008Z</time>
      </trkpt>
      <trkpt lat="43.95223" lon="7.15503">
        <ele>301</ele>
        <time>2018-06-20T14:09:39.008Z</time>
      </trkpt>
      <trkpt lat="43.95225" lon="7.15498">
        <ele>315</ele>
        <time>2018-06-20T14:09:52.008Z</time>
      </trkpt>
      <trkpt lat="43.95228" lon="7.15492">
        <ele>315</ele>
        <time>2018-06-20T14:09:57.008Z</time>
      </trkpt>
      <trkpt lat="43.9523" lon="7.15487">
        <ele>315</ele>
        <time>2018-06-20T14:10:02.008Z</time>
      </trkpt>
      <trkpt lat="43.95233" lon="7.15481">
        <ele>316</ele>
        <time>2018-06-20T14:10:08.008Z</time>
      </trkpt>
      <trkpt lat="43.9524" lon="7.15477">
        <ele>316</ele>
        <time>2018-06-20T14:10:17.008Z</time>
      </trkpt>
      <trkpt lat="43.95244" lon="7.15477">
        <ele>316</ele>
        <time>2018-06-20T14:10:21.008Z</time>
      </trkpt>
      <trkpt lat="43.95247" lon="7.15478">
        <ele>316</ele>
        <time>2018-06-20T14:10:25.008Z</time>
      </trkpt>
      <trkpt lat="43.95252" lon="7.15478">
        <ele>316</ele>
        <time>2018-06-20T14:10:31.008Z</time>
      </trkpt>
      <trkpt lat="43.95257" lon="7.15477">
        <ele>317</ele>
        <time>2018-06-20T14:10:39.008Z</time>
      </trkpt>
      <trkpt lat="43.95261" lon="7.15473">
        <ele>318</ele>
        <time>2018-06-20T14:10:46.008Z</time>
      </trkpt>
      <trkpt lat="43.95261" lon="7.15465">
        <ele>319</ele>
        <time>2018-06-20T14:10:55.008Z</time>
      </trkpt>
      <trkpt lat="43.95257" lon="7.15459">
        <ele>321</ele>
        <time>2018-06-20T14:11:04.008Z</time>
      </trkpt>
      <trkpt lat="43.95255" lon="7.1545">
        <ele>323</ele>
        <time>2018-06-20T14:11:17.008Z</time>
      </trkpt>
      <trkpt lat="43.95258" lon="7.15446">
        <ele>324</ele>
        <time>2018-06-20T14:11:24.008Z</time>
      </trkpt>
      <trkpt lat="43.95263" lon="7.15447">
        <ele>324</ele>
        <time>2018-06-20T14:11:35.008Z</time>
      </trkpt>
      <trkpt lat="43.95267" lon="7.15444">
        <ele>324</ele>
        <time>2018-06-20T14:11:42.008Z</time>
      </trkpt>
      <trkpt lat="43.95273" lon="7.1544">
        <ele>325</ele>
        <time>2018-06-20T14:11:49.008Z</time>
      </trkpt>
      <trkpt lat="43.95277" lon="7.15435">
        <ele>325</ele>
        <time>2018-06-20T14:11:58.008Z</time>
      </trkpt>
      <trkpt lat="43.95273" lon="7.1543">
        <ele>327</ele>
        <time>2018-06-20T14:12:09.008Z</time>
      </trkpt>
      <trkpt lat="43.95277" lon="7.15424">
        <ele>327</ele>
        <time>2018-06-20T14:12:15.008Z</time>
      </trkpt>
      <trkpt lat="43.95279" lon="7.15418">
        <ele>327</ele>
        <time>2018-06-20T14:12:21.008Z</time>
      </trkpt>
      <trkpt lat="43.95283" lon="7.15409">
        <ele>344</ele>
        <time>2018-06-20T14:12:34.008Z</time>
      </trkpt>
      <trkpt lat="43.95276" lon="7.15411">
        <ele>343</ele>
        <time>2018-06-20T14:12:48.008Z</time>
      </trkpt>
      <trkpt lat="43.9527" lon="7.15411">
        <ele>343</ele>
        <time>2018-06-20T14:12:56.008Z</time>
      </trkpt>
      <trkpt lat="43.95273" lon="7.15403">
        <ele>344</ele>
        <time>2018-06-20T14:13:07.008Z</time>
      </trkpt>
      <trkpt lat="43.95268" lon="7.15398">
        <ele>344</ele>
        <time>2018-06-20T14:13:21.008Z</time>
      </trkpt>
      <trkpt lat="43.95264" lon="7.1539">
        <ele>346</ele>
        <time>2018-06-20T14:13:38.008Z</time>
      </trkpt>
      <trkpt lat="43.95259" lon="7.15392">
        <ele>345</ele>
        <time>2018-06-20T14:13:52.008Z</time>
      </trkpt>
      <trkpt lat="43.95253" lon="7.15395">
        <ele>345</ele>
        <time>2018-06-20T14:14:01.008Z</time>
      </trkpt>
      <trkpt lat="43.95252" lon="7.15385">
        <ele>347</ele>
        <time>2018-06-20T14:14:14.008Z</time>
      </trkpt>
      <trkpt lat="43.95253" lon="7.15378">
        <ele>349</ele>
        <time>2018-06-20T14:14:22.008Z</time>
      </trkpt>
      <trkpt lat="43.95254" lon="7.15369">
        <ele>351</ele>
        <time>2018-06-20T14:14:27.008Z</time>
      </trkpt>
      <trkpt lat="43.9525" lon="7.15375">
        <ele>350</ele>
        <time>2018-06-20T14:14:47.008Z</time>
      </trkpt>
      <trkpt lat="43.95245" lon="7.15381">
        <ele>348</ele>
        <time>2018-06-20T14:14:55.008Z</time>
      </trkpt>
      <trkpt lat="43.95243" lon="7.15375">
        <ele>349</ele>
        <time>2018-06-20T14:15:05.008Z</time>
      </trkpt>
      <trkpt lat="43.95245" lon="7.15368">
        <ele>351</ele>
        <time>2018-06-20T14:15:15.008Z</time>
      </trkpt>
      <trkpt lat="43.95245" lon="7.15359">
        <ele>354</ele>
        <time>2018-06-20T14:15:20.008Z</time>
      </trkpt>
      <trkpt lat="43.95246" lon="7.1535">
        <ele>357</ele>
        <time>2018-06-20T14:15:26.008Z</time>
      </trkpt>
      <trkpt lat="43.95244" lon="7.1534">
        <ele>360</ele>
        <time>2018-06-20T14:15:31.008Z</time>
      </trkpt>
      <trkpt lat="43.95239" lon="7.15347">
        <ele>357</ele>
        <time>2018-06-20T14:15:41.008Z</time>
      </trkpt>
      <trkpt lat="43.95234" lon="7.15356">
        <ele>354</ele>
        <time>2018-06-20T14:15:49.008Z</time>
      </trkpt>
      <trkpt lat="43.95227" lon="7.15357">
        <ele>353</ele>
        <time>2018-06-20T14:15:54.008Z</time>
      </trkpt>
      <trkpt lat="43.9522" lon="7.15357">
        <ele>352</ele>
        <time>2018-06-20T14:15:59.008Z</time>
      </trkpt>
      <trkpt lat="43.95216" lon="7.15353">
        <ele>353</ele>
        <time>2018-06-20T14:16:03.008Z</time>
      </trkpt>
      <trkpt lat="43.95214" lon="7.15346">
        <ele>354</ele>
        <time>2018-06-20T14:16:13.008Z</time>
      </trkpt>
      <trkpt lat="43.95215" lon="7.15338">
        <ele>354</ele>
        <time>2018-06-20T14:16:21.008Z</time>
      </trkpt>
      <trkpt lat="43.95219" lon="7.15335">
        <ele>355</ele>
        <time>2018-06-20T14:16:27.008Z</time>
      </trkpt>
      <trkpt lat="43.95217" lon="7.15329">
        <ele>372</ele>
        <time>2018-06-20T14:16:36.008Z</time>
      </trkpt>
      <trkpt lat="43.95213" lon="7.15324">
        <ele>372</ele>
        <time>2018-06-20T14:16:45.008Z</time>
      </trkpt>
      <trkpt lat="43.95209" lon="7.15321">
        <ele>372</ele>
        <time>2018-06-20T14:16:51.008Z</time>
      </trkpt>
      <trkpt lat="43.95208" lon="7.15314">
        <ele>373</ele>
        <time>2018-06-20T14:16:59.008Z</time>
      </trkpt>
      <trkpt lat="43.95206" lon="7.15307">
        <ele>374</ele>
        <time>2018-06-20T14:17:08.008Z</time>
      </trkpt>
      <trkpt lat="43.95202" lon="7.15304">
        <ele>374</ele>
        <time>2018-06-20T14:17:15.008Z</time>
      </trkpt>
      <trkpt lat="43.952" lon="7.15299">
        <ele>375</ele>
        <time>2018-06-20T14:17:21.008Z</time>
      </trkpt>
      <trkpt lat="43.95197" lon="7.15293">
        <ele>376</ele>
        <time>2018-06-20T14:17:28.008Z</time>
      </trkpt>
      <trkpt lat="43.95192" lon="7.15291">
        <ele>376</ele>
        <time>2018-06-20T14:17:36.008Z</time>
      </trkpt>
      <trkpt lat="43.95187" lon="7.15292">
        <ele>376</ele>
        <time>2018-06-20T14:17:43.008Z</time>
      </trkpt>
      <trkpt lat="43.95181" lon="7.15292">
        <ele>376</ele>
        <time>2018-06-20T14:17:50.008Z</time>
      </trkpt>
      <trkpt lat="43.95178" lon="7.15288">
        <ele>377</ele>
        <time>2018-06-20T14:17:56.008Z</time>
      </trkpt>
      <trkpt lat="43.95181" lon="7.15283">
        <ele>378</ele>
        <time>2018-06-20T14:18:02.008Z</time>
      </trkpt>
      <trkpt lat="43.95179" lon="7.15276">
        <ele>379</ele>
        <time>2018-06-20T14:18:12.008Z</time>
      </trkpt>
      <trkpt lat="43.95175" lon="7.15274">
        <ele>380</ele>
        <time>2018-06-20T14:18:17.008Z</time>
      </trkpt>
      <trkpt lat="43.95171" lon="7.15271">
        <ele>381</ele>
        <time>2018-06-20T14:18:23.008Z</time>
      </trkpt>
      <trkpt lat="43.95166" lon="7.15268">
        <ele>383</ele>
        <time>2018-06-20T14:18:32.008Z</time>
      </trkpt>
      <trkpt lat="43.95163" lon="7.15264">
        <ele>384</ele>
        <time>2018-06-20T14:18:38.008Z</time>
      </trkpt>
      <trkpt lat="43.95161" lon="7.15259">
        <ele>385</ele>
        <time>2018-06-20T14:18:44.008Z</time>
      </trkpt>
      <trkpt lat="43.95159" lon="7.15255">
        <ele>386</ele>
        <time>2018-06-20T14:18:48.008Z</time>
      </trkpt>
      <trkpt lat="43.95157" lon="7.15249">
        <ele>394</ele>
        <time>2018-06-20T14:18:55.008Z</time>
      </trkpt>
      <trkpt lat="43.95153" lon="7.15245">
        <ele>396</ele>
        <time>2018-06-20T14:19:01.008Z</time>
      </trkpt>
      <trkpt lat="43.95149" lon="7.15241">
        <ele>398</ele>
        <time>2018-06-20T14:19:08.008Z</time>
      </trkpt>
      <trkpt lat="43.95152" lon="7.15233">
        <ele>399</ele>
        <time>2018-06-20T14:19:21.008Z</time>
      </trkpt>
      <trkpt lat="43.95149" lon="7.15224">
        <ele>402</ele>
        <time>2018-06-20T14:19:34.008Z</time>
      </trkpt>
      <trkpt lat="43.95143" lon="7.15221">
        <ele>403</ele>
        <time>2018-06-20T14:19:45.008Z</time>
      </trkpt>
      <trkpt lat="43.95139" lon="7.15218">
        <ele>404</ele>
        <time>2018-06-20T14:19:51.008Z</time>
      </trkpt>
      <trkpt lat="43.95136" lon="7.15213">
        <ele>405</ele>
        <time>2018-06-20T14:19:57.008Z</time>
      </trkpt>
      <trkpt lat="43.95132" lon="7.1521">
        <ele>406</ele>
        <time>2018-06-20T14:20:03.008Z</time>
      </trkpt>
      <trkpt lat="43.95133" lon="7.15203">
        <ele>407</ele>
        <time>2018-06-20T14:20:16.008Z</time>
      </trkpt>
      <trkpt lat="43.95138" lon="7.15198">
        <ele>408</ele>
        <time>2018-06-20T14:20:23.008Z</time>
      </trkpt>
      <trkpt lat="43.95132" lon="7.15198">
        <ele>408</ele>
        <time>2018-06-20T14:20:36.008Z</time>
      </trkpt>
      <trkpt lat="43.95133" lon="7.15188">
        <ele>409</ele>
        <time>2018-06-20T14:20:51.008Z</time>
      </trkpt>
      <trkpt lat="43.95132" lon="7.15179">
        <ele>410</ele>
        <time>2018-06-20T14:21:01.008Z</time>
      </trkpt>
      <trkpt lat="43.9513" lon="7.15168">
        <ele>411</ele>
        <time>2018-06-20T14:21:15.008Z</time>
      </trkpt>
      <trkpt lat="43.95134" lon="7.15158">
        <ele>428</ele>
        <time>2018-06-20T14:21:24.008Z</time>
      </trkpt>
      <trkpt lat="43.95139" lon="7.1515">
        <ele>429</ele>
        <time>2018-06-20T14:21:37.008Z</time>
      </trkpt>
      <trkpt lat="43.95148" lon="7.15145">
        <ele>429</ele>
        <time>2018-06-20T14:21:46.008Z</time>
      </trkpt>
      <trkpt lat="43.95155" lon="7.1514">
        <ele>429</ele>
        <time>2018-06-20T14:21:51.008Z</time>
      </trkpt>
      <trkpt lat="43.95163" lon="7.15137">
        <ele>430</ele>
        <time>2018-06-20T14:21:58.008Z</time>
      </trkpt>
      <trkpt lat="43.9517" lon="7.15136">
        <ele>425</ele>
        <time>2018-06-20T14:22:05.008Z</time>
      </trkpt>
      <trkpt lat="43.95176" lon="7.15132">
        <ele>426</ele>
        <time>2018-06-20T14:22:14.008Z</time>
      </trkpt>
      <trkpt lat="43.95183" lon="7.15128">
        <ele>427</ele>
        <time>2018-06-20T14:22:22.008Z</time>
      </trkpt>
      <trkpt lat="43.95181" lon="7.15121">
        <ele>428</ele>
        <time>2018-06-20T14:22:42.008Z</time>
      </trkpt>
      <trkpt lat="43.95184" lon="7.15115">
        <ele>430</ele>
        <time>2018-06-20T14:22:52.008Z</time>
      </trkpt>
      <trkpt lat="43.9518" lon="7.15112">
        <ele>431</ele>
        <time>2018-06-20T14:23:02.008Z</time>
      </trkpt>
      <trkpt lat="43.95176" lon="7.15115">
        <ele>430</ele>
        <time>2018-06-20T14:23:10.008Z</time>
      </trkpt>
      <trkpt lat="43.9517" lon="7.15116">
        <ele>430</ele>
        <time>2018-06-20T14:23:19.008Z</time>
      </trkpt>
      <trkpt lat="43.95165" lon="7.15113">
        <ele>436</ele>
        <time>2018-06-20T14:23:25.008Z</time>
      </trkpt>
      <trkpt lat="43.95168" lon="7.15105">
        <ele>434</ele>
        <time>2018-06-20T14:23:37.008Z</time>
      </trkpt>
      <trkpt lat="43.95174" lon="7.15101">
        <ele>434</ele>
        <time>2018-06-20T14:23:49.008Z</time>
      </trkpt>
      <trkpt lat="43.95179" lon="7.15095">
        <ele>435</ele>
        <time>2018-06-20T14:23:57.008Z</time>
      </trkpt>
      <trkpt lat="43.95174" lon="7.15094">
        <ele>437</ele>
        <time>2018-06-20T14:24:15.008Z</time>
      </trkpt>
      <trkpt lat="43.95169" lon="7.15094">
        <ele>437</ele>
        <time>2018-06-20T14:24:22.008Z</time>
      </trkpt>
      <trkpt lat="43.95165" lon="7.15092">
        <ele>441</ele>
        <time>2018-06-20T14:24:28.008Z</time>
      </trkpt>
      <trkpt lat="43.95159" lon="7.15091">
        <ele>441</ele>
        <time>2018-06-20T14:24:35.008Z</time>
      </trkpt>
      <trkpt lat="43.9516" lon="7.15081">
        <ele>448</ele>
        <time>2018-06-20T14:24:48.008Z</time>
      </trkpt>
      <trkpt lat="43.95154" lon="7.1508">
        <ele>451</ele>
        <time>2018-06-20T14:24:59.008Z</time>
      </trkpt>
      <trkpt lat="43.95149" lon="7.1508">
        <ele>452</ele>
        <time>2018-06-20T14:25:05.008Z</time>
      </trkpt>
      <trkpt lat="43.95143" lon="7.15078">
        <ele>454</ele>
        <time>2018-06-20T14:25:14.008Z</time>
      </trkpt>
      <trkpt lat="43.95138" lon="7.15075">
        <ele>455</ele>
        <time>2018-06-20T14:25:24.008Z</time>
      </trkpt>
      <trkpt lat="43.95142" lon="7.15069">
        <ele>455</ele>
        <time>2018-06-20T14:25:42.008Z</time>
      </trkpt>
      <trkpt lat="43.95147" lon="7.15067">
        <ele>455</ele>
        <time>2018-06-20T14:25:46.008Z</time>
      </trkpt>
      <trkpt lat="43.95145" lon="7.15059">
        <ele>457</ele>
        <time>2018-06-20T14:25:51.008Z</time>
      </trkpt>
      <trkpt lat="43.9514" lon="7.15054">
        <ele>458</ele>
        <time>2018-06-20T14:25:56.008Z</time>
      </trkpt>
      <trkpt lat="43.95134" lon="7.1505">
        <ele>459</ele>
        <time>2018-06-20T14:26:01.008Z</time>
      </trkpt>
      <trkpt lat="43.95128" lon="7.15047">
        <ele>460</ele>
        <time>2018-06-20T14:26:06.008Z</time>
      </trkpt>
      <trkpt lat="43.95122" lon="7.15047">
        <ele>460</ele>
        <time>2018-06-20T14:26:11.008Z</time>
      </trkpt>
      <trkpt lat="43.95114" lon="7.15047">
        <ele>461</ele>
        <time>2018-06-20T14:26:16.008Z</time>
      </trkpt>
      <trkpt lat="43.95108" lon="7.15047">
        <ele>461</ele>
        <time>2018-06-20T14:26:20.008Z</time>
      </trkpt>
      <trkpt lat="43.95103" lon="7.15048">
        <ele>461</ele>
        <time>2018-06-20T14:26:23.008Z</time>
      </trkpt>
      <trkpt lat="43.95097" lon="7.15049">
        <ele>461</ele>
        <time>2018-06-20T14:26:27.008Z</time>
      </trkpt>
      <trkpt lat="43.9509" lon="7.15049">
        <ele>461</ele>
        <time>2018-06-20T14:26:31.008Z</time>
      </trkpt>
      <trkpt lat="43.95083" lon="7.15049">
        <ele>469</ele>
        <time>2018-06-20T14:26:36.008Z</time>
      </trkpt>
      <trkpt lat="43.95075" lon="7.1505">
        <ele>469</ele>
        <time>2018-06-20T14:26:41.008Z</time>
      </trkpt>
      <trkpt lat="43.9507" lon="7.15048">
        <ele>470</ele>
        <time>2018-06-20T14:26:45.008Z</time>
      </trkpt>
      <trkpt lat="43.95064" lon="7.15046">
        <ele>471</ele>
        <time>2018-06-20T14:26:49.008Z</time>
      </trkpt>
      <trkpt lat="43.9506" lon="7.15042">
        <ele>472</ele>
        <time>2018-06-20T14:26:54.008Z</time>
      </trkpt>
      <trkpt lat="43.95055" lon="7.15038">
        <ele>473</ele>
        <time>2018-06-20T14:26:59.008Z</time>
      </trkpt>
      <trkpt lat="43.95051" lon="7.15036">
        <ele>474</ele>
        <time>2018-06-20T14:27:03.008Z</time>
      </trkpt>
      <trkpt lat="43.95047" lon="7.15032">
        <ele>474</ele>
        <time>2018-06-20T14:27:08.008Z</time>
      </trkpt>
      <trkpt lat="43.95042" lon="7.15031">
        <ele>475</ele>
        <time>2018-06-20T14:27:13.008Z</time>
      </trkpt>
      <trkpt lat="43.95035" lon="7.15028">
        <ele>476</ele>
        <time>2018-06-20T14:27:21.008Z</time>
      </trkpt>
      <trkpt lat="43.95029" lon="7.15028">
        <ele>477</ele>
        <time>2018-06-20T14:27:28.008Z</time>
      </trkpt>
      <trkpt lat="43.95024" lon="7.15032">
        <ele>477</ele>
        <time>2018-06-20T14:27:35.008Z</time>
      </trkpt>
      <trkpt lat="43.95019" lon="7.15037">
        <ele>476</ele>
        <time>2018-06-20T14:27:42.008Z</time>
      </trkpt>
      <trkpt lat="43.95015" lon="7.15042">
        <ele>476</ele>
        <time>2018-06-20T14:27:47.008Z</time>
      </trkpt>
      <trkpt lat="43.95009" lon="7.15044">
        <ele>476</ele>
        <time>2018-06-20T14:27:53.008Z</time>
      </trkpt>
      <trkpt lat="43.95003" lon="7.15047">
        <ele>475</ele>
        <time>2018-06-20T14:27:59.008Z</time>
      </trkpt>
      <trkpt lat="43.94997" lon="7.15049">
        <ele>486</ele>
        <time>2018-06-20T14:28:05.008Z</time>
      </trkpt>
      <trkpt lat="43.94992" lon="7.15051">
        <ele>486</ele>
        <time>2018-06-20T14:28:10.008Z</time>
      </trkpt>
      <trkpt lat="43.94987" lon="7.15055">
        <ele>486</ele>
        <time>2018-06-20T14:28:15.008Z</time>
      </trkpt>
      <trkpt lat="43.94982" lon="7.15056">
        <ele>486</ele>
        <time>2018-06-20T14:28:20.008Z</time>
      </trkpt>
      <trkpt lat="43.94978" lon="7.15059">
        <ele>486</ele>
        <time>2018-06-20T14:28:25.008Z</time>
      </trkpt>
      <trkpt lat="43.94973" lon="7.1506">
        <ele>487</ele>
        <time>2018-06-20T14:28:30.008Z</time>
      </trkpt>
      <trkpt lat="43.94968" lon="7.15063">
        <ele>488</ele>
        <time>2018-06-20T14:28:34.008Z</time>
      </trkpt>
      <trkpt lat="43.94963" lon="7.15062">
        <ele>489</ele>
        <time>2018-06-20T14:28:39.008Z</time>
      </trkpt>
      <trkpt lat="43.94958" lon="7.15063">
        <ele>490</ele>
        <time>2018-06-20T14:28:44.008Z</time>
      </trkpt>
      <trkpt lat="43.94957" lon="7.15056">
        <ele>491</ele>
        <time>2018-06-20T14:28:49.008Z</time>
      </trkpt>
      <trkpt lat="43.94952" lon="7.15052">
        <ele>492</ele>
        <time>2018-06-20T14:28:54.008Z</time>
      </trkpt>
      <trkpt lat="43.94947" lon="7.15046">
        <ele>493</ele>
        <time>2018-06-20T14:29:00.008Z</time>
      </trkpt>
      <trkpt lat="43.94943" lon="7.15043">
        <ele>494</ele>
        <time>2018-06-20T14:29:04.008Z</time>
      </trkpt>
      <trkpt lat="43.94938" lon="7.15037">
        <ele>495</ele>
        <time>2018-06-20T14:29:09.008Z</time>
      </trkpt>
      <trkpt lat="43.94933" lon="7.15037">
        <ele>496</ele>
        <time>2018-06-20T14:29:14.008Z</time>
      </trkpt>
      <trkpt lat="43.94928" lon="7.15035">
        <ele>497</ele>
        <time>2018-06-20T14:29:21.008Z</time>
      </trkpt>
      <trkpt lat="43.94922" lon="7.15037">
        <ele>497</ele>
        <time>2018-06-20T14:29:27.008Z</time>
      </trkpt>
      <trkpt lat="43.94917" lon="7.15042">
        <ele>510</ele>
        <time>2018-06-20T14:29:33.008Z</time>
      </trkpt>
      <trkpt lat="43.94913" lon="7.1505">
        <ele>509</ele>
        <time>2018-06-20T14:29:39.008Z</time>
      </trkpt>
      <trkpt lat="43.9491" lon="7.1506">
        <ele>507</ele>
        <time>2018-06-20T14:29:46.008Z</time>
      </trkpt>
      <trkpt lat="43.94907" lon="7.1507">
        <ele>504</ele>
        <time>2018-06-20T14:29:52.008Z</time>
      </trkpt>
      <trkpt lat="43.949" lon="7.15073">
        <ele>505</ele>
        <time>2018-06-20T14:30:00.008Z</time>
      </trkpt>
      <trkpt lat="43.94892" lon="7.15075">
        <ele>507</ele>
        <time>2018-06-20T14:30:08.008Z</time>
      </trkpt>
      <trkpt lat="43.94885" lon="7.15077">
        <ele>509</ele>
        <time>2018-06-20T14:30:14.008Z</time>
      </trkpt>
      <trkpt lat="43.94878" lon="7.15078">
        <ele>511</ele>
        <time>2018-06-20T14:30:26.008Z</time>
      </trkpt>
      <trkpt lat="43.94873" lon="7.15081">
        <ele>511</ele>
        <time>2018-06-20T14:30:34.008Z</time>
      </trkpt>
      <trkpt lat="43.94868" lon="7.1508">
        <ele>512</ele>
        <time>2018-06-20T14:30:47.008Z</time>
      </trkpt>
      <trkpt lat="43.94864" lon="7.15078">
        <ele>513</ele>
        <time>2018-06-20T14:30:58.008Z</time>
      </trkpt>
      <trkpt lat="43.94859" lon="7.15077">
        <ele>514</ele>
        <time>2018-06-20T14:31:10.008Z</time>
      </trkpt>
      <trkpt lat="43.94854" lon="7.15077">
        <ele>515</ele>
        <time>2018-06-20T14:31:19.008Z</time>
      </trkpt>
      <trkpt lat="43.9485" lon="7.15076">
        <ele>515</ele>
        <time>2018-06-20T14:31:23.008Z</time>
      </trkpt>
      <trkpt lat="43.94845" lon="7.15075">
        <ele>515</ele>
        <time>2018-06-20T14:31:31.008Z</time>
      </trkpt>
      <trkpt lat="43.94841" lon="7.15071">
        <ele>516</ele>
        <time>2018-06-20T14:31:34.008Z</time>
      </trkpt>
      <trkpt lat="43.94837" lon="7.1507">
        <ele>516</ele>
        <time>2018-06-20T14:31:37.008Z</time>
      </trkpt>
      <trkpt lat="43.94831" lon="7.15069">
        <ele>520</ele>
        <time>2018-06-20T14:31:40.008Z</time>
      </trkpt>
      <trkpt lat="43.94823" lon="7.1507">
        <ele>521</ele>
        <time>2018-06-20T14:31:45.008Z</time>
      </trkpt>
      <trkpt lat="43.94817" lon="7.15072">
        <ele>521</ele>
        <time>2018-06-20T14:31:48.008Z</time>
      </trkpt>
      <trkpt lat="43.94811" lon="7.15075">
        <ele>522</ele>
        <time>2018-06-20T14:31:51.008Z</time>
      </trkpt>
      <trkpt lat="43.94804" lon="7.15077">
        <ele>522</ele>
        <time>2018-06-20T14:31:55.008Z</time>
      </trkpt>
      <trkpt lat="43.94799" lon="7.15081">
        <ele>522</ele>
        <time>2018-06-20T14:31:58.008Z</time>
      </trkpt>
      <trkpt lat="43.94794" lon="7.15085">
        <ele>512</ele>
        <time>2018-06-20T14:32:01.008Z</time>
      </trkpt>
      <trkpt lat="43.94789" lon="7.1509">
        <ele>512</ele>
        <time>2018-06-20T14:32:04.008Z</time>
      </trkpt>
      <trkpt lat="43.94785" lon="7.15095">
        <ele>512</ele>
        <time>2018-06-20T14:32:07.008Z</time>
      </trkpt>
      <trkpt lat="43.94779" lon="7.15102">
        <ele>512</ele>
        <time>2018-06-20T14:32:11.008Z</time>
      </trkpt>
      <trkpt lat="43.94776" lon="7.15109">
        <ele>512</ele>
        <time>2018-06-20T14:32:14.008Z</time>
      </trkpt>
      <trkpt lat="43.94773" lon="7.15117">
        <ele>511</ele>
        <time>2018-06-20T14:32:17.008Z</time>
      </trkpt>
      <trkpt lat="43.9477" lon="7.15123">
        <ele>510</ele>
        <time>2018-06-20T14:32:20.008Z</time>
      </trkpt>
      <trkpt lat="43.94766" lon="7.1513">
        <ele>510</ele>
        <time>2018-06-20T14:32:23.008Z</time>
      </trkpt>
      <trkpt lat="43.94761" lon="7.15135">
        <ele>509</ele>
        <time>2018-06-20T14:32:26.008Z</time>
      </trkpt>
      <trkpt lat="43.94755" lon="7.15139">
        <ele>509</ele>
        <time>2018-06-20T14:32:29.008Z</time>
      </trkpt>
      <trkpt lat="43.94749" lon="7.15143">
        <ele>514</ele>
        <time>2018-06-20T14:32:32.008Z</time>
      </trkpt>
      <trkpt lat="43.94741" lon="7.15148">
        <ele>514</ele>
        <time>2018-06-20T14:32:36.008Z</time>
      </trkpt>
      <trkpt lat="43.94737" lon="7.15151">
        <ele>514</ele>
        <time>2018-06-20T14:32:38.008Z</time>
      </trkpt>
      <trkpt lat="43.94732" lon="7.15155">
        <ele>514</ele>
        <time>2018-06-20T14:32:41.008Z</time>
      </trkpt>
      <trkpt lat="43.94725" lon="7.15159">
        <ele>514</ele>
        <time>2018-06-20T14:32:44.008Z</time>
      </trkpt>
      <trkpt lat="43.94717" lon="7.15164">
        <ele>515</ele>
        <time>2018-06-20T14:32:48.008Z</time>
      </trkpt>
      <trkpt lat="43.94711" lon="7.15167">
        <ele>506</ele>
        <time>2018-06-20T14:32:51.008Z</time>
      </trkpt>
      <trkpt lat="43.94701" lon="7.15164">
        <ele>517</ele>
        <time>2018-06-20T14:32:56.008Z</time>
      </trkpt>
      <trkpt lat="43.94692" lon="7.15155">
        <ele>518</ele>
        <time>2018-06-20T14:33:01.008Z</time>
      </trkpt>
      <trkpt lat="43.94684" lon="7.15146">
        <ele>518</ele>
        <time>2018-06-20T14:33:06.008Z</time>
      </trkpt>
      <trkpt lat="43.94678" lon="7.15138">
        <ele>518</ele>
        <time>2018-06-20T14:33:10.008Z</time>
      </trkpt>
      <trkpt lat="43.94673" lon="7.15131">
        <ele>519</ele>
        <time>2018-06-20T14:33:13.008Z</time>
      </trkpt>
      <trkpt lat="43.9467" lon="7.15126">
        <ele>519</ele>
        <time>2018-06-20T14:33:50.008Z</time>
      </trkpt>
      <trkpt lat="43.94678" lon="7.15124">
        <ele>519</ele>
        <time>2018-06-20T14:37:05.008Z</time>
      </trkpt>
      <trkpt lat="43.94687" lon="7.15118">
        <ele>519</ele>
        <time>2018-06-20T14:37:10.008Z</time>
      </trkpt>
      <trkpt lat="43.94693" lon="7.15114">
        <ele>519</ele>
        <time>2018-06-20T14:37:12.008Z</time>
      </trkpt>
      <trkpt lat="43.947" lon="7.1511">
        <ele>519</ele>
        <time>2018-06-20T14:37:14.008Z</time>
      </trkpt>
      <trkpt lat="43.9471" lon="7.15105">
        <ele>519</ele>
        <time>2018-06-20T14:37:18.008Z</time>
      </trkpt>
      <trkpt lat="43.94718" lon="7.15099">
        <ele>519</ele>
        <time>2018-06-20T14:37:23.008Z</time>
      </trkpt>
      <trkpt lat="43.94725" lon="7.15098">
        <ele>519</ele>
        <time>2018-06-20T14:37:27.008Z</time>
      </trkpt>
      <trkpt lat="43.94732" lon="7.15097">
        <ele>519</ele>
        <time>2018-06-20T14:37:31.008Z</time>
      </trkpt>
      <trkpt lat="43.94741" lon="7.15095">
        <ele>520</ele>
        <time>2018-06-20T14:37:36.008Z</time>
      </trkpt>
      <trkpt lat="43.9475" lon="7.15092">
        <ele>521</ele>
        <time>2018-06-20T14:37:40.008Z</time>
      </trkpt>
      <trkpt lat="43.94758" lon="7.15081">
        <ele>523</ele>
        <time>2018-06-20T14:37:45.008Z</time>
      </trkpt>
      <trkpt lat="43.94765" lon="7.15073">
        <ele>523</ele>
        <time>2018-06-20T14:37:49.008Z</time>
      </trkpt>
      <trkpt lat="43.94771" lon="7.15064">
        <ele>524</ele>
        <time>2018-06-20T14:37:54.008Z</time>
      </trkpt>
      <trkpt lat="43.94775" lon="7.15056">
        <ele>524</ele>
        <time>2018-06-20T14:37:58.008Z</time>
      </trkpt>
      <trkpt lat="43.94779" lon="7.15046">
        <ele>525</ele>
        <time>2018-06-20T14:38:02.008Z</time>
      </trkpt>
      <trkpt lat="43.94786" lon="7.15035">
        <ele>525</ele>
        <time>2018-06-20T14:38:07.008Z</time>
      </trkpt>
      <trkpt lat="43.94794" lon="7.15028">
        <ele>526</ele>
        <time>2018-06-20T14:38:14.008Z</time>
      </trkpt>
      <trkpt lat="43.94801" lon="7.15025">
        <ele>527</ele>
        <time>2018-06-20T14:38:19.008Z</time>
      </trkpt>
      <trkpt lat="43.94811" lon="7.15025">
        <ele>527</ele>
        <time>2018-06-20T14:38:28.008Z</time>
      </trkpt>
      <trkpt lat="43.94819" lon="7.15028">
        <ele>527</ele>
        <time>2018-06-20T14:38:35.008Z</time>
      </trkpt>
      <trkpt lat="43.94834" lon="7.15026">
        <ele>523</ele>
        <time>2018-06-20T14:38:48.008Z</time>
      </trkpt>
      <trkpt lat="43.94839" lon="7.15023">
        <ele>523</ele>
        <time>2018-06-20T14:38:52.008Z</time>
      </trkpt>
      <trkpt lat="43.94843" lon="7.15019">
        <ele>524</ele>
        <time>2018-06-20T14:38:56.008Z</time>
      </trkpt>
      <trkpt lat="43.94847" lon="7.15014">
        <ele>525</ele>
        <time>2018-06-20T14:39:00.008Z</time>
      </trkpt>
      <trkpt lat="43.94851" lon="7.15008">
        <ele>524</ele>
        <time>2018-06-20T14:39:05.008Z</time>
      </trkpt>
      <trkpt lat="43.94856" lon="7.15002">
        <ele>523</ele>
        <time>2018-06-20T14:39:10.008Z</time>
      </trkpt>
      <trkpt lat="43.94861" lon="7.14995">
        <ele>531</ele>
        <time>2018-06-20T14:39:15.008Z</time>
      </trkpt>
      <trkpt lat="43.94865" lon="7.14988">
        <ele>531</ele>
        <time>2018-06-20T14:39:20.008Z</time>
      </trkpt>
      <trkpt lat="43.94868" lon="7.14977">
        <ele>531</ele>
        <time>2018-06-20T14:39:27.008Z</time>
      </trkpt>
      <trkpt lat="43.94872" lon="7.14963">
        <ele>531</ele>
        <time>2018-06-20T14:39:35.008Z</time>
      </trkpt>
      <trkpt lat="43.94875" lon="7.14956">
        <ele>531</ele>
        <time>2018-06-20T14:39:39.008Z</time>
      </trkpt>
      <trkpt lat="43.94878" lon="7.14949">
        <ele>531</ele>
        <time>2018-06-20T14:39:43.008Z</time>
      </trkpt>
      <trkpt lat="43.94881" lon="7.14942">
        <ele>532</ele>
        <time>2018-06-20T14:39:47.008Z</time>
      </trkpt>
      <trkpt lat="43.94883" lon="7.14932">
        <ele>532</ele>
        <time>2018-06-20T14:39:51.008Z</time>
      </trkpt>
      <trkpt lat="43.94886" lon="7.14921">
        <ele>533</ele>
        <time>2018-06-20T14:39:55.008Z</time>
      </trkpt>
      <trkpt lat="43.94888" lon="7.14909">
        <ele>536</ele>
        <time>2018-06-20T14:39:59.008Z</time>
      </trkpt>
      <trkpt lat="43.94891" lon="7.14897">
        <ele>536</ele>
        <time>2018-06-20T14:40:03.008Z</time>
      </trkpt>
      <trkpt lat="43.94895" lon="7.14884">
        <ele>537</ele>
        <time>2018-06-20T14:40:07.008Z</time>
      </trkpt>
      <trkpt lat="43.949" lon="7.1487">
        <ele>537</ele>
        <time>2018-06-20T14:40:11.008Z</time>
      </trkpt>
      <trkpt lat="43.94906" lon="7.14857">
        <ele>538</ele>
        <time>2018-06-20T14:40:15.008Z</time>
      </trkpt>
      <trkpt lat="43.94914" lon="7.14847">
        <ele>539</ele>
        <time>2018-06-20T14:40:19.008Z</time>
      </trkpt>
      <trkpt lat="43.94922" lon="7.14839">
        <ele>539</ele>
        <time>2018-06-20T14:40:23.008Z</time>
      </trkpt>
      <trkpt lat="43.94931" lon="7.14832">
        <ele>544</ele>
        <time>2018-06-20T14:40:28.008Z</time>
      </trkpt>
      <trkpt lat="43.9494" lon="7.14825">
        <ele>545</ele>
        <time>2018-06-20T14:40:34.008Z</time>
      </trkpt>
      <trkpt lat="43.94947" lon="7.14817">
        <ele>546</ele>
        <time>2018-06-20T14:40:39.008Z</time>
      </trkpt>
      <trkpt lat="43.94951" lon="7.14814">
        <ele>547</ele>
        <time>2018-06-20T14:40:42.008Z</time>
      </trkpt>
      <trkpt lat="43.94957" lon="7.14807">
        <ele>547</ele>
        <time>2018-06-20T14:40:47.008Z</time>
      </trkpt>
      <trkpt lat="43.94965" lon="7.148">
        <ele>548</ele>
        <time>2018-06-20T14:40:53.008Z</time>
      </trkpt>
      <trkpt lat="43.94971" lon="7.14797">
        <ele>548</ele>
        <time>2018-06-20T14:40:57.008Z</time>
      </trkpt>
      <trkpt lat="43.94977" lon="7.14793">
        <ele>549</ele>
        <time>2018-06-20T14:41:01.008Z</time>
      </trkpt>
      <trkpt lat="43.94983" lon="7.1479">
        <ele>549</ele>
        <time>2018-06-20T14:41:05.008Z</time>
      </trkpt>
      <trkpt lat="43.9499" lon="7.14788">
        <ele>550</ele>
        <time>2018-06-20T14:41:09.008Z</time>
      </trkpt>
      <trkpt lat="43.94994" lon="7.14785">
        <ele>550</ele>
        <time>2018-06-20T14:41:12.008Z</time>
      </trkpt>
      <trkpt lat="43.95" lon="7.14781">
        <ele>546</ele>
        <time>2018-06-20T14:41:16.008Z</time>
      </trkpt>
      <trkpt lat="43.95005" lon="7.14777">
        <ele>547</ele>
        <time>2018-06-20T14:41:20.008Z</time>
      </trkpt>
      <trkpt lat="43.95011" lon="7.14772">
        <ele>547</ele>
        <time>2018-06-20T14:41:24.008Z</time>
      </trkpt>
      <trkpt lat="43.95016" lon="7.14767">
        <ele>548</ele>
        <time>2018-06-20T14:41:28.008Z</time>
      </trkpt>
      <trkpt lat="43.9502" lon="7.14762">
        <ele>548</ele>
        <time>2018-06-20T14:41:32.008Z</time>
      </trkpt>
      <trkpt lat="43.95023" lon="7.14756">
        <ele>548</ele>
        <time>2018-06-20T14:41:36.008Z</time>
      </trkpt>
      <trkpt lat="43.95026" lon="7.1475">
        <ele>548</ele>
        <time>2018-06-20T14:41:40.008Z</time>
      </trkpt>
      <trkpt lat="43.9503" lon="7.14739">
        <ele>561</ele>
        <time>2018-06-20T14:41:48.008Z</time>
      </trkpt>
      <trkpt lat="43.95034" lon="7.14731">
        <ele>561</ele>
        <time>2018-06-20T14:41:54.008Z</time>
      </trkpt>
      <trkpt lat="43.95041" lon="7.14722">
        <ele>561</ele>
        <time>2018-06-20T14:42:02.008Z</time>
      </trkpt>
      <trkpt lat="43.95048" lon="7.14712">
        <ele>561</ele>
        <time>2018-06-20T14:42:10.008Z</time>
      </trkpt>
      <trkpt lat="43.95052" lon="7.14699">
        <ele>563</ele>
        <time>2018-06-20T14:42:18.008Z</time>
      </trkpt>
      <trkpt lat="43.95057" lon="7.14688">
        <ele>564</ele>
        <time>2018-06-20T14:42:24.008Z</time>
      </trkpt>
      <trkpt lat="43.95063" lon="7.14678">
        <ele>564</ele>
        <time>2018-06-20T14:42:31.008Z</time>
      </trkpt>
      <trkpt lat="43.95069" lon="7.14668">
        <ele>564</ele>
        <time>2018-06-20T14:42:39.008Z</time>
      </trkpt>
      <trkpt lat="43.95075" lon="7.1466">
        <ele>569</ele>
        <time>2018-06-20T14:42:47.008Z</time>
      </trkpt>
      <trkpt lat="43.95084" lon="7.14652">
        <ele>567</ele>
        <time>2018-06-20T14:42:55.008Z</time>
      </trkpt>
      <trkpt lat="43.95094" lon="7.14651">
        <ele>567</ele>
        <time>2018-06-20T14:43:04.008Z</time>
      </trkpt>
      <trkpt lat="43.95099" lon="7.14651">
        <ele>567</ele>
        <time>2018-06-20T14:43:08.008Z</time>
      </trkpt>
      <trkpt lat="43.95105" lon="7.14649">
        <ele>567</ele>
        <time>2018-06-20T14:43:13.008Z</time>
      </trkpt>
      <trkpt lat="43.95111" lon="7.14647">
        <ele>567</ele>
        <time>2018-06-20T14:43:18.008Z</time>
      </trkpt>
      <trkpt lat="43.95115" lon="7.14644">
        <ele>567</ele>
        <time>2018-06-20T14:43:22.008Z</time>
      </trkpt>
      <trkpt lat="43.95121" lon="7.14643">
        <ele>567</ele>
        <time>2018-06-20T14:43:26.008Z</time>
      </trkpt>
      <trkpt lat="43.95127" lon="7.14643">
        <ele>567</ele>
        <time>2018-06-20T14:43:30.008Z</time>
      </trkpt>
      <trkpt lat="43.95131" lon="7.14641">
        <ele>567</ele>
        <time>2018-06-20T14:43:34.008Z</time>
      </trkpt>
      <trkpt lat="43.95137" lon="7.1464">
        <ele>567</ele>
        <time>2018-06-20T14:43:38.008Z</time>
      </trkpt>
      <trkpt lat="43.95141" lon="7.14638">
        <ele>566</ele>
        <time>2018-06-20T14:43:42.008Z</time>
      </trkpt>
      <trkpt lat="43.95149" lon="7.14634">
        <ele>567</ele>
        <time>2018-06-20T14:43:48.008Z</time>
      </trkpt>
      <trkpt lat="43.95155" lon="7.14626">
        <ele>568</ele>
        <time>2018-06-20T14:43:52.008Z</time>
      </trkpt>
      <trkpt lat="43.9516" lon="7.14621">
        <ele>569</ele>
        <time>2018-06-20T14:43:54.008Z</time>
      </trkpt>
      <trkpt lat="43.95166" lon="7.14617">
        <ele>569</ele>
        <time>2018-06-20T14:43:56.008Z</time>
      </trkpt>
      <trkpt lat="43.95172" lon="7.14613">
        <ele>563</ele>
        <time>2018-06-20T14:43:58.008Z</time>
      </trkpt>
      <trkpt lat="43.95177" lon="7.14608">
        <ele>564</ele>
        <time>2018-06-20T14:44:00.008Z</time>
      </trkpt>
      <trkpt lat="43.95183" lon="7.14603">
        <ele>564</ele>
        <time>2018-06-20T14:44:02.008Z</time>
      </trkpt>
      <trkpt lat="43.95189" lon="7.14599">
        <ele>564</ele>
        <time>2018-06-20T14:44:04.008Z</time>
      </trkpt>
      <trkpt lat="43.95195" lon="7.14596">
        <ele>563</ele>
        <time>2018-06-20T14:44:06.008Z</time>
      </trkpt>
      <trkpt lat="43.95202" lon="7.14593">
        <ele>562</ele>
        <time>2018-06-20T14:44:08.008Z</time>
      </trkpt>
      <trkpt lat="43.95208" lon="7.1459">
        <ele>561</ele>
        <time>2018-06-20T14:44:10.008Z</time>
      </trkpt>
      <trkpt lat="43.95215" lon="7.14588">
        <ele>560</ele>
        <time>2018-06-20T14:44:12.008Z</time>
      </trkpt>
      <trkpt lat="43.95219" lon="7.14583">
        <ele>568</ele>
        <time>2018-06-20T14:44:14.008Z</time>
      </trkpt>
      <trkpt lat="43.95223" lon="7.14575">
        <ele>568</ele>
        <time>2018-06-20T14:44:16.008Z</time>
      </trkpt>
      <trkpt lat="43.95228" lon="7.14567">
        <ele>568</ele>
        <time>2018-06-20T14:44:18.008Z</time>
      </trkpt>
      <trkpt lat="43.95233" lon="7.1456">
        <ele>568</ele>
        <time>2018-06-20T14:44:20.008Z</time>
      </trkpt>
      <trkpt lat="43.95237" lon="7.14551">
        <ele>568</ele>
        <time>2018-06-20T14:44:22.008Z</time>
      </trkpt>
      <trkpt lat="43.95241" lon="7.14541">
        <ele>569</ele>
        <time>2018-06-20T14:44:24.008Z</time>
      </trkpt>
      <trkpt lat="43.95245" lon="7.14529">
        <ele>569</ele>
        <time>2018-06-20T14:44:26.008Z</time>
      </trkpt>
      <trkpt lat="43.95248" lon="7.14514">
        <ele>570</ele>
        <time>2018-06-20T14:44:28.008Z</time>
      </trkpt>
      <trkpt lat="43.95254" lon="7.14499">
        <ele>569</ele>
        <time>2018-06-20T14:44:30.008Z</time>
      </trkpt>
      <trkpt lat="43.95262" lon="7.14487">
        <ele>566</ele>
        <time>2018-06-20T14:44:32.008Z</time>
      </trkpt>
      <trkpt lat="43.95271" lon="7.14477">
        <ele>565</ele>
        <time>2018-06-20T14:44:34.008Z</time>
      </trkpt>
      <trkpt lat="43.95281" lon="7.14471">
        <ele>564</ele>
        <time>2018-06-20T14:44:36.008Z</time>
      </trkpt>
      <trkpt lat="43.9529" lon="7.14469">
        <ele>564</ele>
        <time>2018-06-20T14:44:38.008Z</time>
      </trkpt>
      <trkpt lat="43.95297" lon="7.14467">
        <ele>563</ele>
        <time>2018-06-20T14:44:40.008Z</time>
      </trkpt>
      <trkpt lat="43.95305" lon="7.14463">
        <ele>563</ele>
        <time>2018-06-20T14:44:46.008Z</time>
      </trkpt>
      <trkpt lat="43.95316" lon="7.14464">
        <ele>563</ele>
        <time>2018-06-20T14:44:55.008Z</time>
      </trkpt>
      <trkpt lat="43.95325" lon="7.14469">
        <ele>563</ele>
        <time>2018-06-20T14:45:00.008Z</time>
      </trkpt>
      <trkpt lat="43.95336" lon="7.14475">
        <ele>566</ele>
        <time>2018-06-20T14:45:04.008Z</time>
      </trkpt>
      <trkpt lat="43.95344" lon="7.1448">
        <ele>566</ele>
        <time>2018-06-20T14:45:07.008Z</time>
      </trkpt>
      <trkpt lat="43.95354" lon="7.14482">
        <ele>566</ele>
        <time>2018-06-20T14:45:11.008Z</time>
      </trkpt>
      <trkpt lat="43.95363" lon="7.14481">
        <ele>567</ele>
        <time>2018-06-20T14:45:16.008Z</time>
      </trkpt>
      <trkpt lat="43.95368" lon="7.14474">
        <ele>568</ele>
        <time>2018-06-20T14:45:21.008Z</time>
      </trkpt>
      <trkpt lat="43.95375" lon="7.14473">
        <ele>568</ele>
        <time>2018-06-20T14:45:24.008Z</time>
      </trkpt>
      <trkpt lat="43.95383" lon="7.14471">
        <ele>569</ele>
        <time>2018-06-20T14:45:27.008Z</time>
      </trkpt>
      <trkpt lat="43.95392" lon="7.14465">
        <ele>569</ele>
        <time>2018-06-20T14:45:31.008Z</time>
      </trkpt>
      <trkpt lat="43.95394" lon="7.14457">
        <ele>570</ele>
        <time>2018-06-20T14:45:42.008Z</time>
      </trkpt>
      <trkpt lat="43.95389" lon="7.14467">
        <ele>569</ele>
        <time>2018-06-20T14:47:06.008Z</time>
      </trkpt>
      <trkpt lat="43.95377" lon="7.14472">
        <ele>568</ele>
        <time>2018-06-20T14:47:09.008Z</time>
      </trkpt>
      <trkpt lat="43.95367" lon="7.14475">
        <ele>568</ele>
        <time>2018-06-20T14:47:11.008Z</time>
      </trkpt>
      <trkpt lat="43.95357" lon="7.14479">
        <ele>567</ele>
        <time>2018-06-20T14:47:13.008Z</time>
      </trkpt>
      <trkpt lat="43.95347" lon="7.14481">
        <ele>566</ele>
        <time>2018-06-20T14:47:15.008Z</time>
      </trkpt>
      <trkpt lat="43.95334" lon="7.14476">
        <ele>566</ele>
        <time>2018-06-20T14:47:18.008Z</time>
      </trkpt>
      <trkpt lat="43.95325" lon="7.14472">
        <ele>563</ele>
        <time>2018-06-20T14:47:21.008Z</time>
      </trkpt>
      <trkpt lat="43.95318" lon="7.14463">
        <ele>563</ele>
        <time>2018-06-20T14:47:28.008Z</time>
      </trkpt>
      <trkpt lat="43.95308" lon="7.14462">
        <ele>563</ele>
        <time>2018-06-20T14:47:33.008Z</time>
      </trkpt>
      <trkpt lat="43.95299" lon="7.14465">
        <ele>563</ele>
        <time>2018-06-20T14:47:39.008Z</time>
      </trkpt>
      <trkpt lat="43.9529" lon="7.14469">
        <ele>564</ele>
        <time>2018-06-20T14:47:43.008Z</time>
      </trkpt>
      <trkpt lat="43.9528" lon="7.1447">
        <ele>564</ele>
        <time>2018-06-20T14:47:48.008Z</time>
      </trkpt>
      <trkpt lat="43.95291" lon="7.14469">
        <ele>564</ele>
        <time>2018-06-20T14:47:59.008Z</time>
      </trkpt>
      <trkpt lat="43.95298" lon="7.14466">
        <ele>563</ele>
        <time>2018-06-20T14:48:02.008Z</time>
      </trkpt>
      <trkpt lat="43.95306" lon="7.14456">
        <ele>563</ele>
        <time>2018-06-20T14:48:06.008Z</time>
      </trkpt>
      <trkpt lat="43.95311" lon="7.14445">
        <ele>563</ele>
        <time>2018-06-20T14:48:09.008Z</time>
      </trkpt>
      <trkpt lat="43.9532" lon="7.14438">
        <ele>562</ele>
        <time>2018-06-20T14:48:12.008Z</time>
      </trkpt>
      <trkpt lat="43.95327" lon="7.14435">
        <ele>562</ele>
        <time>2018-06-20T14:48:14.008Z</time>
      </trkpt>
      <trkpt lat="43.95335" lon="7.14431">
        <ele>564</ele>
        <time>2018-06-20T14:48:16.008Z</time>
      </trkpt>
      <trkpt lat="43.95343" lon="7.14426">
        <ele>564</ele>
        <time>2018-06-20T14:48:18.008Z</time>
      </trkpt>
      <trkpt lat="43.9535" lon="7.14415">
        <ele>566</ele>
        <time>2018-06-20T14:48:22.008Z</time>
      </trkpt>
      <trkpt lat="43.95351" lon="7.14397">
        <ele>566</ele>
        <time>2018-06-20T14:48:26.008Z</time>
      </trkpt>
      <trkpt lat="43.95349" lon="7.14382">
        <ele>566</ele>
        <time>2018-06-20T14:48:29.008Z</time>
      </trkpt>
      <trkpt lat="43.9535" lon="7.14368">
        <ele>566</ele>
        <time>2018-06-20T14:48:32.008Z</time>
      </trkpt>
      <trkpt lat="43.95358" lon="7.14353">
        <ele>565</ele>
        <time>2018-06-20T14:48:35.008Z</time>
      </trkpt>
      <trkpt lat="43.95365" lon="7.14339">
        <ele>566</ele>
        <time>2018-06-20T14:48:38.008Z</time>
      </trkpt>
      <trkpt lat="43.95371" lon="7.14322">
        <ele>567</ele>
        <time>2018-06-20T14:48:41.008Z</time>
      </trkpt>
      <trkpt lat="43.95378" lon="7.14308">
        <ele>569</ele>
        <time>2018-06-20T14:48:45.008Z</time>
      </trkpt>
      <trkpt lat="43.95384" lon="7.14296">
        <ele>570</ele>
        <time>2018-06-20T14:48:51.008Z</time>
      </trkpt>
      <trkpt lat="43.95375" lon="7.14291">
        <ele>569</ele>
        <time>2018-06-20T14:48:59.008Z</time>
      </trkpt>
      <trkpt lat="43.95365" lon="7.14286">
        <ele>567</ele>
        <time>2018-06-20T14:49:10.008Z</time>
      </trkpt>
      <trkpt lat="43.95356" lon="7.14282">
        <ele>566</ele>
        <time>2018-06-20T14:49:19.008Z</time>
      </trkpt>
      <trkpt lat="43.95346" lon="7.14276">
        <ele>564</ele>
        <time>2018-06-20T14:49:24.008Z</time>
      </trkpt>
      <trkpt lat="43.95338" lon="7.14265">
        <ele>562</ele>
        <time>2018-06-20T14:49:28.008Z</time>
      </trkpt>
      <trkpt lat="43.95334" lon="7.14252">
        <ele>558</ele>
        <time>2018-06-20T14:49:31.008Z</time>
      </trkpt>
      <trkpt lat="43.95335" lon="7.14238">
        <ele>564</ele>
        <time>2018-06-20T14:49:34.008Z</time>
      </trkpt>
      <trkpt lat="43.95341" lon="7.14227">
        <ele>569</ele>
        <time>2018-06-20T14:49:38.008Z</time>
      </trkpt>
      <trkpt lat="43.95328" lon="7.14225">
        <ele>552</ele>
        <time>2018-06-20T14:49:45.008Z</time>
      </trkpt>
      <trkpt lat="43.9532" lon="7.14215">
        <ele>551</ele>
        <time>2018-06-20T14:49:50.008Z</time>
      </trkpt>
      <trkpt lat="43.95321" lon="7.14199">
        <ele>553</ele>
        <time>2018-06-20T14:49:53.008Z</time>
      </trkpt>
      <trkpt lat="43.95323" lon="7.14186">
        <ele>555</ele>
        <time>2018-06-20T14:49:55.008Z</time>
      </trkpt>
      <trkpt lat="43.95326" lon="7.14174">
        <ele>560</ele>
        <time>2018-06-20T14:49:57.008Z</time>
      </trkpt>
      <trkpt lat="43.95327" lon="7.14159">
        <ele>564</ele>
        <time>2018-06-20T14:50:01.008Z</time>
      </trkpt>
      <trkpt lat="43.95316" lon="7.14159">
        <ele>561</ele>
        <time>2018-06-20T14:50:06.008Z</time>
      </trkpt>
      <trkpt lat="43.95309" lon="7.1415">
        <ele>559</ele>
        <time>2018-06-20T14:50:11.008Z</time>
      </trkpt>
      <trkpt lat="43.95304" lon="7.14142">
        <ele>558</ele>
        <time>2018-06-20T14:50:15.008Z</time>
      </trkpt>
      <trkpt lat="43.953" lon="7.14131">
        <ele>558</ele>
        <time>2018-06-20T14:50:19.008Z</time>
      </trkpt>
      <trkpt lat="43.95297" lon="7.14118">
        <ele>558</ele>
        <time>2018-06-20T14:50:23.008Z</time>
      </trkpt>
      <trkpt lat="43.95293" lon="7.14104">
        <ele>558</ele>
        <time>2018-06-20T14:50:28.008Z</time>
      </trkpt>
      <trkpt lat="43.95286" lon="7.14092">
        <ele>557</ele>
        <time>2018-06-20T14:50:32.008Z</time>
      </trkpt>
      <trkpt lat="43.9528" lon="7.1408">
        <ele>562</ele>
        <time>2018-06-20T14:50:36.008Z</time>
      </trkpt>
      <trkpt lat="43.95272" lon="7.14067">
        <ele>561</ele>
        <time>2018-06-20T14:50:40.008Z</time>
      </trkpt>
      <trkpt lat="43.95268" lon="7.14052">
        <ele>563</ele>
        <time>2018-06-20T14:50:44.008Z</time>
      </trkpt>
      <trkpt lat="43.95274" lon="7.1404">
        <ele>565</ele>
        <time>2018-06-20T14:50:48.008Z</time>
      </trkpt>
      <trkpt lat="43.95281" lon="7.1403">
        <ele>567</ele>
        <time>2018-06-20T14:50:51.008Z</time>
      </trkpt>
      <trkpt lat="43.95277" lon="7.14014">
        <ele>566</ele>
        <time>2018-06-20T14:50:55.008Z</time>
      </trkpt>
      <trkpt lat="43.95269" lon="7.14007">
        <ele>564</ele>
        <time>2018-06-20T14:50:58.008Z</time>
      </trkpt>
      <trkpt lat="43.95256" lon="7.14006">
        <ele>561</ele>
        <time>2018-06-20T14:51:02.008Z</time>
      </trkpt>
      <trkpt lat="43.95242" lon="7.14008">
        <ele>551</ele>
        <time>2018-06-20T14:51:05.008Z</time>
      </trkpt>
      <trkpt lat="43.95231" lon="7.14011">
        <ele>547</ele>
        <time>2018-06-20T14:51:07.008Z</time>
      </trkpt>
      <trkpt lat="43.95221" lon="7.14014">
        <ele>544</ele>
        <time>2018-06-20T14:51:09.008Z</time>
      </trkpt>
      <trkpt lat="43.95209" lon="7.14013">
        <ele>542</ele>
        <time>2018-06-20T14:51:12.008Z</time>
      </trkpt>
      <trkpt lat="43.95206" lon="7.13994">
        <ele>552</ele>
        <time>2018-06-20T14:51:15.008Z</time>
      </trkpt>
      <trkpt lat="43.95209" lon="7.1398">
        <ele>553</ele>
        <time>2018-06-20T14:51:18.008Z</time>
      </trkpt>
      <trkpt lat="43.95214" lon="7.13967">
        <ele>554</ele>
        <time>2018-06-20T14:51:27.008Z</time>
      </trkpt>
      <trkpt lat="43.95216" lon="7.13953">
        <ele>556</ele>
        <time>2018-06-20T14:51:42.008Z</time>
      </trkpt>
      <trkpt lat="43.95217" lon="7.13924">
        <ele>557</ele>
        <time>2018-06-20T14:51:57.008Z</time>
      </trkpt>
      <trkpt lat="43.95223" lon="7.13912">
        <ele>565</ele>
        <time>2018-06-20T14:52:07.008Z</time>
      </trkpt>
      <trkpt lat="43.95212" lon="7.13911">
        <ele>564</ele>
        <time>2018-06-20T14:52:34.008Z</time>
      </trkpt>
      <trkpt lat="43.95205" lon="7.13921">
        <ele>557</ele>
        <time>2018-06-20T14:52:53.008Z</time>
      </trkpt>
      <trkpt lat="43.95197" lon="7.1393">
        <ele>556</ele>
        <time>2018-06-20T14:52:57.008Z</time>
      </trkpt>
      <trkpt lat="43.95186" lon="7.13935">
        <ele>555</ele>
        <time>2018-06-20T14:53:02.008Z</time>
      </trkpt>
      <trkpt lat="43.95177" lon="7.13943">
        <ele>554</ele>
        <time>2018-06-20T14:53:09.008Z</time>
      </trkpt>
      <trkpt lat="43.95168" lon="7.1395">
        <ele>553</ele>
        <time>2018-06-20T14:53:13.008Z</time>
      </trkpt>
      <trkpt lat="43.95157" lon="7.13951">
        <ele>541</ele>
        <time>2018-06-20T14:53:20.008Z</time>
      </trkpt>
      <trkpt lat="43.95148" lon="7.13945">
        <ele>541</ele>
        <time>2018-06-20T14:53:27.008Z</time>
      </trkpt>
      <trkpt lat="43.95142" lon="7.13938">
        <ele>541</ele>
        <time>2018-06-20T14:53:32.008Z</time>
      </trkpt>
      <trkpt lat="43.95139" lon="7.13935">
        <ele>541</ele>
        <time>2018-06-20T14:53:34.008Z</time>
      </trkpt>
      <trkpt lat="43.95134" lon="7.13923">
        <ele>541</ele>
        <time>2018-06-20T14:53:40.008Z</time>
      </trkpt>
      <trkpt lat="43.95132" lon="7.13908">
        <ele>548</ele>
        <time>2018-06-20T14:53:46.008Z</time>
      </trkpt>
      <trkpt lat="43.95133" lon="7.13893">
        <ele>549</ele>
        <time>2018-06-20T14:53:53.008Z</time>
      </trkpt>
      <trkpt lat="43.95134" lon="7.13878">
        <ele>550</ele>
        <time>2018-06-20T14:53:59.008Z</time>
      </trkpt>
      <trkpt lat="43.95135" lon="7.13864">
        <ele>551</ele>
        <time>2018-06-20T14:54:05.008Z</time>
      </trkpt>
      <trkpt lat="43.95139" lon="7.1385">
        <ele>553</ele>
        <time>2018-06-20T14:54:11.008Z</time>
      </trkpt>
      <trkpt lat="43.95146" lon="7.13839">
        <ele>556</ele>
        <time>2018-06-20T14:54:16.008Z</time>
      </trkpt>
      <trkpt lat="43.9515" lon="7.13829">
        <ele>564</ele>
        <time>2018-06-20T14:54:20.008Z</time>
      </trkpt>
      <trkpt lat="43.95151" lon="7.13821">
        <ele>564</ele>
        <time>2018-06-20T14:54:23.008Z</time>
      </trkpt>
      <trkpt lat="43.95151" lon="7.13814">
        <ele>564</ele>
        <time>2018-06-20T14:54:25.008Z</time>
      </trkpt>
      <trkpt lat="43.9515" lon="7.13808">
        <ele>564</ele>
        <time>2018-06-20T14:54:27.008Z</time>
      </trkpt>
      <trkpt lat="43.95149" lon="7.13801">
        <ele>565</ele>
        <time>2018-06-20T14:54:29.008Z</time>
      </trkpt>
      <trkpt lat="43.95147" lon="7.13791">
        <ele>565</ele>
        <time>2018-06-20T14:54:32.008Z</time>
      </trkpt>
      <trkpt lat="43.95147" lon="7.1378">
        <ele>567</ele>
        <time>2018-06-20T14:54:35.008Z</time>
      </trkpt>
      <trkpt lat="43.95149" lon="7.13769">
        <ele>569</ele>
        <time>2018-06-20T14:54:39.008Z</time>
      </trkpt>
      <trkpt lat="43.95146" lon="7.13754">
        <ele>570</ele>
        <time>2018-06-20T14:54:43.008Z</time>
      </trkpt>
      <trkpt lat="43.95145" lon="7.13738">
        <ele>582</ele>
        <time>2018-06-20T14:54:49.008Z</time>
      </trkpt>
      <trkpt lat="43.95136" lon="7.13728">
        <ele>583</ele>
        <time>2018-06-20T14:54:57.008Z</time>
      </trkpt>
      <trkpt lat="43.95126" lon="7.13732">
        <ele>582</ele>
        <time>2018-06-20T14:55:03.008Z</time>
      </trkpt>
      <trkpt lat="43.95119" lon="7.13743">
        <ele>579</ele>
        <time>2018-06-20T14:55:07.008Z</time>
      </trkpt>
      <trkpt lat="43.95112" lon="7.13754">
        <ele>564</ele>
        <time>2018-06-20T14:55:12.008Z</time>
      </trkpt>
      <trkpt lat="43.95101" lon="7.13755">
        <ele>563</ele>
        <time>2018-06-20T14:55:19.008Z</time>
      </trkpt>
      <trkpt lat="43.95093" lon="7.13747">
        <ele>570</ele>
        <time>2018-06-20T14:55:25.008Z</time>
      </trkpt>
      <trkpt lat="43.95086" lon="7.13736">
        <ele>572</ele>
        <time>2018-06-20T14:55:31.008Z</time>
      </trkpt>
      <trkpt lat="43.95078" lon="7.13728">
        <ele>569</ele>
        <time>2018-06-20T14:55:37.008Z</time>
      </trkpt>
      <trkpt lat="43.95067" lon="7.13731">
        <ele>569</ele>
        <time>2018-06-20T14:55:42.008Z</time>
      </trkpt>
      <trkpt lat="43.95056" lon="7.13735">
        <ele>568</ele>
        <time>2018-06-20T14:55:49.008Z</time>
      </trkpt>
      <trkpt lat="43.95045" lon="7.13737">
        <ele>568</ele>
        <time>2018-06-20T14:55:55.008Z</time>
      </trkpt>
      <trkpt lat="43.95035" lon="7.13733">
        <ele>567</ele>
        <time>2018-06-20T14:56:02.008Z</time>
      </trkpt>
      <trkpt lat="43.95024" lon="7.1373">
        <ele>566</ele>
        <time>2018-06-20T14:56:08.008Z</time>
      </trkpt>
      <trkpt lat="43.95018" lon="7.13718">
        <ele>568</ele>
        <time>2018-06-20T14:56:14.008Z</time>
      </trkpt>
      <trkpt lat="43.95012" lon="7.13708">
        <ele>569</ele>
        <time>2018-06-20T14:56:19.008Z</time>
      </trkpt>
      <trkpt lat="43.95004" lon="7.13699">
        <ele>571</ele>
        <time>2018-06-20T14:56:25.008Z</time>
      </trkpt>
      <trkpt lat="43.94994" lon="7.13691">
        <ele>568</ele>
        <time>2018-06-20T14:56:30.008Z</time>
      </trkpt>
      <trkpt lat="43.94985" lon="7.13686">
        <ele>569</ele>
        <time>2018-06-20T14:56:35.008Z</time>
      </trkpt>
      <trkpt lat="43.94975" lon="7.1368">
        <ele>569</ele>
        <time>2018-06-20T14:56:41.008Z</time>
      </trkpt>
      <trkpt lat="43.94965" lon="7.13675">
        <ele>569</ele>
        <time>2018-06-20T14:56:47.008Z</time>
      </trkpt>
      <trkpt lat="43.94957" lon="7.13669">
        <ele>569</ele>
        <time>2018-06-20T14:56:53.008Z</time>
      </trkpt>
      <trkpt lat="43.94948" lon="7.13664">
        <ele>577</ele>
        <time>2018-06-20T14:57:00.008Z</time>
      </trkpt>
      <trkpt lat="43.94956" lon="7.13655">
        <ele>577</ele>
        <time>2018-06-20T14:57:27.008Z</time>
      </trkpt>
      <trkpt lat="43.94965" lon="7.13653">
        <ele>577</ele>
        <time>2018-06-20T14:57:40.008Z</time>
      </trkpt>
      <trkpt lat="43.94968" lon="7.13639">
        <ele>577</ele>
        <time>2018-06-20T14:57:54.008Z</time>
      </trkpt>
      <trkpt lat="43.94971" lon="7.13625">
        <ele>577</ele>
        <time>2018-06-20T14:58:08.008Z</time>
      </trkpt>
      <trkpt lat="43.94965" lon="7.13615">
        <ele>577</ele>
        <time>2018-06-20T14:58:12.008Z</time>
      </trkpt>
      <trkpt lat="43.9496" lon="7.13602">
        <ele>577</ele>
        <time>2018-06-20T14:58:15.008Z</time>
      </trkpt>
      <trkpt lat="43.94953" lon="7.13591">
        <ele>577</ele>
        <time>2018-06-20T14:58:18.008Z</time>
      </trkpt>
      <trkpt lat="43.94945" lon="7.13579">
        <ele>572</ele>
        <time>2018-06-20T14:58:21.008Z</time>
      </trkpt>
      <trkpt lat="43.94939" lon="7.13568">
        <ele>571</ele>
        <time>2018-06-20T14:58:24.008Z</time>
      </trkpt>
      <trkpt lat="43.9493" lon="7.13555">
        <ele>570</ele>
        <time>2018-06-20T14:58:28.008Z</time>
      </trkpt>
      <trkpt lat="43.94928" lon="7.1354">
        <ele>568</ele>
        <time>2018-06-20T14:58:34.008Z</time>
      </trkpt>
      <trkpt lat="43.94941" lon="7.13536">
        <ele>567</ele>
        <time>2018-06-20T14:58:38.008Z</time>
      </trkpt>
      <trkpt lat="43.94952" lon="7.13537">
        <ele>568</ele>
        <time>2018-06-20T14:58:40.008Z</time>
      </trkpt>
      <trkpt lat="43.94963" lon="7.13534">
        <ele>568</ele>
        <time>2018-06-20T14:58:43.008Z</time>
      </trkpt>
      <trkpt lat="43.9496" lon="7.13521">
        <ele>567</ele>
        <time>2018-06-20T14:58:49.008Z</time>
      </trkpt>
      <trkpt lat="43.94959" lon="7.13507">
        <ele>566</ele>
        <time>2018-06-20T14:58:55.008Z</time>
      </trkpt>
      <trkpt lat="43.94948" lon="7.13497">
        <ele>554</ele>
        <time>2018-06-20T14:59:00.008Z</time>
      </trkpt>
      <trkpt lat="43.94947" lon="7.13483">
        <ele>554</ele>
        <time>2018-06-20T14:59:07.008Z</time>
      </trkpt>
      <trkpt lat="43.9494" lon="7.13471">
        <ele>552</ele>
        <time>2018-06-20T14:59:18.008Z</time>
      </trkpt>
      <trkpt lat="43.94936" lon="7.13455">
        <ele>550</ele>
        <time>2018-06-20T14:59:24.008Z</time>
      </trkpt>
      <trkpt lat="43.9493" lon="7.13443">
        <ele>547</ele>
        <time>2018-06-20T14:59:27.008Z</time>
      </trkpt>
      <trkpt lat="43.94921" lon="7.13429">
        <ele>542</ele>
        <time>2018-06-20T14:59:30.008Z</time>
      </trkpt>
      <trkpt lat="43.94911" lon="7.13427">
        <ele>538</ele>
        <time>2018-06-20T14:59:33.008Z</time>
      </trkpt>
      <trkpt lat="43.94899" lon="7.13422">
        <ele>539</ele>
        <time>2018-06-20T14:59:36.008Z</time>
      </trkpt>
      <trkpt lat="43.94886" lon="7.1342">
        <ele>540</ele>
        <time>2018-06-20T14:59:40.008Z</time>
      </trkpt>
      <trkpt lat="43.94875" lon="7.13427">
        <ele>541</ele>
        <time>2018-06-20T14:59:45.008Z</time>
      </trkpt>
      <trkpt lat="43.94868" lon="7.13416">
        <ele>530</ele>
        <time>2018-06-20T15:00:09.008Z</time>
      </trkpt>
      <trkpt lat="43.94866" lon="7.134">
        <ele>529</ele>
        <time>2018-06-20T15:00:16.008Z</time>
      </trkpt>
      <trkpt lat="43.94869" lon="7.13385">
        <ele>528</ele>
        <time>2018-06-20T15:00:20.008Z</time>
      </trkpt>
      <trkpt lat="43.94869" lon="7.1337">
        <ele>526</ele>
        <time>2018-06-20T15:00:24.008Z</time>
      </trkpt>
      <trkpt lat="43.94869" lon="7.13351">
        <ele>525</ele>
        <time>2018-06-20T15:00:28.008Z</time>
      </trkpt>
      <trkpt lat="43.94867" lon="7.13336">
        <ele>524</ele>
        <time>2018-06-20T15:00:31.008Z</time>
      </trkpt>
      <trkpt lat="43.94857" lon="7.13329">
        <ele>517</ele>
        <time>2018-06-20T15:00:37.008Z</time>
      </trkpt>
      <trkpt lat="43.94852" lon="7.13314">
        <ele>516</ele>
        <time>2018-06-20T15:00:44.008Z</time>
      </trkpt>
      <trkpt lat="43.94857" lon="7.13299">
        <ele>514</ele>
        <time>2018-06-20T15:00:47.008Z</time>
      </trkpt>
      <trkpt lat="43.94861" lon="7.13282">
        <ele>513</ele>
        <time>2018-06-20T15:00:51.008Z</time>
      </trkpt>
      <trkpt lat="43.94861" lon="7.13266">
        <ele>511</ele>
        <time>2018-06-20T15:00:55.008Z</time>
      </trkpt>
      <trkpt lat="43.94862" lon="7.13251">
        <ele>511</ele>
        <time>2018-06-20T15:00:59.008Z</time>
      </trkpt>
      <trkpt lat="43.94862" lon="7.13235">
        <ele>505</ele>
        <time>2018-06-20T15:01:04.008Z</time>
      </trkpt>
      <trkpt lat="43.94858" lon="7.13204">
        <ele>504</ele>
        <time>2018-06-20T15:01:13.008Z</time>
      </trkpt>
      <trkpt lat="43.94849" lon="7.13194">
        <ele>502</ele>
        <time>2018-06-20T15:01:16.008Z</time>
      </trkpt>
      <trkpt lat="43.94837" lon="7.13186">
        <ele>499</ele>
        <time>2018-06-20T15:01:19.008Z</time>
      </trkpt>
      <trkpt lat="43.94826" lon="7.13175">
        <ele>493</ele>
        <time>2018-06-20T15:01:22.008Z</time>
      </trkpt>
      <trkpt lat="43.94819" lon="7.13165">
        <ele>486</ele>
        <time>2018-06-20T15:01:24.008Z</time>
      </trkpt>
      <trkpt lat="43.94809" lon="7.13152">
        <ele>483</ele>
        <time>2018-06-20T15:01:27.008Z</time>
      </trkpt>
      <trkpt lat="43.94801" lon="7.13138">
        <ele>481</ele>
        <time>2018-06-20T15:01:30.008Z</time>
      </trkpt>
      <trkpt lat="43.94792" lon="7.13127">
        <ele>480</ele>
        <time>2018-06-20T15:01:33.008Z</time>
      </trkpt>
      <trkpt lat="43.94782" lon="7.13118">
        <ele>478</ele>
        <time>2018-06-20T15:01:37.008Z</time>
      </trkpt>
      <trkpt lat="43.94775" lon="7.13107">
        <ele>476</ele>
        <time>2018-06-20T15:01:42.008Z</time>
      </trkpt>
      <trkpt lat="43.9477" lon="7.13095">
        <ele>473</ele>
        <time>2018-06-20T15:01:46.008Z</time>
      </trkpt>
      <trkpt lat="43.94766" lon="7.13081">
        <ele>462</ele>
        <time>2018-06-20T15:01:51.008Z</time>
      </trkpt>
      <trkpt lat="43.94756" lon="7.13072">
        <ele>462</ele>
        <time>2018-06-20T15:01:58.008Z</time>
      </trkpt>
      <trkpt lat="43.94745" lon="7.13072">
        <ele>456</ele>
        <time>2018-06-20T15:02:02.008Z</time>
      </trkpt>
      <trkpt lat="43.94735" lon="7.13075">
        <ele>454</ele>
        <time>2018-06-20T15:02:06.008Z</time>
      </trkpt>
      <trkpt lat="43.94724" lon="7.13074">
        <ele>451</ele>
        <time>2018-06-20T15:02:09.008Z</time>
      </trkpt>
      <trkpt lat="43.94713" lon="7.13072">
        <ele>450</ele>
        <time>2018-06-20T15:02:12.008Z</time>
      </trkpt>
      <trkpt lat="43.94704" lon="7.13062">
        <ele>448</ele>
        <time>2018-06-20T15:02:16.008Z</time>
      </trkpt>
      <trkpt lat="43.94696" lon="7.13052">
        <ele>446</ele>
        <time>2018-06-20T15:02:30.008Z</time>
      </trkpt>
      <trkpt lat="43.94688" lon="7.13042">
        <ele>443</ele>
        <time>2018-06-20T15:02:36.008Z</time>
      </trkpt>
      <trkpt lat="43.94677" lon="7.1304">
        <ele>442</ele>
        <time>2018-06-20T15:02:41.008Z</time>
      </trkpt>
      <trkpt lat="43.94665" lon="7.13035">
        <ele>432</ele>
        <time>2018-06-20T15:02:45.008Z</time>
      </trkpt>
      <trkpt lat="43.94652" lon="7.13032">
        <ele>431</ele>
        <time>2018-06-20T15:02:49.008Z</time>
      </trkpt>
      <trkpt lat="43.94641" lon="7.13035">
        <ele>431</ele>
        <time>2018-06-20T15:02:53.008Z</time>
      </trkpt>
      <trkpt lat="43.94629" lon="7.13041">
        <ele>431</ele>
        <time>2018-06-20T15:02:56.008Z</time>
      </trkpt>
      <trkpt lat="43.94615" lon="7.1305">
        <ele>431</ele>
        <time>2018-06-20T15:02:59.008Z</time>
      </trkpt>
      <trkpt lat="43.94605" lon="7.13053">
        <ele>431</ele>
        <time>2018-06-20T15:03:01.008Z</time>
      </trkpt>
      <trkpt lat="43.94592" lon="7.13059">
        <ele>432</ele>
        <time>2018-06-20T15:03:04.008Z</time>
      </trkpt>
      <trkpt lat="43.94583" lon="7.13065">
        <ele>425</ele>
        <time>2018-06-20T15:03:07.008Z</time>
      </trkpt>
      <trkpt lat="43.94572" lon="7.13062">
        <ele>422</ele>
        <time>2018-06-20T15:03:11.008Z</time>
      </trkpt>
      <trkpt lat="43.94562" lon="7.13057">
        <ele>419</ele>
        <time>2018-06-20T15:03:17.008Z</time>
      </trkpt>
      <trkpt lat="43.94552" lon="7.13046">
        <ele>416</ele>
        <time>2018-06-20T15:03:22.008Z</time>
      </trkpt>
      <trkpt lat="43.94547" lon="7.13034">
        <ele>414</ele>
        <time>2018-06-20T15:03:27.008Z</time>
      </trkpt>
      <trkpt lat="43.94543" lon="7.13004">
        <ele>410</ele>
        <time>2018-06-20T15:03:39.008Z</time>
      </trkpt>
      <trkpt lat="43.94533" lon="7.12997">
        <ele>397</ele>
        <time>2018-06-20T15:03:42.008Z</time>
      </trkpt>
      <trkpt lat="43.94521" lon="7.12993">
        <ele>396</ele>
        <time>2018-06-20T15:03:44.008Z</time>
      </trkpt>
      <trkpt lat="43.94507" lon="7.12993">
        <ele>396</ele>
        <time>2018-06-20T15:03:47.008Z</time>
      </trkpt>
      <trkpt lat="43.94494" lon="7.12994">
        <ele>394</ele>
        <time>2018-06-20T15:03:50.008Z</time>
      </trkpt>
      <trkpt lat="43.94486" lon="7.12985">
        <ele>391</ele>
        <time>2018-06-20T15:03:53.008Z</time>
      </trkpt>
      <trkpt lat="43.94475" lon="7.12982">
        <ele>389</ele>
        <time>2018-06-20T15:03:57.008Z</time>
      </trkpt>
      <trkpt lat="43.94484" lon="7.12976">
        <ele>389</ele>
        <time>2018-06-20T15:04:07.008Z</time>
      </trkpt>
      <trkpt lat="43.94495" lon="7.12979">
        <ele>390</ele>
        <time>2018-06-20T15:04:19.008Z</time>
      </trkpt>
      <trkpt lat="43.94506" lon="7.12982">
        <ele>396</ele>
        <time>2018-06-20T15:04:24.008Z</time>
      </trkpt>
      <trkpt lat="43.94519" lon="7.12977">
        <ele>396</ele>
        <time>2018-06-20T15:04:27.008Z</time>
      </trkpt>
      <trkpt lat="43.9453" lon="7.12977">
        <ele>396</ele>
        <time>2018-06-20T15:04:29.008Z</time>
      </trkpt>
      <trkpt lat="43.94541" lon="7.1298">
        <ele>397</ele>
        <time>2018-06-20T15:04:31.008Z</time>
      </trkpt>
      <trkpt lat="43.94556" lon="7.12989">
        <ele>399</ele>
        <time>2018-06-20T15:04:33.008Z</time>
      </trkpt>
      <trkpt lat="43.94569" lon="7.12998">
        <ele>402</ele>
        <time>2018-06-20T15:04:35.008Z</time>
      </trkpt>
      <trkpt lat="43.94582" lon="7.13005">
        <ele>408</ele>
        <time>2018-06-20T15:04:37.008Z</time>
      </trkpt>
      <trkpt lat="43.94597" lon="7.13002">
        <ele>416</ele>
        <time>2018-06-20T15:04:39.008Z</time>
      </trkpt>
      <trkpt lat="43.94603" lon="7.12997">
        <ele>408</ele>
        <time>2018-06-20T15:04:40.008Z</time>
      </trkpt>
      <trkpt lat="43.94617" lon="7.12985">
        <ele>409</ele>
        <time>2018-06-20T15:04:42.008Z</time>
      </trkpt>
      <trkpt lat="43.94615" lon="7.12967">
        <ele>408</ele>
        <time>2018-06-20T15:04:44.008Z</time>
      </trkpt>
      <trkpt lat="43.94606" lon="7.12956">
        <ele>407</ele>
        <time>2018-06-20T15:04:45.008Z</time>
      </trkpt>
      <trkpt lat="43.94592" lon="7.12942">
        <ele>404</ele>
        <time>2018-06-20T15:04:47.008Z</time>
      </trkpt>
      <trkpt lat="43.94581" lon="7.12931">
        <ele>397</ele>
        <time>2018-06-20T15:04:49.008Z</time>
      </trkpt>
      <trkpt lat="43.94572" lon="7.12921">
        <ele>396</ele>
        <time>2018-06-20T15:04:51.008Z</time>
      </trkpt>
      <trkpt lat="43.94565" lon="7.12913">
        <ele>396</ele>
        <time>2018-06-20T15:04:53.008Z</time>
      </trkpt>
      <trkpt lat="43.94558" lon="7.12904">
        <ele>395</ele>
        <time>2018-06-20T15:04:56.008Z</time>
      </trkpt>
      <trkpt lat="43.9455" lon="7.12899">
        <ele>394</ele>
        <time>2018-06-20T15:04:59.008Z</time>
      </trkpt>
      <trkpt lat="43.94543" lon="7.12895">
        <ele>394</ele>
        <time>2018-06-20T15:05:02.008Z</time>
      </trkpt>
      <trkpt lat="43.94536" lon="7.12889">
        <ele>393</ele>
        <time>2018-06-20T15:05:05.008Z</time>
      </trkpt>
      <trkpt lat="43.94528" lon="7.1288">
        <ele>393</ele>
        <time>2018-06-20T15:05:09.008Z</time>
      </trkpt>
      <trkpt lat="43.9452" lon="7.12876">
        <ele>392</ele>
        <time>2018-06-20T15:05:12.008Z</time>
      </trkpt>
      <trkpt lat="43.94513" lon="7.12871">
        <ele>392</ele>
        <time>2018-06-20T15:05:15.008Z</time>
      </trkpt>
      <trkpt lat="43.94504" lon="7.12865">
        <ele>392</ele>
        <time>2018-06-20T15:05:19.008Z</time>
      </trkpt>
      <trkpt lat="43.94495" lon="7.12853">
        <ele>381</ele>
        <time>2018-06-20T15:05:24.008Z</time>
      </trkpt>
      <trkpt lat="43.94488" lon="7.12844">
        <ele>382</ele>
        <time>2018-06-20T15:05:28.008Z</time>
      </trkpt>
      <trkpt lat="43.94482" lon="7.12831">
        <ele>382</ele>
        <time>2018-06-20T15:05:32.008Z</time>
      </trkpt>
      <trkpt lat="43.94484" lon="7.12816">
        <ele>381</ele>
        <time>2018-06-20T15:05:36.008Z</time>
      </trkpt>
      <trkpt lat="43.94493" lon="7.12806">
        <ele>381</ele>
        <time>2018-06-20T15:05:40.008Z</time>
      </trkpt>
      <trkpt lat="43.94503" lon="7.12801">
        <ele>394</ele>
        <time>2018-06-20T15:05:44.008Z</time>
      </trkpt>
      <trkpt lat="43.94512" lon="7.12797">
        <ele>395</ele>
        <time>2018-06-20T15:05:48.008Z</time>
      </trkpt>
      <trkpt lat="43.94522" lon="7.12793">
        <ele>396</ele>
        <time>2018-06-20T15:05:52.008Z</time>
      </trkpt>
      <trkpt lat="43.94532" lon="7.12784">
        <ele>397</ele>
        <time>2018-06-20T15:05:57.008Z</time>
      </trkpt>
      <trkpt lat="43.9454" lon="7.12773">
        <ele>398</ele>
        <time>2018-06-20T15:06:02.008Z</time>
      </trkpt>
      <trkpt lat="43.94548" lon="7.1276">
        <ele>400</ele>
        <time>2018-06-20T15:06:07.008Z</time>
      </trkpt>
      <trkpt lat="43.94552" lon="7.12747">
        <ele>400</ele>
        <time>2018-06-20T15:06:11.008Z</time>
      </trkpt>
      <trkpt lat="43.94555" lon="7.12732">
        <ele>400</ele>
        <time>2018-06-20T15:06:16.008Z</time>
      </trkpt>
      <trkpt lat="43.94561" lon="7.1272">
        <ele>400</ele>
        <time>2018-06-20T15:06:21.008Z</time>
      </trkpt>
      <trkpt lat="43.94568" lon="7.12707">
        <ele>400</ele>
        <time>2018-06-20T15:06:26.008Z</time>
      </trkpt>
      <trkpt lat="43.94576" lon="7.12698">
        <ele>400</ele>
        <time>2018-06-20T15:06:31.008Z</time>
      </trkpt>
      <trkpt lat="43.94584" lon="7.12689">
        <ele>415</ele>
        <time>2018-06-20T15:06:36.008Z</time>
      </trkpt>
      <trkpt lat="43.94591" lon="7.12679">
        <ele>412</ele>
        <time>2018-06-20T15:06:41.008Z</time>
      </trkpt>
      <trkpt lat="43.94595" lon="7.12666">
        <ele>410</ele>
        <time>2018-06-20T15:06:46.008Z</time>
      </trkpt>
      <trkpt lat="43.94595" lon="7.1265">
        <ele>413</ele>
        <time>2018-06-20T15:06:51.008Z</time>
      </trkpt>
      <trkpt lat="43.94595" lon="7.12635">
        <ele>415</ele>
        <time>2018-06-20T15:06:56.008Z</time>
      </trkpt>
      <trkpt lat="43.94598" lon="7.1262">
        <ele>416</ele>
        <time>2018-06-20T15:07:01.008Z</time>
      </trkpt>
      <trkpt lat="43.94599" lon="7.12604">
        <ele>414</ele>
        <time>2018-06-20T15:07:06.008Z</time>
      </trkpt>
      <trkpt lat="43.94603" lon="7.1259">
        <ele>413</ele>
        <time>2018-06-20T15:07:11.008Z</time>
      </trkpt>
      <trkpt lat="43.94603" lon="7.12576">
        <ele>414</ele>
        <time>2018-06-20T15:07:16.008Z</time>
      </trkpt>
      <trkpt lat="43.94598" lon="7.12561">
        <ele>415</ele>
        <time>2018-06-20T15:07:21.008Z</time>
      </trkpt>
      <trkpt lat="43.94593" lon="7.12548">
        <ele>417</ele>
        <time>2018-06-20T15:07:25.008Z</time>
      </trkpt>
      <trkpt lat="43.9459" lon="7.12531">
        <ele>418</ele>
        <time>2018-06-20T15:07:29.008Z</time>
      </trkpt>
      <trkpt lat="43.94589" lon="7.12517">
        <ele>416</ele>
        <time>2018-06-20T15:07:32.008Z</time>
      </trkpt>
      <trkpt lat="43.94582" lon="7.125">
        <ele>410</ele>
        <time>2018-06-20T15:07:35.008Z</time>
      </trkpt>
      <trkpt lat="43.94574" lon="7.12484">
        <ele>418</ele>
        <time>2018-06-20T15:07:38.008Z</time>
      </trkpt>
      <trkpt lat="43.94571" lon="7.12471">
        <ele>421</ele>
        <time>2018-06-20T15:07:40.008Z</time>
      </trkpt>
      <trkpt lat="43.94569" lon="7.12455">
        <ele>423</ele>
        <time>2018-06-20T15:07:42.008Z</time>
      </trkpt>
      <trkpt lat="43.94568" lon="7.12439">
        <ele>424</ele>
        <time>2018-06-20T15:07:44.008Z</time>
      </trkpt>
      <trkpt lat="43.94571" lon="7.12422">
        <ele>424</ele>
        <time>2018-06-20T15:07:46.008Z</time>
      </trkpt>
      <trkpt lat="43.94578" lon="7.12412">
        <ele>427</ele>
        <time>2018-06-20T15:07:48.008Z</time>
      </trkpt>
      <trkpt lat="43.94584" lon="7.12397">
        <ele>433</ele>
        <time>2018-06-20T15:07:51.008Z</time>
      </trkpt>
      <trkpt lat="43.94583" lon="7.12379">
        <ele>434</ele>
        <time>2018-06-20T15:07:55.008Z</time>
      </trkpt>
      <trkpt lat="43.94582" lon="7.12367">
        <ele>435</ele>
        <time>2018-06-20T15:07:59.008Z</time>
      </trkpt>
      <trkpt lat="43.94576" lon="7.1236">
        <ele>435</ele>
        <time>2018-06-20T15:08:05.008Z</time>
      </trkpt>
      <trkpt lat="43.9457" lon="7.12362">
        <ele>436</ele>
        <time>2018-06-20T15:08:08.008Z</time>
      </trkpt>
      <trkpt lat="43.94563" lon="7.12368">
        <ele>437</ele>
        <time>2018-06-20T15:08:11.008Z</time>
      </trkpt>
      <trkpt lat="43.94558" lon="7.12375">
        <ele>437</ele>
        <time>2018-06-20T15:08:14.008Z</time>
      </trkpt>
      <trkpt lat="43.94553" lon="7.12377">
        <ele>438</ele>
        <time>2018-06-20T15:08:16.008Z</time>
      </trkpt>
      <trkpt lat="43.94548" lon="7.1238">
        <ele>439</ele>
        <time>2018-06-20T15:08:19.008Z</time>
      </trkpt>
      <trkpt lat="43.94542" lon="7.12384">
        <ele>439</ele>
        <time>2018-06-20T15:08:22.008Z</time>
      </trkpt>
      <trkpt lat="43.94539" lon="7.12387">
        <ele>439</ele>
        <time>2018-06-20T15:08:24.008Z</time>
      </trkpt>
      <trkpt lat="43.94535" lon="7.1239">
        <ele>440</ele>
        <time>2018-06-20T15:08:26.008Z</time>
      </trkpt>
      <trkpt lat="43.94532" lon="7.12394">
        <ele>440</ele>
        <time>2018-06-20T15:08:28.008Z</time>
      </trkpt>
      <trkpt lat="43.94529" lon="7.12397">
        <ele>440</ele>
        <time>2018-06-20T15:08:30.008Z</time>
      </trkpt>
      <trkpt lat="43.94526" lon="7.12401">
        <ele>440</ele>
        <time>2018-06-20T15:08:32.008Z</time>
      </trkpt>
      <trkpt lat="43.94524" lon="7.12405">
        <ele>440</ele>
        <time>2018-06-20T15:08:34.008Z</time>
      </trkpt>
      <trkpt lat="43.94522" lon="7.12411">
        <ele>440</ele>
        <time>2018-06-20T15:08:36.008Z</time>
      </trkpt>
      <trkpt lat="43.94521" lon="7.12416">
        <ele>440</ele>
        <time>2018-06-20T15:08:38.008Z</time>
      </trkpt>
      <trkpt lat="43.94521" lon="7.12428">
        <ele>431</ele>
        <time>2018-06-20T15:08:42.008Z</time>
      </trkpt>
      <trkpt lat="43.94522" lon="7.12441">
        <ele>429</ele>
        <time>2018-06-20T15:08:46.008Z</time>
      </trkpt>
      <trkpt lat="43.94522" lon="7.12447">
        <ele>428</ele>
        <time>2018-06-20T15:08:48.008Z</time>
      </trkpt>
      <trkpt lat="43.94522" lon="7.12453">
        <ele>428</ele>
        <time>2018-06-20T15:08:50.008Z</time>
      </trkpt>
      <trkpt lat="43.94521" lon="7.12459">
        <ele>427</ele>
        <time>2018-06-20T15:08:52.008Z</time>
      </trkpt>
      <trkpt lat="43.9452" lon="7.12464">
        <ele>426</ele>
        <time>2018-06-20T15:08:54.008Z</time>
      </trkpt>
      <trkpt lat="43.94518" lon="7.1247">
        <ele>426</ele>
        <time>2018-06-20T15:08:56.008Z</time>
      </trkpt>
      <trkpt lat="43.94516" lon="7.12475">
        <ele>426</ele>
        <time>2018-06-20T15:08:58.008Z</time>
      </trkpt>
      <trkpt lat="43.94514" lon="7.12481">
        <ele>425</ele>
        <time>2018-06-20T15:09:00.008Z</time>
      </trkpt>
      <trkpt lat="43.94512" lon="7.12487">
        <ele>425</ele>
        <time>2018-06-20T15:09:02.008Z</time>
      </trkpt>
      <trkpt lat="43.9451" lon="7.12493">
        <ele>425</ele>
        <time>2018-06-20T15:09:04.008Z</time>
      </trkpt>
      <trkpt lat="43.94508" lon="7.12501">
        <ele>421</ele>
        <time>2018-06-20T15:09:07.008Z</time>
      </trkpt>
      <trkpt lat="43.94508" lon="7.12511">
        <ele>419</ele>
        <time>2018-06-20T15:09:10.008Z</time>
      </trkpt>
      <trkpt lat="43.94509" lon="7.1253">
        <ele>415</ele>
        <time>2018-06-20T15:09:16.008Z</time>
      </trkpt>
      <trkpt lat="43.94509" lon="7.12539">
        <ele>414</ele>
        <time>2018-06-20T15:09:19.008Z</time>
      </trkpt>
      <trkpt lat="43.9451" lon="7.12548">
        <ele>413</ele>
        <time>2018-06-20T15:09:22.008Z</time>
      </trkpt>
      <trkpt lat="43.9451" lon="7.12554">
        <ele>412</ele>
        <time>2018-06-20T15:09:24.008Z</time>
      </trkpt>
      <trkpt lat="43.94509" lon="7.1256">
        <ele>412</ele>
        <time>2018-06-20T15:09:26.008Z</time>
      </trkpt>
      <trkpt lat="43.94504" lon="7.12567">
        <ele>412</ele>
        <time>2018-06-20T15:09:29.008Z</time>
      </trkpt>
      <trkpt lat="43.94498" lon="7.12569">
        <ele>418</ele>
        <time>2018-06-20T15:09:32.008Z</time>
      </trkpt>
      <trkpt lat="43.94492" lon="7.12569">
        <ele>419</ele>
        <time>2018-06-20T15:09:35.008Z</time>
      </trkpt>
      <trkpt lat="43.94486" lon="7.1257">
        <ele>420</ele>
        <time>2018-06-20T15:09:38.008Z</time>
      </trkpt>
      <trkpt lat="43.94479" lon="7.12568">
        <ele>421</ele>
        <time>2018-06-20T15:09:41.008Z</time>
      </trkpt>
      <trkpt lat="43.94475" lon="7.12567">
        <ele>422</ele>
        <time>2018-06-20T15:09:43.008Z</time>
      </trkpt>
      <trkpt lat="43.9447" lon="7.12567">
        <ele>423</ele>
        <time>2018-06-20T15:09:45.008Z</time>
      </trkpt>
      <trkpt lat="43.94466" lon="7.12568">
        <ele>424</ele>
        <time>2018-06-20T15:09:47.008Z</time>
      </trkpt>
      <trkpt lat="43.94462" lon="7.1257">
        <ele>424</ele>
        <time>2018-06-20T15:09:49.008Z</time>
      </trkpt>
      <trkpt lat="43.94458" lon="7.12572">
        <ele>424</ele>
        <time>2018-06-20T15:09:51.008Z</time>
      </trkpt>
      <trkpt lat="43.94454" lon="7.12572">
        <ele>425</ele>
        <time>2018-06-20T15:09:53.008Z</time>
      </trkpt>
      <trkpt lat="43.94448" lon="7.12574">
        <ele>425</ele>
        <time>2018-06-20T15:09:56.008Z</time>
      </trkpt>
      <trkpt lat="43.94444" lon="7.12576">
        <ele>425</ele>
        <time>2018-06-20T15:09:58.008Z</time>
      </trkpt>
      <trkpt lat="43.9444" lon="7.12577">
        <ele>426</ele>
        <time>2018-06-20T15:10:00.008Z</time>
      </trkpt>
      <trkpt lat="43.94436" lon="7.12578">
        <ele>426</ele>
        <time>2018-06-20T15:10:02.008Z</time>
      </trkpt>
      <trkpt lat="43.94432" lon="7.12581">
        <ele>426</ele>
        <time>2018-06-20T15:10:04.008Z</time>
      </trkpt>
      <trkpt lat="43.94428" lon="7.12583">
        <ele>426</ele>
        <time>2018-06-20T15:10:06.008Z</time>
      </trkpt>
      <trkpt lat="43.94424" lon="7.12583">
        <ele>421</ele>
        <time>2018-06-20T15:10:08.008Z</time>
      </trkpt>
      <trkpt lat="43.9442" lon="7.12585">
        <ele>423</ele>
        <time>2018-06-20T15:10:10.008Z</time>
      </trkpt>
      <trkpt lat="43.94415" lon="7.12587">
        <ele>424</ele>
        <time>2018-06-20T15:10:12.008Z</time>
      </trkpt>
      <trkpt lat="43.94411" lon="7.12587">
        <ele>423</ele>
        <time>2018-06-20T15:10:14.008Z</time>
      </trkpt>
      <trkpt lat="43.94407" lon="7.12587">
        <ele>422</ele>
        <time>2018-06-20T15:10:16.008Z</time>
      </trkpt>
      <trkpt lat="43.94403" lon="7.12585">
        <ele>421</ele>
        <time>2018-06-20T15:10:18.008Z</time>
      </trkpt>
      <trkpt lat="43.94399" lon="7.12583">
        <ele>431</ele>
        <time>2018-06-20T15:10:20.008Z</time>
      </trkpt>
      <trkpt lat="43.94396" lon="7.12579">
        <ele>432</ele>
        <time>2018-06-20T15:10:22.008Z</time>
      </trkpt>
      <trkpt lat="43.9439" lon="7.12572">
        <ele>433</ele>
        <time>2018-06-20T15:10:26.008Z</time>
      </trkpt>
      <trkpt lat="43.94383" lon="7.12564">
        <ele>434</ele>
        <time>2018-06-20T15:10:30.008Z</time>
      </trkpt>
      <trkpt lat="43.94376" lon="7.12557">
        <ele>435</ele>
        <time>2018-06-20T15:10:34.008Z</time>
      </trkpt>
      <trkpt lat="43.9437" lon="7.12555">
        <ele>436</ele>
        <time>2018-06-20T15:10:37.008Z</time>
      </trkpt>
      <trkpt lat="43.94361" lon="7.12555">
        <ele>436</ele>
        <time>2018-06-20T15:10:41.008Z</time>
      </trkpt>
      <trkpt lat="43.94353" lon="7.12557">
        <ele>435</ele>
        <time>2018-06-20T15:10:45.008Z</time>
      </trkpt>
      <trkpt lat="43.94344" lon="7.12562">
        <ele>434</ele>
        <time>2018-06-20T15:10:49.008Z</time>
      </trkpt>
      <trkpt lat="43.94337" lon="7.1257">
        <ele>433</ele>
        <time>2018-06-20T15:10:53.008Z</time>
      </trkpt>
      <trkpt lat="43.9433" lon="7.12576">
        <ele>431</ele>
        <time>2018-06-20T15:10:57.008Z</time>
      </trkpt>
      <trkpt lat="43.94323" lon="7.12583">
        <ele>432</ele>
        <time>2018-06-20T15:11:01.008Z</time>
      </trkpt>
      <trkpt lat="43.94315" lon="7.12585">
        <ele>423</ele>
        <time>2018-06-20T15:11:05.008Z</time>
      </trkpt>
      <trkpt lat="43.94309" lon="7.12582">
        <ele>433</ele>
        <time>2018-06-20T15:11:08.008Z</time>
      </trkpt>
      <trkpt lat="43.94303" lon="7.1258">
        <ele>433</ele>
        <time>2018-06-20T15:11:11.008Z</time>
      </trkpt>
      <trkpt lat="43.94296" lon="7.12577">
        <ele>433</ele>
        <time>2018-06-20T15:11:14.008Z</time>
      </trkpt>
      <trkpt lat="43.9429" lon="7.12575">
        <ele>433</ele>
        <time>2018-06-20T15:11:17.008Z</time>
      </trkpt>
      <trkpt lat="43.94282" lon="7.12572">
        <ele>433</ele>
        <time>2018-06-20T15:11:21.008Z</time>
      </trkpt>
      <trkpt lat="43.9427" lon="7.12569">
        <ele>433</ele>
        <time>2018-06-20T15:11:27.008Z</time>
      </trkpt>
      <trkpt lat="43.94259" lon="7.12569">
        <ele>432</ele>
        <time>2018-06-20T15:11:33.008Z</time>
      </trkpt>
      <trkpt lat="43.94253" lon="7.12567">
        <ele>432</ele>
        <time>2018-06-20T15:11:37.008Z</time>
      </trkpt>
      <trkpt lat="43.9425" lon="7.12558">
        <ele>430</ele>
        <time>2018-06-20T15:11:42.008Z</time>
      </trkpt>
      <trkpt lat="43.94255" lon="7.12558">
        <ele>433</ele>
        <time>2018-06-20T15:11:57.008Z</time>
      </trkpt>
      <trkpt lat="43.94266" lon="7.12554">
        <ele>433</ele>
        <time>2018-06-20T15:12:06.008Z</time>
      </trkpt>
      <trkpt lat="43.94272" lon="7.1256">
        <ele>433</ele>
        <time>2018-06-20T15:13:17.008Z</time>
      </trkpt>
      <trkpt lat="43.94272" lon="7.1255">
        <ele>433</ele>
        <time>2018-06-20T15:13:44.008Z</time>
      </trkpt>
      <trkpt lat="43.94278" lon="7.12545">
        <ele>434</ele>
        <time>2018-06-20T15:13:49.008Z</time>
      </trkpt>
      <trkpt lat="43.94287" lon="7.12546">
        <ele>434</ele>
        <time>2018-06-20T15:13:54.008Z</time>
      </trkpt>
      <trkpt lat="43.94294" lon="7.12547">
        <ele>434</ele>
        <time>2018-06-20T15:13:58.008Z</time>
      </trkpt>
      <trkpt lat="43.943" lon="7.12549">
        <ele>434</ele>
        <time>2018-06-20T15:14:03.008Z</time>
      </trkpt>
      <trkpt lat="43.94308" lon="7.1255">
        <ele>434</ele>
        <time>2018-06-20T15:14:09.008Z</time>
      </trkpt>
      <trkpt lat="43.94315" lon="7.12551">
        <ele>434</ele>
        <time>2018-06-20T15:14:14.008Z</time>
      </trkpt>
      <trkpt lat="43.9432" lon="7.12549">
        <ele>434</ele>
        <time>2018-06-20T15:14:17.008Z</time>
      </trkpt>
      <trkpt lat="43.94325" lon="7.12545">
        <ele>435</ele>
        <time>2018-06-20T15:14:21.008Z</time>
      </trkpt>
      <trkpt lat="43.94327" lon="7.1254">
        <ele>436</ele>
        <time>2018-06-20T15:14:24.008Z</time>
      </trkpt>
      <trkpt lat="43.9433" lon="7.12533">
        <ele>437</ele>
        <time>2018-06-20T15:14:29.008Z</time>
      </trkpt>
      <trkpt lat="43.94331" lon="7.12521">
        <ele>439</ele>
        <time>2018-06-20T15:14:36.008Z</time>
      </trkpt>
      <trkpt lat="43.94333" lon="7.12509">
        <ele>442</ele>
        <time>2018-06-20T15:14:43.008Z</time>
      </trkpt>
      <trkpt lat="43.94336" lon="7.12499">
        <ele>446</ele>
        <time>2018-06-20T15:14:49.008Z</time>
      </trkpt>
      <trkpt lat="43.94339" lon="7.12491">
        <ele>448</ele>
        <time>2018-06-20T15:14:54.008Z</time>
      </trkpt>
      <trkpt lat="43.94345" lon="7.12481">
        <ele>451</ele>
        <time>2018-06-20T15:15:02.008Z</time>
      </trkpt>
      <trkpt lat="43.9435" lon="7.12475">
        <ele>452</ele>
        <time>2018-06-20T15:15:07.008Z</time>
      </trkpt>
      <trkpt lat="43.94354" lon="7.1247">
        <ele>453</ele>
        <time>2018-06-20T15:15:12.008Z</time>
      </trkpt>
      <trkpt lat="43.9436" lon="7.12462">
        <ele>454</ele>
        <time>2018-06-20T15:15:19.008Z</time>
      </trkpt>
      <trkpt lat="43.94367" lon="7.12454">
        <ele>455</ele>
        <time>2018-06-20T15:15:27.008Z</time>
      </trkpt>
      <trkpt lat="43.94372" lon="7.12449">
        <ele>456</ele>
        <time>2018-06-20T15:15:33.008Z</time>
      </trkpt>
      <trkpt lat="43.94381" lon="7.12442">
        <ele>457</ele>
        <time>2018-06-20T15:15:43.008Z</time>
      </trkpt>
      <trkpt lat="43.9439" lon="7.12441">
        <ele>458</ele>
        <time>2018-06-20T15:15:51.008Z</time>
      </trkpt>
      <trkpt lat="43.944" lon="7.12439">
        <ele>460</ele>
        <time>2018-06-20T15:16:00.008Z</time>
      </trkpt>
      <trkpt lat="43.94407" lon="7.12439">
        <ele>461</ele>
        <time>2018-06-20T15:16:07.008Z</time>
      </trkpt>
      <trkpt lat="43.94416" lon="7.12431">
        <ele>464</ele>
        <time>2018-06-20T15:16:18.008Z</time>
      </trkpt>
      <trkpt lat="43.94421" lon="7.1242">
        <ele>466</ele>
        <time>2018-06-20T15:16:27.008Z</time>
      </trkpt>
      <trkpt lat="43.94421" lon="7.12407">
        <ele>470</ele>
        <time>2018-06-20T15:16:36.008Z</time>
      </trkpt>
      <trkpt lat="43.94418" lon="7.12396">
        <ele>470</ele>
        <time>2018-06-20T15:16:43.008Z</time>
      </trkpt>
      <trkpt lat="43.94411" lon="7.1239">
        <ele>471</ele>
        <time>2018-06-20T15:16:50.008Z</time>
      </trkpt>
      <trkpt lat="43.94408" lon="7.12387">
        <ele>471</ele>
        <time>2018-06-20T15:16:56.008Z</time>
      </trkpt>
      <trkpt lat="43.94405" lon="7.12375">
        <ele>473</ele>
        <time>2018-06-20T15:17:11.008Z</time>
      </trkpt>
      <trkpt lat="43.94402" lon="7.12367">
        <ele>473</ele>
        <time>2018-06-20T15:17:21.008Z</time>
      </trkpt>
      <trkpt lat="43.94398" lon="7.12357">
        <ele>475</ele>
        <time>2018-06-20T15:17:33.008Z</time>
      </trkpt>
      <trkpt lat="43.94395" lon="7.12345">
        <ele>476</ele>
        <time>2018-06-20T15:17:45.008Z</time>
      </trkpt>
      <trkpt lat="43.94395" lon="7.12339">
        <ele>477</ele>
        <time>2018-06-20T15:17:51.008Z</time>
      </trkpt>
      <trkpt lat="43.94396" lon="7.12333">
        <ele>484</ele>
        <time>2018-06-20T15:17:58.008Z</time>
      </trkpt>
      <trkpt lat="43.94401" lon="7.12339">
        <ele>480</ele>
        <time>2018-06-20T15:18:15.008Z</time>
      </trkpt>
      <trkpt lat="43.94403" lon="7.12329">
        <ele>486</ele>
        <time>2018-06-20T15:18:34.008Z</time>
      </trkpt>
      <trkpt lat="43.94405" lon="7.12322">
        <ele>486</ele>
        <time>2018-06-20T15:18:45.008Z</time>
      </trkpt>
      <trkpt lat="43.94407" lon="7.12314">
        <ele>486</ele>
        <time>2018-06-20T15:18:55.008Z</time>
      </trkpt>
      <trkpt lat="43.9441" lon="7.12308">
        <ele>486</ele>
        <time>2018-06-20T15:19:02.008Z</time>
      </trkpt>
      <trkpt lat="43.94413" lon="7.12299">
        <ele>487</ele>
        <time>2018-06-20T15:19:15.008Z</time>
      </trkpt>
      <trkpt lat="43.94416" lon="7.12291">
        <ele>488</ele>
        <time>2018-06-20T15:19:26.008Z</time>
      </trkpt>
      <trkpt lat="43.94419" lon="7.12284">
        <ele>492</ele>
        <time>2018-06-20T15:19:38.008Z</time>
      </trkpt>
      <trkpt lat="43.94424" lon="7.12294">
        <ele>491</ele>
        <time>2018-06-20T15:19:51.008Z</time>
      </trkpt>
      <trkpt lat="43.94429" lon="7.12305">
        <ele>489</ele>
        <time>2018-06-20T15:20:00.008Z</time>
      </trkpt>
      <trkpt lat="43.94432" lon="7.12299">
        <ele>490</ele>
        <time>2018-06-20T15:20:11.008Z</time>
      </trkpt>
      <trkpt lat="43.94432" lon="7.12291">
        <ele>490</ele>
        <time>2018-06-20T15:20:20.008Z</time>
      </trkpt>
      <trkpt lat="43.94431" lon="7.1228">
        <ele>492</ele>
        <time>2018-06-20T15:20:32.008Z</time>
      </trkpt>
      <trkpt lat="43.94431" lon="7.12271">
        <ele>494</ele>
        <time>2018-06-20T15:20:40.008Z</time>
      </trkpt>
      <trkpt lat="43.9443" lon="7.12263">
        <ele>495</ele>
        <time>2018-06-20T15:20:49.008Z</time>
      </trkpt>
      <trkpt lat="43.9444" lon="7.12265">
        <ele>493</ele>
        <time>2018-06-20T15:21:26.008Z</time>
      </trkpt>
      <trkpt lat="43.94444" lon="7.12252">
        <ele>493</ele>
        <time>2018-06-20T15:21:58.008Z</time>
      </trkpt>
      <trkpt lat="43.94441" lon="7.12239">
        <ele>512</ele>
        <time>2018-06-20T15:22:14.008Z</time>
      </trkpt>
      <trkpt lat="43.9444" lon="7.12226">
        <ele>515</ele>
        <time>2018-06-20T15:22:32.008Z</time>
      </trkpt>
      <trkpt lat="43.94439" lon="7.12214">
        <ele>518</ele>
        <time>2018-06-20T15:22:46.008Z</time>
      </trkpt>
      <trkpt lat="43.94434" lon="7.12205">
        <ele>521</ele>
        <time>2018-06-20T15:22:59.008Z</time>
      </trkpt>
      <trkpt lat="43.9443" lon="7.12196">
        <ele>524</ele>
        <time>2018-06-20T15:23:11.008Z</time>
      </trkpt>
      <trkpt lat="43.94424" lon="7.12185">
        <ele>528</ele>
        <time>2018-06-20T15:23:33.008Z</time>
      </trkpt>
      <trkpt lat="43.94421" lon="7.12172">
        <ele>535</ele>
        <time>2018-06-20T15:23:56.008Z</time>
      </trkpt>
      <trkpt lat="43.94415" lon="7.12162">
        <ele>539</ele>
        <time>2018-06-20T15:24:14.008Z</time>
      </trkpt>
      <trkpt lat="43.9441" lon="7.1215">
        <ele>539</ele>
        <time>2018-06-20T15:24:31.008Z</time>
      </trkpt>
      <trkpt lat="43.94406" lon="7.12138">
        <ele>540</ele>
        <time>2018-06-20T15:24:50.008Z</time>
      </trkpt>
      <trkpt lat="43.94402" lon="7.12124">
        <ele>543</ele>
        <time>2018-06-20T15:25:05.008Z</time>
      </trkpt>
      <trkpt lat="43.94399" lon="7.12113">
        <ele>545</ele>
        <time>2018-06-20T15:25:20.008Z</time>
      </trkpt>
      <trkpt lat="43.94398" lon="7.12099">
        <ele>550</ele>
        <time>2018-06-20T15:25:39.008Z</time>
      </trkpt>
      <trkpt lat="43.94399" lon="7.12085">
        <ele>554</ele>
        <time>2018-06-20T15:25:57.008Z</time>
      </trkpt>
      <trkpt lat="43.94399" lon="7.12071">
        <ele>565</ele>
        <time>2018-06-20T15:26:46.008Z</time>
      </trkpt>
      <trkpt lat="43.94395" lon="7.12059">
        <ele>564</ele>
        <time>2018-06-20T15:27:10.008Z</time>
      </trkpt>
      <trkpt lat="43.94395" lon="7.12046">
        <ele>565</ele>
        <time>2018-06-20T15:27:32.008Z</time>
      </trkpt>
      <trkpt lat="43.94391" lon="7.12033">
        <ele>566</ele>
        <time>2018-06-20T15:27:54.008Z</time>
      </trkpt>
      <trkpt lat="43.94384" lon="7.12023">
        <ele>566</ele>
        <time>2018-06-20T15:28:05.008Z</time>
      </trkpt>
      <trkpt lat="43.94385" lon="7.12008">
        <ele>568</ele>
        <time>2018-06-20T15:28:21.008Z</time>
      </trkpt>
      <trkpt lat="43.94386" lon="7.11995">
        <ele>578</ele>
        <time>2018-06-20T15:28:38.008Z</time>
      </trkpt>
      <trkpt lat="43.94386" lon="7.1198">
        <ele>578</ele>
        <time>2018-06-20T15:28:56.008Z</time>
      </trkpt>
      <trkpt lat="43.94384" lon="7.11967">
        <ele>577</ele>
        <time>2018-06-20T15:29:14.008Z</time>
      </trkpt>
      <trkpt lat="43.94385" lon="7.11955">
        <ele>579</ele>
        <time>2018-06-20T15:29:33.008Z</time>
      </trkpt>
      <trkpt lat="43.94391" lon="7.11965">
        <ele>580</ele>
        <time>2018-06-20T15:29:45.008Z</time>
      </trkpt>
      <trkpt lat="43.94399" lon="7.11973">
        <ele>581</ele>
        <time>2018-06-20T15:30:04.008Z</time>
      </trkpt>
      <trkpt lat="43.94406" lon="7.11983">
        <ele>584</ele>
        <time>2018-06-20T15:30:18.008Z</time>
      </trkpt>
      <trkpt lat="43.94414" lon="7.11992">
        <ele>588</ele>
        <time>2018-06-20T15:30:31.008Z</time>
      </trkpt>
      <trkpt lat="43.94424" lon="7.11997">
        <ele>600</ele>
        <time>2018-06-20T15:30:44.008Z</time>
      </trkpt>
      <trkpt lat="43.94432" lon="7.12005">
        <ele>596</ele>
        <time>2018-06-20T15:30:58.008Z</time>
      </trkpt>
      <trkpt lat="43.9444" lon="7.12014">
        <ele>598</ele>
        <time>2018-06-20T15:31:17.008Z</time>
      </trkpt>
      <trkpt lat="43.94448" lon="7.12023">
        <ele>599</ele>
        <time>2018-06-20T15:31:32.008Z</time>
      </trkpt>
      <trkpt lat="43.94457" lon="7.12031">
        <ele>600</ele>
        <time>2018-06-20T15:31:50.008Z</time>
      </trkpt>
      <trkpt lat="43.94464" lon="7.1204">
        <ele>600</ele>
        <time>2018-06-20T15:32:03.008Z</time>
      </trkpt>
      <trkpt lat="43.94472" lon="7.1205">
        <ele>600</ele>
        <time>2018-06-20T15:32:16.008Z</time>
      </trkpt>
      <trkpt lat="43.9448" lon="7.1206">
        <ele>599</ele>
        <time>2018-06-20T15:32:27.008Z</time>
      </trkpt>
      <trkpt lat="43.94489" lon="7.12066">
        <ele>600</ele>
        <time>2018-06-20T15:32:42.008Z</time>
      </trkpt>
      <trkpt lat="43.94499" lon="7.12064">
        <ele>600</ele>
        <time>2018-06-20T15:32:57.008Z</time>
      </trkpt>
      <trkpt lat="43.94499" lon="7.1205">
        <ele>603</ele>
        <time>2018-06-20T15:33:11.008Z</time>
      </trkpt>
      <trkpt lat="43.94502" lon="7.12037">
        <ele>608</ele>
        <time>2018-06-20T15:33:24.008Z</time>
      </trkpt>
      <trkpt lat="43.94505" lon="7.12023">
        <ele>613</ele>
        <time>2018-06-20T15:33:40.008Z</time>
      </trkpt>
      <trkpt lat="43.94511" lon="7.12022">
        <ele>612</ele>
        <time>2018-06-20T15:35:27.008Z</time>
      </trkpt>
      <trkpt lat="43.94511" lon="7.12015">
        <ele>615</ele>
        <time>2018-06-20T15:40:05.008Z</time>
      </trkpt>
      <trkpt lat="43.94512" lon="7.12009">
        <ele>617</ele>
        <time>2018-06-20T15:40:10.008Z</time>
      </trkpt>
      <trkpt lat="43.94514" lon="7.12">
        <ele>632</ele>
        <time>2018-06-20T15:40:28.008Z</time>
      </trkpt>
      <trkpt lat="43.94517" lon="7.11988">
        <ele>634</ele>
        <time>2018-06-20T15:40:40.008Z</time>
      </trkpt>
      <trkpt lat="43.94522" lon="7.11979">
        <ele>635</ele>
        <time>2018-06-20T15:40:54.008Z</time>
      </trkpt>
      <trkpt lat="43.94527" lon="7.11973">
        <ele>636</ele>
        <time>2018-06-20T15:41:08.008Z</time>
      </trkpt>
      <trkpt lat="43.94531" lon="7.11964">
        <ele>638</ele>
        <time>2018-06-20T15:41:25.008Z</time>
      </trkpt>
      <trkpt lat="43.94538" lon="7.11958">
        <ele>638</ele>
        <time>2018-06-20T15:41:33.008Z</time>
      </trkpt>
      <trkpt lat="43.94545" lon="7.11949">
        <ele>640</ele>
        <time>2018-06-20T15:41:45.008Z</time>
      </trkpt>
      <trkpt lat="43.94551" lon="7.11941">
        <ele>642</ele>
        <time>2018-06-20T15:41:57.008Z</time>
      </trkpt>
      <trkpt lat="43.94556" lon="7.11935">
        <ele>644</ele>
        <time>2018-06-20T15:42:11.008Z</time>
      </trkpt>
      <trkpt lat="43.94563" lon="7.11931">
        <ele>646</ele>
        <time>2018-06-20T15:42:26.008Z</time>
      </trkpt>
      <trkpt lat="43.94568" lon="7.11923">
        <ele>649</ele>
        <time>2018-06-20T15:42:40.008Z</time>
      </trkpt>
      <trkpt lat="43.94576" lon="7.11917">
        <ele>653</ele>
        <time>2018-06-20T15:42:59.008Z</time>
      </trkpt>
      <trkpt lat="43.94581" lon="7.11911">
        <ele>662</ele>
        <time>2018-06-20T15:43:11.008Z</time>
      </trkpt>
      <trkpt lat="43.94587" lon="7.11904">
        <ele>659</ele>
        <time>2018-06-20T15:43:20.008Z</time>
      </trkpt>
      <trkpt lat="43.94593" lon="7.11898">
        <ele>659</ele>
        <time>2018-06-20T15:43:32.008Z</time>
      </trkpt>
      <trkpt lat="43.94599" lon="7.11889">
        <ele>660</ele>
        <time>2018-06-20T15:43:43.008Z</time>
      </trkpt>
      <trkpt lat="43.94606" lon="7.11881">
        <ele>660</ele>
        <time>2018-06-20T15:43:53.008Z</time>
      </trkpt>
      <trkpt lat="43.94612" lon="7.11873">
        <ele>661</ele>
        <time>2018-06-20T15:44:09.008Z</time>
      </trkpt>
      <trkpt lat="43.94618" lon="7.11861">
        <ele>663</ele>
        <time>2018-06-20T15:44:19.008Z</time>
      </trkpt>
      <trkpt lat="43.94621" lon="7.11847">
        <ele>665</ele>
        <time>2018-06-20T15:44:39.008Z</time>
      </trkpt>
      <trkpt lat="43.9462" lon="7.11833">
        <ele>692</ele>
        <time>2018-06-20T15:44:54.008Z</time>
      </trkpt>
      <trkpt lat="43.9462" lon="7.11819">
        <ele>694</ele>
        <time>2018-06-20T15:45:13.008Z</time>
      </trkpt>
      <trkpt lat="43.94622" lon="7.11805">
        <ele>696</ele>
        <time>2018-06-20T15:45:31.008Z</time>
      </trkpt>
      <trkpt lat="43.94614" lon="7.11812">
        <ele>696</ele>
        <time>2018-06-20T15:45:58.008Z</time>
      </trkpt>
      <trkpt lat="43.94615" lon="7.11823">
        <ele>695</ele>
        <time>2018-06-20T15:46:07.008Z</time>
      </trkpt>
      <trkpt lat="43.94608" lon="7.11812">
        <ele>697</ele>
        <time>2018-06-20T15:46:34.008Z</time>
      </trkpt>
      <trkpt lat="43.94608" lon="7.11797">
        <ele>700</ele>
        <time>2018-06-20T15:46:50.008Z</time>
      </trkpt>
      <trkpt lat="43.9461" lon="7.11783">
        <ele>703</ele>
        <time>2018-06-20T15:47:05.008Z</time>
      </trkpt>
      <trkpt lat="43.94616" lon="7.11772">
        <ele>705</ele>
        <time>2018-06-20T15:47:18.008Z</time>
      </trkpt>
      <trkpt lat="43.94619" lon="7.1176">
        <ele>707</ele>
        <time>2018-06-20T15:47:30.008Z</time>
      </trkpt>
      <trkpt lat="43.94627" lon="7.11753">
        <ele>706</ele>
        <time>2018-06-20T15:47:39.008Z</time>
      </trkpt>
      <trkpt lat="43.94634" lon="7.11745">
        <ele>730</ele>
        <time>2018-06-20T15:47:52.008Z</time>
      </trkpt>
      <trkpt lat="43.94641" lon="7.11741">
        <ele>729</ele>
        <time>2018-06-20T15:48:03.008Z</time>
      </trkpt>
      <trkpt lat="43.94646" lon="7.11733">
        <ele>729</ele>
        <time>2018-06-20T15:48:16.008Z</time>
      </trkpt>
      <trkpt lat="43.94655" lon="7.11731">
        <ele>728</ele>
        <time>2018-06-20T15:48:29.008Z</time>
      </trkpt>
      <trkpt lat="43.9467" lon="7.1173">
        <ele>724</ele>
        <time>2018-06-20T15:48:48.008Z</time>
      </trkpt>
      <trkpt lat="43.94677" lon="7.1173">
        <ele>725</ele>
        <time>2018-06-20T15:48:59.008Z</time>
      </trkpt>
      <trkpt lat="43.94684" lon="7.1173">
        <ele>726</ele>
        <time>2018-06-20T15:49:15.008Z</time>
      </trkpt>
      <trkpt lat="43.94689" lon="7.11726">
        <ele>729</ele>
        <time>2018-06-20T15:49:31.008Z</time>
      </trkpt>
      <trkpt lat="43.94694" lon="7.1172">
        <ele>731</ele>
        <time>2018-06-20T15:49:47.008Z</time>
      </trkpt>
      <trkpt lat="43.94702" lon="7.11714">
        <ele>734</ele>
        <time>2018-06-20T15:50:02.008Z</time>
      </trkpt>
      <trkpt lat="43.94711" lon="7.11711">
        <ele>735</ele>
        <time>2018-06-20T15:50:12.008Z</time>
      </trkpt>
      <trkpt lat="43.94721" lon="7.11708">
        <ele>736</ele>
        <time>2018-06-20T15:50:23.008Z</time>
      </trkpt>
      <trkpt lat="43.94729" lon="7.1171">
        <ele>736</ele>
        <time>2018-06-20T15:50:32.008Z</time>
      </trkpt>
      <trkpt lat="43.94739" lon="7.11711">
        <ele>735</ele>
        <time>2018-06-20T15:50:48.008Z</time>
      </trkpt>
      <trkpt lat="43.94746" lon="7.11709">
        <ele>736</ele>
        <time>2018-06-20T15:50:58.008Z</time>
      </trkpt>
      <trkpt lat="43.94753" lon="7.11706">
        <ele>740</ele>
        <time>2018-06-20T15:51:10.008Z</time>
      </trkpt>
      <trkpt lat="43.94762" lon="7.11703">
        <ele>741</ele>
        <time>2018-06-20T15:51:27.008Z</time>
      </trkpt>
      <trkpt lat="43.94768" lon="7.11701">
        <ele>742</ele>
        <time>2018-06-20T15:51:39.008Z</time>
      </trkpt>
      <trkpt lat="43.94774" lon="7.11701">
        <ele>742</ele>
        <time>2018-06-20T15:51:49.008Z</time>
      </trkpt>
      <trkpt lat="43.94784" lon="7.11698">
        <ele>742</ele>
        <time>2018-06-20T15:52:11.008Z</time>
      </trkpt>
      <trkpt lat="43.94794" lon="7.11694">
        <ele>744</ele>
        <time>2018-06-20T15:52:29.008Z</time>
      </trkpt>
      <trkpt lat="43.94801" lon="7.11695">
        <ele>744</ele>
        <time>2018-06-20T15:52:43.008Z</time>
      </trkpt>
      <trkpt lat="43.9481" lon="7.1169">
        <ele>746</ele>
        <time>2018-06-20T15:53:04.008Z</time>
      </trkpt>
      <trkpt lat="43.9482" lon="7.11685">
        <ele>750</ele>
        <time>2018-06-20T15:53:24.008Z</time>
      </trkpt>
      <trkpt lat="43.94824" lon="7.11671">
        <ele>757</ele>
        <time>2018-06-20T15:54:04.008Z</time>
      </trkpt>
      <trkpt lat="43.94832" lon="7.11662">
        <ele>768</ele>
        <time>2018-06-20T15:54:24.008Z</time>
      </trkpt>
      <trkpt lat="43.94842" lon="7.11657">
        <ele>768</ele>
        <time>2018-06-20T15:54:36.008Z</time>
      </trkpt>
      <trkpt lat="43.94846" lon="7.11644">
        <ele>770</ele>
        <time>2018-06-20T15:54:48.008Z</time>
      </trkpt>
      <trkpt lat="43.94855" lon="7.11637">
        <ele>771</ele>
        <time>2018-06-20T15:55:04.008Z</time>
      </trkpt>
      <trkpt lat="43.94857" lon="7.11623">
        <ele>774</ele>
        <time>2018-06-20T15:55:23.008Z</time>
      </trkpt>
      <trkpt lat="43.94861" lon="7.1161">
        <ele>777</ele>
        <time>2018-06-20T15:55:44.008Z</time>
      </trkpt>
      <trkpt lat="43.94863" lon="7.11597">
        <ele>780</ele>
        <time>2018-06-20T15:56:10.008Z</time>
      </trkpt>
      <trkpt lat="43.94862" lon="7.11583">
        <ele>804</ele>
        <time>2018-06-20T15:56:47.008Z</time>
      </trkpt>
      <trkpt lat="43.94868" lon="7.11571">
        <ele>805</ele>
        <time>2018-06-20T15:57:06.008Z</time>
      </trkpt>
      <trkpt lat="43.94875" lon="7.11561">
        <ele>805</ele>
        <time>2018-06-20T15:57:20.008Z</time>
      </trkpt>
      <trkpt lat="43.94882" lon="7.11551">
        <ele>806</ele>
        <time>2018-06-20T15:57:37.008Z</time>
      </trkpt>
      <trkpt lat="43.94892" lon="7.11551">
        <ele>805</ele>
        <time>2018-06-20T15:57:51.008Z</time>
      </trkpt>
      <trkpt lat="43.94903" lon="7.11551">
        <ele>803</ele>
        <time>2018-06-20T15:58:06.008Z</time>
      </trkpt>
      <trkpt lat="43.94906" lon="7.11539">
        <ele>807</ele>
        <time>2018-06-20T15:58:23.008Z</time>
      </trkpt>
      <trkpt lat="43.94907" lon="7.11526">
        <ele>811</ele>
        <time>2018-06-20T15:58:41.008Z</time>
      </trkpt>
      <trkpt lat="43.94913" lon="7.11517">
        <ele>814</ele>
        <time>2018-06-20T15:59:00.008Z</time>
      </trkpt>
      <trkpt lat="43.94918" lon="7.11509">
        <ele>811</ele>
        <time>2018-06-20T15:59:10.008Z</time>
      </trkpt>
      <trkpt lat="43.94926" lon="7.11504">
        <ele>810</ele>
        <time>2018-06-20T15:59:25.008Z</time>
      </trkpt>
      <trkpt lat="43.94932" lon="7.11498">
        <ele>823</ele>
        <time>2018-06-20T15:59:38.008Z</time>
      </trkpt>
      <trkpt lat="43.94939" lon="7.11488">
        <ele>824</ele>
        <time>2018-06-20T16:00:04.008Z</time>
      </trkpt>
      <trkpt lat="43.94946" lon="7.1148">
        <ele>825</ele>
        <time>2018-06-20T16:00:19.008Z</time>
      </trkpt>
      <trkpt lat="43.94953" lon="7.11468">
        <ele>827</ele>
        <time>2018-06-20T16:00:39.008Z</time>
      </trkpt>
      <trkpt lat="43.94959" lon="7.11456">
        <ele>829</ele>
        <time>2018-06-20T16:00:57.008Z</time>
      </trkpt>
      <trkpt lat="43.94965" lon="7.11445">
        <ele>830</ele>
        <time>2018-06-20T16:01:13.008Z</time>
      </trkpt>
      <trkpt lat="43.94968" lon="7.11432">
        <ele>832</ele>
        <time>2018-06-20T16:01:31.008Z</time>
      </trkpt>
      <trkpt lat="43.94971" lon="7.1142">
        <ele>833</ele>
        <time>2018-06-20T16:01:54.008Z</time>
      </trkpt>
      <trkpt lat="43.94968" lon="7.11406">
        <ele>855</ele>
        <time>2018-06-20T16:02:14.008Z</time>
      </trkpt>
      <trkpt lat="43.94972" lon="7.11377">
        <ele>860</ele>
        <time>2018-06-20T16:02:57.008Z</time>
      </trkpt>
      <trkpt lat="43.94962" lon="7.1138">
        <ele>861</ele>
        <time>2018-06-20T16:03:22.008Z</time>
      </trkpt>
      <trkpt lat="43.94958" lon="7.11366">
        <ele>864</ele>
        <time>2018-06-20T16:03:41.008Z</time>
      </trkpt>
      <trkpt lat="43.94961" lon="7.11354">
        <ele>866</ele>
        <time>2018-06-20T16:03:57.008Z</time>
      </trkpt>
      <trkpt lat="43.94968" lon="7.11346">
        <ele>866</ele>
        <time>2018-06-20T16:04:14.008Z</time>
      </trkpt>
      <trkpt lat="43.94974" lon="7.11335">
        <ele>866</ele>
        <time>2018-06-20T16:04:30.008Z</time>
      </trkpt>
      <trkpt lat="43.94979" lon="7.11325">
        <ele>883</ele>
        <time>2018-06-20T16:04:51.008Z</time>
      </trkpt>
      <trkpt lat="43.94987" lon="7.11316">
        <ele>883</ele>
        <time>2018-06-20T16:05:05.008Z</time>
      </trkpt>
      <trkpt lat="43.94994" lon="7.11309">
        <ele>885</ele>
        <time>2018-06-20T16:05:19.008Z</time>
      </trkpt>
      <trkpt lat="43.95004" lon="7.11302">
        <ele>877</ele>
        <time>2018-06-20T16:05:34.008Z</time>
      </trkpt>
      <trkpt lat="43.95012" lon="7.11294">
        <ele>879</ele>
        <time>2018-06-20T16:05:52.008Z</time>
      </trkpt>
      <trkpt lat="43.95019" lon="7.11288">
        <ele>880</ele>
        <time>2018-06-20T16:06:06.008Z</time>
      </trkpt>
      <trkpt lat="43.95027" lon="7.11279">
        <ele>882</ele>
        <time>2018-06-20T16:06:24.008Z</time>
      </trkpt>
      <trkpt lat="43.95034" lon="7.11269">
        <ele>883</ele>
        <time>2018-06-20T16:06:46.008Z</time>
      </trkpt>
      <trkpt lat="43.95042" lon="7.1126">
        <ele>884</ele>
        <time>2018-06-20T16:07:04.008Z</time>
      </trkpt>
      <trkpt lat="43.95051" lon="7.11253">
        <ele>884</ele>
        <time>2018-06-20T16:07:21.008Z</time>
      </trkpt>
      <trkpt lat="43.9506" lon="7.11247">
        <ele>904</ele>
        <time>2018-06-20T16:07:39.008Z</time>
      </trkpt>
      <trkpt lat="43.95067" lon="7.11241">
        <ele>903</ele>
        <time>2018-06-20T16:07:56.008Z</time>
      </trkpt>
      <trkpt lat="43.95074" lon="7.11236">
        <ele>903</ele>
        <time>2018-06-20T16:08:13.008Z</time>
      </trkpt>
      <trkpt lat="43.9508" lon="7.11229">
        <ele>905</ele>
        <time>2018-06-20T16:08:23.008Z</time>
      </trkpt>
      <trkpt lat="43.95085" lon="7.11222">
        <ele>904</ele>
        <time>2018-06-20T16:08:36.008Z</time>
      </trkpt>
      <trkpt lat="43.9509" lon="7.11216">
        <ele>906</ele>
        <time>2018-06-20T16:08:50.008Z</time>
      </trkpt>
      <trkpt lat="43.95095" lon="7.1121">
        <ele>908</ele>
        <time>2018-06-20T16:09:01.008Z</time>
      </trkpt>
      <trkpt lat="43.95099" lon="7.11202">
        <ele>910</ele>
        <time>2018-06-20T16:09:17.008Z</time>
      </trkpt>
      <trkpt lat="43.95104" lon="7.11197">
        <ele>912</ele>
        <time>2018-06-20T16:09:28.008Z</time>
      </trkpt>
      <trkpt lat="43.9511" lon="7.1119">
        <ele>913</ele>
        <time>2018-06-20T16:09:42.008Z</time>
      </trkpt>
      <trkpt lat="43.95117" lon="7.11185">
        <ele>913</ele>
        <time>2018-06-20T16:10:02.008Z</time>
      </trkpt>
      <trkpt lat="43.95126" lon="7.11184">
        <ele>913</ele>
        <time>2018-06-20T16:10:22.008Z</time>
      </trkpt>
      <trkpt lat="43.9513" lon="7.1117">
        <ele>914</ele>
        <time>2018-06-20T16:10:38.008Z</time>
      </trkpt>
      <trkpt lat="43.95139" lon="7.11161">
        <ele>935</ele>
        <time>2018-06-20T16:11:12.008Z</time>
      </trkpt>
      <trkpt lat="43.95146" lon="7.11151">
        <ele>935</ele>
        <time>2018-06-20T16:11:19.008Z</time>
      </trkpt>
      <trkpt lat="43.95155" lon="7.11146">
        <ele>935</ele>
        <time>2018-06-20T16:11:37.008Z</time>
      </trkpt>
      <trkpt lat="43.95165" lon="7.11143">
        <ele>936</ele>
        <time>2018-06-20T16:11:55.008Z</time>
      </trkpt>
      <trkpt lat="43.95173" lon="7.11134">
        <ele>944</ele>
        <time>2018-06-20T16:12:14.008Z</time>
      </trkpt>
      <trkpt lat="43.95182" lon="7.11127">
        <ele>947</ele>
        <time>2018-06-20T16:12:38.008Z</time>
      </trkpt>
      <trkpt lat="43.95192" lon="7.11124">
        <ele>948</ele>
        <time>2018-06-20T16:13:00.008Z</time>
      </trkpt>
      <trkpt lat="43.95202" lon="7.11123">
        <ele>949</ele>
        <time>2018-06-20T16:13:18.008Z</time>
      </trkpt>
      <trkpt lat="43.95212" lon="7.1112">
        <ele>950</ele>
        <time>2018-06-20T16:13:41.008Z</time>
      </trkpt>
      <trkpt lat="43.95222" lon="7.11116">
        <ele>952</ele>
        <time>2018-06-20T16:14:04.008Z</time>
      </trkpt>
      <trkpt lat="43.95231" lon="7.1111">
        <ele>955</ele>
        <time>2018-06-20T16:14:21.008Z</time>
      </trkpt>
      <trkpt lat="43.95241" lon="7.11108">
        <ele>957</ele>
        <time>2018-06-20T16:14:38.008Z</time>
      </trkpt>
      <trkpt lat="43.95251" lon="7.11102">
        <ele>964</ele>
        <time>2018-06-20T16:15:03.008Z</time>
      </trkpt>
      <trkpt lat="43.95259" lon="7.11094">
        <ele>966</ele>
        <time>2018-06-20T16:15:23.008Z</time>
      </trkpt>
      <trkpt lat="43.95267" lon="7.11089">
        <ele>965</ele>
        <time>2018-06-20T16:15:37.008Z</time>
      </trkpt>
      <trkpt lat="43.95276" lon="7.11082">
        <ele>979</ele>
        <time>2018-06-20T16:15:56.008Z</time>
      </trkpt>
      <trkpt lat="43.95286" lon="7.11079">
        <ele>979</ele>
        <time>2018-06-20T16:16:14.008Z</time>
      </trkpt>
      <trkpt lat="43.95291" lon="7.11068">
        <ele>980</ele>
        <time>2018-06-20T16:16:29.008Z</time>
      </trkpt>
      <trkpt lat="43.95296" lon="7.11056">
        <ele>981</ele>
        <time>2018-06-20T16:16:47.008Z</time>
      </trkpt>
      <trkpt lat="43.95303" lon="7.11045">
        <ele>982</ele>
        <time>2018-06-20T16:17:06.008Z</time>
      </trkpt>
      <trkpt lat="43.95308" lon="7.11034">
        <ele>984</ele>
        <time>2018-06-20T16:17:19.008Z</time>
      </trkpt>
      <trkpt lat="43.95313" lon="7.11026">
        <ele>985</ele>
        <time>2018-06-20T16:17:32.008Z</time>
      </trkpt>
      <trkpt lat="43.95319" lon="7.1102">
        <ele>986</ele>
        <time>2018-06-20T16:17:46.008Z</time>
      </trkpt>
      <trkpt lat="43.95326" lon="7.11014">
        <ele>988</ele>
        <time>2018-06-20T16:17:59.008Z</time>
      </trkpt>
      <trkpt lat="43.9533" lon="7.11006">
        <ele>991</ele>
        <time>2018-06-20T16:18:08.008Z</time>
      </trkpt>
      <trkpt lat="43.95334" lon="7.11002">
        <ele>993</ele>
        <time>2018-06-20T16:18:17.008Z</time>
      </trkpt>
      <trkpt lat="43.95341" lon="7.10999">
        <ele>993</ele>
        <time>2018-06-20T16:18:27.008Z</time>
      </trkpt>
      <trkpt lat="43.95346" lon="7.10994">
        <ele>992</ele>
        <time>2018-06-20T16:18:38.008Z</time>
      </trkpt>
      <trkpt lat="43.95353" lon="7.10996">
        <ele>992</ele>
        <time>2018-06-20T16:18:45.008Z</time>
      </trkpt>
      <trkpt lat="43.95357" lon="7.10999">
        <ele>992</ele>
        <time>2018-06-20T16:18:52.008Z</time>
      </trkpt>
      <trkpt lat="43.9536" lon="7.10998">
        <ele>991</ele>
        <time>2018-06-20T16:19:03.008Z</time>
      </trkpt>
      <trkpt lat="43.95363" lon="7.10995">
        <ele>991</ele>
        <time>2018-06-20T16:19:34.008Z</time>
      </trkpt>
      <trkpt lat="43.95367" lon="7.10993">
        <ele>991</ele>
        <time>2018-06-20T16:19:38.008Z</time>
      </trkpt>
      <trkpt lat="43.9537" lon="7.1099">
        <ele>991</ele>
        <time>2018-06-20T16:19:41.008Z</time>
      </trkpt>
      <trkpt lat="43.95373" lon="7.10987">
        <ele>991</ele>
        <time>2018-06-20T16:19:44.008Z</time>
      </trkpt>
      <trkpt lat="43.95377" lon="7.10985">
        <ele>991</ele>
        <time>2018-06-20T16:19:47.008Z</time>
      </trkpt>
      <trkpt lat="43.9538" lon="7.10983">
        <ele>991</ele>
        <time>2018-06-20T16:19:50.008Z</time>
      </trkpt>
      <trkpt lat="43.95383" lon="7.10981">
        <ele>991</ele>
        <time>2018-06-20T16:19:53.008Z</time>
      </trkpt>
      <trkpt lat="43.95386" lon="7.1098">
        <ele>991</ele>
        <time>2018-06-20T16:19:56.008Z</time>
      </trkpt>
      <trkpt lat="43.95388" lon="7.10978">
        <ele>991</ele>
        <time>2018-06-20T16:19:59.008Z</time>
      </trkpt>
      <trkpt lat="43.9539" lon="7.10975">
        <ele>991</ele>
        <time>2018-06-20T16:20:02.008Z</time>
      </trkpt>
      <trkpt lat="43.95393" lon="7.10972">
        <ele>991</ele>
        <time>2018-06-20T16:20:05.008Z</time>
      </trkpt>
      <trkpt lat="43.95395" lon="7.10969">
        <ele>991</ele>
        <time>2018-06-20T16:20:08.008Z</time>
      </trkpt>
      <trkpt lat="43.95397" lon="7.10968">
        <ele>991</ele>
        <time>2018-06-20T16:20:10.008Z</time>
      </trkpt>
      <trkpt lat="43.954" lon="7.10966">
        <ele>991</ele>
        <time>2018-06-20T16:20:17.008Z</time>
      </trkpt>
      <trkpt lat="43.95402" lon="7.10963">
        <ele>991</ele>
        <time>2018-06-20T16:20:40.008Z</time>
      </trkpt>
      <trkpt lat="43.95405" lon="7.10961">
        <ele>991</ele>
        <time>2018-06-20T16:20:48.008Z</time>
      </trkpt>
      <trkpt lat="43.95408" lon="7.1096">
        <ele>991</ele>
        <time>2018-06-20T16:20:53.008Z</time>
      </trkpt>
      <trkpt lat="43.95411" lon="7.1096">
        <ele>991</ele>
        <time>2018-06-20T16:20:58.008Z</time>
      </trkpt>
      <trkpt lat="43.95414" lon="7.10959">
        <ele>992</ele>
        <time>2018-06-20T16:21:02.008Z</time>
      </trkpt>
      <trkpt lat="43.95417" lon="7.10958">
        <ele>992</ele>
        <time>2018-06-20T16:21:06.008Z</time>
      </trkpt>
      <trkpt lat="43.95419" lon="7.10956">
        <ele>998</ele>
        <time>2018-06-20T16:21:14.008Z</time>
      </trkpt>
      <trkpt lat="43.95422" lon="7.10953">
        <ele>998</ele>
        <time>2018-06-20T16:21:17.008Z</time>
      </trkpt>
      <trkpt lat="43.95425" lon="7.10949">
        <ele>999</ele>
        <time>2018-06-20T16:21:20.008Z</time>
      </trkpt>
      <trkpt lat="43.95428" lon="7.10946">
        <ele>999</ele>
        <time>2018-06-20T16:21:23.008Z</time>
      </trkpt>
      <trkpt lat="43.9543" lon="7.10943">
        <ele>999</ele>
        <time>2018-06-20T16:21:25.008Z</time>
      </trkpt>
      <trkpt lat="43.95433" lon="7.10942">
        <ele>999</ele>
        <time>2018-06-20T16:21:27.008Z</time>
      </trkpt>
      <trkpt lat="43.95437" lon="7.1094">
        <ele>999</ele>
        <time>2018-06-20T16:21:30.008Z</time>
      </trkpt>
      <trkpt lat="43.95439" lon="7.10939">
        <ele>999</ele>
        <time>2018-06-20T16:21:32.008Z</time>
      </trkpt>
      <trkpt lat="43.95442" lon="7.10937">
        <ele>999</ele>
        <time>2018-06-20T16:21:34.008Z</time>
      </trkpt>
      <trkpt lat="43.95445" lon="7.10936">
        <ele>1000</ele>
        <time>2018-06-20T16:21:36.008Z</time>
      </trkpt>
      <trkpt lat="43.95447" lon="7.10933">
        <ele>1000</ele>
        <time>2018-06-20T16:21:38.008Z</time>
      </trkpt>
      <trkpt lat="43.9545" lon="7.10931">
        <ele>1000</ele>
        <time>2018-06-20T16:21:40.008Z</time>
      </trkpt>
      <trkpt lat="43.95453" lon="7.10931">
        <ele>1001</ele>
        <time>2018-06-20T16:21:42.008Z</time>
      </trkpt>
      <trkpt lat="43.95456" lon="7.1093">
        <ele>1001</ele>
        <time>2018-06-20T16:21:44.008Z</time>
      </trkpt>
      <trkpt lat="43.95459" lon="7.10928">
        <ele>1001</ele>
        <time>2018-06-20T16:21:46.008Z</time>
      </trkpt>
      <trkpt lat="43.95461" lon="7.10925">
        <ele>1002</ele>
        <time>2018-06-20T16:21:48.008Z</time>
      </trkpt>
      <trkpt lat="43.95464" lon="7.10923">
        <ele>1002</ele>
        <time>2018-06-20T16:21:51.008Z</time>
      </trkpt>
      <trkpt lat="43.95468" lon="7.1092">
        <ele>1003</ele>
        <time>2018-06-20T16:21:54.008Z</time>
      </trkpt>
      <trkpt lat="43.9547" lon="7.10917">
        <ele>997</ele>
        <time>2018-06-20T16:21:56.008Z</time>
      </trkpt>
      <trkpt lat="43.95473" lon="7.10914">
        <ele>998</ele>
        <time>2018-06-20T16:21:58.008Z</time>
      </trkpt>
      <trkpt lat="43.95475" lon="7.10912">
        <ele>999</ele>
        <time>2018-06-20T16:22:01.008Z</time>
      </trkpt>
      <trkpt lat="43.95477" lon="7.1091">
        <ele>999</ele>
        <time>2018-06-20T16:22:05.008Z</time>
      </trkpt>
      <trkpt lat="43.9548" lon="7.10907">
        <ele>999</ele>
        <time>2018-06-20T16:22:07.008Z</time>
      </trkpt>
      <trkpt lat="43.95482" lon="7.10905">
        <ele>1000</ele>
        <time>2018-06-20T16:22:09.008Z</time>
      </trkpt>
      <trkpt lat="43.95484" lon="7.10901">
        <ele>1000</ele>
        <time>2018-06-20T16:22:18.008Z</time>
      </trkpt>
      <trkpt lat="43.95486" lon="7.10898">
        <ele>999</ele>
        <time>2018-06-20T16:22:21.008Z</time>
      </trkpt>
      <trkpt lat="43.9549" lon="7.10894">
        <ele>999</ele>
        <time>2018-06-20T16:22:25.008Z</time>
      </trkpt>
      <trkpt lat="43.95483" lon="7.10901">
        <ele>999</ele>
        <time>2018-06-20T16:23:44.008Z</time>
      </trkpt>
      <trkpt lat="43.95488" lon="7.10896">
        <ele>999</ele>
        <time>2018-06-20T16:23:51.008Z</time>
      </trkpt>
      <trkpt lat="43.95491" lon="7.10893">
        <ele>998</ele>
        <time>2018-06-20T16:23:54.008Z</time>
      </trkpt>
      <trkpt lat="43.95487" lon="7.10897">
        <ele>999</ele>
        <time>2018-06-20T16:24:26.008Z</time>
      </trkpt>
      <trkpt lat="43.95484" lon="7.109">
        <ele>999</ele>
        <time>2018-06-20T16:24:29.008Z</time>
      </trkpt>
      <trkpt lat="43.95488" lon="7.10897">
        <ele>999</ele>
        <time>2018-06-20T16:24:37.008Z</time>
      </trkpt>
      <trkpt lat="43.95491" lon="7.10894">
        <ele>999</ele>
        <time>2018-06-20T16:24:40.008Z</time>
      </trkpt>
      <trkpt lat="43.95486" lon="7.109">
        <ele>999</ele>
        <time>2018-06-20T16:25:10.008Z</time>
      </trkpt>
      <trkpt lat="43.95489" lon="7.10896">
        <ele>999</ele>
        <time>2018-06-20T16:25:19.008Z</time>
      </trkpt>
      <trkpt lat="43.95492" lon="7.10893">
        <ele>999</ele>
        <time>2018-06-20T16:25:24.008Z</time>
      </trkpt>
      <trkpt lat="43.95488" lon="7.10898">
        <ele>999</ele>
        <time>2018-06-20T16:25:57.008Z</time>
      </trkpt>
      <trkpt lat="43.95492" lon="7.10895">
        <ele>999</ele>
        <time>2018-06-20T16:26:09.008Z</time>
      </trkpt>
      <trkpt lat="43.95494" lon="7.10891">
        <ele>998</ele>
        <time>2018-06-20T16:26:56.008Z</time>
      </trkpt>
      <trkpt lat="43.95498" lon="7.10888">
        <ele>998</ele>
        <time>2018-06-20T16:26:58.008Z</time>
      </trkpt>
      <trkpt lat="43.95503" lon="7.10887">
        <ele>1011</ele>
        <time>2018-06-20T16:27:00.008Z</time>
      </trkpt>
      <trkpt lat="43.95507" lon="7.10886">
        <ele>1011</ele>
        <time>2018-06-20T16:27:02.008Z</time>
      </trkpt>
      <trkpt lat="43.95516" lon="7.10883">
        <ele>1011</ele>
        <time>2018-06-20T16:27:06.008Z</time>
      </trkpt>
      <trkpt lat="43.95524" lon="7.10879">
        <ele>1011</ele>
        <time>2018-06-20T16:27:10.008Z</time>
      </trkpt>
      <trkpt lat="43.95528" lon="7.10877">
        <ele>1012</ele>
        <time>2018-06-20T16:27:12.008Z</time>
      </trkpt>
      <trkpt lat="43.95531" lon="7.10875">
        <ele>1012</ele>
        <time>2018-06-20T16:27:14.008Z</time>
      </trkpt>
      <trkpt lat="43.95534" lon="7.10873">
        <ele>1012</ele>
        <time>2018-06-20T16:27:16.008Z</time>
      </trkpt>
      <trkpt lat="43.95537" lon="7.10871">
        <ele>1012</ele>
        <time>2018-06-20T16:27:18.008Z</time>
      </trkpt>
      <trkpt lat="43.95539" lon="7.10869">
        <ele>1013</ele>
        <time>2018-06-20T16:27:20.008Z</time>
      </trkpt>
      <trkpt lat="43.95542" lon="7.10867">
        <ele>1013</ele>
        <time>2018-06-20T16:27:22.008Z</time>
      </trkpt>
      <trkpt lat="43.95545" lon="7.10865">
        <ele>1013</ele>
        <time>2018-06-20T16:27:24.008Z</time>
      </trkpt>
      <trkpt lat="43.95547" lon="7.10863">
        <ele>1014</ele>
        <time>2018-06-20T16:27:26.008Z</time>
      </trkpt>
      <trkpt lat="43.95551" lon="7.1086">
        <ele>1015</ele>
        <time>2018-06-20T16:27:29.008Z</time>
      </trkpt>
      <trkpt lat="43.95559" lon="7.10854">
        <ele>1016</ele>
        <time>2018-06-20T16:27:37.008Z</time>
      </trkpt>
      <trkpt lat="43.95565" lon="7.10851">
        <ele>1018</ele>
        <time>2018-06-20T16:27:43.008Z</time>
      </trkpt>
      <trkpt lat="43.95572" lon="7.10845">
        <ele>1021</ele>
        <time>2018-06-20T16:27:56.008Z</time>
      </trkpt>
      <trkpt lat="43.95581" lon="7.10842">
        <ele>1024</ele>
        <time>2018-06-20T16:28:15.008Z</time>
      </trkpt>
      <trkpt lat="43.95589" lon="7.10849">
        <ele>1032</ele>
        <time>2018-06-20T16:28:34.008Z</time>
      </trkpt>
      <trkpt lat="43.95596" lon="7.10857">
        <ele>1033</ele>
        <time>2018-06-20T16:28:51.008Z</time>
      </trkpt>
      <trkpt lat="43.95601" lon="7.10846">
        <ele>1033</ele>
        <time>2018-06-20T16:29:48.008Z</time>
      </trkpt>
      <trkpt lat="43.95607" lon="7.10835">
        <ele>1034</ele>
        <time>2018-06-20T16:30:09.008Z</time>
      </trkpt>
      <trkpt lat="43.95615" lon="7.10837">
        <ele>1036</ele>
        <time>2018-06-20T16:30:26.008Z</time>
      </trkpt>
      <trkpt lat="43.95619" lon="7.10827">
        <ele>1038</ele>
        <time>2018-06-20T16:30:57.008Z</time>
      </trkpt>
      <trkpt lat="43.95627" lon="7.10828">
        <ele>1040</ele>
        <time>2018-06-20T16:31:09.008Z</time>
      </trkpt>
      <trkpt lat="43.95636" lon="7.10829">
        <ele>1043</ele>
        <time>2018-06-20T16:31:25.008Z</time>
      </trkpt>
      <trkpt lat="43.95643" lon="7.10826">
        <ele>1045</ele>
        <time>2018-06-20T16:31:43.008Z</time>
      </trkpt>
      <trkpt lat="43.9564" lon="7.10815">
        <ele>1043</ele>
        <time>2018-06-20T16:32:02.008Z</time>
      </trkpt>
      <trkpt lat="43.95648" lon="7.10811">
        <ele>1045</ele>
        <time>2018-06-20T16:32:14.008Z</time>
      </trkpt>
      <trkpt lat="43.95654" lon="7.10809">
        <ele>1045</ele>
        <time>2018-06-20T16:32:24.008Z</time>
      </trkpt>
      <trkpt lat="43.95659" lon="7.10803">
        <ele>1045</ele>
        <time>2018-06-20T16:32:40.008Z</time>
      </trkpt>
      <trkpt lat="43.95666" lon="7.10803">
        <ele>1046</ele>
        <time>2018-06-20T16:32:53.008Z</time>
      </trkpt>
      <trkpt lat="43.95674" lon="7.10799">
        <ele>1062</ele>
        <time>2018-06-20T16:33:10.008Z</time>
      </trkpt>
      <trkpt lat="43.9568" lon="7.10795">
        <ele>1062</ele>
        <time>2018-06-20T16:33:18.008Z</time>
      </trkpt>
      <trkpt lat="43.95685" lon="7.10796">
        <ele>1062</ele>
        <time>2018-06-20T16:33:26.008Z</time>
      </trkpt>
      <trkpt lat="43.9569" lon="7.10795">
        <ele>1063</ele>
        <time>2018-06-20T16:33:31.008Z</time>
      </trkpt>
      <trkpt lat="43.95695" lon="7.10793">
        <ele>1063</ele>
        <time>2018-06-20T16:33:35.008Z</time>
      </trkpt>
      <trkpt lat="43.95699" lon="7.10791">
        <ele>1064</ele>
        <time>2018-06-20T16:33:38.008Z</time>
      </trkpt>
      <trkpt lat="43.95703" lon="7.10793">
        <ele>1064</ele>
        <time>2018-06-20T16:33:41.008Z</time>
      </trkpt>
      <trkpt lat="43.95708" lon="7.10792">
        <ele>1064</ele>
        <time>2018-06-20T16:33:45.008Z</time>
      </trkpt>
      <trkpt lat="43.95713" lon="7.10791">
        <ele>1065</ele>
        <time>2018-06-20T16:33:49.008Z</time>
      </trkpt>
      <trkpt lat="43.95716" lon="7.10789">
        <ele>1065</ele>
        <time>2018-06-20T16:33:52.008Z</time>
      </trkpt>
      <trkpt lat="43.9572" lon="7.10788">
        <ele>1066</ele>
        <time>2018-06-20T16:33:56.008Z</time>
      </trkpt>
      <trkpt lat="43.95724" lon="7.10785">
        <ele>1066</ele>
        <time>2018-06-20T16:34:00.008Z</time>
      </trkpt>
      <trkpt lat="43.95727" lon="7.10783">
        <ele>1067</ele>
        <time>2018-06-20T16:34:03.008Z</time>
      </trkpt>
      <trkpt lat="43.95731" lon="7.10781">
        <ele>1067</ele>
        <time>2018-06-20T16:34:07.008Z</time>
      </trkpt>
      <trkpt lat="43.95735" lon="7.10777">
        <ele>1068</ele>
        <time>2018-06-20T16:34:12.008Z</time>
      </trkpt>
      <trkpt lat="43.95739" lon="7.10775">
        <ele>1068</ele>
        <time>2018-06-20T16:34:16.008Z</time>
      </trkpt>
      <trkpt lat="43.95743" lon="7.10773">
        <ele>1069</ele>
        <time>2018-06-20T16:34:21.008Z</time>
      </trkpt>
      <trkpt lat="43.95747" lon="7.10769">
        <ele>1070</ele>
        <time>2018-06-20T16:34:27.008Z</time>
      </trkpt>
      <trkpt lat="43.9575" lon="7.10766">
        <ele>1079</ele>
        <time>2018-06-20T16:34:31.008Z</time>
      </trkpt>
      <trkpt lat="43.95755" lon="7.10762">
        <ele>1079</ele>
        <time>2018-06-20T16:34:36.008Z</time>
      </trkpt>
      <trkpt lat="43.95758" lon="7.10758">
        <ele>1079</ele>
        <time>2018-06-20T16:34:39.008Z</time>
      </trkpt>
      <trkpt lat="43.95763" lon="7.10755">
        <ele>1079</ele>
        <time>2018-06-20T16:34:43.008Z</time>
      </trkpt>
      <trkpt lat="43.95768" lon="7.10755">
        <ele>1080</ele>
        <time>2018-06-20T16:34:49.008Z</time>
      </trkpt>
      <trkpt lat="43.95772" lon="7.10752">
        <ele>1081</ele>
        <time>2018-06-20T16:34:58.008Z</time>
      </trkpt>
      <trkpt lat="43.95775" lon="7.10748">
        <ele>1078</ele>
        <time>2018-06-20T16:35:03.008Z</time>
      </trkpt>
      <trkpt lat="43.95778" lon="7.10747">
        <ele>1079</ele>
        <time>2018-06-20T16:35:08.008Z</time>
      </trkpt>
      <trkpt lat="43.95784" lon="7.10744">
        <ele>1080</ele>
        <time>2018-06-20T16:35:17.008Z</time>
      </trkpt>
      <trkpt lat="43.95786" lon="7.10752">
        <ele>1084</ele>
        <time>2018-06-20T16:35:28.008Z</time>
      </trkpt>
      <trkpt lat="43.95784" lon="7.10757">
        <ele>1083</ele>
        <time>2018-06-20T16:35:36.008Z</time>
      </trkpt>
      <trkpt lat="43.95781" lon="7.10759">
        <ele>1083</ele>
        <time>2018-06-20T16:35:46.008Z</time>
      </trkpt>
      <trkpt lat="43.95783" lon="7.10763">
        <ele>1083</ele>
        <time>2018-06-20T16:35:57.008Z</time>
      </trkpt>
      <trkpt lat="43.95785" lon="7.10766">
        <ele>1083</ele>
        <time>2018-06-20T16:36:03.008Z</time>
      </trkpt>
      <trkpt lat="43.95793" lon="7.10766">
        <ele>1085</ele>
        <time>2018-06-20T16:36:40.008Z</time>
      </trkpt>
      <trkpt lat="43.958" lon="7.10773">
        <ele>1085</ele>
        <time>2018-06-20T16:36:56.008Z</time>
      </trkpt>
      <trkpt lat="43.95806" lon="7.10773">
        <ele>1087</ele>
        <time>2018-06-20T16:37:07.008Z</time>
      </trkpt>
      <trkpt lat="43.95813" lon="7.10777">
        <ele>1087</ele>
        <time>2018-06-20T16:37:18.008Z</time>
      </trkpt>
      <trkpt lat="43.9582" lon="7.1078">
        <ele>1088</ele>
        <time>2018-06-20T16:37:28.008Z</time>
      </trkpt>
      <trkpt lat="43.95828" lon="7.10782">
        <ele>1088</ele>
        <time>2018-06-20T16:37:41.008Z</time>
      </trkpt>
      <trkpt lat="43.95833" lon="7.10782">
        <ele>1088</ele>
        <time>2018-06-20T16:37:48.008Z</time>
      </trkpt>
      <trkpt lat="43.95841" lon="7.10784">
        <ele>1102</ele>
        <time>2018-06-20T16:37:58.008Z</time>
      </trkpt>
      <trkpt lat="43.95848" lon="7.10785">
        <ele>1102</ele>
        <time>2018-06-20T16:38:08.008Z</time>
      </trkpt>
      <trkpt lat="43.95857" lon="7.10782">
        <ele>1104</ele>
        <time>2018-06-20T16:38:21.008Z</time>
      </trkpt>
      <trkpt lat="43.95868" lon="7.10785">
        <ele>1105</ele>
        <time>2018-06-20T16:38:39.008Z</time>
      </trkpt>
      <trkpt lat="43.95875" lon="7.10782">
        <ele>1107</ele>
        <time>2018-06-20T16:38:58.008Z</time>
      </trkpt>
      <trkpt lat="43.95883" lon="7.10781">
        <ele>1109</ele>
        <time>2018-06-20T16:39:26.008Z</time>
      </trkpt>
      <trkpt lat="43.95891" lon="7.1078">
        <ele>1110</ele>
        <time>2018-06-20T16:39:36.008Z</time>
      </trkpt>
      <trkpt lat="43.95899" lon="7.10779">
        <ele>1113</ele>
        <time>2018-06-20T16:39:44.008Z</time>
      </trkpt>
      <trkpt lat="43.95907" lon="7.10776">
        <ele>1115</ele>
        <time>2018-06-20T16:39:58.008Z</time>
      </trkpt>
      <trkpt lat="43.95915" lon="7.10776">
        <ele>1116</ele>
        <time>2018-06-20T16:40:21.008Z</time>
      </trkpt>
      <trkpt lat="43.9592" lon="7.10775">
        <ele>1132</ele>
        <time>2018-06-20T16:40:31.008Z</time>
      </trkpt>
      <trkpt lat="43.95926" lon="7.10776">
        <ele>1132</ele>
        <time>2018-06-20T16:40:38.008Z</time>
      </trkpt>
      <trkpt lat="43.95932" lon="7.10779">
        <ele>1132</ele>
        <time>2018-06-20T16:40:46.008Z</time>
      </trkpt>
      <trkpt lat="43.9593" lon="7.10773">
        <ele>1133</ele>
        <time>2018-06-20T16:41:06.008Z</time>
      </trkpt>
      <trkpt lat="43.95926" lon="7.10767">
        <ele>1134</ele>
        <time>2018-06-20T16:41:12.008Z</time>
      </trkpt>
      <trkpt lat="43.95922" lon="7.1076">
        <ele>1135</ele>
        <time>2018-06-20T16:41:20.008Z</time>
      </trkpt>
      <trkpt lat="43.95918" lon="7.10756">
        <ele>1135</ele>
        <time>2018-06-20T16:41:26.008Z</time>
      </trkpt>
      <trkpt lat="43.95915" lon="7.1075">
        <ele>1134</ele>
        <time>2018-06-20T16:41:34.008Z</time>
      </trkpt>
      <trkpt lat="43.95911" lon="7.10747">
        <ele>1131</ele>
        <time>2018-06-20T16:41:40.008Z</time>
      </trkpt>
      <trkpt lat="43.95907" lon="7.1074">
        <ele>1127</ele>
        <time>2018-06-20T16:41:49.008Z</time>
      </trkpt>
      <trkpt lat="43.95905" lon="7.10733">
        <ele>1124</ele>
        <time>2018-06-20T16:41:54.008Z</time>
      </trkpt>
      <trkpt lat="43.95901" lon="7.10729">
        <ele>1122</ele>
        <time>2018-06-20T16:41:58.008Z</time>
      </trkpt>
      <trkpt lat="43.95903" lon="7.10721">
        <ele>1121</ele>
        <time>2018-06-20T16:42:05.008Z</time>
      </trkpt>
      <trkpt lat="43.95906" lon="7.10717">
        <ele>1121</ele>
        <time>2018-06-20T16:42:16.008Z</time>
      </trkpt>
      <trkpt lat="43.95909" lon="7.10713">
        <ele>1121</ele>
        <time>2018-06-20T16:42:19.008Z</time>
      </trkpt>
      <trkpt lat="43.95912" lon="7.10709">
        <ele>1121</ele>
        <time>2018-06-20T16:42:22.008Z</time>
      </trkpt>
      <trkpt lat="43.95914" lon="7.10707">
        <ele>1121</ele>
        <time>2018-06-20T16:42:24.008Z</time>
      </trkpt>
      <trkpt lat="43.95916" lon="7.10703">
        <ele>1122</ele>
        <time>2018-06-20T16:42:27.008Z</time>
      </trkpt>
      <trkpt lat="43.95919" lon="7.10701">
        <ele>1146</ele>
        <time>2018-06-20T16:42:29.008Z</time>
      </trkpt>
      <trkpt lat="43.95921" lon="7.10697">
        <ele>1146</ele>
        <time>2018-06-20T16:42:32.008Z</time>
      </trkpt>
      <trkpt lat="43.95923" lon="7.10693">
        <ele>1146</ele>
        <time>2018-06-20T16:42:34.008Z</time>
      </trkpt>
      <trkpt lat="43.95925" lon="7.1069">
        <ele>1146</ele>
        <time>2018-06-20T16:42:36.008Z</time>
      </trkpt>
      <trkpt lat="43.95928" lon="7.10685">
        <ele>1145</ele>
        <time>2018-06-20T16:42:39.008Z</time>
      </trkpt>
      <trkpt lat="43.9593" lon="7.10681">
        <ele>1145</ele>
        <time>2018-06-20T16:42:41.008Z</time>
      </trkpt>
      <trkpt lat="43.95931" lon="7.10678">
        <ele>1145</ele>
        <time>2018-06-20T16:42:43.008Z</time>
      </trkpt>
      <trkpt lat="43.95933" lon="7.10675">
        <ele>1145</ele>
        <time>2018-06-20T16:42:46.008Z</time>
      </trkpt>
      <trkpt lat="43.95935" lon="7.1067">
        <ele>1146</ele>
        <time>2018-06-20T16:42:54.008Z</time>
      </trkpt>
      <trkpt lat="43.95938" lon="7.10666">
        <ele>1147</ele>
        <time>2018-06-20T16:42:57.008Z</time>
      </trkpt>
      <trkpt lat="43.95939" lon="7.10662">
        <ele>1148</ele>
        <time>2018-06-20T16:42:59.008Z</time>
      </trkpt>
      <trkpt lat="43.95942" lon="7.10658">
        <ele>1149</ele>
        <time>2018-06-20T16:43:02.008Z</time>
      </trkpt>
      <trkpt lat="43.95944" lon="7.10652">
        <ele>1151</ele>
        <time>2018-06-20T16:43:05.008Z</time>
      </trkpt>
      <trkpt lat="43.95947" lon="7.10647">
        <ele>1152</ele>
        <time>2018-06-20T16:43:09.008Z</time>
      </trkpt>
      <trkpt lat="43.95948" lon="7.1064">
        <ele>1152</ele>
        <time>2018-06-20T16:43:12.008Z</time>
      </trkpt>
      <trkpt lat="43.95949" lon="7.10633">
        <ele>1153</ele>
        <time>2018-06-20T16:43:15.008Z</time>
      </trkpt>
      <trkpt lat="43.9595" lon="7.10628">
        <ele>1153</ele>
        <time>2018-06-20T16:43:18.008Z</time>
      </trkpt>
      <trkpt lat="43.9595" lon="7.10621">
        <ele>1153</ele>
        <time>2018-06-20T16:43:27.008Z</time>
      </trkpt>
      <trkpt lat="43.9595" lon="7.10616">
        <ele>1153</ele>
        <time>2018-06-20T16:43:31.008Z</time>
      </trkpt>
      <trkpt lat="43.9595" lon="7.106">
        <ele>1152</ele>
        <time>2018-06-20T16:43:47.008Z</time>
      </trkpt>
      <trkpt lat="43.95951" lon="7.1059">
        <ele>1151</ele>
        <time>2018-06-20T16:43:57.008Z</time>
      </trkpt>
      <trkpt lat="43.95951" lon="7.10586">
        <ele>1151</ele>
        <time>2018-06-20T16:44:03.008Z</time>
      </trkpt>
      <trkpt lat="43.95953" lon="7.10582">
        <ele>1151</ele>
        <time>2018-06-20T16:44:10.008Z</time>
      </trkpt>
      <trkpt lat="43.95953" lon="7.10577">
        <ele>1151</ele>
        <time>2018-06-20T16:44:23.008Z</time>
      </trkpt>
      <trkpt lat="43.95953" lon="7.10571">
        <ele>1151</ele>
        <time>2018-06-20T16:44:28.008Z</time>
      </trkpt>
      <trkpt lat="43.95954" lon="7.10567">
        <ele>1151</ele>
        <time>2018-06-20T16:44:32.008Z</time>
      </trkpt>
      <trkpt lat="43.95953" lon="7.10562">
        <ele>1151</ele>
        <time>2018-06-20T16:44:36.008Z</time>
      </trkpt>
      <trkpt lat="43.95954" lon="7.10557">
        <ele>1152</ele>
        <time>2018-06-20T16:44:41.008Z</time>
      </trkpt>
      <trkpt lat="43.95954" lon="7.10552">
        <ele>1152</ele>
        <time>2018-06-20T16:44:45.008Z</time>
      </trkpt>
      <trkpt lat="43.95954" lon="7.10547">
        <ele>1152</ele>
        <time>2018-06-20T16:44:51.008Z</time>
      </trkpt>
      <trkpt lat="43.95954" lon="7.10542">
        <ele>1152</ele>
        <time>2018-06-20T16:44:58.008Z</time>
      </trkpt>
      <trkpt lat="43.95954" lon="7.10537">
        <ele>1152</ele>
        <time>2018-06-20T16:45:03.008Z</time>
      </trkpt>
      <trkpt lat="43.95954" lon="7.10532">
        <ele>1152</ele>
        <time>2018-06-20T16:45:08.008Z</time>
      </trkpt>
      <trkpt lat="43.95955" lon="7.10528">
        <ele>1152</ele>
        <time>2018-06-20T16:45:14.008Z</time>
      </trkpt>
      <trkpt lat="43.95954" lon="7.10521">
        <ele>1152</ele>
        <time>2018-06-20T16:45:39.008Z</time>
      </trkpt>
      <trkpt lat="43.95954" lon="7.10515">
        <ele>1152</ele>
        <time>2018-06-20T16:45:44.008Z</time>
      </trkpt>
      <trkpt lat="43.95953" lon="7.10508">
        <ele>1151</ele>
        <time>2018-06-20T16:45:49.008Z</time>
      </trkpt>
      <trkpt lat="43.95952" lon="7.10502">
        <ele>1151</ele>
        <time>2018-06-20T16:45:54.008Z</time>
      </trkpt>
      <trkpt lat="43.95952" lon="7.10495">
        <ele>1147</ele>
        <time>2018-06-20T16:45:59.008Z</time>
      </trkpt>
      <trkpt lat="43.95952" lon="7.10491">
        <ele>1147</ele>
        <time>2018-06-20T16:46:02.008Z</time>
      </trkpt>
      <trkpt lat="43.95952" lon="7.10487">
        <ele>1147</ele>
        <time>2018-06-20T16:46:05.008Z</time>
      </trkpt>
      <trkpt lat="43.95953" lon="7.10483">
        <ele>1147</ele>
        <time>2018-06-20T16:46:09.008Z</time>
      </trkpt>
      <trkpt lat="43.95955" lon="7.10478">
        <ele>1147</ele>
        <time>2018-06-20T16:46:14.008Z</time>
      </trkpt>
      <trkpt lat="43.95959" lon="7.10476">
        <ele>1148</ele>
        <time>2018-06-20T16:46:27.008Z</time>
      </trkpt>
      <trkpt lat="43.95962" lon="7.10481">
        <ele>1149</ele>
        <time>2018-06-20T16:46:34.008Z</time>
      </trkpt>
      <trkpt lat="43.95966" lon="7.10484">
        <ele>1150</ele>
        <time>2018-06-20T16:46:41.008Z</time>
      </trkpt>
      <trkpt lat="43.95971" lon="7.10485">
        <ele>1151</ele>
        <time>2018-06-20T16:46:48.008Z</time>
      </trkpt>
      <trkpt lat="43.95973" lon="7.10492">
        <ele>1152</ele>
        <time>2018-06-20T16:46:55.008Z</time>
      </trkpt>
      <trkpt lat="43.95974" lon="7.10499">
        <ele>1153</ele>
        <time>2018-06-20T16:47:07.008Z</time>
      </trkpt>
      <trkpt lat="43.9598" lon="7.10501">
        <ele>1159</ele>
        <time>2018-06-20T16:47:13.008Z</time>
      </trkpt>
      <trkpt lat="43.95984" lon="7.10504">
        <ele>1160</ele>
        <time>2018-06-20T16:47:17.008Z</time>
      </trkpt>
      <trkpt lat="43.95989" lon="7.10509">
        <ele>1161</ele>
        <time>2018-06-20T16:47:22.008Z</time>
      </trkpt>
      <trkpt lat="43.95993" lon="7.10513">
        <ele>1161</ele>
        <time>2018-06-20T16:47:27.008Z</time>
      </trkpt>
      <trkpt lat="43.95996" lon="7.10518">
        <ele>1161</ele>
        <time>2018-06-20T16:47:32.008Z</time>
      </trkpt>
      <trkpt lat="43.95999" lon="7.10524">
        <ele>1161</ele>
        <time>2018-06-20T16:47:37.008Z</time>
      </trkpt>
      <trkpt lat="43.96003" lon="7.10526">
        <ele>1170</ele>
        <time>2018-06-20T16:47:43.008Z</time>
      </trkpt>
      <trkpt lat="43.96007" lon="7.10528">
        <ele>1170</ele>
        <time>2018-06-20T16:47:48.008Z</time>
      </trkpt>
      <trkpt lat="43.96011" lon="7.10531">
        <ele>1171</ele>
        <time>2018-06-20T16:47:51.008Z</time>
      </trkpt>
      <trkpt lat="43.96015" lon="7.10535">
        <ele>1171</ele>
        <time>2018-06-20T16:47:54.008Z</time>
      </trkpt>
      <trkpt lat="43.96019" lon="7.10538">
        <ele>1171</ele>
        <time>2018-06-20T16:47:57.008Z</time>
      </trkpt>
      <trkpt lat="43.96025" lon="7.10541">
        <ele>1172</ele>
        <time>2018-06-20T16:48:00.008Z</time>
      </trkpt>
      <trkpt lat="43.9603" lon="7.10544">
        <ele>1172</ele>
        <time>2018-06-20T16:48:03.008Z</time>
      </trkpt>
      <trkpt lat="43.96035" lon="7.10548">
        <ele>1172</ele>
        <time>2018-06-20T16:48:06.008Z</time>
      </trkpt>
      <trkpt lat="43.9604" lon="7.10552">
        <ele>1173</ele>
        <time>2018-06-20T16:48:09.008Z</time>
      </trkpt>
      <trkpt lat="43.96044" lon="7.10553">
        <ele>1173</ele>
        <time>2018-06-20T16:48:11.008Z</time>
      </trkpt>
      <trkpt lat="43.96048" lon="7.10555">
        <ele>1173</ele>
        <time>2018-06-20T16:48:13.008Z</time>
      </trkpt>
      <trkpt lat="43.96053" lon="7.10557">
        <ele>1174</ele>
        <time>2018-06-20T16:48:16.008Z</time>
      </trkpt>
      <trkpt lat="43.96057" lon="7.10559">
        <ele>1175</ele>
        <time>2018-06-20T16:48:19.008Z</time>
      </trkpt>
      <trkpt lat="43.96061" lon="7.10561">
        <ele>1175</ele>
        <time>2018-06-20T16:48:21.008Z</time>
      </trkpt>
      <trkpt lat="43.96065" lon="7.10562">
        <ele>1176</ele>
        <time>2018-06-20T16:48:23.008Z</time>
      </trkpt>
      <trkpt lat="43.9607" lon="7.10563">
        <ele>1177</ele>
        <time>2018-06-20T16:48:25.008Z</time>
      </trkpt>
      <trkpt lat="43.96074" lon="7.10564">
        <ele>1178</ele>
        <time>2018-06-20T16:48:27.008Z</time>
      </trkpt>
      <trkpt lat="43.96078" lon="7.10565">
        <ele>1179</ele>
        <time>2018-06-20T16:48:29.008Z</time>
      </trkpt>
      <trkpt lat="43.96082" lon="7.10566">
        <ele>1179</ele>
        <time>2018-06-20T16:48:31.008Z</time>
      </trkpt>
      <trkpt lat="43.96087" lon="7.10568">
        <ele>1174</ele>
        <time>2018-06-20T16:48:33.008Z</time>
      </trkpt>
      <trkpt lat="43.96091" lon="7.10571">
        <ele>1174</ele>
        <time>2018-06-20T16:48:35.008Z</time>
      </trkpt>
      <trkpt lat="43.96094" lon="7.10575">
        <ele>1175</ele>
        <time>2018-06-20T16:48:42.008Z</time>
      </trkpt>
      <trkpt lat="43.96098" lon="7.10577">
        <ele>1174</ele>
        <time>2018-06-20T16:48:48.008Z</time>
      </trkpt>
      <trkpt lat="43.96101" lon="7.1058">
        <ele>1173</ele>
        <time>2018-06-20T16:48:53.008Z</time>
      </trkpt>
      <trkpt lat="43.96106" lon="7.10584">
        <ele>1190</ele>
        <time>2018-06-20T16:48:56.008Z</time>
      </trkpt>
      <trkpt lat="43.9611" lon="7.10587">
        <ele>1190</ele>
        <time>2018-06-20T16:48:59.008Z</time>
      </trkpt>
      <trkpt lat="43.96114" lon="7.10589">
        <ele>1189</ele>
        <time>2018-06-20T16:49:01.008Z</time>
      </trkpt>
      <trkpt lat="43.96119" lon="7.10593">
        <ele>1189</ele>
        <time>2018-06-20T16:49:04.008Z</time>
      </trkpt>
      <trkpt lat="43.96123" lon="7.10594">
        <ele>1189</ele>
        <time>2018-06-20T16:49:06.008Z</time>
      </trkpt>
      <trkpt lat="43.96127" lon="7.10597">
        <ele>1188</ele>
        <time>2018-06-20T16:49:08.008Z</time>
      </trkpt>
      <trkpt lat="43.9613" lon="7.10599">
        <ele>1188</ele>
        <time>2018-06-20T16:49:10.008Z</time>
      </trkpt>
      <trkpt lat="43.96133" lon="7.10602">
        <ele>1188</ele>
        <time>2018-06-20T16:49:12.008Z</time>
      </trkpt>
      <trkpt lat="43.96137" lon="7.10604">
        <ele>1188</ele>
        <time>2018-06-20T16:49:14.008Z</time>
      </trkpt>
      <trkpt lat="43.96143" lon="7.10606">
        <ele>1187</ele>
        <time>2018-06-20T16:49:17.008Z</time>
      </trkpt>
      <trkpt lat="43.96146" lon="7.10608">
        <ele>1187</ele>
        <time>2018-06-20T16:49:19.008Z</time>
      </trkpt>
      <trkpt lat="43.96151" lon="7.10609">
        <ele>1186</ele>
        <time>2018-06-20T16:49:21.008Z</time>
      </trkpt>
      <trkpt lat="43.96155" lon="7.10611">
        <ele>1186</ele>
        <time>2018-06-20T16:49:23.008Z</time>
      </trkpt>
      <trkpt lat="43.96159" lon="7.10613">
        <ele>1187</ele>
        <time>2018-06-20T16:49:25.008Z</time>
      </trkpt>
      <trkpt lat="43.96164" lon="7.10616">
        <ele>1187</ele>
        <time>2018-06-20T16:49:27.008Z</time>
      </trkpt>
      <trkpt lat="43.96168" lon="7.10619">
        <ele>1172</ele>
        <time>2018-06-20T16:49:29.008Z</time>
      </trkpt>
      <trkpt lat="43.96172" lon="7.10622">
        <ele>1172</ele>
        <time>2018-06-20T16:49:31.008Z</time>
      </trkpt>
      <trkpt lat="43.96175" lon="7.10624">
        <ele>1173</ele>
        <time>2018-06-20T16:49:33.008Z</time>
      </trkpt>
      <trkpt lat="43.96178" lon="7.10627">
        <ele>1173</ele>
        <time>2018-06-20T16:49:35.008Z</time>
      </trkpt>
      <trkpt lat="43.96182" lon="7.10629">
        <ele>1173</ele>
        <time>2018-06-20T16:49:37.008Z</time>
      </trkpt>
      <trkpt lat="43.96187" lon="7.10633">
        <ele>1173</ele>
        <time>2018-06-20T16:49:40.008Z</time>
      </trkpt>
      <trkpt lat="43.96196" lon="7.10645">
        <ele>1174</ele>
        <time>2018-06-20T16:49:47.008Z</time>
      </trkpt>
      <trkpt lat="43.96204" lon="7.10656">
        <ele>1173</ele>
        <time>2018-06-20T16:49:53.008Z</time>
      </trkpt>
      <trkpt lat="43.9621" lon="7.10667">
        <ele>1190</ele>
        <time>2018-06-20T16:49:58.008Z</time>
      </trkpt>
      <trkpt lat="43.96218" lon="7.10677">
        <ele>1188</ele>
        <time>2018-06-20T16:50:02.008Z</time>
      </trkpt>
      <trkpt lat="43.96225" lon="7.1069">
        <ele>1188</ele>
        <time>2018-06-20T16:50:12.008Z</time>
      </trkpt>
      <trkpt lat="43.9623" lon="7.10703">
        <ele>1190</ele>
        <time>2018-06-20T16:50:21.008Z</time>
      </trkpt>
      <trkpt lat="43.96233" lon="7.10715">
        <ele>1192</ele>
        <time>2018-06-20T16:50:26.008Z</time>
      </trkpt>
      <trkpt lat="43.96237" lon="7.10725">
        <ele>1192</ele>
        <time>2018-06-20T16:50:30.008Z</time>
      </trkpt>
      <trkpt lat="43.96243" lon="7.10735">
        <ele>1192</ele>
        <time>2018-06-20T16:50:34.008Z</time>
      </trkpt>
      <trkpt lat="43.96248" lon="7.10747">
        <ele>1191</ele>
        <time>2018-06-20T16:50:46.008Z</time>
      </trkpt>
      <trkpt lat="43.96255" lon="7.10758">
        <ele>1190</ele>
        <time>2018-06-20T16:50:52.008Z</time>
      </trkpt>
      <trkpt lat="43.96261" lon="7.10769">
        <ele>1191</ele>
        <time>2018-06-20T16:51:02.008Z</time>
      </trkpt>
      <trkpt lat="43.96269" lon="7.10777">
        <ele>1192</ele>
        <time>2018-06-20T16:51:09.008Z</time>
      </trkpt>
      <trkpt lat="43.96275" lon="7.10785">
        <ele>1193</ele>
        <time>2018-06-20T16:51:17.008Z</time>
      </trkpt>
      <trkpt lat="43.96279" lon="7.10791">
        <ele>1193</ele>
        <time>2018-06-20T16:51:22.008Z</time>
      </trkpt>
      <trkpt lat="43.96289" lon="7.10796">
        <ele>1193</ele>
        <time>2018-06-20T16:51:27.008Z</time>
      </trkpt>
      <trkpt lat="43.96299" lon="7.10801">
        <ele>1192</ele>
        <time>2018-06-20T16:51:39.008Z</time>
      </trkpt>
      <trkpt lat="43.96308" lon="7.10804">
        <ele>1191</ele>
        <time>2018-06-20T16:51:46.008Z</time>
      </trkpt>
      <trkpt lat="43.96315" lon="7.10811">
        <ele>1191</ele>
        <time>2018-06-20T16:51:52.008Z</time>
      </trkpt>
      <trkpt lat="43.96324" lon="7.1082">
        <ele>1191</ele>
        <time>2018-06-20T16:51:57.008Z</time>
      </trkpt>
      <trkpt lat="43.96333" lon="7.1083">
        <ele>1192</ele>
        <time>2018-06-20T16:52:03.008Z</time>
      </trkpt>
      <trkpt lat="43.96341" lon="7.1084">
        <ele>1193</ele>
        <time>2018-06-20T16:52:12.008Z</time>
      </trkpt>
      <trkpt lat="43.96349" lon="7.10849">
        <ele>1193</ele>
        <time>2018-06-20T16:52:20.008Z</time>
      </trkpt>
      <trkpt lat="43.96358" lon="7.10857">
        <ele>1194</ele>
        <time>2018-06-20T16:52:26.008Z</time>
      </trkpt>
      <trkpt lat="43.96366" lon="7.10867">
        <ele>1194</ele>
        <time>2018-06-20T16:52:33.008Z</time>
      </trkpt>
      <trkpt lat="43.96375" lon="7.10873">
        <ele>1194</ele>
        <time>2018-06-20T16:52:38.008Z</time>
      </trkpt>
      <trkpt lat="43.96384" lon="7.10882">
        <ele>1194</ele>
        <time>2018-06-20T16:52:44.008Z</time>
      </trkpt>
      <trkpt lat="43.96392" lon="7.1089">
        <ele>1195</ele>
        <time>2018-06-20T16:52:57.008Z</time>
      </trkpt>
      <trkpt lat="43.964" lon="7.10898">
        <ele>1196</ele>
        <time>2018-06-20T16:53:13.008Z</time>
      </trkpt>
      <trkpt lat="43.96409" lon="7.10902">
        <ele>1196</ele>
        <time>2018-06-20T16:53:22.008Z</time>
      </trkpt>
      <trkpt lat="43.96417" lon="7.10907">
        <ele>1188</ele>
        <time>2018-06-20T16:53:31.008Z</time>
      </trkpt>
      <trkpt lat="43.96425" lon="7.10912">
        <ele>1188</ele>
        <time>2018-06-20T16:53:50.008Z</time>
      </trkpt>
      <trkpt lat="43.96434" lon="7.10917">
        <ele>1202</ele>
        <time>2018-06-20T16:53:55.008Z</time>
      </trkpt>
      <trkpt lat="43.96442" lon="7.10923">
        <ele>1202</ele>
        <time>2018-06-20T16:54:01.008Z</time>
      </trkpt>
      <trkpt lat="43.9645" lon="7.10928">
        <ele>1203</ele>
        <time>2018-06-20T16:54:07.008Z</time>
      </trkpt>
      <trkpt lat="43.96458" lon="7.10934">
        <ele>1202</ele>
        <time>2018-06-20T16:54:15.008Z</time>
      </trkpt>
      <trkpt lat="43.96464" lon="7.10946">
        <ele>1204</ele>
        <time>2018-06-20T16:54:25.008Z</time>
      </trkpt>
      <trkpt lat="43.9647" lon="7.10952">
        <ele>1205</ele>
        <time>2018-06-20T16:54:33.008Z</time>
      </trkpt>
      <trkpt lat="43.96479" lon="7.10961">
        <ele>1207</ele>
        <time>2018-06-20T16:54:41.008Z</time>
      </trkpt>
      <trkpt lat="43.96488" lon="7.10967">
        <ele>1207</ele>
        <time>2018-06-20T16:54:53.008Z</time>
      </trkpt>
      <trkpt lat="43.96499" lon="7.10968">
        <ele>1208</ele>
        <time>2018-06-20T16:55:01.008Z</time>
      </trkpt>
      <trkpt lat="43.96508" lon="7.1097">
        <ele>1202</ele>
        <time>2018-06-20T16:55:10.008Z</time>
      </trkpt>
      <trkpt lat="43.96518" lon="7.10965">
        <ele>1200</ele>
        <time>2018-06-20T16:55:19.008Z</time>
      </trkpt>
      <trkpt lat="43.96524" lon="7.10955">
        <ele>1198</ele>
        <time>2018-06-20T16:55:30.008Z</time>
      </trkpt>
      <trkpt lat="43.96529" lon="7.10953">
        <ele>1197</ele>
        <time>2018-06-20T16:55:37.008Z</time>
      </trkpt>
      <trkpt lat="43.96537" lon="7.10948">
        <ele>1196</ele>
        <time>2018-06-20T16:55:43.008Z</time>
      </trkpt>
      <trkpt lat="43.96547" lon="7.10947">
        <ele>1196</ele>
        <time>2018-06-20T16:55:47.008Z</time>
      </trkpt>
      <trkpt lat="43.96556" lon="7.10949">
        <ele>1196</ele>
        <time>2018-06-20T16:55:51.008Z</time>
      </trkpt>
      <trkpt lat="43.96565" lon="7.10952">
        <ele>1197</ele>
        <time>2018-06-20T16:55:55.008Z</time>
      </trkpt>
      <trkpt lat="43.96574" lon="7.10955">
        <ele>1197</ele>
        <time>2018-06-20T16:55:59.008Z</time>
      </trkpt>
      <trkpt lat="43.96583" lon="7.10957">
        <ele>1198</ele>
        <time>2018-06-20T16:56:03.008Z</time>
      </trkpt>
      <trkpt lat="43.96593" lon="7.10963">
        <ele>1200</ele>
        <time>2018-06-20T16:56:08.008Z</time>
      </trkpt>
      <trkpt lat="43.96602" lon="7.1097">
        <ele>1201</ele>
        <time>2018-06-20T16:56:14.008Z</time>
      </trkpt>
      <trkpt lat="43.96613" lon="7.10975">
        <ele>1201</ele>
        <time>2018-06-20T16:56:19.008Z</time>
      </trkpt>
      <trkpt lat="43.96623" lon="7.10977">
        <ele>1201</ele>
        <time>2018-06-20T16:56:24.008Z</time>
      </trkpt>
      <trkpt lat="43.96633" lon="7.10979">
        <ele>1201</ele>
        <time>2018-06-20T16:56:29.008Z</time>
      </trkpt>
      <trkpt lat="43.96644" lon="7.10982">
        <ele>1202</ele>
        <time>2018-06-20T16:56:34.008Z</time>
      </trkpt>
      <trkpt lat="43.96655" lon="7.10978">
        <ele>1202</ele>
        <time>2018-06-20T16:56:39.008Z</time>
      </trkpt>
      <trkpt lat="43.96664" lon="7.10968">
        <ele>1200</ele>
        <time>2018-06-20T16:56:44.008Z</time>
      </trkpt>
      <trkpt lat="43.96669" lon="7.10961">
        <ele>1195</ele>
        <time>2018-06-20T16:56:48.008Z</time>
      </trkpt>
      <trkpt lat="43.96677" lon="7.10952">
        <ele>1193</ele>
        <time>2018-06-20T16:56:53.008Z</time>
      </trkpt>
      <trkpt lat="43.96681" lon="7.1095">
        <ele>1192</ele>
        <time>2018-06-20T16:56:55.008Z</time>
      </trkpt>
      <trkpt lat="43.96685" lon="7.10949">
        <ele>1192</ele>
        <time>2018-06-20T16:56:57.008Z</time>
      </trkpt>
      <trkpt lat="43.9669" lon="7.10949">
        <ele>1192</ele>
        <time>2018-06-20T16:56:59.008Z</time>
      </trkpt>
      <trkpt lat="43.96695" lon="7.10951">
        <ele>1192</ele>
        <time>2018-06-20T16:57:01.008Z</time>
      </trkpt>
      <trkpt lat="43.96699" lon="7.10953">
        <ele>1193</ele>
        <time>2018-06-20T16:57:03.008Z</time>
      </trkpt>
      <trkpt lat="43.96703" lon="7.10956">
        <ele>1193</ele>
        <time>2018-06-20T16:57:05.008Z</time>
      </trkpt>
      <trkpt lat="43.96709" lon="7.10959">
        <ele>1194</ele>
        <time>2018-06-20T16:57:08.008Z</time>
      </trkpt>
      <trkpt lat="43.96715" lon="7.10963">
        <ele>1194</ele>
        <time>2018-06-20T16:57:11.008Z</time>
      </trkpt>
      <trkpt lat="43.9672" lon="7.10966">
        <ele>1195</ele>
        <time>2018-06-20T16:57:14.008Z</time>
      </trkpt>
      <trkpt lat="43.96727" lon="7.10968">
        <ele>1196</ele>
        <time>2018-06-20T16:57:17.008Z</time>
      </trkpt>
      <trkpt lat="43.96733" lon="7.10972">
        <ele>1197</ele>
        <time>2018-06-20T16:57:20.008Z</time>
      </trkpt>
      <trkpt lat="43.96739" lon="7.10974">
        <ele>1198</ele>
        <time>2018-06-20T16:57:22.008Z</time>
      </trkpt>
      <trkpt lat="43.96743" lon="7.10974">
        <ele>1198</ele>
        <time>2018-06-20T16:57:24.008Z</time>
      </trkpt>
      <trkpt lat="43.96745" lon="7.10975">
        <ele>1199</ele>
        <time>2018-06-20T16:57:37.008Z</time>
      </trkpt>
      <trkpt lat="43.96752" lon="7.10978">
        <ele>1196</ele>
        <time>2018-06-20T16:58:28.008Z</time>
      </trkpt>
      <trkpt lat="43.96758" lon="7.10983">
        <ele>1198</ele>
        <time>2018-06-20T16:58:33.008Z</time>
      </trkpt>
      <trkpt lat="43.96762" lon="7.10987">
        <ele>1199</ele>
        <time>2018-06-20T16:58:36.008Z</time>
      </trkpt>
      <trkpt lat="43.96768" lon="7.10993">
        <ele>1199</ele>
        <time>2018-06-20T16:58:40.008Z</time>
      </trkpt>
      <trkpt lat="43.96773" lon="7.11">
        <ele>1198</ele>
        <time>2018-06-20T16:58:47.008Z</time>
      </trkpt>
      <trkpt lat="43.9678" lon="7.11001">
        <ele>1223</ele>
        <time>2018-06-20T16:58:55.008Z</time>
      </trkpt>
      <trkpt lat="43.96786" lon="7.11004">
        <ele>1224</ele>
        <time>2018-06-20T16:59:05.008Z</time>
      </trkpt>
      <trkpt lat="43.96796" lon="7.11006">
        <ele>1224</ele>
        <time>2018-06-20T16:59:27.008Z</time>
      </trkpt>
      <trkpt lat="43.96805" lon="7.11001">
        <ele>1222</ele>
        <time>2018-06-20T16:59:34.008Z</time>
      </trkpt>
      <trkpt lat="43.96815" lon="7.10999">
        <ele>1197</ele>
        <time>2018-06-20T16:59:43.008Z</time>
      </trkpt>
      <trkpt lat="43.96825" lon="7.10997">
        <ele>1201</ele>
        <time>2018-06-20T16:59:51.008Z</time>
      </trkpt>
      <trkpt lat="43.96833" lon="7.10992">
        <ele>1201</ele>
        <time>2018-06-20T16:59:58.008Z</time>
      </trkpt>
      <trkpt lat="43.9684" lon="7.10991">
        <ele>1199</ele>
        <time>2018-06-20T17:00:04.008Z</time>
      </trkpt>
      <trkpt lat="43.96847" lon="7.10995">
        <ele>1198</ele>
        <time>2018-06-20T17:00:11.008Z</time>
      </trkpt>
      <trkpt lat="43.96855" lon="7.10996">
        <ele>1195</ele>
        <time>2018-06-20T17:00:21.008Z</time>
      </trkpt>
      <trkpt lat="43.96863" lon="7.10996">
        <ele>1194</ele>
        <time>2018-06-20T17:00:24.008Z</time>
      </trkpt>
      <trkpt lat="43.9687" lon="7.10994">
        <ele>1193</ele>
        <time>2018-06-20T17:00:27.008Z</time>
      </trkpt>
      <trkpt lat="43.96876" lon="7.10989">
        <ele>1193</ele>
        <time>2018-06-20T17:00:30.008Z</time>
      </trkpt>
      <trkpt lat="43.96881" lon="7.10984">
        <ele>1192</ele>
        <time>2018-06-20T17:00:33.008Z</time>
      </trkpt>
      <trkpt lat="43.96888" lon="7.10978">
        <ele>1191</ele>
        <time>2018-06-20T17:00:37.008Z</time>
      </trkpt>
      <trkpt lat="43.96897" lon="7.10976">
        <ele>1192</ele>
        <time>2018-06-20T17:00:41.008Z</time>
      </trkpt>
      <trkpt lat="43.96904" lon="7.10977">
        <ele>1194</ele>
        <time>2018-06-20T17:00:44.008Z</time>
      </trkpt>
      <trkpt lat="43.96912" lon="7.1098">
        <ele>1196</ele>
        <time>2018-06-20T17:00:48.008Z</time>
      </trkpt>
      <trkpt lat="43.96922" lon="7.10984">
        <ele>1197</ele>
        <time>2018-06-20T17:00:53.008Z</time>
      </trkpt>
      <trkpt lat="43.96931" lon="7.10987">
        <ele>1196</ele>
        <time>2018-06-20T17:00:57.008Z</time>
      </trkpt>
      <trkpt lat="43.96941" lon="7.1099">
        <ele>1193</ele>
        <time>2018-06-20T17:01:01.008Z</time>
      </trkpt>
      <trkpt lat="43.96952" lon="7.10993">
        <ele>1191</ele>
        <time>2018-06-20T17:01:06.008Z</time>
      </trkpt>
      <trkpt lat="43.96964" lon="7.10995">
        <ele>1189</ele>
        <time>2018-06-20T17:01:11.008Z</time>
      </trkpt>
      <trkpt lat="43.96976" lon="7.10996">
        <ele>1189</ele>
        <time>2018-06-20T17:01:16.008Z</time>
      </trkpt>
      <trkpt lat="43.96985" lon="7.11005">
        <ele>1205</ele>
        <time>2018-06-20T17:01:22.008Z</time>
      </trkpt>
      <trkpt lat="43.96992" lon="7.11011">
        <ele>1204</ele>
        <time>2018-06-20T17:01:27.008Z</time>
      </trkpt>
      <trkpt lat="43.96999" lon="7.11017">
        <ele>1205</ele>
        <time>2018-06-20T17:01:34.008Z</time>
      </trkpt>
      <trkpt lat="43.97007" lon="7.11024">
        <ele>1197</ele>
        <time>2018-06-20T17:01:39.008Z</time>
      </trkpt>
      <trkpt lat="43.97016" lon="7.11035">
        <ele>1199</ele>
        <time>2018-06-20T17:01:45.008Z</time>
      </trkpt>
      <trkpt lat="43.97022" lon="7.11046">
        <ele>1200</ele>
        <time>2018-06-20T17:01:50.008Z</time>
      </trkpt>
      <trkpt lat="43.97029" lon="7.11056">
        <ele>1201</ele>
        <time>2018-06-20T17:01:54.008Z</time>
      </trkpt>
      <trkpt lat="43.97034" lon="7.1107">
        <ele>1201</ele>
        <time>2018-06-20T17:01:58.008Z</time>
      </trkpt>
      <trkpt lat="43.97038" lon="7.11082">
        <ele>1202</ele>
        <time>2018-06-20T17:02:02.008Z</time>
      </trkpt>
      <trkpt lat="43.97042" lon="7.11093">
        <ele>1208</ele>
        <time>2018-06-20T17:02:05.008Z</time>
      </trkpt>
      <trkpt lat="43.97044" lon="7.11105">
        <ele>1208</ele>
        <time>2018-06-20T17:02:09.008Z</time>
      </trkpt>
      <trkpt lat="43.97042" lon="7.11117">
        <ele>1208</ele>
        <time>2018-06-20T17:02:13.008Z</time>
      </trkpt>
      <trkpt lat="43.97042" lon="7.11128">
        <ele>1209</ele>
        <time>2018-06-20T17:02:17.008Z</time>
      </trkpt>
      <trkpt lat="43.97045" lon="7.11141">
        <ele>1208</ele>
        <time>2018-06-20T17:02:21.008Z</time>
      </trkpt>
      <trkpt lat="43.97048" lon="7.11151">
        <ele>1208</ele>
        <time>2018-06-20T17:02:23.008Z</time>
      </trkpt>
      <trkpt lat="43.97054" lon="7.11161">
        <ele>1207</ele>
        <time>2018-06-20T17:02:26.008Z</time>
      </trkpt>
      <trkpt lat="43.97062" lon="7.1117">
        <ele>1204</ele>
        <time>2018-06-20T17:02:30.008Z</time>
      </trkpt>
      <trkpt lat="43.9707" lon="7.11177">
        <ele>1203</ele>
        <time>2018-06-20T17:02:36.008Z</time>
      </trkpt>
      <trkpt lat="43.97078" lon="7.11179">
        <ele>1203</ele>
        <time>2018-06-20T17:02:39.008Z</time>
      </trkpt>
      <trkpt lat="43.97085" lon="7.11182">
        <ele>1200</ele>
        <time>2018-06-20T17:02:42.008Z</time>
      </trkpt>
      <trkpt lat="43.97091" lon="7.11187">
        <ele>1199</ele>
        <time>2018-06-20T17:02:45.008Z</time>
      </trkpt>
      <trkpt lat="43.97102" lon="7.11192">
        <ele>1199</ele>
        <time>2018-06-20T17:02:51.008Z</time>
      </trkpt>
      <trkpt lat="43.97105" lon="7.11197">
        <ele>1198</ele>
        <time>2018-06-20T17:02:54.008Z</time>
      </trkpt>
      <trkpt lat="43.9711" lon="7.11201">
        <ele>1198</ele>
        <time>2018-06-20T17:02:57.008Z</time>
      </trkpt>
      <trkpt lat="43.97115" lon="7.11199">
        <ele>1198</ele>
        <time>2018-06-20T17:03:00.008Z</time>
      </trkpt>
      <trkpt lat="43.97119" lon="7.11194">
        <ele>1198</ele>
        <time>2018-06-20T17:03:03.008Z</time>
      </trkpt>
      <trkpt lat="43.97123" lon="7.11187">
        <ele>1198</ele>
        <time>2018-06-20T17:03:06.008Z</time>
      </trkpt>
      <trkpt lat="43.97127" lon="7.11181">
        <ele>1199</ele>
        <time>2018-06-20T17:03:09.008Z</time>
      </trkpt>
      <trkpt lat="43.97132" lon="7.11174">
        <ele>1199</ele>
        <time>2018-06-20T17:03:12.008Z</time>
      </trkpt>
      <trkpt lat="43.97136" lon="7.1117">
        <ele>1199</ele>
        <time>2018-06-20T17:03:15.008Z</time>
      </trkpt>
      <trkpt lat="43.97139" lon="7.11168">
        <ele>1199</ele>
        <time>2018-06-20T17:03:17.008Z</time>
      </trkpt>
      <trkpt lat="43.97142" lon="7.11166">
        <ele>1200</ele>
        <time>2018-06-20T17:03:20.008Z</time>
      </trkpt>
      <trkpt lat="43.9714" lon="7.11161">
        <ele>1200</ele>
        <time>2018-06-20T17:03:27.008Z</time>
      </trkpt>
      <trkpt lat="43.9714" lon="7.11155">
        <ele>1200</ele>
        <time>2018-06-20T17:03:36.008Z</time>
      </trkpt>
      <trkpt lat="43.97144" lon="7.11152">
        <ele>1200</ele>
        <time>2018-06-20T17:03:50.008Z</time>
      </trkpt>
      <trkpt lat="43.97148" lon="7.1115">
        <ele>1200</ele>
        <time>2018-06-20T17:03:58.008Z</time>
      </trkpt>
      <trkpt lat="43.97154" lon="7.11148">
        <ele>1200</ele>
        <time>2018-06-20T17:04:04.008Z</time>
      </trkpt>
      <trkpt lat="43.97149" lon="7.1114">
        <ele>1199</ele>
        <time>2018-06-20T17:04:12.008Z</time>
      </trkpt>
      <trkpt lat="43.97147" lon="7.11132">
        <ele>1199</ele>
        <time>2018-06-20T17:04:17.008Z</time>
      </trkpt>
      <trkpt lat="43.97142" lon="7.11128">
        <ele>1199</ele>
        <time>2018-06-20T17:04:28.008Z</time>
      </trkpt>
      <trkpt lat="43.97147" lon="7.11132">
        <ele>1199</ele>
        <time>2018-06-20T17:04:46.008Z</time>
      </trkpt>
      <trkpt lat="43.97151" lon="7.11139">
        <ele>1199</ele>
        <time>2018-06-20T17:04:51.008Z</time>
      </trkpt>
      <trkpt lat="43.97153" lon="7.11148">
        <ele>1200</ele>
        <time>2018-06-20T17:05:06.008Z</time>
      </trkpt>
      <trkpt lat="43.97154" lon="7.11154">
        <ele>1200</ele>
        <time>2018-06-20T17:05:10.008Z</time>
      </trkpt>
      <trkpt lat="43.97154" lon="7.11158">
        <ele>1200</ele>
        <time>2018-06-20T17:05:13.008Z</time>
      </trkpt>
      <trkpt lat="43.97153" lon="7.11163">
        <ele>1201</ele>
        <time>2018-06-20T17:05:17.008Z</time>
      </trkpt>
      <trkpt lat="43.97151" lon="7.11167">
        <ele>1200</ele>
        <time>2018-06-20T17:05:21.008Z</time>
      </trkpt>
      <trkpt lat="43.97151" lon="7.11172">
        <ele>1200</ele>
        <time>2018-06-20T17:05:26.008Z</time>
      </trkpt>
      <trkpt lat="43.9715" lon="7.11178">
        <ele>1199</ele>
        <time>2018-06-20T17:05:38.008Z</time>
      </trkpt>
      <trkpt lat="43.97149" lon="7.11183">
        <ele>1199</ele>
        <time>2018-06-20T17:05:42.008Z</time>
      </trkpt>
      <trkpt lat="43.97151" lon="7.11188">
        <ele>1199</ele>
        <time>2018-06-20T17:05:46.008Z</time>
      </trkpt>
      <trkpt lat="43.97153" lon="7.11194">
        <ele>1198</ele>
        <time>2018-06-20T17:05:50.008Z</time>
      </trkpt>
      <trkpt lat="43.97154" lon="7.11198">
        <ele>1198</ele>
        <time>2018-06-20T17:05:54.008Z</time>
      </trkpt>
      <trkpt lat="43.97156" lon="7.11204">
        <ele>1197</ele>
        <time>2018-06-20T17:06:11.008Z</time>
      </trkpt>
      <trkpt lat="43.97159" lon="7.11208">
        <ele>1197</ele>
        <time>2018-06-20T17:06:15.008Z</time>
      </trkpt>
      <trkpt lat="43.9716" lon="7.112">
        <ele>1198</ele>
        <time>2018-06-20T17:06:41.008Z</time>
      </trkpt>
      <trkpt lat="43.97159" lon="7.11194">
        <ele>1198</ele>
        <time>2018-06-20T17:06:46.008Z</time>
      </trkpt>
      <trkpt lat="43.9716" lon="7.11188">
        <ele>1199</ele>
        <time>2018-06-20T17:06:50.008Z</time>
      </trkpt>
      <trkpt lat="43.97159" lon="7.11182">
        <ele>1199</ele>
        <time>2018-06-20T17:07:06.008Z</time>
      </trkpt>
      <trkpt lat="43.97158" lon="7.11175">
        <ele>1200</ele>
        <time>2018-06-20T17:07:13.008Z</time>
      </trkpt>
      <trkpt lat="43.97153" lon="7.11172">
        <ele>1200</ele>
        <time>2018-06-20T17:07:18.008Z</time>
      </trkpt>
      <trkpt lat="43.97149" lon="7.1117">
        <ele>1200</ele>
        <time>2018-06-20T17:07:22.008Z</time>
      </trkpt>
      <trkpt lat="43.97144" lon="7.11168">
        <ele>1199</ele>
        <time>2018-06-20T17:07:28.008Z</time>
      </trkpt>
      <trkpt lat="43.9714" lon="7.11166">
        <ele>1200</ele>
        <time>2018-06-20T17:08:01.008Z</time>
      </trkpt>
      <trkpt lat="43.97136" lon="7.11165">
        <ele>1200</ele>
        <time>2018-06-20T17:08:31.008Z</time>
      </trkpt>
      <trkpt lat="43.97136" lon="7.1116">
        <ele>1200</ele>
        <time>2018-06-20T17:08:34.008Z</time>
      </trkpt>
      <trkpt lat="43.9714" lon="7.11158">
        <ele>1200</ele>
        <time>2018-06-20T17:10:43.008Z</time>
      </trkpt>
      <trkpt lat="43.9714" lon="7.11164">
        <ele>1200</ele>
        <time>2018-06-20T17:11:06.008Z</time>
      </trkpt>
      <trkpt lat="43.97143" lon="7.11165">
        <ele>1200</ele>
        <time>2018-06-20T17:11:13.008Z</time>
      </trkpt>
      <trkpt lat="43.97137" lon="7.11173">
        <ele>1199</ele>
        <time>2018-06-20T17:11:57.008Z</time>
      </trkpt>
      <trkpt lat="43.97132" lon="7.11176">
        <ele>1199</ele>
        <time>2018-06-20T17:11:59.008Z</time>
      </trkpt>
      <trkpt lat="43.97127" lon="7.11181">
        <ele>1199</ele>
        <time>2018-06-20T17:12:01.008Z</time>
      </trkpt>
      <trkpt lat="43.97123" lon="7.11186">
        <ele>1198</ele>
        <time>2018-06-20T17:12:03.008Z</time>
      </trkpt>
      <trkpt lat="43.97119" lon="7.11191">
        <ele>1198</ele>
        <time>2018-06-20T17:12:05.008Z</time>
      </trkpt>
      <trkpt lat="43.97114" lon="7.11195">
        <ele>1198</ele>
        <time>2018-06-20T17:12:07.008Z</time>
      </trkpt>
      <trkpt lat="43.97109" lon="7.11199">
        <ele>1198</ele>
        <time>2018-06-20T17:12:09.008Z</time>
      </trkpt>
      <trkpt lat="43.97102" lon="7.11201">
        <ele>1198</ele>
        <time>2018-06-20T17:12:11.008Z</time>
      </trkpt>
      <trkpt lat="43.97096" lon="7.11202">
        <ele>1198</ele>
        <time>2018-06-20T17:12:13.008Z</time>
      </trkpt>
      <trkpt lat="43.97089" lon="7.11203">
        <ele>1198</ele>
        <time>2018-06-20T17:12:15.008Z</time>
      </trkpt>
      <trkpt lat="43.97083" lon="7.11205">
        <ele>1202</ele>
        <time>2018-06-20T17:12:17.008Z</time>
      </trkpt>
      <trkpt lat="43.97079" lon="7.11208">
        <ele>1202</ele>
        <time>2018-06-20T17:12:19.008Z</time>
      </trkpt>
      <trkpt lat="43.97075" lon="7.1121">
        <ele>1202</ele>
        <time>2018-06-20T17:12:21.008Z</time>
      </trkpt>
      <trkpt lat="43.97068" lon="7.11211">
        <ele>1202</ele>
        <time>2018-06-20T17:12:24.008Z</time>
      </trkpt>
      <trkpt lat="43.97062" lon="7.11214">
        <ele>1203</ele>
        <time>2018-06-20T17:12:27.008Z</time>
      </trkpt>
      <trkpt lat="43.97056" lon="7.11216">
        <ele>1203</ele>
        <time>2018-06-20T17:12:30.008Z</time>
      </trkpt>
      <trkpt lat="43.97051" lon="7.11211">
        <ele>1204</ele>
        <time>2018-06-20T17:12:34.008Z</time>
      </trkpt>
      <trkpt lat="43.97045" lon="7.11217">
        <ele>1204</ele>
        <time>2018-06-20T17:12:39.008Z</time>
      </trkpt>
      <trkpt lat="43.97039" lon="7.11223">
        <ele>1204</ele>
        <time>2018-06-20T17:12:43.008Z</time>
      </trkpt>
      <trkpt lat="43.97034" lon="7.11227">
        <ele>1204</ele>
        <time>2018-06-20T17:12:47.008Z</time>
      </trkpt>
      <trkpt lat="43.97029" lon="7.11229">
        <ele>1204</ele>
        <time>2018-06-20T17:12:52.008Z</time>
      </trkpt>
      <trkpt lat="43.97023" lon="7.11229">
        <ele>1205</ele>
        <time>2018-06-20T17:12:56.008Z</time>
      </trkpt>
      <trkpt lat="43.97018" lon="7.11227">
        <ele>1205</ele>
        <time>2018-06-20T17:13:01.008Z</time>
      </trkpt>
      <trkpt lat="43.97013" lon="7.11225">
        <ele>1205</ele>
        <time>2018-06-20T17:13:06.008Z</time>
      </trkpt>
      <trkpt lat="43.97008" lon="7.11225">
        <ele>1205</ele>
        <time>2018-06-20T17:13:10.008Z</time>
      </trkpt>
      <trkpt lat="43.97001" lon="7.11224">
        <ele>1206</ele>
        <time>2018-06-20T17:13:15.008Z</time>
      </trkpt>
      <trkpt lat="43.96994" lon="7.11226">
        <ele>1213</ele>
        <time>2018-06-20T17:13:23.008Z</time>
      </trkpt>
      <trkpt lat="43.96987" lon="7.11223">
        <ele>1214</ele>
        <time>2018-06-20T17:13:29.008Z</time>
      </trkpt>
      <trkpt lat="43.96981" lon="7.11226">
        <ele>1214</ele>
        <time>2018-06-20T17:13:35.008Z</time>
      </trkpt>
      <trkpt lat="43.96974" lon="7.11226">
        <ele>1215</ele>
        <time>2018-06-20T17:13:45.008Z</time>
      </trkpt>
      <trkpt lat="43.96966" lon="7.11228">
        <ele>1216</ele>
        <time>2018-06-20T17:14:07.008Z</time>
      </trkpt>
      <trkpt lat="43.96958" lon="7.1123">
        <ele>1216</ele>
        <time>2018-06-20T17:14:13.008Z</time>
      </trkpt>
      <trkpt lat="43.96952" lon="7.11232">
        <ele>1217</ele>
        <time>2018-06-20T17:14:23.008Z</time>
      </trkpt>
      <trkpt lat="43.96945" lon="7.11234">
        <ele>1217</ele>
        <time>2018-06-20T17:14:28.008Z</time>
      </trkpt>
      <trkpt lat="43.96939" lon="7.11236">
        <ele>1218</ele>
        <time>2018-06-20T17:14:32.008Z</time>
      </trkpt>
      <trkpt lat="43.96932" lon="7.11238">
        <ele>1218</ele>
        <time>2018-06-20T17:14:36.008Z</time>
      </trkpt>
      <trkpt lat="43.96925" lon="7.11239">
        <ele>1218</ele>
        <time>2018-06-20T17:14:40.008Z</time>
      </trkpt>
      <trkpt lat="43.96918" lon="7.11239">
        <ele>1218</ele>
        <time>2018-06-20T17:14:44.008Z</time>
      </trkpt>
      <trkpt lat="43.9691" lon="7.1124">
        <ele>1223</ele>
        <time>2018-06-20T17:14:49.008Z</time>
      </trkpt>
      <trkpt lat="43.96901" lon="7.1124">
        <ele>1225</ele>
        <time>2018-06-20T17:14:54.008Z</time>
      </trkpt>
      <trkpt lat="43.96893" lon="7.11241">
        <ele>1226</ele>
        <time>2018-06-20T17:14:59.008Z</time>
      </trkpt>
      <trkpt lat="43.96884" lon="7.11242">
        <ele>1228</ele>
        <time>2018-06-20T17:15:04.008Z</time>
      </trkpt>
      <trkpt lat="43.96873" lon="7.11244">
        <ele>1229</ele>
        <time>2018-06-20T17:15:08.008Z</time>
      </trkpt>
      <trkpt lat="43.96862" lon="7.11244">
        <ele>1229</ele>
        <time>2018-06-20T17:15:12.008Z</time>
      </trkpt>
      <trkpt lat="43.96853" lon="7.11246">
        <ele>1230</ele>
        <time>2018-06-20T17:15:16.008Z</time>
      </trkpt>
      <trkpt lat="43.96844" lon="7.11248">
        <ele>1230</ele>
        <time>2018-06-20T17:15:20.008Z</time>
      </trkpt>
      <trkpt lat="43.96835" lon="7.11254">
        <ele>1226</ele>
        <time>2018-06-20T17:15:24.008Z</time>
      </trkpt>
      <trkpt lat="43.96825" lon="7.11261">
        <ele>1226</ele>
        <time>2018-06-20T17:15:28.008Z</time>
      </trkpt>
      <trkpt lat="43.96815" lon="7.11263">
        <ele>1225</ele>
        <time>2018-06-20T17:15:32.008Z</time>
      </trkpt>
      <trkpt lat="43.96806" lon="7.11266">
        <ele>1224</ele>
        <time>2018-06-20T17:15:35.008Z</time>
      </trkpt>
      <trkpt lat="43.96795" lon="7.11268">
        <ele>1224</ele>
        <time>2018-06-20T17:15:39.008Z</time>
      </trkpt>
      <trkpt lat="43.96785" lon="7.11268">
        <ele>1225</ele>
        <time>2018-06-20T17:15:43.008Z</time>
      </trkpt>
      <trkpt lat="43.96778" lon="7.11268">
        <ele>1226</ele>
        <time>2018-06-20T17:15:46.008Z</time>
      </trkpt>
      <trkpt lat="43.96768" lon="7.11269">
        <ele>1227</ele>
        <time>2018-06-20T17:15:50.008Z</time>
      </trkpt>
      <trkpt lat="43.9676" lon="7.1127">
        <ele>1228</ele>
        <time>2018-06-20T17:15:54.008Z</time>
      </trkpt>
      <trkpt lat="43.96751" lon="7.11271">
        <ele>1229</ele>
        <time>2018-06-20T17:15:59.008Z</time>
      </trkpt>
      <trkpt lat="43.96742" lon="7.11273">
        <ele>1235</ele>
        <time>2018-06-20T17:16:03.008Z</time>
      </trkpt>
      <trkpt lat="43.96733" lon="7.11272">
        <ele>1235</ele>
        <time>2018-06-20T17:16:07.008Z</time>
      </trkpt>
      <trkpt lat="43.96725" lon="7.1127">
        <ele>1236</ele>
        <time>2018-06-20T17:16:10.008Z</time>
      </trkpt>
      <trkpt lat="43.96716" lon="7.11269">
        <ele>1236</ele>
        <time>2018-06-20T17:16:13.008Z</time>
      </trkpt>
      <trkpt lat="43.9671" lon="7.11267">
        <ele>1237</ele>
        <time>2018-06-20T17:16:16.008Z</time>
      </trkpt>
      <trkpt lat="43.96701" lon="7.11269">
        <ele>1238</ele>
        <time>2018-06-20T17:16:21.008Z</time>
      </trkpt>
      <trkpt lat="43.9669" lon="7.11274">
        <ele>1238</ele>
        <time>2018-06-20T17:16:26.008Z</time>
      </trkpt>
      <trkpt lat="43.96682" lon="7.1128">
        <ele>1238</ele>
        <time>2018-06-20T17:16:31.008Z</time>
      </trkpt>
      <trkpt lat="43.96672" lon="7.11289">
        <ele>1237</ele>
        <time>2018-06-20T17:16:36.008Z</time>
      </trkpt>
      <trkpt lat="43.96662" lon="7.11298">
        <ele>1246</ele>
        <time>2018-06-20T17:16:41.008Z</time>
      </trkpt>
      <trkpt lat="43.96654" lon="7.11306">
        <ele>1245</ele>
        <time>2018-06-20T17:16:45.008Z</time>
      </trkpt>
      <trkpt lat="43.96646" lon="7.11312">
        <ele>1246</ele>
        <time>2018-06-20T17:16:49.008Z</time>
      </trkpt>
      <trkpt lat="43.96638" lon="7.11316">
        <ele>1247</ele>
        <time>2018-06-20T17:16:53.008Z</time>
      </trkpt>
      <trkpt lat="43.96627" lon="7.11321">
        <ele>1248</ele>
        <time>2018-06-20T17:16:58.008Z</time>
      </trkpt>
      <trkpt lat="43.9662" lon="7.11325">
        <ele>1249</ele>
        <time>2018-06-20T17:17:03.008Z</time>
      </trkpt>
      <trkpt lat="43.96612" lon="7.11332">
        <ele>1250</ele>
        <time>2018-06-20T17:17:09.008Z</time>
      </trkpt>
      <trkpt lat="43.96604" lon="7.11333">
        <ele>1251</ele>
        <time>2018-06-20T17:17:15.008Z</time>
      </trkpt>
      <trkpt lat="43.96595" lon="7.11333">
        <ele>1252</ele>
        <time>2018-06-20T17:17:21.008Z</time>
      </trkpt>
      <trkpt lat="43.96587" lon="7.11338">
        <ele>1249</ele>
        <time>2018-06-20T17:17:28.008Z</time>
      </trkpt>
      <trkpt lat="43.96578" lon="7.11345">
        <ele>1254</ele>
        <time>2018-06-20T17:17:32.008Z</time>
      </trkpt>
      <trkpt lat="43.96571" lon="7.11354">
        <ele>1254</ele>
        <time>2018-06-20T17:17:36.008Z</time>
      </trkpt>
      <trkpt lat="43.96563" lon="7.11363">
        <ele>1255</ele>
        <time>2018-06-20T17:17:41.008Z</time>
      </trkpt>
      <trkpt lat="43.96555" lon="7.11371">
        <ele>1255</ele>
        <time>2018-06-20T17:17:47.008Z</time>
      </trkpt>
      <trkpt lat="43.96549" lon="7.11381">
        <ele>1255</ele>
        <time>2018-06-20T17:17:53.008Z</time>
      </trkpt>
      <trkpt lat="43.96544" lon="7.1139">
        <ele>1254</ele>
        <time>2018-06-20T17:18:00.008Z</time>
      </trkpt>
      <trkpt lat="43.96538" lon="7.11402">
        <ele>1254</ele>
        <time>2018-06-20T17:18:07.008Z</time>
      </trkpt>
      <trkpt lat="43.96533" lon="7.11414">
        <ele>1255</ele>
        <time>2018-06-20T17:18:12.008Z</time>
      </trkpt>
      <trkpt lat="43.96527" lon="7.11425">
        <ele>1246</ele>
        <time>2018-06-20T17:18:16.008Z</time>
      </trkpt>
      <trkpt lat="43.96519" lon="7.11432">
        <ele>1247</ele>
        <time>2018-06-20T17:18:19.008Z</time>
      </trkpt>
      <trkpt lat="43.96511" lon="7.11436">
        <ele>1248</ele>
        <time>2018-06-20T17:18:24.008Z</time>
      </trkpt>
      <trkpt lat="43.96502" lon="7.11442">
        <ele>1248</ele>
        <time>2018-06-20T17:18:30.008Z</time>
      </trkpt>
      <trkpt lat="43.96492" lon="7.11447">
        <ele>1258</ele>
        <time>2018-06-20T17:18:37.008Z</time>
      </trkpt>
      <trkpt lat="43.96483" lon="7.11452">
        <ele>1257</ele>
        <time>2018-06-20T17:18:42.008Z</time>
      </trkpt>
      <trkpt lat="43.96474" lon="7.11456">
        <ele>1257</ele>
        <time>2018-06-20T17:18:48.008Z</time>
      </trkpt>
      <trkpt lat="43.96463" lon="7.11459">
        <ele>1258</ele>
        <time>2018-06-20T17:18:55.008Z</time>
      </trkpt>
      <trkpt lat="43.96456" lon="7.11464">
        <ele>1258</ele>
        <time>2018-06-20T17:19:00.008Z</time>
      </trkpt>
      <trkpt lat="43.96449" lon="7.11469">
        <ele>1259</ele>
        <time>2018-06-20T17:19:05.008Z</time>
      </trkpt>
      <trkpt lat="43.96439" lon="7.11473">
        <ele>1259</ele>
        <time>2018-06-20T17:19:10.008Z</time>
      </trkpt>
      <trkpt lat="43.96433" lon="7.11475">
        <ele>1259</ele>
        <time>2018-06-20T17:19:13.008Z</time>
      </trkpt>
      <trkpt lat="43.96426" lon="7.11478">
        <ele>1259</ele>
        <time>2018-06-20T17:19:17.008Z</time>
      </trkpt>
      <trkpt lat="43.96419" lon="7.11483">
        <ele>1260</ele>
        <time>2018-06-20T17:19:21.008Z</time>
      </trkpt>
      <trkpt lat="43.96414" lon="7.11487">
        <ele>1261</ele>
        <time>2018-06-20T17:19:24.008Z</time>
      </trkpt>
      <trkpt lat="43.9641" lon="7.11494">
        <ele>1261</ele>
        <time>2018-06-20T17:19:27.008Z</time>
      </trkpt>
      <trkpt lat="43.96405" lon="7.115">
        <ele>1260</ele>
        <time>2018-06-20T17:19:30.008Z</time>
      </trkpt>
      <trkpt lat="43.96401" lon="7.11506">
        <ele>1258</ele>
        <time>2018-06-20T17:19:33.008Z</time>
      </trkpt>
      <trkpt lat="43.96397" lon="7.11513">
        <ele>1258</ele>
        <time>2018-06-20T17:19:36.008Z</time>
      </trkpt>
      <trkpt lat="43.96394" lon="7.11518">
        <ele>1257</ele>
        <time>2018-06-20T17:19:38.008Z</time>
      </trkpt>
      <trkpt lat="43.96392" lon="7.11527">
        <ele>1257</ele>
        <time>2018-06-20T17:19:41.008Z</time>
      </trkpt>
      <trkpt lat="43.9639" lon="7.11536">
        <ele>1257</ele>
        <time>2018-06-20T17:19:44.008Z</time>
      </trkpt>
      <trkpt lat="43.96388" lon="7.11546">
        <ele>1257</ele>
        <time>2018-06-20T17:19:47.008Z</time>
      </trkpt>
      <trkpt lat="43.96388" lon="7.11554">
        <ele>1256</ele>
        <time>2018-06-20T17:19:49.008Z</time>
      </trkpt>
      <trkpt lat="43.96388" lon="7.11561">
        <ele>1256</ele>
        <time>2018-06-20T17:19:51.008Z</time>
      </trkpt>
      <trkpt lat="43.96389" lon="7.11568">
        <ele>1256</ele>
        <time>2018-06-20T17:19:54.008Z</time>
      </trkpt>
      <trkpt lat="43.96386" lon="7.11575">
        <ele>1256</ele>
        <time>2018-06-20T17:19:57.008Z</time>
      </trkpt>
      <trkpt lat="43.96382" lon="7.11581">
        <ele>1256</ele>
        <time>2018-06-20T17:19:59.008Z</time>
      </trkpt>
      <trkpt lat="43.96379" lon="7.11589">
        <ele>1256</ele>
        <time>2018-06-20T17:20:01.008Z</time>
      </trkpt>
      <trkpt lat="43.96378" lon="7.11597">
        <ele>1256</ele>
        <time>2018-06-20T17:20:04.008Z</time>
      </trkpt>
      <trkpt lat="43.96378" lon="7.11606">
        <ele>1257</ele>
        <time>2018-06-20T17:20:08.008Z</time>
      </trkpt>
      <trkpt lat="43.96376" lon="7.11614">
        <ele>1257</ele>
        <time>2018-06-20T17:20:11.008Z</time>
      </trkpt>
      <trkpt lat="43.96374" lon="7.11622">
        <ele>1257</ele>
        <time>2018-06-20T17:20:15.008Z</time>
      </trkpt>
      <trkpt lat="43.96371" lon="7.11629">
        <ele>1257</ele>
        <time>2018-06-20T17:20:18.008Z</time>
      </trkpt>
      <trkpt lat="43.9637" lon="7.11636">
        <ele>1257</ele>
        <time>2018-06-20T17:20:21.008Z</time>
      </trkpt>
      <trkpt lat="43.96366" lon="7.11642">
        <ele>1258</ele>
        <time>2018-06-20T17:20:25.008Z</time>
      </trkpt>
      <trkpt lat="43.96361" lon="7.11648">
        <ele>1259</ele>
        <time>2018-06-20T17:20:29.008Z</time>
      </trkpt>
      <trkpt lat="43.96358" lon="7.11654">
        <ele>1260</ele>
        <time>2018-06-20T17:20:32.008Z</time>
      </trkpt>
      <trkpt lat="43.96355" lon="7.11658">
        <ele>1261</ele>
        <time>2018-06-20T17:20:35.008Z</time>
      </trkpt>
      <trkpt lat="43.96352" lon="7.11663">
        <ele>1262</ele>
        <time>2018-06-20T17:20:38.008Z</time>
      </trkpt>
      <trkpt lat="43.96349" lon="7.11667">
        <ele>1262</ele>
        <time>2018-06-20T17:20:41.008Z</time>
      </trkpt>
      <trkpt lat="43.96345" lon="7.11673">
        <ele>1263</ele>
        <time>2018-06-20T17:20:45.008Z</time>
      </trkpt>
      <trkpt lat="43.96342" lon="7.11679">
        <ele>1262</ele>
        <time>2018-06-20T17:20:49.008Z</time>
      </trkpt>
      <trkpt lat="43.96338" lon="7.11683">
        <ele>1262</ele>
        <time>2018-06-20T17:20:53.008Z</time>
      </trkpt>
      <trkpt lat="43.96335" lon="7.11686">
        <ele>1262</ele>
        <time>2018-06-20T17:20:56.008Z</time>
      </trkpt>
      <trkpt lat="43.96332" lon="7.11689">
        <ele>1269</ele>
        <time>2018-06-20T17:20:59.008Z</time>
      </trkpt>
      <trkpt lat="43.96329" lon="7.11692">
        <ele>1269</ele>
        <time>2018-06-20T17:21:02.008Z</time>
      </trkpt>
      <trkpt lat="43.96327" lon="7.11696">
        <ele>1270</ele>
        <time>2018-06-20T17:21:05.008Z</time>
      </trkpt>
      <trkpt lat="43.96325" lon="7.11701">
        <ele>1270</ele>
        <time>2018-06-20T17:21:08.008Z</time>
      </trkpt>
      <trkpt lat="43.96323" lon="7.11707">
        <ele>1270</ele>
        <time>2018-06-20T17:21:12.008Z</time>
      </trkpt>
      <trkpt lat="43.96321" lon="7.11715">
        <ele>1270</ele>
        <time>2018-06-20T17:21:16.008Z</time>
      </trkpt>
      <trkpt lat="43.96319" lon="7.1172">
        <ele>1270</ele>
        <time>2018-06-20T17:21:20.008Z</time>
      </trkpt>
      <trkpt lat="43.96316" lon="7.11726">
        <ele>1270</ele>
        <time>2018-06-20T17:21:24.008Z</time>
      </trkpt>
      <trkpt lat="43.96313" lon="7.11732">
        <ele>1270</ele>
        <time>2018-06-20T17:21:28.008Z</time>
      </trkpt>
      <trkpt lat="43.96309" lon="7.11739">
        <ele>1270</ele>
        <time>2018-06-20T17:21:33.008Z</time>
      </trkpt>
      <trkpt lat="43.96306" lon="7.11746">
        <ele>1271</ele>
        <time>2018-06-20T17:21:38.008Z</time>
      </trkpt>
      <trkpt lat="43.96301" lon="7.11751">
        <ele>1272</ele>
        <time>2018-06-20T17:21:43.008Z</time>
      </trkpt>
      <trkpt lat="43.96297" lon="7.11757">
        <ele>1272</ele>
        <time>2018-06-20T17:21:47.008Z</time>
      </trkpt>
      <trkpt lat="43.96295" lon="7.11761">
        <ele>1272</ele>
        <time>2018-06-20T17:21:50.008Z</time>
      </trkpt>
      <trkpt lat="43.96294" lon="7.11766">
        <ele>1272</ele>
        <time>2018-06-20T17:21:53.008Z</time>
      </trkpt>
      <trkpt lat="43.96292" lon="7.11772">
        <ele>1272</ele>
        <time>2018-06-20T17:21:56.008Z</time>
      </trkpt>
      <trkpt lat="43.9629" lon="7.11778">
        <ele>1272</ele>
        <time>2018-06-20T17:21:59.008Z</time>
      </trkpt>
      <trkpt lat="43.96288" lon="7.11783">
        <ele>1272</ele>
        <time>2018-06-20T17:22:02.008Z</time>
      </trkpt>
      <trkpt lat="43.96285" lon="7.11787">
        <ele>1273</ele>
        <time>2018-06-20T17:22:05.008Z</time>
      </trkpt>
      <trkpt lat="43.96282" lon="7.11791">
        <ele>1273</ele>
        <time>2018-06-20T17:22:08.008Z</time>
      </trkpt>
      <trkpt lat="43.96279" lon="7.11794">
        <ele>1273</ele>
        <time>2018-06-20T17:22:12.008Z</time>
      </trkpt>
      <trkpt lat="43.96276" lon="7.11798">
        <ele>1273</ele>
        <time>2018-06-20T17:22:15.008Z</time>
      </trkpt>
      <trkpt lat="43.96273" lon="7.11803">
        <ele>1273</ele>
        <time>2018-06-20T17:22:18.008Z</time>
      </trkpt>
      <trkpt lat="43.9627" lon="7.11808">
        <ele>1274</ele>
        <time>2018-06-20T17:22:21.008Z</time>
      </trkpt>
      <trkpt lat="43.96266" lon="7.11812">
        <ele>1274</ele>
        <time>2018-06-20T17:22:24.008Z</time>
      </trkpt>
      <trkpt lat="43.96263" lon="7.11818">
        <ele>1275</ele>
        <time>2018-06-20T17:22:27.008Z</time>
      </trkpt>
      <trkpt lat="43.9626" lon="7.11822">
        <ele>1276</ele>
        <time>2018-06-20T17:22:29.008Z</time>
      </trkpt>
      <trkpt lat="43.96258" lon="7.11825">
        <ele>1276</ele>
        <time>2018-06-20T17:22:31.008Z</time>
      </trkpt>
      <trkpt lat="43.96254" lon="7.11831">
        <ele>1278</ele>
        <time>2018-06-20T17:22:34.008Z</time>
      </trkpt>
      <trkpt lat="43.96251" lon="7.11836">
        <ele>1278</ele>
        <time>2018-06-20T17:22:37.008Z</time>
      </trkpt>
      <trkpt lat="43.96247" lon="7.11841">
        <ele>1275</ele>
        <time>2018-06-20T17:22:40.008Z</time>
      </trkpt>
      <trkpt lat="43.96244" lon="7.11846">
        <ele>1273</ele>
        <time>2018-06-20T17:22:43.008Z</time>
      </trkpt>
      <trkpt lat="43.96242" lon="7.11852">
        <ele>1272</ele>
        <time>2018-06-20T17:22:46.008Z</time>
      </trkpt>
      <trkpt lat="43.96239" lon="7.11856">
        <ele>1271</ele>
        <time>2018-06-20T17:22:48.008Z</time>
      </trkpt>
      <trkpt lat="43.96237" lon="7.11861">
        <ele>1270</ele>
        <time>2018-06-20T17:22:50.008Z</time>
      </trkpt>
      <trkpt lat="43.96234" lon="7.11866">
        <ele>1269</ele>
        <time>2018-06-20T17:22:52.008Z</time>
      </trkpt>
      <trkpt lat="43.96233" lon="7.11872">
        <ele>1268</ele>
        <time>2018-06-20T17:22:54.008Z</time>
      </trkpt>
      <trkpt lat="43.96231" lon="7.1188">
        <ele>1268</ele>
        <time>2018-06-20T17:22:56.008Z</time>
      </trkpt>
      <trkpt lat="43.9623" lon="7.11885">
        <ele>1268</ele>
        <time>2018-06-20T17:22:57.008Z</time>
      </trkpt>
      <trkpt lat="43.96229" lon="7.11891">
        <ele>1268</ele>
        <time>2018-06-20T17:22:58.008Z</time>
      </trkpt>
      <trkpt lat="43.96228" lon="7.11896">
        <ele>1268</ele>
        <time>2018-06-20T17:22:59.008Z</time>
      </trkpt>
      <trkpt lat="43.96228" lon="7.11902">
        <ele>1268</ele>
        <time>2018-06-20T17:23:00.008Z</time>
      </trkpt>
      <trkpt lat="43.96228" lon="7.11909">
        <ele>1268</ele>
        <time>2018-06-20T17:23:01.008Z</time>
      </trkpt>
      <trkpt lat="43.96228" lon="7.11916">
        <ele>1268</ele>
        <time>2018-06-20T17:23:02.008Z</time>
      </trkpt>
      <trkpt lat="43.96229" lon="7.11924">
        <ele>1265</ele>
        <time>2018-06-20T17:23:03.008Z</time>
      </trkpt>
      <trkpt lat="43.96229" lon="7.11932">
        <ele>1264</ele>
        <time>2018-06-20T17:23:04.008Z</time>
      </trkpt>
      <trkpt lat="43.96229" lon="7.11948">
        <ele>1262</ele>
        <time>2018-06-20T17:23:06.008Z</time>
      </trkpt>
      <trkpt lat="43.96228" lon="7.11956">
        <ele>1262</ele>
        <time>2018-06-20T17:23:07.008Z</time>
      </trkpt>
      <trkpt lat="43.96229" lon="7.1197">
        <ele>1261</ele>
        <time>2018-06-20T17:23:09.008Z</time>
      </trkpt>
      <trkpt lat="43.96229" lon="7.11977">
        <ele>1261</ele>
        <time>2018-06-20T17:23:10.008Z</time>
      </trkpt>
      <trkpt lat="43.96229" lon="7.11994">
        <ele>1261</ele>
        <time>2018-06-20T17:23:12.008Z</time>
      </trkpt>
      <trkpt lat="43.96228" lon="7.12003">
        <ele>1259</ele>
        <time>2018-06-20T17:23:13.008Z</time>
      </trkpt>
      <trkpt lat="43.96226" lon="7.12011">
        <ele>1259</ele>
        <time>2018-06-20T17:23:14.008Z</time>
      </trkpt>
      <trkpt lat="43.96224" lon="7.12018">
        <ele>1258</ele>
        <time>2018-06-20T17:23:15.008Z</time>
      </trkpt>
      <trkpt lat="43.96222" lon="7.12026">
        <ele>1258</ele>
        <time>2018-06-20T17:23:16.008Z</time>
      </trkpt>
      <trkpt lat="43.96219" lon="7.12036">
        <ele>1257</ele>
        <time>2018-06-20T17:23:17.008Z</time>
      </trkpt>
      <trkpt lat="43.96216" lon="7.12045">
        <ele>1257</ele>
        <time>2018-06-20T17:23:18.008Z</time>
      </trkpt>
      <trkpt lat="43.96213" lon="7.12052">
        <ele>1257</ele>
        <time>2018-06-20T17:23:19.008Z</time>
      </trkpt>
      <trkpt lat="43.96211" lon="7.12059">
        <ele>1257</ele>
        <time>2018-06-20T17:23:20.008Z</time>
      </trkpt>
      <trkpt lat="43.96208" lon="7.12067">
        <ele>1257</ele>
        <time>2018-06-20T17:23:21.008Z</time>
      </trkpt>
      <trkpt lat="43.96206" lon="7.12076">
        <ele>1257</ele>
        <time>2018-06-20T17:23:22.008Z</time>
      </trkpt>
      <trkpt lat="43.96204" lon="7.12084">
        <ele>1258</ele>
        <time>2018-06-20T17:23:23.008Z</time>
      </trkpt>
      <trkpt lat="43.96202" lon="7.12093">
        <ele>1258</ele>
        <time>2018-06-20T17:23:24.008Z</time>
      </trkpt>
      <trkpt lat="43.96201" lon="7.12103">
        <ele>1258</ele>
        <time>2018-06-20T17:23:25.008Z</time>
      </trkpt>
      <trkpt lat="43.96198" lon="7.12119">
        <ele>1259</ele>
        <time>2018-06-20T17:23:27.008Z</time>
      </trkpt>
      <trkpt lat="43.96196" lon="7.12127">
        <ele>1259</ele>
        <time>2018-06-20T17:23:28.008Z</time>
      </trkpt>
      <trkpt lat="43.96196" lon="7.12135">
        <ele>1260</ele>
        <time>2018-06-20T17:23:29.008Z</time>
      </trkpt>
      <trkpt lat="43.96196" lon="7.12142">
        <ele>1260</ele>
        <time>2018-06-20T17:23:30.008Z</time>
      </trkpt>
      <trkpt lat="43.96197" lon="7.1215">
        <ele>1260</ele>
        <time>2018-06-20T17:23:31.008Z</time>
      </trkpt>
      <trkpt lat="43.96198" lon="7.12158">
        <ele>1260</ele>
        <time>2018-06-20T17:23:32.008Z</time>
      </trkpt>
      <trkpt lat="43.96198" lon="7.12169">
        <ele>1260</ele>
        <time>2018-06-20T17:23:34.008Z</time>
      </trkpt>
      <trkpt lat="43.96199" lon="7.12179">
        <ele>1260</ele>
        <time>2018-06-20T17:24:19.008Z</time>
      </trkpt>
      <trkpt lat="43.96198" lon="7.12188">
        <ele>1260</ele>
        <time>2018-06-20T17:24:22.008Z</time>
      </trkpt>
      <trkpt lat="43.96198" lon="7.12199">
        <ele>1260</ele>
        <time>2018-06-20T17:24:26.008Z</time>
      </trkpt>
      <trkpt lat="43.96196" lon="7.12212">
        <ele>1260</ele>
        <time>2018-06-20T17:24:29.008Z</time>
      </trkpt>
      <trkpt lat="43.96196" lon="7.12223">
        <ele>1260</ele>
        <time>2018-06-20T17:24:31.008Z</time>
      </trkpt>
      <trkpt lat="43.96194" lon="7.12232">
        <ele>1261</ele>
        <time>2018-06-20T17:24:33.008Z</time>
      </trkpt>
      <trkpt lat="43.96194" lon="7.12253">
        <ele>1259</ele>
        <time>2018-06-20T17:24:37.008Z</time>
      </trkpt>
      <trkpt lat="43.96193" lon="7.12265">
        <ele>1258</ele>
        <time>2018-06-20T17:24:40.008Z</time>
      </trkpt>
      <trkpt lat="43.96192" lon="7.12276">
        <ele>1258</ele>
        <time>2018-06-20T17:24:43.008Z</time>
      </trkpt>
      <trkpt lat="43.96191" lon="7.12284">
        <ele>1257</ele>
        <time>2018-06-20T17:24:45.008Z</time>
      </trkpt>
      <trkpt lat="43.96189" lon="7.12297">
        <ele>1257</ele>
        <time>2018-06-20T17:24:48.008Z</time>
      </trkpt>
      <trkpt lat="43.96188" lon="7.12307">
        <ele>1257</ele>
        <time>2018-06-20T17:24:50.008Z</time>
      </trkpt>
      <trkpt lat="43.96188" lon="7.12322">
        <ele>1258</ele>
        <time>2018-06-20T17:24:53.008Z</time>
      </trkpt>
      <trkpt lat="43.96188" lon="7.12338">
        <ele>1255</ele>
        <time>2018-06-20T17:24:56.008Z</time>
      </trkpt>
      <trkpt lat="43.96187" lon="7.1236">
        <ele>1251</ele>
        <time>2018-06-20T17:24:59.008Z</time>
      </trkpt>
      <trkpt lat="43.96185" lon="7.12375">
        <ele>1249</ele>
        <time>2018-06-20T17:25:01.008Z</time>
      </trkpt>
      <trkpt lat="43.96182" lon="7.12394">
        <ele>1249</ele>
        <time>2018-06-20T17:25:04.008Z</time>
      </trkpt>
      <trkpt lat="43.96179" lon="7.12412">
        <ele>1251</ele>
        <time>2018-06-20T17:25:07.008Z</time>
      </trkpt>
      <trkpt lat="43.96178" lon="7.12428">
        <ele>1247</ele>
        <time>2018-06-20T17:25:10.008Z</time>
      </trkpt>
      <trkpt lat="43.96178" lon="7.12441">
        <ele>1243</ele>
        <time>2018-06-20T17:25:13.008Z</time>
      </trkpt>
      <trkpt lat="43.96177" lon="7.12453">
        <ele>1241</ele>
        <time>2018-06-20T17:25:16.008Z</time>
      </trkpt>
      <trkpt lat="43.96175" lon="7.12467">
        <ele>1240</ele>
        <time>2018-06-20T17:25:19.008Z</time>
      </trkpt>
      <trkpt lat="43.96179" lon="7.12484">
        <ele>1240</ele>
        <time>2018-06-20T17:25:23.008Z</time>
      </trkpt>
      <trkpt lat="43.96178" lon="7.12499">
        <ele>1241</ele>
        <time>2018-06-20T17:25:27.008Z</time>
      </trkpt>
      <trkpt lat="43.96183" lon="7.12515">
        <ele>1237</ele>
        <time>2018-06-20T17:25:33.008Z</time>
      </trkpt>
      <trkpt lat="43.96193" lon="7.12523">
        <ele>1235</ele>
        <time>2018-06-20T17:25:39.008Z</time>
      </trkpt>
      <trkpt lat="43.96203" lon="7.12522">
        <ele>1233</ele>
        <time>2018-06-20T17:25:42.008Z</time>
      </trkpt>
      <trkpt lat="43.96213" lon="7.12518">
        <ele>1232</ele>
        <time>2018-06-20T17:25:46.008Z</time>
      </trkpt>
      <trkpt lat="43.96219" lon="7.12511">
        <ele>1231</ele>
        <time>2018-06-20T17:25:51.008Z</time>
      </trkpt>
      <trkpt lat="43.96225" lon="7.12509">
        <ele>1230</ele>
        <time>2018-06-20T17:25:57.008Z</time>
      </trkpt>
      <trkpt lat="43.96231" lon="7.12514">
        <ele>1229</ele>
        <time>2018-06-20T17:26:11.008Z</time>
      </trkpt>
      <trkpt lat="43.96236" lon="7.12516">
        <ele>1229</ele>
        <time>2018-06-20T17:26:14.008Z</time>
      </trkpt>
      <trkpt lat="43.9624" lon="7.1252">
        <ele>1229</ele>
        <time>2018-06-20T17:26:25.008Z</time>
      </trkpt>
      <trkpt lat="43.96238" lon="7.12515">
        <ele>1228</ele>
        <time>2018-06-20T17:27:00.008Z</time>
      </trkpt>
      <trkpt lat="43.96237" lon="7.12508">
        <ele>1228</ele>
        <time>2018-06-20T17:27:03.008Z</time>
      </trkpt>
      <trkpt lat="43.96234" lon="7.12502">
        <ele>1228</ele>
        <time>2018-06-20T17:27:06.008Z</time>
      </trkpt>
      <trkpt lat="43.96229" lon="7.12502">
        <ele>1229</ele>
        <time>2018-06-20T17:27:09.008Z</time>
      </trkpt>
      <trkpt lat="43.96225" lon="7.12507">
        <ele>1230</ele>
        <time>2018-06-20T17:27:12.008Z</time>
      </trkpt>
      <trkpt lat="43.96218" lon="7.12507">
        <ele>1231</ele>
        <time>2018-06-20T17:27:23.008Z</time>
      </trkpt>
      <trkpt lat="43.96212" lon="7.12513">
        <ele>1232</ele>
        <time>2018-06-20T17:27:28.008Z</time>
      </trkpt>
      <trkpt lat="43.96203" lon="7.12516">
        <ele>1234</ele>
        <time>2018-06-20T17:27:35.008Z</time>
      </trkpt>
      <trkpt lat="43.96194" lon="7.12518">
        <ele>1235</ele>
        <time>2018-06-20T17:27:43.008Z</time>
      </trkpt>
      <trkpt lat="43.96188" lon="7.12524">
        <ele>1235</ele>
        <time>2018-06-20T17:27:49.008Z</time>
      </trkpt>
      <trkpt lat="43.96183" lon="7.12528">
        <ele>1235</ele>
        <time>2018-06-20T17:27:57.008Z</time>
      </trkpt>
      <trkpt lat="43.96178" lon="7.12533">
        <ele>1235</ele>
        <time>2018-06-20T17:28:03.008Z</time>
      </trkpt>
      <trkpt lat="43.96174" lon="7.12539">
        <ele>1235</ele>
        <time>2018-06-20T17:28:10.008Z</time>
      </trkpt>
      <trkpt lat="43.9617" lon="7.12546">
        <ele>1235</ele>
        <time>2018-06-20T17:28:15.008Z</time>
      </trkpt>
      <trkpt lat="43.96167" lon="7.12553">
        <ele>1235</ele>
        <time>2018-06-20T17:28:21.008Z</time>
      </trkpt>
      <trkpt lat="43.96164" lon="7.12559">
        <ele>1233</ele>
        <time>2018-06-20T17:28:29.008Z</time>
      </trkpt>
      <trkpt lat="43.96158" lon="7.12564">
        <ele>1233</ele>
        <time>2018-06-20T17:28:35.008Z</time>
      </trkpt>
      <trkpt lat="43.96155" lon="7.1257">
        <ele>1233</ele>
        <time>2018-06-20T17:28:45.008Z</time>
      </trkpt>
      <trkpt lat="43.96153" lon="7.12577">
        <ele>1233</ele>
        <time>2018-06-20T17:28:50.008Z</time>
      </trkpt>
      <trkpt lat="43.96152" lon="7.12583">
        <ele>1233</ele>
        <time>2018-06-20T17:28:56.008Z</time>
      </trkpt>
      <trkpt lat="43.96147" lon="7.12586">
        <ele>1231</ele>
        <time>2018-06-20T17:29:10.008Z</time>
      </trkpt>
      <trkpt lat="43.96142" lon="7.12586">
        <ele>1230</ele>
        <time>2018-06-20T17:29:45.008Z</time>
      </trkpt>
      <trkpt lat="43.96139" lon="7.12583">
        <ele>1230</ele>
        <time>2018-06-20T17:30:04.008Z</time>
      </trkpt>
      <trkpt lat="43.96137" lon="7.1259">
        <ele>1229</ele>
        <time>2018-06-20T17:30:10.008Z</time>
      </trkpt>
      <trkpt lat="43.96138" lon="7.12596">
        <ele>1229</ele>
        <time>2018-06-20T17:30:15.008Z</time>
      </trkpt>
      <trkpt lat="43.96137" lon="7.12604">
        <ele>1229</ele>
        <time>2018-06-20T17:30:20.008Z</time>
      </trkpt>
      <trkpt lat="43.96137" lon="7.12609">
        <ele>1229</ele>
        <time>2018-06-20T17:30:59.008Z</time>
      </trkpt>
      <trkpt lat="43.96138" lon="7.12617">
        <ele>1230</ele>
        <time>2018-06-20T17:31:05.008Z</time>
      </trkpt>
      <trkpt lat="43.96139" lon="7.12625">
        <ele>1230</ele>
        <time>2018-06-20T17:31:14.008Z</time>
      </trkpt>
      <trkpt lat="43.9614" lon="7.12634">
        <ele>1231</ele>
        <time>2018-06-20T17:31:26.008Z</time>
      </trkpt>
      <trkpt lat="43.96139" lon="7.12641">
        <ele>1231</ele>
        <time>2018-06-20T17:31:34.008Z</time>
      </trkpt>
      <trkpt lat="43.9614" lon="7.12661">
        <ele>1233</ele>
        <time>2018-06-20T17:31:54.008Z</time>
      </trkpt>
      <trkpt lat="43.96139" lon="7.12669">
        <ele>1241</ele>
        <time>2018-06-20T17:32:01.008Z</time>
      </trkpt>
      <trkpt lat="43.96139" lon="7.1268">
        <ele>1242</ele>
        <time>2018-06-20T17:32:10.008Z</time>
      </trkpt>
      <trkpt lat="43.96138" lon="7.12688">
        <ele>1242</ele>
        <time>2018-06-20T17:32:17.008Z</time>
      </trkpt>
      <trkpt lat="43.96138" lon="7.12697">
        <ele>1242</ele>
        <time>2018-06-20T17:32:26.008Z</time>
      </trkpt>
      <trkpt lat="43.96137" lon="7.12703">
        <ele>1243</ele>
        <time>2018-06-20T17:32:32.008Z</time>
      </trkpt>
      <trkpt lat="43.96137" lon="7.12711">
        <ele>1244</ele>
        <time>2018-06-20T17:32:42.008Z</time>
      </trkpt>
      <trkpt lat="43.96138" lon="7.12717">
        <ele>1245</ele>
        <time>2018-06-20T17:32:51.008Z</time>
      </trkpt>
      <trkpt lat="43.96139" lon="7.12726">
        <ele>1246</ele>
        <time>2018-06-20T17:33:04.008Z</time>
      </trkpt>
      <trkpt lat="43.96137" lon="7.12731">
        <ele>1246</ele>
        <time>2018-06-20T17:33:09.008Z</time>
      </trkpt>
      <trkpt lat="43.96135" lon="7.1274">
        <ele>1247</ele>
        <time>2018-06-20T17:33:20.008Z</time>
      </trkpt>
      <trkpt lat="43.96136" lon="7.12748">
        <ele>1248</ele>
        <time>2018-06-20T17:33:30.008Z</time>
      </trkpt>
      <trkpt lat="43.96137" lon="7.12756">
        <ele>1258</ele>
        <time>2018-06-20T17:33:41.008Z</time>
      </trkpt>
      <trkpt lat="43.96135" lon="7.12764">
        <ele>1258</ele>
        <time>2018-06-20T17:33:49.008Z</time>
      </trkpt>
      <trkpt lat="43.96133" lon="7.1277">
        <ele>1258</ele>
        <time>2018-06-20T17:33:56.008Z</time>
      </trkpt>
      <trkpt lat="43.96132" lon="7.12781">
        <ele>1259</ele>
        <time>2018-06-20T17:34:07.008Z</time>
      </trkpt>
      <trkpt lat="43.96128" lon="7.1279">
        <ele>1259</ele>
        <time>2018-06-20T17:34:17.008Z</time>
      </trkpt>
      <trkpt lat="43.96127" lon="7.12799">
        <ele>1260</ele>
        <time>2018-06-20T17:34:28.008Z</time>
      </trkpt>
      <trkpt lat="43.96123" lon="7.12807">
        <ele>1261</ele>
        <time>2018-06-20T17:34:41.008Z</time>
      </trkpt>
      <trkpt lat="43.96119" lon="7.12815">
        <ele>1261</ele>
        <time>2018-06-20T17:34:53.008Z</time>
      </trkpt>
      <trkpt lat="43.96117" lon="7.12822">
        <ele>1261</ele>
        <time>2018-06-20T17:35:03.008Z</time>
      </trkpt>
      <trkpt lat="43.96116" lon="7.12832">
        <ele>1262</ele>
        <time>2018-06-20T17:35:18.008Z</time>
      </trkpt>
      <trkpt lat="43.96117" lon="7.12839">
        <ele>1266</ele>
        <time>2018-06-20T17:35:48.008Z</time>
      </trkpt>
      <trkpt lat="43.96113" lon="7.12846">
        <ele>1266</ele>
        <time>2018-06-20T17:36:07.008Z</time>
      </trkpt>
      <trkpt lat="43.96112" lon="7.12853">
        <ele>1266</ele>
        <time>2018-06-20T17:36:19.008Z</time>
      </trkpt>
      <trkpt lat="43.96112" lon="7.12861">
        <ele>1266</ele>
        <time>2018-06-20T17:36:26.008Z</time>
      </trkpt>
      <trkpt lat="43.96112" lon="7.12869">
        <ele>1266</ele>
        <time>2018-06-20T17:36:33.008Z</time>
      </trkpt>
      <trkpt lat="43.96113" lon="7.12878">
        <ele>1267</ele>
        <time>2018-06-20T17:36:47.008Z</time>
      </trkpt>
      <trkpt lat="43.9611" lon="7.12875">
        <ele>1266</ele>
        <time>2018-06-20T17:41:12.008Z</time>
      </trkpt>
      <trkpt lat="43.96111" lon="7.12879">
        <ele>1266</ele>
        <time>2018-06-20T17:41:50.008Z</time>
      </trkpt>
      <trkpt lat="43.96115" lon="7.12879">
        <ele>1267</ele>
        <time>2018-06-20T17:42:39.008Z</time>
      </trkpt>
      <trkpt lat="43.96111" lon="7.12877">
        <ele>1266</ele>
        <time>2018-06-20T17:46:19.008Z</time>
      </trkpt>
      <trkpt lat="43.96111" lon="7.12869">
        <ele>1266</ele>
        <time>2018-06-20T17:49:37.008Z</time>
      </trkpt>
      <trkpt lat="43.9611" lon="7.12862">
        <ele>1266</ele>
        <time>2018-06-20T17:49:41.008Z</time>
      </trkpt>
      <trkpt lat="43.9611" lon="7.12855">
        <ele>1266</ele>
        <time>2018-06-20T17:49:49.008Z</time>
      </trkpt>
      <trkpt lat="43.96111" lon="7.12851">
        <ele>1266</ele>
        <time>2018-06-20T17:50:31.008Z</time>
      </trkpt>
      <trkpt lat="43.96112" lon="7.12846">
        <ele>1266</ele>
        <time>2018-06-20T17:50:48.008Z</time>
      </trkpt>
      <trkpt lat="43.96114" lon="7.12845">
        <ele>1266</ele>
        <time>2018-06-20T17:50:56.008Z</time>
      </trkpt>
      <trkpt lat="43.96115" lon="7.12839">
        <ele>1266</ele>
        <time>2018-06-20T17:51:06.008Z</time>
      </trkpt>
      <trkpt lat="43.96114" lon="7.12835">
        <ele>1266</ele>
        <time>2018-06-20T17:51:32.008Z</time>
      </trkpt>
      <trkpt lat="43.96115" lon="7.12831">
        <ele>1262</ele>
        <time>2018-06-20T17:51:42.008Z</time>
      </trkpt>
      <trkpt lat="43.96115" lon="7.12822">
        <ele>1261</ele>
        <time>2018-06-20T17:51:50.008Z</time>
      </trkpt>
      <trkpt lat="43.96117" lon="7.12816">
        <ele>1261</ele>
        <time>2018-06-20T17:51:53.008Z</time>
      </trkpt>
      <trkpt lat="43.9612" lon="7.12808">
        <ele>1260</ele>
        <time>2018-06-20T17:51:59.008Z</time>
      </trkpt>
      <trkpt lat="43.96124" lon="7.12801">
        <ele>1260</ele>
        <time>2018-06-20T17:52:04.008Z</time>
      </trkpt>
      <trkpt lat="43.96124" lon="7.12794">
        <ele>1259</ele>
        <time>2018-06-20T17:52:08.008Z</time>
      </trkpt>
      <trkpt lat="43.96125" lon="7.12787">
        <ele>1259</ele>
        <time>2018-06-20T17:52:12.008Z</time>
      </trkpt>
      <trkpt lat="43.96127" lon="7.12781">
        <ele>1258</ele>
        <time>2018-06-20T17:52:15.008Z</time>
      </trkpt>
      <trkpt lat="43.96129" lon="7.12775">
        <ele>1258</ele>
        <time>2018-06-20T17:52:18.008Z</time>
      </trkpt>
      <trkpt lat="43.96131" lon="7.12769">
        <ele>1258</ele>
        <time>2018-06-20T17:54:20.008Z</time>
      </trkpt>
      <trkpt lat="43.9613" lon="7.12774">
        <ele>1258</ele>
        <time>2018-06-20T17:54:32.008Z</time>
      </trkpt>
      <trkpt lat="43.96132" lon="7.12766">
        <ele>1258</ele>
        <time>2018-06-20T17:55:01.008Z</time>
      </trkpt>
      <trkpt lat="43.96134" lon="7.1276">
        <ele>1258</ele>
        <time>2018-06-20T17:55:04.008Z</time>
      </trkpt>
      <trkpt lat="43.96134" lon="7.12752">
        <ele>1258</ele>
        <time>2018-06-20T17:55:07.008Z</time>
      </trkpt>
      <trkpt lat="43.96134" lon="7.12748">
        <ele>1247</ele>
        <time>2018-06-20T17:55:09.008Z</time>
      </trkpt>
      <trkpt lat="43.96135" lon="7.12742">
        <ele>1247</ele>
        <time>2018-06-20T17:55:12.008Z</time>
      </trkpt>
      <trkpt lat="43.96133" lon="7.12737">
        <ele>1246</ele>
        <time>2018-06-20T17:55:21.008Z</time>
      </trkpt>
      <trkpt lat="43.96135" lon="7.1273">
        <ele>1246</ele>
        <time>2018-06-20T17:55:26.008Z</time>
      </trkpt>
      <trkpt lat="43.96135" lon="7.12724">
        <ele>1245</ele>
        <time>2018-06-20T17:55:37.008Z</time>
      </trkpt>
      <trkpt lat="43.96134" lon="7.12718">
        <ele>1244</ele>
        <time>2018-06-20T17:55:46.008Z</time>
      </trkpt>
      <trkpt lat="43.96133" lon="7.12712">
        <ele>1243</ele>
        <time>2018-06-20T17:55:53.008Z</time>
      </trkpt>
      <trkpt lat="43.96133" lon="7.12706">
        <ele>1242</ele>
        <time>2018-06-20T17:56:02.008Z</time>
      </trkpt>
      <trkpt lat="43.96134" lon="7.12698">
        <ele>1242</ele>
        <time>2018-06-20T17:56:08.008Z</time>
      </trkpt>
      <trkpt lat="43.96133" lon="7.12691">
        <ele>1241</ele>
        <time>2018-06-20T17:56:12.008Z</time>
      </trkpt>
      <trkpt lat="43.96134" lon="7.12683">
        <ele>1241</ele>
        <time>2018-06-20T17:56:15.008Z</time>
      </trkpt>
      <trkpt lat="43.96134" lon="7.12676">
        <ele>1240</ele>
        <time>2018-06-20T17:56:20.008Z</time>
      </trkpt>
      <trkpt lat="43.96135" lon="7.1267">
        <ele>1240</ele>
        <time>2018-06-20T17:56:23.008Z</time>
      </trkpt>
      <trkpt lat="43.96136" lon="7.12663">
        <ele>1232</ele>
        <time>2018-06-20T17:56:27.008Z</time>
      </trkpt>
      <trkpt lat="43.96136" lon="7.12656">
        <ele>1232</ele>
        <time>2018-06-20T17:56:34.008Z</time>
      </trkpt>
      <trkpt lat="43.96136" lon="7.1265">
        <ele>1232</ele>
        <time>2018-06-20T17:56:39.008Z</time>
      </trkpt>
      <trkpt lat="43.96136" lon="7.12637">
        <ele>1230</ele>
        <time>2018-06-20T17:56:55.008Z</time>
      </trkpt>
      <trkpt lat="43.96137" lon="7.12631">
        <ele>1230</ele>
        <time>2018-06-20T17:57:00.008Z</time>
      </trkpt>
      <trkpt lat="43.96136" lon="7.12624">
        <ele>1230</ele>
        <time>2018-06-20T17:57:09.008Z</time>
      </trkpt>
      <trkpt lat="43.96137" lon="7.12617">
        <ele>1229</ele>
        <time>2018-06-20T17:57:14.008Z</time>
      </trkpt>
      <trkpt lat="43.96135" lon="7.12612">
        <ele>1229</ele>
        <time>2018-06-20T17:57:18.008Z</time>
      </trkpt>
      <trkpt lat="43.96139" lon="7.12612">
        <ele>1230</ele>
        <time>2018-06-20T17:57:26.008Z</time>
      </trkpt>
      <trkpt lat="43.96142" lon="7.12614">
        <ele>1230</ele>
        <time>2018-06-20T17:57:33.008Z</time>
      </trkpt>
      <trkpt lat="43.96145" lon="7.12618">
        <ele>1231</ele>
        <time>2018-06-20T17:57:37.008Z</time>
      </trkpt>
      <trkpt lat="43.96148" lon="7.12621">
        <ele>1231</ele>
        <time>2018-06-20T17:57:46.008Z</time>
      </trkpt>
      <trkpt lat="43.96154" lon="7.12619">
        <ele>1232</ele>
        <time>2018-06-20T17:57:54.008Z</time>
      </trkpt>
      <trkpt lat="43.96159" lon="7.12619">
        <ele>1232</ele>
        <time>2018-06-20T17:57:57.008Z</time>
      </trkpt>
      <trkpt lat="43.96164" lon="7.12616">
        <ele>1233</ele>
        <time>2018-06-20T17:57:59.008Z</time>
      </trkpt>
      <trkpt lat="43.9617" lon="7.12613">
        <ele>1238</ele>
        <time>2018-06-20T17:58:01.008Z</time>
      </trkpt>
      <trkpt lat="43.96176" lon="7.12612">
        <ele>1238</ele>
        <time>2018-06-20T17:58:03.008Z</time>
      </trkpt>
      <trkpt lat="43.96182" lon="7.12616">
        <ele>1238</ele>
        <time>2018-06-20T17:58:06.008Z</time>
      </trkpt>
      <trkpt lat="43.9619" lon="7.12619">
        <ele>1238</ele>
        <time>2018-06-20T17:58:09.008Z</time>
      </trkpt>
      <trkpt lat="43.96195" lon="7.12613">
        <ele>1237</ele>
        <time>2018-06-20T17:58:12.008Z</time>
      </trkpt>
      <trkpt lat="43.962" lon="7.12605">
        <ele>1236</ele>
        <time>2018-06-20T17:58:15.008Z</time>
      </trkpt>
      <trkpt lat="43.96205" lon="7.12596">
        <ele>1236</ele>
        <time>2018-06-20T17:58:17.008Z</time>
      </trkpt>
      <trkpt lat="43.96208" lon="7.12587">
        <ele>1235</ele>
        <time>2018-06-20T17:58:19.008Z</time>
      </trkpt>
      <trkpt lat="43.96212" lon="7.12575">
        <ele>1232</ele>
        <time>2018-06-20T17:58:23.008Z</time>
      </trkpt>
      <trkpt lat="43.96215" lon="7.12563">
        <ele>1232</ele>
        <time>2018-06-20T17:58:27.008Z</time>
      </trkpt>
      <trkpt lat="43.96216" lon="7.12551">
        <ele>1232</ele>
        <time>2018-06-20T17:58:32.008Z</time>
      </trkpt>
      <trkpt lat="43.96217" lon="7.1254">
        <ele>1232</ele>
        <time>2018-06-20T17:58:36.008Z</time>
      </trkpt>
      <trkpt lat="43.96219" lon="7.12529">
        <ele>1232</ele>
        <time>2018-06-20T17:58:41.008Z</time>
      </trkpt>
      <trkpt lat="43.96217" lon="7.12516">
        <ele>1232</ele>
        <time>2018-06-20T17:58:46.008Z</time>
      </trkpt>
      <trkpt lat="43.96217" lon="7.12507">
        <ele>1231</ele>
        <time>2018-06-20T17:58:50.008Z</time>
      </trkpt>
      <trkpt lat="43.96219" lon="7.12499">
        <ele>1233</ele>
        <time>2018-06-20T17:58:53.008Z</time>
      </trkpt>
      <trkpt lat="43.96222" lon="7.12492">
        <ele>1233</ele>
        <time>2018-06-20T17:58:57.008Z</time>
      </trkpt>
      <trkpt lat="43.96226" lon="7.12482">
        <ele>1232</ele>
        <time>2018-06-20T17:59:27.008Z</time>
      </trkpt>
      <trkpt lat="43.9623" lon="7.12475">
        <ele>1232</ele>
        <time>2018-06-20T17:59:32.008Z</time>
      </trkpt>
      <trkpt lat="43.96231" lon="7.12461">
        <ele>1233</ele>
        <time>2018-06-20T17:59:43.008Z</time>
      </trkpt>
      <trkpt lat="43.96239" lon="7.12461">
        <ele>1232</ele>
        <time>2018-06-20T18:00:34.008Z</time>
      </trkpt>
      <trkpt lat="43.96242" lon="7.12451">
        <ele>1232</ele>
        <time>2018-06-20T18:00:42.008Z</time>
      </trkpt>
      <trkpt lat="43.96246" lon="7.1244">
        <ele>1231</ele>
        <time>2018-06-20T18:00:47.008Z</time>
      </trkpt>
      <trkpt lat="43.96249" lon="7.12426">
        <ele>1228</ele>
        <time>2018-06-20T18:00:55.008Z</time>
      </trkpt>
      <trkpt lat="43.9625" lon="7.12413">
        <ele>1227</ele>
        <time>2018-06-20T18:01:00.008Z</time>
      </trkpt>
      <trkpt lat="43.9625" lon="7.12396">
        <ele>1213</ele>
        <time>2018-06-20T18:01:05.008Z</time>
      </trkpt>
      <trkpt lat="43.96249" lon="7.12382">
        <ele>1237</ele>
        <time>2018-06-20T18:01:08.008Z</time>
      </trkpt>
      <trkpt lat="43.96252" lon="7.12366">
        <ele>1212</ele>
        <time>2018-06-20T18:01:12.008Z</time>
      </trkpt>
      <trkpt lat="43.96259" lon="7.12354">
        <ele>1214</ele>
        <time>2018-06-20T18:01:18.008Z</time>
      </trkpt>
      <trkpt lat="43.9627" lon="7.12346">
        <ele>1212</ele>
        <time>2018-06-20T18:01:22.008Z</time>
      </trkpt>
      <trkpt lat="43.9628" lon="7.12336">
        <ele>1208</ele>
        <time>2018-06-20T18:01:26.008Z</time>
      </trkpt>
      <trkpt lat="43.96287" lon="7.12326">
        <ele>1211</ele>
        <time>2018-06-20T18:01:29.008Z</time>
      </trkpt>
      <trkpt lat="43.96291" lon="7.1231">
        <ele>1210</ele>
        <time>2018-06-20T18:01:33.008Z</time>
      </trkpt>
      <trkpt lat="43.96294" lon="7.12296">
        <ele>1210</ele>
        <time>2018-06-20T18:01:36.008Z</time>
      </trkpt>
      <trkpt lat="43.96288" lon="7.12292">
        <ele>1212</ele>
        <time>2018-06-20T18:02:07.008Z</time>
      </trkpt>
      <trkpt lat="43.96295" lon="7.12283">
        <ele>1210</ele>
        <time>2018-06-20T18:02:20.008Z</time>
      </trkpt>
      <trkpt lat="43.963" lon="7.12273">
        <ele>1209</ele>
        <time>2018-06-20T18:02:23.008Z</time>
      </trkpt>
      <trkpt lat="43.96304" lon="7.12259">
        <ele>1208</ele>
        <time>2018-06-20T18:02:28.008Z</time>
      </trkpt>
      <trkpt lat="43.96308" lon="7.12243">
        <ele>1213</ele>
        <time>2018-06-20T18:02:32.008Z</time>
      </trkpt>
      <trkpt lat="43.96309" lon="7.12228">
        <ele>1215</ele>
        <time>2018-06-20T18:02:35.008Z</time>
      </trkpt>
      <trkpt lat="43.96312" lon="7.12213">
        <ele>1216</ele>
        <time>2018-06-20T18:02:39.008Z</time>
      </trkpt>
      <trkpt lat="43.96318" lon="7.12202">
        <ele>1216</ele>
        <time>2018-06-20T18:02:42.008Z</time>
      </trkpt>
      <trkpt lat="43.96324" lon="7.12188">
        <ele>1215</ele>
        <time>2018-06-20T18:02:45.008Z</time>
      </trkpt>
      <trkpt lat="43.96331" lon="7.12175">
        <ele>1211</ele>
        <time>2018-06-20T18:02:48.008Z</time>
      </trkpt>
      <trkpt lat="43.96339" lon="7.12165">
        <ele>1205</ele>
        <time>2018-06-20T18:02:51.008Z</time>
      </trkpt>
      <trkpt lat="43.96346" lon="7.12152">
        <ele>1201</ele>
        <time>2018-06-20T18:02:55.008Z</time>
      </trkpt>
      <trkpt lat="43.96355" lon="7.1214">
        <ele>1199</ele>
        <time>2018-06-20T18:03:00.008Z</time>
      </trkpt>
      <trkpt lat="43.96364" lon="7.12133">
        <ele>1197</ele>
        <time>2018-06-20T18:03:03.008Z</time>
      </trkpt>
      <trkpt lat="43.96372" lon="7.12124">
        <ele>1196</ele>
        <time>2018-06-20T18:03:08.008Z</time>
      </trkpt>
      <trkpt lat="43.96378" lon="7.12111">
        <ele>1196</ele>
        <time>2018-06-20T18:03:14.008Z</time>
      </trkpt>
      <trkpt lat="43.96383" lon="7.12099">
        <ele>1196</ele>
        <time>2018-06-20T18:03:18.008Z</time>
      </trkpt>
      <trkpt lat="43.96387" lon="7.12088">
        <ele>1195</ele>
        <time>2018-06-20T18:03:21.008Z</time>
      </trkpt>
      <trkpt lat="43.96386" lon="7.12074">
        <ele>1205</ele>
        <time>2018-06-20T18:03:24.008Z</time>
      </trkpt>
      <trkpt lat="43.96382" lon="7.12058">
        <ele>1208</ele>
        <time>2018-06-20T18:03:27.008Z</time>
      </trkpt>
      <trkpt lat="43.96388" lon="7.12046">
        <ele>1209</ele>
        <time>2018-06-20T18:03:31.008Z</time>
      </trkpt>
      <trkpt lat="43.96397" lon="7.12032">
        <ele>1209</ele>
        <time>2018-06-20T18:03:35.008Z</time>
      </trkpt>
      <trkpt lat="43.96406" lon="7.12021">
        <ele>1208</ele>
        <time>2018-06-20T18:03:37.008Z</time>
      </trkpt>
      <trkpt lat="43.96416" lon="7.12011">
        <ele>1206</ele>
        <time>2018-06-20T18:03:39.008Z</time>
      </trkpt>
      <trkpt lat="43.96428" lon="7.11999">
        <ele>1201</ele>
        <time>2018-06-20T18:03:42.008Z</time>
      </trkpt>
      <trkpt lat="43.96436" lon="7.11989">
        <ele>1199</ele>
        <time>2018-06-20T18:03:45.008Z</time>
      </trkpt>
      <trkpt lat="43.96444" lon="7.1198">
        <ele>1197</ele>
        <time>2018-06-20T18:03:49.008Z</time>
      </trkpt>
      <trkpt lat="43.96454" lon="7.1197">
        <ele>1196</ele>
        <time>2018-06-20T18:03:53.008Z</time>
      </trkpt>
      <trkpt lat="43.96461" lon="7.11959">
        <ele>1195</ele>
        <time>2018-06-20T18:03:58.008Z</time>
      </trkpt>
      <trkpt lat="43.96467" lon="7.11947">
        <ele>1195</ele>
        <time>2018-06-20T18:04:03.008Z</time>
      </trkpt>
      <trkpt lat="43.96473" lon="7.11935">
        <ele>1195</ele>
        <time>2018-06-20T18:04:06.008Z</time>
      </trkpt>
      <trkpt lat="43.96482" lon="7.11921">
        <ele>1193</ele>
        <time>2018-06-20T18:04:09.008Z</time>
      </trkpt>
      <trkpt lat="43.9649" lon="7.11912">
        <ele>1195</ele>
        <time>2018-06-20T18:04:11.008Z</time>
      </trkpt>
      <trkpt lat="43.96498" lon="7.11904">
        <ele>1196</ele>
        <time>2018-06-20T18:04:13.008Z</time>
      </trkpt>
      <trkpt lat="43.96508" lon="7.11891">
        <ele>1182</ele>
        <time>2018-06-20T18:04:16.008Z</time>
      </trkpt>
      <trkpt lat="43.96515" lon="7.1188">
        <ele>1181</ele>
        <time>2018-06-20T18:04:18.008Z</time>
      </trkpt>
      <trkpt lat="43.96512" lon="7.11866">
        <ele>1183</ele>
        <time>2018-06-20T18:04:25.008Z</time>
      </trkpt>
      <trkpt lat="43.96511" lon="7.11851">
        <ele>1186</ele>
        <time>2018-06-20T18:04:29.008Z</time>
      </trkpt>
      <trkpt lat="43.96511" lon="7.11836">
        <ele>1190</ele>
        <time>2018-06-20T18:04:33.008Z</time>
      </trkpt>
      <trkpt lat="43.9651" lon="7.1182">
        <ele>1193</ele>
        <time>2018-06-20T18:04:37.008Z</time>
      </trkpt>
      <trkpt lat="43.9651" lon="7.11805">
        <ele>1192</ele>
        <time>2018-06-20T18:04:40.008Z</time>
      </trkpt>
      <trkpt lat="43.96513" lon="7.11792">
        <ele>1193</ele>
        <time>2018-06-20T18:04:43.008Z</time>
      </trkpt>
      <trkpt lat="43.96519" lon="7.1178">
        <ele>1193</ele>
        <time>2018-06-20T18:04:46.008Z</time>
      </trkpt>
      <trkpt lat="43.9653" lon="7.1177">
        <ele>1192</ele>
        <time>2018-06-20T18:04:50.008Z</time>
      </trkpt>
      <trkpt lat="43.96541" lon="7.1176">
        <ele>1191</ele>
        <time>2018-06-20T18:04:54.008Z</time>
      </trkpt>
      <trkpt lat="43.96549" lon="7.11754">
        <ele>1189</ele>
        <time>2018-06-20T18:04:58.008Z</time>
      </trkpt>
      <trkpt lat="43.96558" lon="7.11748">
        <ele>1194</ele>
        <time>2018-06-20T18:05:02.008Z</time>
      </trkpt>
      <trkpt lat="43.96568" lon="7.11743">
        <ele>1191</ele>
        <time>2018-06-20T18:05:07.008Z</time>
      </trkpt>
      <trkpt lat="43.96577" lon="7.11736">
        <ele>1190</ele>
        <time>2018-06-20T18:05:10.008Z</time>
      </trkpt>
      <trkpt lat="43.96586" lon="7.11725">
        <ele>1180</ele>
        <time>2018-06-20T18:05:13.008Z</time>
      </trkpt>
      <trkpt lat="43.96591" lon="7.11715">
        <ele>1180</ele>
        <time>2018-06-20T18:05:16.008Z</time>
      </trkpt>
      <trkpt lat="43.96598" lon="7.117">
        <ele>1181</ele>
        <time>2018-06-20T18:05:20.008Z</time>
      </trkpt>
      <trkpt lat="43.96609" lon="7.11687">
        <ele>1181</ele>
        <time>2018-06-20T18:05:23.008Z</time>
      </trkpt>
      <trkpt lat="43.96621" lon="7.11678">
        <ele>1180</ele>
        <time>2018-06-20T18:05:25.008Z</time>
      </trkpt>
      <trkpt lat="43.96632" lon="7.1167">
        <ele>1178</ele>
        <time>2018-06-20T18:05:27.008Z</time>
      </trkpt>
      <trkpt lat="43.96644" lon="7.11662">
        <ele>1184</ele>
        <time>2018-06-20T18:05:29.008Z</time>
      </trkpt>
      <trkpt lat="43.96652" lon="7.11653">
        <ele>1183</ele>
        <time>2018-06-20T18:05:31.008Z</time>
      </trkpt>
      <trkpt lat="43.96661" lon="7.11643">
        <ele>1183</ele>
        <time>2018-06-20T18:05:33.008Z</time>
      </trkpt>
      <trkpt lat="43.96668" lon="7.11632">
        <ele>1168</ele>
        <time>2018-06-20T18:05:35.008Z</time>
      </trkpt>
      <trkpt lat="43.96675" lon="7.11621">
        <ele>1168</ele>
        <time>2018-06-20T18:05:37.008Z</time>
      </trkpt>
      <trkpt lat="43.96682" lon="7.11609">
        <ele>1169</ele>
        <time>2018-06-20T18:05:39.008Z</time>
      </trkpt>
      <trkpt lat="43.96688" lon="7.11622">
        <ele>1166</ele>
        <time>2018-06-20T18:05:48.008Z</time>
      </trkpt>
      <trkpt lat="43.96685" lon="7.11653">
        <ele>1167</ele>
        <time>2018-06-20T18:05:53.008Z</time>
      </trkpt>
      <trkpt lat="43.96679" lon="7.11671">
        <ele>1164</ele>
        <time>2018-06-20T18:05:56.008Z</time>
      </trkpt>
      <trkpt lat="43.96675" lon="7.11686">
        <ele>1160</ele>
        <time>2018-06-20T18:05:59.008Z</time>
      </trkpt>
      <trkpt lat="43.96671" lon="7.11705">
        <ele>1156</ele>
        <time>2018-06-20T18:06:02.008Z</time>
      </trkpt>
      <trkpt lat="43.96666" lon="7.11718">
        <ele>1171</ele>
        <time>2018-06-20T18:06:04.008Z</time>
      </trkpt>
      <trkpt lat="43.9666" lon="7.11731">
        <ele>1169</ele>
        <time>2018-06-20T18:06:06.008Z</time>
      </trkpt>
      <trkpt lat="43.96655" lon="7.11745">
        <ele>1166</ele>
        <time>2018-06-20T18:06:08.008Z</time>
      </trkpt>
      <trkpt lat="43.96649" lon="7.11761">
        <ele>1161</ele>
        <time>2018-06-20T18:06:10.008Z</time>
      </trkpt>
      <trkpt lat="43.96642" lon="7.11781">
        <ele>1161</ele>
        <time>2018-06-20T18:06:12.008Z</time>
      </trkpt>
      <trkpt lat="43.96635" lon="7.11799">
        <ele>1160</ele>
        <time>2018-06-20T18:06:14.008Z</time>
      </trkpt>
      <trkpt lat="43.96629" lon="7.11813">
        <ele>1160</ele>
        <time>2018-06-20T18:06:16.008Z</time>
      </trkpt>
      <trkpt lat="43.96622" lon="7.11829">
        <ele>1160</ele>
        <time>2018-06-20T18:06:18.008Z</time>
      </trkpt>
      <trkpt lat="43.96616" lon="7.11841">
        <ele>1151</ele>
        <time>2018-06-20T18:06:20.008Z</time>
      </trkpt>
      <trkpt lat="43.96611" lon="7.11855">
        <ele>1151</ele>
        <time>2018-06-20T18:06:22.008Z</time>
      </trkpt>
      <trkpt lat="43.96605" lon="7.11869">
        <ele>1150</ele>
        <time>2018-06-20T18:06:25.008Z</time>
      </trkpt>
      <trkpt lat="43.966" lon="7.11881">
        <ele>1149</ele>
        <time>2018-06-20T18:06:51.008Z</time>
      </trkpt>
      <trkpt lat="43.96597" lon="7.11895">
        <ele>1149</ele>
        <time>2018-06-20T18:06:53.008Z</time>
      </trkpt>
      <trkpt lat="43.96593" lon="7.11908">
        <ele>1150</ele>
        <time>2018-06-20T18:06:55.008Z</time>
      </trkpt>
      <trkpt lat="43.96589" lon="7.11922">
        <ele>1146</ele>
        <time>2018-06-20T18:06:57.008Z</time>
      </trkpt>
      <trkpt lat="43.96586" lon="7.11935">
        <ele>1140</ele>
        <time>2018-06-20T18:06:59.008Z</time>
      </trkpt>
      <trkpt lat="43.96586" lon="7.11949">
        <ele>1135</ele>
        <time>2018-06-20T18:07:01.008Z</time>
      </trkpt>
      <trkpt lat="43.96587" lon="7.1197">
        <ele>1131</ele>
        <time>2018-06-20T18:07:04.008Z</time>
      </trkpt>
      <trkpt lat="43.96588" lon="7.11985">
        <ele>1131</ele>
        <time>2018-06-20T18:07:06.008Z</time>
      </trkpt>
      <trkpt lat="43.96586" lon="7.12003">
        <ele>1129</ele>
        <time>2018-06-20T18:07:09.008Z</time>
      </trkpt>
      <trkpt lat="43.96581" lon="7.12013">
        <ele>1136</ele>
        <time>2018-06-20T18:07:11.008Z</time>
      </trkpt>
      <trkpt lat="43.96576" lon="7.12023">
        <ele>1136</ele>
        <time>2018-06-20T18:07:13.008Z</time>
      </trkpt>
      <trkpt lat="43.96572" lon="7.12035">
        <ele>1136</ele>
        <time>2018-06-20T18:07:15.008Z</time>
      </trkpt>
      <trkpt lat="43.96566" lon="7.12046">
        <ele>1134</ele>
        <time>2018-06-20T18:07:17.008Z</time>
      </trkpt>
      <trkpt lat="43.9656" lon="7.12056">
        <ele>1133</ele>
        <time>2018-06-20T18:07:19.008Z</time>
      </trkpt>
      <trkpt lat="43.96553" lon="7.12065">
        <ele>1133</ele>
        <time>2018-06-20T18:07:21.008Z</time>
      </trkpt>
      <trkpt lat="43.96548" lon="7.12078">
        <ele>1133</ele>
        <time>2018-06-20T18:07:23.008Z</time>
      </trkpt>
      <trkpt lat="43.96545" lon="7.12095">
        <ele>1120</ele>
        <time>2018-06-20T18:07:25.008Z</time>
      </trkpt>
      <trkpt lat="43.96541" lon="7.12113">
        <ele>1119</ele>
        <time>2018-06-20T18:07:27.008Z</time>
      </trkpt>
      <trkpt lat="43.96538" lon="7.12129">
        <ele>1118</ele>
        <time>2018-06-20T18:07:29.008Z</time>
      </trkpt>
      <trkpt lat="43.96534" lon="7.12149">
        <ele>1117</ele>
        <time>2018-06-20T18:07:32.008Z</time>
      </trkpt>
      <trkpt lat="43.96532" lon="7.12162">
        <ele>1117</ele>
        <time>2018-06-20T18:07:34.008Z</time>
      </trkpt>
      <trkpt lat="43.96527" lon="7.12181">
        <ele>1107</ele>
        <time>2018-06-20T18:07:37.008Z</time>
      </trkpt>
      <trkpt lat="43.96525" lon="7.12194">
        <ele>1106</ele>
        <time>2018-06-20T18:07:39.008Z</time>
      </trkpt>
      <trkpt lat="43.96526" lon="7.12211">
        <ele>1104</ele>
        <time>2018-06-20T18:07:42.008Z</time>
      </trkpt>
      <trkpt lat="43.9653" lon="7.12226">
        <ele>1102</ele>
        <time>2018-06-20T18:07:44.008Z</time>
      </trkpt>
      <trkpt lat="43.96535" lon="7.12242">
        <ele>1100</ele>
        <time>2018-06-20T18:07:46.008Z</time>
      </trkpt>
      <trkpt lat="43.9654" lon="7.12255">
        <ele>1089</ele>
        <time>2018-06-20T18:07:48.008Z</time>
      </trkpt>
      <trkpt lat="43.96543" lon="7.12268">
        <ele>1087</ele>
        <time>2018-06-20T18:07:50.008Z</time>
      </trkpt>
      <trkpt lat="43.96543" lon="7.12282">
        <ele>1086</ele>
        <time>2018-06-20T18:07:52.008Z</time>
      </trkpt>
      <trkpt lat="43.96543" lon="7.12298">
        <ele>1084</ele>
        <time>2018-06-20T18:07:54.008Z</time>
      </trkpt>
      <trkpt lat="43.96543" lon="7.12317">
        <ele>1083</ele>
        <time>2018-06-20T18:07:56.008Z</time>
      </trkpt>
      <trkpt lat="43.9654" lon="7.12335">
        <ele>1073</ele>
        <time>2018-06-20T18:07:58.008Z</time>
      </trkpt>
      <trkpt lat="43.96536" lon="7.12352">
        <ele>1073</ele>
        <time>2018-06-20T18:08:00.008Z</time>
      </trkpt>
      <trkpt lat="43.96531" lon="7.1237">
        <ele>1073</ele>
        <time>2018-06-20T18:08:02.008Z</time>
      </trkpt>
      <trkpt lat="43.96526" lon="7.12388">
        <ele>1073</ele>
        <time>2018-06-20T18:08:04.008Z</time>
      </trkpt>
      <trkpt lat="43.9652" lon="7.12407">
        <ele>1075</ele>
        <time>2018-06-20T18:08:06.008Z</time>
      </trkpt>
      <trkpt lat="43.96514" lon="7.12428">
        <ele>1070</ele>
        <time>2018-06-20T18:08:08.008Z</time>
      </trkpt>
      <trkpt lat="43.96511" lon="7.12447">
        <ele>1066</ele>
        <time>2018-06-20T18:08:10.008Z</time>
      </trkpt>
      <trkpt lat="43.96508" lon="7.12464">
        <ele>1065</ele>
        <time>2018-06-20T18:08:12.008Z</time>
      </trkpt>
      <trkpt lat="43.9651" lon="7.12478">
        <ele>1066</ele>
        <time>2018-06-20T18:08:14.008Z</time>
      </trkpt>
      <trkpt lat="43.96517" lon="7.12489">
        <ele>1067</ele>
        <time>2018-06-20T18:08:16.008Z</time>
      </trkpt>
      <trkpt lat="43.9652" lon="7.12502">
        <ele>1064</ele>
        <time>2018-06-20T18:08:18.008Z</time>
      </trkpt>
      <trkpt lat="43.96523" lon="7.12518">
        <ele>1060</ele>
        <time>2018-06-20T18:08:20.008Z</time>
      </trkpt>
      <trkpt lat="43.96529" lon="7.12533">
        <ele>1057</ele>
        <time>2018-06-20T18:08:22.008Z</time>
      </trkpt>
      <trkpt lat="43.96533" lon="7.1255">
        <ele>1055</ele>
        <time>2018-06-20T18:08:24.008Z</time>
      </trkpt>
      <trkpt lat="43.96538" lon="7.12568">
        <ele>1054</ele>
        <time>2018-06-20T18:08:26.008Z</time>
      </trkpt>
      <trkpt lat="43.96543" lon="7.12585">
        <ele>1053</ele>
        <time>2018-06-20T18:08:28.008Z</time>
      </trkpt>
      <trkpt lat="43.96548" lon="7.12602">
        <ele>1051</ele>
        <time>2018-06-20T18:08:30.008Z</time>
      </trkpt>
      <trkpt lat="43.96553" lon="7.12618">
        <ele>1050</ele>
        <time>2018-06-20T18:08:32.008Z</time>
      </trkpt>
      <trkpt lat="43.96558" lon="7.12632">
        <ele>1049</ele>
        <time>2018-06-20T18:08:34.008Z</time>
      </trkpt>
      <trkpt lat="43.96561" lon="7.12645">
        <ele>1047</ele>
        <time>2018-06-20T18:08:36.008Z</time>
      </trkpt>
      <trkpt lat="43.96567" lon="7.12659">
        <ele>1043</ele>
        <time>2018-06-20T18:08:38.008Z</time>
      </trkpt>
      <trkpt lat="43.96571" lon="7.12673">
        <ele>1040</ele>
        <time>2018-06-20T18:08:40.008Z</time>
      </trkpt>
      <trkpt lat="43.96576" lon="7.12687">
        <ele>1043</ele>
        <time>2018-06-20T18:08:42.008Z</time>
      </trkpt>
      <trkpt lat="43.96581" lon="7.12703">
        <ele>1045</ele>
        <time>2018-06-20T18:08:44.008Z</time>
      </trkpt>
      <trkpt lat="43.96588" lon="7.12721">
        <ele>1016</ele>
        <time>2018-06-20T18:08:46.008Z</time>
      </trkpt>
      <trkpt lat="43.96593" lon="7.12739">
        <ele>1021</ele>
        <time>2018-06-20T18:08:48.008Z</time>
      </trkpt>
      <trkpt lat="43.96597" lon="7.12754">
        <ele>1017</ele>
        <time>2018-06-20T18:08:50.008Z</time>
      </trkpt>
      <trkpt lat="43.96597" lon="7.12772">
        <ele>1009</ele>
        <time>2018-06-20T18:08:53.008Z</time>
      </trkpt>
      <trkpt lat="43.96589" lon="7.12788">
        <ele>1005</ele>
        <time>2018-06-20T18:08:56.008Z</time>
      </trkpt>
      <trkpt lat="43.96581" lon="7.12797">
        <ele>1034</ele>
        <time>2018-06-20T18:08:58.008Z</time>
      </trkpt>
      <trkpt lat="43.96573" lon="7.12809">
        <ele>1032</ele>
        <time>2018-06-20T18:09:00.008Z</time>
      </trkpt>
      <trkpt lat="43.96567" lon="7.1282">
        <ele>1030</ele>
        <time>2018-06-20T18:09:02.008Z</time>
      </trkpt>
      <trkpt lat="43.96565" lon="7.1283">
        <ele>1029</ele>
        <time>2018-06-20T18:09:09.008Z</time>
      </trkpt>
      <trkpt lat="43.96563" lon="7.12842">
        <ele>1017</ele>
        <time>2018-06-20T18:09:46.008Z</time>
      </trkpt>
      <trkpt lat="43.96556" lon="7.12855">
        <ele>1017</ele>
        <time>2018-06-20T18:09:49.008Z</time>
      </trkpt>
      <trkpt lat="43.9655" lon="7.12861">
        <ele>1018</ele>
        <time>2018-06-20T18:09:51.008Z</time>
      </trkpt>
      <trkpt lat="43.96541" lon="7.12872">
        <ele>1019</ele>
        <time>2018-06-20T18:09:54.008Z</time>
      </trkpt>
      <trkpt lat="43.96537" lon="7.1289">
        <ele>1017</ele>
        <time>2018-06-20T18:09:57.008Z</time>
      </trkpt>
      <trkpt lat="43.96535" lon="7.12902">
        <ele>1016</ele>
        <time>2018-06-20T18:09:59.008Z</time>
      </trkpt>
      <trkpt lat="43.96534" lon="7.12915">
        <ele>1015</ele>
        <time>2018-06-20T18:10:01.008Z</time>
      </trkpt>
      <trkpt lat="43.96531" lon="7.12928">
        <ele>997</ele>
        <time>2018-06-20T18:10:03.008Z</time>
      </trkpt>
      <trkpt lat="43.96528" lon="7.12938">
        <ele>996</ele>
        <time>2018-06-20T18:10:05.008Z</time>
      </trkpt>
      <trkpt lat="43.96525" lon="7.12948">
        <ele>995</ele>
        <time>2018-06-20T18:10:07.008Z</time>
      </trkpt>
      <trkpt lat="43.9652" lon="7.12963">
        <ele>992</ele>
        <time>2018-06-20T18:10:10.008Z</time>
      </trkpt>
      <trkpt lat="43.96518" lon="7.12976">
        <ele>991</ele>
        <time>2018-06-20T18:10:12.008Z</time>
      </trkpt>
      <trkpt lat="43.96519" lon="7.12989">
        <ele>991</ele>
        <time>2018-06-20T18:10:15.008Z</time>
      </trkpt>
      <trkpt lat="43.96512" lon="7.13001">
        <ele>984</ele>
        <time>2018-06-20T18:10:18.008Z</time>
      </trkpt>
      <trkpt lat="43.96504" lon="7.13009">
        <ele>986</ele>
        <time>2018-06-20T18:10:20.008Z</time>
      </trkpt>
      <trkpt lat="43.96499" lon="7.13022">
        <ele>1007</ele>
        <time>2018-06-20T18:10:22.008Z</time>
      </trkpt>
      <trkpt lat="43.96495" lon="7.13037">
        <ele>1007</ele>
        <time>2018-06-20T18:10:24.008Z</time>
      </trkpt>
      <trkpt lat="43.96491" lon="7.13051">
        <ele>1005</ele>
        <time>2018-06-20T18:10:26.008Z</time>
      </trkpt>
      <trkpt lat="43.96489" lon="7.13066">
        <ele>999</ele>
        <time>2018-06-20T18:10:29.008Z</time>
      </trkpt>
      <trkpt lat="43.96487" lon="7.13081">
        <ele>993</ele>
        <time>2018-06-20T18:10:32.008Z</time>
      </trkpt>
      <trkpt lat="43.96487" lon="7.13097">
        <ele>988</ele>
        <time>2018-06-20T18:10:35.008Z</time>
      </trkpt>
      <trkpt lat="43.96489" lon="7.13114">
        <ele>990</ele>
        <time>2018-06-20T18:10:38.008Z</time>
      </trkpt>
      <trkpt lat="43.9649" lon="7.13127">
        <ele>989</ele>
        <time>2018-06-20T18:10:40.008Z</time>
      </trkpt>
      <trkpt lat="43.96491" lon="7.13142">
        <ele>985</ele>
        <time>2018-06-20T18:10:42.008Z</time>
      </trkpt>
      <trkpt lat="43.96493" lon="7.13157">
        <ele>974</ele>
        <time>2018-06-20T18:10:44.008Z</time>
      </trkpt>
      <trkpt lat="43.96495" lon="7.13172">
        <ele>964</ele>
        <time>2018-06-20T18:10:46.008Z</time>
      </trkpt>
      <trkpt lat="43.96497" lon="7.13191">
        <ele>967</ele>
        <time>2018-06-20T18:10:49.008Z</time>
      </trkpt>
      <trkpt lat="43.96493" lon="7.13204">
        <ele>967</ele>
        <time>2018-06-20T18:10:52.008Z</time>
      </trkpt>
      <trkpt lat="43.96504" lon="7.13196">
        <ele>932</ele>
        <time>2018-06-20T18:11:00.008Z</time>
      </trkpt>
      <trkpt lat="43.96508" lon="7.13183">
        <ele>938</ele>
        <time>2018-06-20T18:11:02.008Z</time>
      </trkpt>
      <trkpt lat="43.96512" lon="7.13168">
        <ele>943</ele>
        <time>2018-06-20T18:11:04.008Z</time>
      </trkpt>
      <trkpt lat="43.96515" lon="7.13151">
        <ele>947</ele>
        <time>2018-06-20T18:11:06.008Z</time>
      </trkpt>
      <trkpt lat="43.96519" lon="7.13135">
        <ele>945</ele>
        <time>2018-06-20T18:11:08.008Z</time>
      </trkpt>
      <trkpt lat="43.96522" lon="7.13117">
        <ele>946</ele>
        <time>2018-06-20T18:11:11.008Z</time>
      </trkpt>
      <trkpt lat="43.96529" lon="7.13125">
        <ele>942</ele>
        <time>2018-06-20T18:11:17.008Z</time>
      </trkpt>
      <trkpt lat="43.96527" lon="7.1314">
        <ele>942</ele>
        <time>2018-06-20T18:11:20.008Z</time>
      </trkpt>
      <trkpt lat="43.96529" lon="7.13155">
        <ele>941</ele>
        <time>2018-06-20T18:11:22.008Z</time>
      </trkpt>
      <trkpt lat="43.9653" lon="7.13173">
        <ele>928</ele>
        <time>2018-06-20T18:11:24.008Z</time>
      </trkpt>
      <trkpt lat="43.96532" lon="7.13189">
        <ele>925</ele>
        <time>2018-06-20T18:11:26.008Z</time>
      </trkpt>
      <trkpt lat="43.96532" lon="7.13203">
        <ele>922</ele>
        <time>2018-06-20T18:11:28.008Z</time>
      </trkpt>
      <trkpt lat="43.96532" lon="7.13222">
        <ele>919</ele>
        <time>2018-06-20T18:11:31.008Z</time>
      </trkpt>
      <trkpt lat="43.96529" lon="7.13235">
        <ele>919</ele>
        <time>2018-06-20T18:11:33.008Z</time>
      </trkpt>
      <trkpt lat="43.9652" lon="7.13247">
        <ele>922</ele>
        <time>2018-06-20T18:11:36.008Z</time>
      </trkpt>
      <trkpt lat="43.96512" lon="7.13258">
        <ele>914</ele>
        <time>2018-06-20T18:11:39.008Z</time>
      </trkpt>
      <trkpt lat="43.96503" lon="7.13266">
        <ele>913</ele>
        <time>2018-06-20T18:11:42.008Z</time>
      </trkpt>
      <trkpt lat="43.96497" lon="7.13278">
        <ele>938</ele>
        <time>2018-06-20T18:11:45.008Z</time>
      </trkpt>
      <trkpt lat="43.96495" lon="7.13292">
        <ele>936</ele>
        <time>2018-06-20T18:11:48.008Z</time>
      </trkpt>
      <trkpt lat="43.96495" lon="7.13309">
        <ele>930</ele>
        <time>2018-06-20T18:11:51.008Z</time>
      </trkpt>
      <trkpt lat="43.96494" lon="7.1332">
        <ele>924</ele>
        <time>2018-06-20T18:11:53.008Z</time>
      </trkpt>
      <trkpt lat="43.96492" lon="7.13333">
        <ele>916</ele>
        <time>2018-06-20T18:11:55.008Z</time>
      </trkpt>
      <trkpt lat="43.96491" lon="7.1335">
        <ele>910</ele>
        <time>2018-06-20T18:11:58.008Z</time>
      </trkpt>
      <trkpt lat="43.96491" lon="7.13361">
        <ele>909</ele>
        <time>2018-06-20T18:12:00.008Z</time>
      </trkpt>
      <trkpt lat="43.96487" lon="7.13373">
        <ele>908</ele>
        <time>2018-06-20T18:12:02.008Z</time>
      </trkpt>
      <trkpt lat="43.96482" lon="7.13389">
        <ele>904</ele>
        <time>2018-06-20T18:12:05.008Z</time>
      </trkpt>
      <trkpt lat="43.96478" lon="7.13402">
        <ele>901</ele>
        <time>2018-06-20T18:12:07.008Z</time>
      </trkpt>
      <trkpt lat="43.96475" lon="7.13413">
        <ele>900</ele>
        <time>2018-06-20T18:12:09.008Z</time>
      </trkpt>
      <trkpt lat="43.96469" lon="7.13431">
        <ele>882</ele>
        <time>2018-06-20T18:12:12.008Z</time>
      </trkpt>
      <trkpt lat="43.96464" lon="7.13439">
        <ele>883</ele>
        <time>2018-06-20T18:12:14.008Z</time>
      </trkpt>
      <trkpt lat="43.96457" lon="7.13445">
        <ele>884</ele>
        <time>2018-06-20T18:12:16.008Z</time>
      </trkpt>
      <trkpt lat="43.96449" lon="7.13452">
        <ele>885</ele>
        <time>2018-06-20T18:12:18.008Z</time>
      </trkpt>
      <trkpt lat="43.96441" lon="7.13458">
        <ele>886</ele>
        <time>2018-06-20T18:12:20.008Z</time>
      </trkpt>
      <trkpt lat="43.96432" lon="7.13468">
        <ele>886</ele>
        <time>2018-06-20T18:12:23.008Z</time>
      </trkpt>
      <trkpt lat="43.96433" lon="7.13482">
        <ele>884</ele>
        <time>2018-06-20T18:12:26.008Z</time>
      </trkpt>
      <trkpt lat="43.96435" lon="7.13497">
        <ele>883</ele>
        <time>2018-06-20T18:12:29.008Z</time>
      </trkpt>
      <trkpt lat="43.96436" lon="7.13513">
        <ele>865</ele>
        <time>2018-06-20T18:12:32.008Z</time>
      </trkpt>
      <trkpt lat="43.96434" lon="7.13526">
        <ele>861</ele>
        <time>2018-06-20T18:12:34.008Z</time>
      </trkpt>
      <trkpt lat="43.96432" lon="7.13538">
        <ele>858</ele>
        <time>2018-06-20T18:12:36.008Z</time>
      </trkpt>
      <trkpt lat="43.9643" lon="7.13549">
        <ele>856</ele>
        <time>2018-06-20T18:12:38.008Z</time>
      </trkpt>
      <trkpt lat="43.96424" lon="7.13562">
        <ele>856</ele>
        <time>2018-06-20T18:12:42.008Z</time>
      </trkpt>
      <trkpt lat="43.96432" lon="7.13554">
        <ele>855</ele>
        <time>2018-06-20T18:12:48.008Z</time>
      </trkpt>
      <trkpt lat="43.9644" lon="7.13543">
        <ele>855</ele>
        <time>2018-06-20T18:12:51.008Z</time>
      </trkpt>
      <trkpt lat="43.96448" lon="7.13532">
        <ele>855</ele>
        <time>2018-06-20T18:12:54.008Z</time>
      </trkpt>
      <trkpt lat="43.96455" lon="7.13523">
        <ele>854</ele>
        <time>2018-06-20T18:12:58.008Z</time>
      </trkpt>
      <trkpt lat="43.96452" lon="7.13536">
        <ele>853</ele>
        <time>2018-06-20T18:13:03.008Z</time>
      </trkpt>
      <trkpt lat="43.9645" lon="7.13545">
        <ele>851</ele>
        <time>2018-06-20T18:13:05.008Z</time>
      </trkpt>
      <trkpt lat="43.96449" lon="7.13557">
        <ele>850</ele>
        <time>2018-06-20T18:13:07.008Z</time>
      </trkpt>
      <trkpt lat="43.96448" lon="7.13566">
        <ele>849</ele>
        <time>2018-06-20T18:13:09.008Z</time>
      </trkpt>
      <trkpt lat="43.96446" lon="7.13574">
        <ele>850</ele>
        <time>2018-06-20T18:13:12.008Z</time>
      </trkpt>
      <trkpt lat="43.96451" lon="7.13567">
        <ele>848</ele>
        <time>2018-06-20T18:13:28.008Z</time>
      </trkpt>
      <trkpt lat="43.96457" lon="7.13561">
        <ele>847</ele>
        <time>2018-06-20T18:13:30.008Z</time>
      </trkpt>
      <trkpt lat="43.96465" lon="7.13552">
        <ele>845</ele>
        <time>2018-06-20T18:13:33.008Z</time>
      </trkpt>
      <trkpt lat="43.96471" lon="7.13543">
        <ele>845</ele>
        <time>2018-06-20T18:13:36.008Z</time>
      </trkpt>
      <trkpt lat="43.9647" lon="7.1355">
        <ele>844</ele>
        <time>2018-06-20T18:13:54.008Z</time>
      </trkpt>
      <trkpt lat="43.96468" lon="7.1356">
        <ele>842</ele>
        <time>2018-06-20T18:13:57.008Z</time>
      </trkpt>
      <trkpt lat="43.96466" lon="7.13568">
        <ele>842</ele>
        <time>2018-06-20T18:13:59.008Z</time>
      </trkpt>
      <trkpt lat="43.96462" lon="7.13575">
        <ele>842</ele>
        <time>2018-06-20T18:14:01.008Z</time>
      </trkpt>
      <trkpt lat="43.96456" lon="7.13587">
        <ele>822</ele>
        <time>2018-06-20T18:14:04.008Z</time>
      </trkpt>
      <trkpt lat="43.96451" lon="7.13596">
        <ele>823</ele>
        <time>2018-06-20T18:14:06.008Z</time>
      </trkpt>
      <trkpt lat="43.9645" lon="7.13609">
        <ele>820</ele>
        <time>2018-06-20T18:14:08.008Z</time>
      </trkpt>
      <trkpt lat="43.96447" lon="7.13623">
        <ele>818</ele>
        <time>2018-06-20T18:14:10.008Z</time>
      </trkpt>
      <trkpt lat="43.96441" lon="7.13634">
        <ele>817</ele>
        <time>2018-06-20T18:14:12.008Z</time>
      </trkpt>
      <trkpt lat="43.96438" lon="7.13645">
        <ele>816</ele>
        <time>2018-06-20T18:14:14.008Z</time>
      </trkpt>
      <trkpt lat="43.96433" lon="7.13658">
        <ele>818</ele>
        <time>2018-06-20T18:14:17.008Z</time>
      </trkpt>
      <trkpt lat="43.96426" lon="7.13668">
        <ele>808</ele>
        <time>2018-06-20T18:14:19.008Z</time>
      </trkpt>
      <trkpt lat="43.96419" lon="7.13679">
        <ele>803</ele>
        <time>2018-06-20T18:14:21.008Z</time>
      </trkpt>
      <trkpt lat="43.96412" lon="7.13688">
        <ele>818</ele>
        <time>2018-06-20T18:14:23.008Z</time>
      </trkpt>
      <trkpt lat="43.96407" lon="7.13693">
        <ele>816</ele>
        <time>2018-06-20T18:14:25.008Z</time>
      </trkpt>
      <trkpt lat="43.96401" lon="7.13697">
        <ele>815</ele>
        <time>2018-06-20T18:14:28.008Z</time>
      </trkpt>
      <trkpt lat="43.96396" lon="7.13702">
        <ele>814</ele>
        <time>2018-06-20T18:14:31.008Z</time>
      </trkpt>
      <trkpt lat="43.96384" lon="7.13706">
        <ele>815</ele>
        <time>2018-06-20T18:14:34.008Z</time>
      </trkpt>
      <trkpt lat="43.96374" lon="7.13708">
        <ele>816</ele>
        <time>2018-06-20T18:14:37.008Z</time>
      </trkpt>
      <trkpt lat="43.96356" lon="7.13702">
        <ele>821</ele>
        <time>2018-06-20T18:14:49.008Z</time>
      </trkpt>
      <trkpt lat="43.96349" lon="7.13708">
        <ele>820</ele>
        <time>2018-06-20T18:15:03.008Z</time>
      </trkpt>
      <trkpt lat="43.96346" lon="7.13713">
        <ele>819</ele>
        <time>2018-06-20T18:15:09.008Z</time>
      </trkpt>
      <trkpt lat="43.96345" lon="7.13717">
        <ele>818</ele>
        <time>2018-06-20T18:15:15.008Z</time>
      </trkpt>
      <trkpt lat="43.96341" lon="7.13718">
        <ele>818</ele>
        <time>2018-06-20T18:17:14.008Z</time>
      </trkpt>
      <trkpt lat="43.9634" lon="7.13726">
        <ele>815</ele>
        <time>2018-06-20T18:17:20.008Z</time>
      </trkpt>
      <trkpt lat="43.9634" lon="7.13736">
        <ele>812</ele>
        <time>2018-06-20T18:17:24.008Z</time>
      </trkpt>
      <trkpt lat="43.96341" lon="7.13726">
        <ele>815</ele>
        <time>2018-06-20T18:17:35.008Z</time>
      </trkpt>
      <trkpt lat="43.96345" lon="7.13716">
        <ele>818</ele>
        <time>2018-06-20T18:17:41.008Z</time>
      </trkpt>
      <trkpt lat="43.96345" lon="7.13708">
        <ele>821</ele>
        <time>2018-06-20T18:17:56.008Z</time>
      </trkpt>
      <trkpt lat="43.96341" lon="7.13713">
        <ele>819</ele>
        <time>2018-06-20T18:18:03.008Z</time>
      </trkpt>
      <trkpt lat="43.96339" lon="7.13724">
        <ele>816</ele>
        <time>2018-06-20T18:18:28.008Z</time>
      </trkpt>
      <trkpt lat="43.9634" lon="7.13735">
        <ele>812</ele>
        <time>2018-06-20T18:18:36.008Z</time>
      </trkpt>
      <trkpt lat="43.96343" lon="7.13747">
        <ele>810</ele>
        <time>2018-06-20T18:18:42.008Z</time>
      </trkpt>
      <trkpt lat="43.96341" lon="7.13755">
        <ele>798</ele>
        <time>2018-06-20T18:18:50.008Z</time>
      </trkpt>
      <trkpt lat="43.96339" lon="7.13759">
        <ele>796</ele>
        <time>2018-06-20T18:19:12.008Z</time>
      </trkpt>
      <trkpt lat="43.96345" lon="7.13756">
        <ele>794</ele>
        <time>2018-06-20T18:19:26.008Z</time>
      </trkpt>
      <trkpt lat="43.96352" lon="7.13753">
        <ele>790</ele>
        <time>2018-06-20T18:19:31.008Z</time>
      </trkpt>
      <trkpt lat="43.96353" lon="7.1376">
        <ele>788</ele>
        <time>2018-06-20T18:19:47.008Z</time>
      </trkpt>
      <trkpt lat="43.96351" lon="7.13767">
        <ele>786</ele>
        <time>2018-06-20T18:19:50.008Z</time>
      </trkpt>
      <trkpt lat="43.96346" lon="7.13778">
        <ele>784</ele>
        <time>2018-06-20T18:19:54.008Z</time>
      </trkpt>
      <trkpt lat="43.96339" lon="7.13787">
        <ele>781</ele>
        <time>2018-06-20T18:19:57.008Z</time>
      </trkpt>
      <trkpt lat="43.96335" lon="7.1379">
        <ele>781</ele>
        <time>2018-06-20T18:20:08.008Z</time>
      </trkpt>
      <trkpt lat="43.96329" lon="7.1379">
        <ele>804</ele>
        <time>2018-06-20T18:24:47.008Z</time>
      </trkpt>
      <trkpt lat="43.96323" lon="7.13796">
        <ele>802</ele>
        <time>2018-06-20T18:24:50.008Z</time>
      </trkpt>
      <trkpt lat="43.96315" lon="7.13809">
        <ele>799</ele>
        <time>2018-06-20T18:24:54.008Z</time>
      </trkpt>
      <trkpt lat="43.96307" lon="7.13822">
        <ele>797</ele>
        <time>2018-06-20T18:24:58.008Z</time>
      </trkpt>
      <trkpt lat="43.96301" lon="7.13834">
        <ele>772</ele>
        <time>2018-06-20T18:25:01.008Z</time>
      </trkpt>
      <trkpt lat="43.96292" lon="7.13846">
        <ele>771</ele>
        <time>2018-06-20T18:25:05.008Z</time>
      </trkpt>
      <trkpt lat="43.96281" lon="7.13857">
        <ele>771</ele>
        <time>2018-06-20T18:25:09.008Z</time>
      </trkpt>
      <trkpt lat="43.96272" lon="7.13868">
        <ele>770</ele>
        <time>2018-06-20T18:25:12.008Z</time>
      </trkpt>
      <trkpt lat="43.96266" lon="7.13874">
        <ele>769</ele>
        <time>2018-06-20T18:25:14.008Z</time>
      </trkpt>
      <trkpt lat="43.96257" lon="7.13883">
        <ele>768</ele>
        <time>2018-06-20T18:25:17.008Z</time>
      </trkpt>
      <trkpt lat="43.9625" lon="7.13896">
        <ele>765</ele>
        <time>2018-06-20T18:25:20.008Z</time>
      </trkpt>
      <trkpt lat="43.96246" lon="7.13906">
        <ele>773</ele>
        <time>2018-06-20T18:25:22.008Z</time>
      </trkpt>
      <trkpt lat="43.96242" lon="7.13915">
        <ele>770</ele>
        <time>2018-06-20T18:25:25.008Z</time>
      </trkpt>
      <trkpt lat="43.96241" lon="7.13923">
        <ele>761</ele>
        <time>2018-06-20T18:25:29.008Z</time>
      </trkpt>
      <trkpt lat="43.96242" lon="7.13932">
        <ele>760</ele>
        <time>2018-06-20T18:25:32.008Z</time>
      </trkpt>
      <trkpt lat="43.96242" lon="7.13946">
        <ele>757</ele>
        <time>2018-06-20T18:25:36.008Z</time>
      </trkpt>
      <trkpt lat="43.96238" lon="7.13952">
        <ele>756</ele>
        <time>2018-06-20T18:25:38.008Z</time>
      </trkpt>
      <trkpt lat="43.96233" lon="7.13959">
        <ele>755</ele>
        <time>2018-06-20T18:25:40.008Z</time>
      </trkpt>
      <trkpt lat="43.96225" lon="7.13971">
        <ele>753</ele>
        <time>2018-06-20T18:25:43.008Z</time>
      </trkpt>
      <trkpt lat="43.96216" lon="7.1398">
        <ele>753</ele>
        <time>2018-06-20T18:25:46.008Z</time>
      </trkpt>
      <trkpt lat="43.96226" lon="7.1398">
        <ele>751</ele>
        <time>2018-06-20T18:25:53.008Z</time>
      </trkpt>
      <trkpt lat="43.96236" lon="7.13979">
        <ele>750</ele>
        <time>2018-06-20T18:25:57.008Z</time>
      </trkpt>
      <trkpt lat="43.96232" lon="7.13987">
        <ele>748</ele>
        <time>2018-06-20T18:26:00.008Z</time>
      </trkpt>
      <trkpt lat="43.96224" lon="7.14">
        <ele>749</ele>
        <time>2018-06-20T18:26:03.008Z</time>
      </trkpt>
      <trkpt lat="43.96213" lon="7.14011">
        <ele>732</ele>
        <time>2018-06-20T18:26:06.008Z</time>
      </trkpt>
      <trkpt lat="43.96203" lon="7.14025">
        <ele>732</ele>
        <time>2018-06-20T18:26:09.008Z</time>
      </trkpt>
      <trkpt lat="43.96196" lon="7.14041">
        <ele>730</ele>
        <time>2018-06-20T18:26:12.008Z</time>
      </trkpt>
      <trkpt lat="43.96189" lon="7.14054">
        <ele>728</ele>
        <time>2018-06-20T18:26:15.008Z</time>
      </trkpt>
      <trkpt lat="43.96183" lon="7.1407">
        <ele>725</ele>
        <time>2018-06-20T18:26:18.008Z</time>
      </trkpt>
      <trkpt lat="43.96176" lon="7.14085">
        <ele>714</ele>
        <time>2018-06-20T18:26:21.008Z</time>
      </trkpt>
      <trkpt lat="43.9617" lon="7.14099">
        <ele>710</ele>
        <time>2018-06-20T18:26:24.008Z</time>
      </trkpt>
      <trkpt lat="43.96163" lon="7.14107">
        <ele>697</ele>
        <time>2018-06-20T18:26:27.008Z</time>
      </trkpt>
      <trkpt lat="43.96154" lon="7.14101">
        <ele>698</ele>
        <time>2018-06-20T18:26:30.008Z</time>
      </trkpt>
      <trkpt lat="43.96148" lon="7.14095">
        <ele>699</ele>
        <time>2018-06-20T18:26:32.008Z</time>
      </trkpt>
      <trkpt lat="43.9614" lon="7.14081">
        <ele>716</ele>
        <time>2018-06-20T18:26:35.008Z</time>
      </trkpt>
      <trkpt lat="43.96128" lon="7.14071">
        <ele>714</ele>
        <time>2018-06-20T18:26:38.008Z</time>
      </trkpt>
      <trkpt lat="43.96123" lon="7.14055">
        <ele>715</ele>
        <time>2018-06-20T18:26:41.008Z</time>
      </trkpt>
      <trkpt lat="43.96115" lon="7.14041">
        <ele>716</ele>
        <time>2018-06-20T18:26:44.008Z</time>
      </trkpt>
      <trkpt lat="43.96107" lon="7.14028">
        <ele>718</ele>
        <time>2018-06-20T18:26:47.008Z</time>
      </trkpt>
      <trkpt lat="43.96098" lon="7.14016">
        <ele>719</ele>
        <time>2018-06-20T18:26:50.008Z</time>
      </trkpt>
      <trkpt lat="43.9609" lon="7.14016">
        <ele>719</ele>
        <time>2018-06-20T18:26:52.008Z</time>
      </trkpt>
      <trkpt lat="43.9608" lon="7.1402">
        <ele>705</ele>
        <time>2018-06-20T18:26:55.008Z</time>
      </trkpt>
      <trkpt lat="43.96067" lon="7.14015">
        <ele>705</ele>
        <time>2018-06-20T18:26:58.008Z</time>
      </trkpt>
      <trkpt lat="43.96057" lon="7.14007">
        <ele>703</ele>
        <time>2018-06-20T18:27:01.008Z</time>
      </trkpt>
      <trkpt lat="43.96046" lon="7.14004">
        <ele>701</ele>
        <time>2018-06-20T18:27:05.008Z</time>
      </trkpt>
      <trkpt lat="43.96041" lon="7.13994">
        <ele>728</ele>
        <time>2018-06-20T18:27:08.008Z</time>
      </trkpt>
      <trkpt lat="43.96039" lon="7.13986">
        <ele>730</ele>
        <time>2018-06-20T18:27:10.008Z</time>
      </trkpt>
      <trkpt lat="43.96032" lon="7.13978">
        <ele>730</ele>
        <time>2018-06-20T18:27:15.008Z</time>
      </trkpt>
      <trkpt lat="43.96022" lon="7.13981">
        <ele>727</ele>
        <time>2018-06-20T18:27:18.008Z</time>
      </trkpt>
      <trkpt lat="43.96013" lon="7.1398">
        <ele>725</ele>
        <time>2018-06-20T18:27:21.008Z</time>
      </trkpt>
      <trkpt lat="43.96006" lon="7.13987">
        <ele>718</ele>
        <time>2018-06-20T18:27:24.008Z</time>
      </trkpt>
      <trkpt lat="43.95995" lon="7.13991">
        <ele>717</ele>
        <time>2018-06-20T18:27:27.008Z</time>
      </trkpt>
      <trkpt lat="43.95984" lon="7.14">
        <ele>723</ele>
        <time>2018-06-20T18:27:31.008Z</time>
      </trkpt>
      <trkpt lat="43.95975" lon="7.14004">
        <ele>703</ele>
        <time>2018-06-20T18:27:35.008Z</time>
      </trkpt>
      <trkpt lat="43.95968" lon="7.14012">
        <ele>704</ele>
        <time>2018-06-20T18:27:39.008Z</time>
      </trkpt>
      <trkpt lat="43.95958" lon="7.1402">
        <ele>705</ele>
        <time>2018-06-20T18:27:43.008Z</time>
      </trkpt>
      <trkpt lat="43.95951" lon="7.14026">
        <ele>705</ele>
        <time>2018-06-20T18:27:46.008Z</time>
      </trkpt>
      <trkpt lat="43.95942" lon="7.14034">
        <ele>705</ele>
        <time>2018-06-20T18:27:49.008Z</time>
      </trkpt>
      <trkpt lat="43.95936" lon="7.14044">
        <ele>702</ele>
        <time>2018-06-20T18:27:53.008Z</time>
      </trkpt>
      <trkpt lat="43.95933" lon="7.14055">
        <ele>699</ele>
        <time>2018-06-20T18:27:57.008Z</time>
      </trkpt>
      <trkpt lat="43.95924" lon="7.14066">
        <ele>696</ele>
        <time>2018-06-20T18:28:00.008Z</time>
      </trkpt>
      <trkpt lat="43.95911" lon="7.14073">
        <ele>705</ele>
        <time>2018-06-20T18:28:03.008Z</time>
      </trkpt>
      <trkpt lat="43.95903" lon="7.14079">
        <ele>708</ele>
        <time>2018-06-20T18:28:05.008Z</time>
      </trkpt>
      <trkpt lat="43.95895" lon="7.14086">
        <ele>691</ele>
        <time>2018-06-20T18:28:07.008Z</time>
      </trkpt>
      <trkpt lat="43.95887" lon="7.14092">
        <ele>692</ele>
        <time>2018-06-20T18:28:09.008Z</time>
      </trkpt>
      <trkpt lat="43.95877" lon="7.14101">
        <ele>693</ele>
        <time>2018-06-20T18:28:13.008Z</time>
      </trkpt>
      <trkpt lat="43.95873" lon="7.14113">
        <ele>692</ele>
        <time>2018-06-20T18:28:16.008Z</time>
      </trkpt>
      <trkpt lat="43.9587" lon="7.14128">
        <ele>689</ele>
        <time>2018-06-20T18:28:19.008Z</time>
      </trkpt>
      <trkpt lat="43.9587" lon="7.14143">
        <ele>686</ele>
        <time>2018-06-20T18:28:22.008Z</time>
      </trkpt>
      <trkpt lat="43.95866" lon="7.14162">
        <ele>685</ele>
        <time>2018-06-20T18:28:25.008Z</time>
      </trkpt>
      <trkpt lat="43.95859" lon="7.14181">
        <ele>664</ele>
        <time>2018-06-20T18:28:28.008Z</time>
      </trkpt>
      <trkpt lat="43.95852" lon="7.14195">
        <ele>662</ele>
        <time>2018-06-20T18:28:30.008Z</time>
      </trkpt>
      <trkpt lat="43.95843" lon="7.14207">
        <ele>660</ele>
        <time>2018-06-20T18:28:32.008Z</time>
      </trkpt>
      <trkpt lat="43.95832" lon="7.14216">
        <ele>672</ele>
        <time>2018-06-20T18:28:34.008Z</time>
      </trkpt>
      <trkpt lat="43.9582" lon="7.14224">
        <ele>670</ele>
        <time>2018-06-20T18:28:36.008Z</time>
      </trkpt>
      <trkpt lat="43.95809" lon="7.14228">
        <ele>671</ele>
        <time>2018-06-20T18:28:38.008Z</time>
      </trkpt>
      <trkpt lat="43.95797" lon="7.14222">
        <ele>674</ele>
        <time>2018-06-20T18:28:41.008Z</time>
      </trkpt>
      <trkpt lat="43.95788" lon="7.14231">
        <ele>673</ele>
        <time>2018-06-20T18:28:45.008Z</time>
      </trkpt>
      <trkpt lat="43.95781" lon="7.14243">
        <ele>672</ele>
        <time>2018-06-20T18:28:48.008Z</time>
      </trkpt>
      <trkpt lat="43.95771" lon="7.14256">
        <ele>654</ele>
        <time>2018-06-20T18:28:51.008Z</time>
      </trkpt>
      <trkpt lat="43.95762" lon="7.14265">
        <ele>654</ele>
        <time>2018-06-20T18:28:53.008Z</time>
      </trkpt>
      <trkpt lat="43.95752" lon="7.14272">
        <ele>653</ele>
        <time>2018-06-20T18:28:55.008Z</time>
      </trkpt>
      <trkpt lat="43.95742" lon="7.14279">
        <ele>654</ele>
        <time>2018-06-20T18:28:57.008Z</time>
      </trkpt>
      <trkpt lat="43.95733" lon="7.14287">
        <ele>652</ele>
        <time>2018-06-20T18:28:59.008Z</time>
      </trkpt>
      <trkpt lat="43.95723" lon="7.14298">
        <ele>649</ele>
        <time>2018-06-20T18:29:02.008Z</time>
      </trkpt>
      <trkpt lat="43.95711" lon="7.14301">
        <ele>649</ele>
        <time>2018-06-20T18:29:05.008Z</time>
      </trkpt>
      <trkpt lat="43.95701" lon="7.14305">
        <ele>648</ele>
        <time>2018-06-20T18:29:08.008Z</time>
      </trkpt>
      <trkpt lat="43.95694" lon="7.14317">
        <ele>645</ele>
        <time>2018-06-20T18:29:12.008Z</time>
      </trkpt>
      <trkpt lat="43.95683" lon="7.14323">
        <ele>642</ele>
        <time>2018-06-20T18:29:15.008Z</time>
      </trkpt>
      <trkpt lat="43.9567" lon="7.14323">
        <ele>639</ele>
        <time>2018-06-20T18:29:18.008Z</time>
      </trkpt>
      <trkpt lat="43.95658" lon="7.14322">
        <ele>638</ele>
        <time>2018-06-20T18:29:21.008Z</time>
      </trkpt>
      <trkpt lat="43.95649" lon="7.14324">
        <ele>639</ele>
        <time>2018-06-20T18:29:24.008Z</time>
      </trkpt>
      <trkpt lat="43.95639" lon="7.14328">
        <ele>640</ele>
        <time>2018-06-20T18:29:27.008Z</time>
      </trkpt>
      <trkpt lat="43.9563" lon="7.14331">
        <ele>640</ele>
        <time>2018-06-20T18:29:29.008Z</time>
      </trkpt>
      <trkpt lat="43.95617" lon="7.14332">
        <ele>639</ele>
        <time>2018-06-20T18:29:32.008Z</time>
      </trkpt>
      <trkpt lat="43.95608" lon="7.14331">
        <ele>638</ele>
        <time>2018-06-20T18:29:34.008Z</time>
      </trkpt>
      <trkpt lat="43.95596" lon="7.14331">
        <ele>634</ele>
        <time>2018-06-20T18:29:37.008Z</time>
      </trkpt>
      <trkpt lat="43.95584" lon="7.14332">
        <ele>628</ele>
        <time>2018-06-20T18:29:40.008Z</time>
      </trkpt>
      <trkpt lat="43.95572" lon="7.14336">
        <ele>618</ele>
        <time>2018-06-20T18:29:42.008Z</time>
      </trkpt>
      <trkpt lat="43.95562" lon="7.14338">
        <ele>614</ele>
        <time>2018-06-20T18:29:44.008Z</time>
      </trkpt>
      <trkpt lat="43.95552" lon="7.14342">
        <ele>610</ele>
        <time>2018-06-20T18:29:46.008Z</time>
      </trkpt>
      <trkpt lat="43.95541" lon="7.1435">
        <ele>608</ele>
        <time>2018-06-20T18:29:48.008Z</time>
      </trkpt>
      <trkpt lat="43.9553" lon="7.14359">
        <ele>606</ele>
        <time>2018-06-20T18:29:50.008Z</time>
      </trkpt>
      <trkpt lat="43.95519" lon="7.14364">
        <ele>605</ele>
        <time>2018-06-20T18:29:52.008Z</time>
      </trkpt>
      <trkpt lat="43.9551" lon="7.14365">
        <ele>605</ele>
        <time>2018-06-20T18:29:54.008Z</time>
      </trkpt>
      <trkpt lat="43.95502" lon="7.14365">
        <ele>605</ele>
        <time>2018-06-20T18:29:56.008Z</time>
      </trkpt>
      <trkpt lat="43.95495" lon="7.1437">
        <ele>597</ele>
        <time>2018-06-20T18:29:58.008Z</time>
      </trkpt>
      <trkpt lat="43.9549" lon="7.14379">
        <ele>596</ele>
        <time>2018-06-20T18:30:00.008Z</time>
      </trkpt>
      <trkpt lat="43.95483" lon="7.14387">
        <ele>594</ele>
        <time>2018-06-20T18:30:02.008Z</time>
      </trkpt>
      <trkpt lat="43.95478" lon="7.14391">
        <ele>594</ele>
        <time>2018-06-20T18:30:03.008Z</time>
      </trkpt>
      <trkpt lat="43.95473" lon="7.14394">
        <ele>593</ele>
        <time>2018-06-20T18:30:04.008Z</time>
      </trkpt>
      <trkpt lat="43.95465" lon="7.14395">
        <ele>593</ele>
        <time>2018-06-20T18:30:06.008Z</time>
      </trkpt>
      <trkpt lat="43.9546" lon="7.14394">
        <ele>592</ele>
        <time>2018-06-20T18:30:08.008Z</time>
      </trkpt>
      <trkpt lat="43.95456" lon="7.14394">
        <ele>592</ele>
        <time>2018-06-20T18:30:18.008Z</time>
      </trkpt>
      <trkpt lat="43.95451" lon="7.14399">
        <ele>591</ele>
        <time>2018-06-20T18:30:20.008Z</time>
      </trkpt>
      <trkpt lat="43.95447" lon="7.14403">
        <ele>590</ele>
        <time>2018-06-20T18:30:21.008Z</time>
      </trkpt>
      <trkpt lat="43.95439" lon="7.14408">
        <ele>589</ele>
        <time>2018-06-20T18:30:23.008Z</time>
      </trkpt>
      <trkpt lat="43.9543" lon="7.14411">
        <ele>588</ele>
        <time>2018-06-20T18:30:25.008Z</time>
      </trkpt>
      <trkpt lat="43.95423" lon="7.14419">
        <ele>583</ele>
        <time>2018-06-20T18:30:27.008Z</time>
      </trkpt>
      <trkpt lat="43.95416" lon="7.14425">
        <ele>580</ele>
        <time>2018-06-20T18:30:29.008Z</time>
      </trkpt>
      <trkpt lat="43.95406" lon="7.14427">
        <ele>577</ele>
        <time>2018-06-20T18:30:31.008Z</time>
      </trkpt>
      <trkpt lat="43.95399" lon="7.14437">
        <ele>573</ele>
        <time>2018-06-20T18:30:33.008Z</time>
      </trkpt>
      <trkpt lat="43.95396" lon="7.14444">
        <ele>572</ele>
        <time>2018-06-20T18:30:34.008Z</time>
      </trkpt>
      <trkpt lat="43.9539" lon="7.14459">
        <ele>570</ele>
        <time>2018-06-20T18:30:36.008Z</time>
      </trkpt>
      <trkpt lat="43.95388" lon="7.14467">
        <ele>569</ele>
        <time>2018-06-20T18:30:37.008Z</time>
      </trkpt>
      <trkpt lat="43.95382" lon="7.14479">
        <ele>568</ele>
        <time>2018-06-20T18:30:39.008Z</time>
      </trkpt>
      <trkpt lat="43.95369" lon="7.14482">
        <ele>567</ele>
        <time>2018-06-20T18:30:41.008Z</time>
      </trkpt>
      <trkpt lat="43.95362" lon="7.14484">
        <ele>567</ele>
        <time>2018-06-20T18:30:42.008Z</time>
      </trkpt>
      <trkpt lat="43.95356" lon="7.14486">
        <ele>566</ele>
        <time>2018-06-20T18:30:43.008Z</time>
      </trkpt>
      <trkpt lat="43.9535" lon="7.14487">
        <ele>566</ele>
        <time>2018-06-20T18:30:44.008Z</time>
      </trkpt>
      <trkpt lat="43.9534" lon="7.14483">
        <ele>565</ele>
        <time>2018-06-20T18:30:46.008Z</time>
      </trkpt>
      <trkpt lat="43.95332" lon="7.14478">
        <ele>563</ele>
        <time>2018-06-20T18:30:48.008Z</time>
      </trkpt>
      <trkpt lat="43.95325" lon="7.14474">
        <ele>563</ele>
        <time>2018-06-20T18:30:50.008Z</time>
      </trkpt>
      <trkpt lat="43.95321" lon="7.14471">
        <ele>563</ele>
        <time>2018-06-20T18:30:53.008Z</time>
      </trkpt>
      <trkpt lat="43.95324" lon="7.14472">
        <ele>563</ele>
        <time>2018-06-20T18:31:14.008Z</time>
      </trkpt>
      <trkpt lat="43.95321" lon="7.14469">
        <ele>563</ele>
        <time>2018-06-20T18:32:51.008Z</time>
      </trkpt>
      <trkpt lat="43.95318" lon="7.14466">
        <ele>563</ele>
        <time>2018-06-20T18:32:53.008Z</time>
      </trkpt>
      <trkpt lat="43.95314" lon="7.14464">
        <ele>563</ele>
        <time>2018-06-20T18:32:55.008Z</time>
      </trkpt>
      <trkpt lat="43.95311" lon="7.14464">
        <ele>563</ele>
        <time>2018-06-20T18:32:56.008Z</time>
      </trkpt>
      <trkpt lat="43.95307" lon="7.14465">
        <ele>563</ele>
        <time>2018-06-20T18:32:57.008Z</time>
      </trkpt>
      <trkpt lat="43.95303" lon="7.14467">
        <ele>563</ele>
        <time>2018-06-20T18:32:58.008Z</time>
      </trkpt>
      <trkpt lat="43.95298" lon="7.14469">
        <ele>564</ele>
        <time>2018-06-20T18:32:59.008Z</time>
      </trkpt>
      <trkpt lat="43.95293" lon="7.14471">
        <ele>564</ele>
        <time>2018-06-20T18:33:00.008Z</time>
      </trkpt>
      <trkpt lat="43.95288" lon="7.14472">
        <ele>564</ele>
        <time>2018-06-20T18:33:01.008Z</time>
      </trkpt>
      <trkpt lat="43.95284" lon="7.14473">
        <ele>564</ele>
        <time>2018-06-20T18:33:02.008Z</time>
      </trkpt>
      <trkpt lat="43.95279" lon="7.14475">
        <ele>564</ele>
        <time>2018-06-20T18:33:03.008Z</time>
      </trkpt>
      <trkpt lat="43.95275" lon="7.14478">
        <ele>565</ele>
        <time>2018-06-20T18:33:04.008Z</time>
      </trkpt>
      <trkpt lat="43.95271" lon="7.14481">
        <ele>565</ele>
        <time>2018-06-20T18:33:05.008Z</time>
      </trkpt>
      <trkpt lat="43.95267" lon="7.14484">
        <ele>566</ele>
        <time>2018-06-20T18:33:06.008Z</time>
      </trkpt>
      <trkpt lat="43.95261" lon="7.14491">
        <ele>567</ele>
        <time>2018-06-20T18:33:08.008Z</time>
      </trkpt>
      <trkpt lat="43.95259" lon="7.145">
        <ele>568</ele>
        <time>2018-06-20T18:33:10.008Z</time>
      </trkpt>
      <trkpt lat="43.95256" lon="7.14508">
        <ele>566</ele>
        <time>2018-06-20T18:33:12.008Z</time>
      </trkpt>
      <trkpt lat="43.95256" lon="7.14512">
        <ele>565</ele>
        <time>2018-06-20T18:33:13.008Z</time>
      </trkpt>
      <trkpt lat="43.95254" lon="7.1452">
        <ele>563</ele>
        <time>2018-06-20T18:33:15.008Z</time>
      </trkpt>
      <trkpt lat="43.95254" lon="7.14528">
        <ele>562</ele>
        <time>2018-06-20T18:33:17.008Z</time>
      </trkpt>
      <trkpt lat="43.95253" lon="7.14538">
        <ele>561</ele>
        <time>2018-06-20T18:33:19.008Z</time>
      </trkpt>
      <trkpt lat="43.95252" lon="7.14543">
        <ele>560</ele>
        <time>2018-06-20T18:33:20.008Z</time>
      </trkpt>
      <trkpt lat="43.95251" lon="7.14548">
        <ele>560</ele>
        <time>2018-06-20T18:33:21.008Z</time>
      </trkpt>
      <trkpt lat="43.95249" lon="7.14553">
        <ele>567</ele>
        <time>2018-06-20T18:33:22.008Z</time>
      </trkpt>
      <trkpt lat="43.95247" lon="7.14558">
        <ele>567</ele>
        <time>2018-06-20T18:33:23.008Z</time>
      </trkpt>
      <trkpt lat="43.95245" lon="7.14563">
        <ele>566</ele>
        <time>2018-06-20T18:33:24.008Z</time>
      </trkpt>
      <trkpt lat="43.95243" lon="7.14568">
        <ele>565</ele>
        <time>2018-06-20T18:33:25.008Z</time>
      </trkpt>
      <trkpt lat="43.95241" lon="7.14573">
        <ele>565</ele>
        <time>2018-06-20T18:33:26.008Z</time>
      </trkpt>
      <trkpt lat="43.95238" lon="7.14577">
        <ele>565</ele>
        <time>2018-06-20T18:33:27.008Z</time>
      </trkpt>
      <trkpt lat="43.95234" lon="7.1458">
        <ele>565</ele>
        <time>2018-06-20T18:33:28.008Z</time>
      </trkpt>
      <trkpt lat="43.95231" lon="7.14583">
        <ele>559</ele>
        <time>2018-06-20T18:33:29.008Z</time>
      </trkpt>
      <trkpt lat="43.9523" lon="7.14588">
        <ele>559</ele>
        <time>2018-06-20T18:33:30.008Z</time>
      </trkpt>
      <trkpt lat="43.95229" lon="7.14593">
        <ele>559</ele>
        <time>2018-06-20T18:33:31.008Z</time>
      </trkpt>
      <trkpt lat="43.95228" lon="7.14598">
        <ele>558</ele>
        <time>2018-06-20T18:33:32.008Z</time>
      </trkpt>
      <trkpt lat="43.95226" lon="7.14603">
        <ele>558</ele>
        <time>2018-06-20T18:33:33.008Z</time>
      </trkpt>
      <trkpt lat="43.95223" lon="7.14607">
        <ele>558</ele>
        <time>2018-06-20T18:33:34.008Z</time>
      </trkpt>
      <trkpt lat="43.95219" lon="7.14611">
        <ele>558</ele>
        <time>2018-06-20T18:33:35.008Z</time>
      </trkpt>
      <trkpt lat="43.95215" lon="7.14614">
        <ele>558</ele>
        <time>2018-06-20T18:33:36.008Z</time>
      </trkpt>
      <trkpt lat="43.9521" lon="7.14618">
        <ele>558</ele>
        <time>2018-06-20T18:33:37.008Z</time>
      </trkpt>
      <trkpt lat="43.95205" lon="7.14621">
        <ele>558</ele>
        <time>2018-06-20T18:33:38.008Z</time>
      </trkpt>
      <trkpt lat="43.95201" lon="7.14625">
        <ele>558</ele>
        <time>2018-06-20T18:33:39.008Z</time>
      </trkpt>
      <trkpt lat="43.95197" lon="7.14628">
        <ele>558</ele>
        <time>2018-06-20T18:33:40.008Z</time>
      </trkpt>
      <trkpt lat="43.95188" lon="7.14635">
        <ele>557</ele>
        <time>2018-06-20T18:33:42.008Z</time>
      </trkpt>
      <trkpt lat="43.9518" lon="7.14641">
        <ele>557</ele>
        <time>2018-06-20T18:33:44.008Z</time>
      </trkpt>
      <trkpt lat="43.9517" lon="7.14651">
        <ele>556</ele>
        <time>2018-06-20T18:33:49.008Z</time>
      </trkpt>
      <trkpt lat="43.95159" lon="7.14656">
        <ele>560</ele>
        <time>2018-06-20T18:33:53.008Z</time>
      </trkpt>
      <trkpt lat="43.95152" lon="7.14658">
        <ele>562</ele>
        <time>2018-06-20T18:33:55.008Z</time>
      </trkpt>
      <trkpt lat="43.95142" lon="7.14656">
        <ele>564</ele>
        <time>2018-06-20T18:33:58.008Z</time>
      </trkpt>
      <trkpt lat="43.95133" lon="7.14659">
        <ele>565</ele>
        <time>2018-06-20T18:34:01.008Z</time>
      </trkpt>
      <trkpt lat="43.95126" lon="7.14663">
        <ele>565</ele>
        <time>2018-06-20T18:34:04.008Z</time>
      </trkpt>
      <trkpt lat="43.95121" lon="7.14666">
        <ele>566</ele>
        <time>2018-06-20T18:34:14.008Z</time>
      </trkpt>
      <trkpt lat="43.95117" lon="7.14669">
        <ele>553</ele>
        <time>2018-06-20T18:34:34.008Z</time>
      </trkpt>
      <trkpt lat="43.95112" lon="7.14673">
        <ele>553</ele>
        <time>2018-06-20T18:34:41.008Z</time>
      </trkpt>
      <trkpt lat="43.95106" lon="7.14675">
        <ele>554</ele>
        <time>2018-06-20T18:34:44.008Z</time>
      </trkpt>
      <trkpt lat="43.951" lon="7.14676">
        <ele>556</ele>
        <time>2018-06-20T18:34:46.008Z</time>
      </trkpt>
      <trkpt lat="43.95094" lon="7.14677">
        <ele>557</ele>
        <time>2018-06-20T18:34:48.008Z</time>
      </trkpt>
      <trkpt lat="43.95089" lon="7.14678">
        <ele>558</ele>
        <time>2018-06-20T18:34:50.008Z</time>
      </trkpt>
      <trkpt lat="43.95082" lon="7.14683">
        <ele>563</ele>
        <time>2018-06-20T18:34:52.008Z</time>
      </trkpt>
      <trkpt lat="43.95071" lon="7.14695">
        <ele>562</ele>
        <time>2018-06-20T18:34:56.008Z</time>
      </trkpt>
      <trkpt lat="43.95061" lon="7.14702">
        <ele>561</ele>
        <time>2018-06-20T18:34:59.008Z</time>
      </trkpt>
      <trkpt lat="43.95054" lon="7.14713">
        <ele>560</ele>
        <time>2018-06-20T18:35:02.008Z</time>
      </trkpt>
      <trkpt lat="43.95046" lon="7.14727">
        <ele>560</ele>
        <time>2018-06-20T18:35:05.008Z</time>
      </trkpt>
      <trkpt lat="43.95037" lon="7.14739">
        <ele>560</ele>
        <time>2018-06-20T18:35:08.008Z</time>
      </trkpt>
      <trkpt lat="43.95027" lon="7.14748">
        <ele>561</ele>
        <time>2018-06-20T18:35:11.008Z</time>
      </trkpt>
      <trkpt lat="43.95019" lon="7.14763">
        <ele>548</ele>
        <time>2018-06-20T18:35:13.008Z</time>
      </trkpt>
      <trkpt lat="43.95009" lon="7.14777">
        <ele>546</ele>
        <time>2018-06-20T18:35:15.008Z</time>
      </trkpt>
      <trkpt lat="43.94995" lon="7.14789">
        <ele>550</ele>
        <time>2018-06-20T18:35:17.008Z</time>
      </trkpt>
      <trkpt lat="43.94987" lon="7.14794">
        <ele>549</ele>
        <time>2018-06-20T18:35:18.008Z</time>
      </trkpt>
      <trkpt lat="43.94978" lon="7.14797">
        <ele>548</ele>
        <time>2018-06-20T18:35:19.008Z</time>
      </trkpt>
      <trkpt lat="43.94971" lon="7.14801">
        <ele>548</ele>
        <time>2018-06-20T18:35:20.008Z</time>
      </trkpt>
      <trkpt lat="43.94966" lon="7.14804">
        <ele>547</ele>
        <time>2018-06-20T18:35:21.008Z</time>
      </trkpt>
      <trkpt lat="43.94961" lon="7.14808">
        <ele>547</ele>
        <time>2018-06-20T18:35:22.008Z</time>
      </trkpt>
      <trkpt lat="43.94957" lon="7.14812">
        <ele>547</ele>
        <time>2018-06-20T18:35:23.008Z</time>
      </trkpt>
      <trkpt lat="43.94952" lon="7.14816">
        <ele>546</ele>
        <time>2018-06-20T18:35:24.008Z</time>
      </trkpt>
      <trkpt lat="43.94947" lon="7.14821">
        <ele>546</ele>
        <time>2018-06-20T18:35:25.008Z</time>
      </trkpt>
      <trkpt lat="43.94942" lon="7.14826">
        <ele>546</ele>
        <time>2018-06-20T18:35:26.008Z</time>
      </trkpt>
      <trkpt lat="43.94936" lon="7.14831">
        <ele>545</ele>
        <time>2018-06-20T18:35:27.008Z</time>
      </trkpt>
      <trkpt lat="43.9493" lon="7.14836">
        <ele>538</ele>
        <time>2018-06-20T18:35:28.008Z</time>
      </trkpt>
      <trkpt lat="43.94925" lon="7.14841">
        <ele>538</ele>
        <time>2018-06-20T18:35:29.008Z</time>
      </trkpt>
      <trkpt lat="43.94919" lon="7.14846">
        <ele>538</ele>
        <time>2018-06-20T18:35:30.008Z</time>
      </trkpt>
      <trkpt lat="43.94913" lon="7.14852">
        <ele>539</ele>
        <time>2018-06-20T18:35:31.008Z</time>
      </trkpt>
      <trkpt lat="43.94908" lon="7.14857">
        <ele>538</ele>
        <time>2018-06-20T18:35:32.008Z</time>
      </trkpt>
      <trkpt lat="43.94903" lon="7.14864">
        <ele>538</ele>
        <time>2018-06-20T18:35:33.008Z</time>
      </trkpt>
      <trkpt lat="43.94901" lon="7.14872">
        <ele>537</ele>
        <time>2018-06-20T18:35:34.008Z</time>
      </trkpt>
      <trkpt lat="43.94898" lon="7.1488">
        <ele>537</ele>
        <time>2018-06-20T18:35:35.008Z</time>
      </trkpt>
      <trkpt lat="43.94895" lon="7.14887">
        <ele>536</ele>
        <time>2018-06-20T18:35:36.008Z</time>
      </trkpt>
      <trkpt lat="43.94891" lon="7.14895">
        <ele>536</ele>
        <time>2018-06-20T18:35:37.008Z</time>
      </trkpt>
      <trkpt lat="43.94889" lon="7.14902">
        <ele>536</ele>
        <time>2018-06-20T18:35:38.008Z</time>
      </trkpt>
      <trkpt lat="43.94888" lon="7.1491">
        <ele>536</ele>
        <time>2018-06-20T18:35:39.008Z</time>
      </trkpt>
      <trkpt lat="43.94887" lon="7.14917">
        <ele>533</ele>
        <time>2018-06-20T18:35:40.008Z</time>
      </trkpt>
      <trkpt lat="43.94885" lon="7.14925">
        <ele>532</ele>
        <time>2018-06-20T18:35:41.008Z</time>
      </trkpt>
      <trkpt lat="43.94883" lon="7.14932">
        <ele>532</ele>
        <time>2018-06-20T18:35:42.008Z</time>
      </trkpt>
      <trkpt lat="43.94882" lon="7.14939">
        <ele>532</ele>
        <time>2018-06-20T18:35:43.008Z</time>
      </trkpt>
      <trkpt lat="43.9488" lon="7.14945">
        <ele>532</ele>
        <time>2018-06-20T18:35:44.008Z</time>
      </trkpt>
      <trkpt lat="43.94877" lon="7.14951">
        <ele>531</ele>
        <time>2018-06-20T18:35:45.008Z</time>
      </trkpt>
      <trkpt lat="43.94875" lon="7.14957">
        <ele>531</ele>
        <time>2018-06-20T18:35:46.008Z</time>
      </trkpt>
      <trkpt lat="43.94872" lon="7.14964">
        <ele>531</ele>
        <time>2018-06-20T18:35:47.008Z</time>
      </trkpt>
      <trkpt lat="43.94869" lon="7.1497">
        <ele>531</ele>
        <time>2018-06-20T18:35:48.008Z</time>
      </trkpt>
      <trkpt lat="43.94867" lon="7.14978">
        <ele>531</ele>
        <time>2018-06-20T18:35:49.008Z</time>
      </trkpt>
      <trkpt lat="43.94865" lon="7.14986">
        <ele>531</ele>
        <time>2018-06-20T18:35:50.008Z</time>
      </trkpt>
      <trkpt lat="43.94862" lon="7.14994">
        <ele>531</ele>
        <time>2018-06-20T18:35:51.008Z</time>
      </trkpt>
      <trkpt lat="43.94857" lon="7.15002">
        <ele>523</ele>
        <time>2018-06-20T18:35:52.008Z</time>
      </trkpt>
      <trkpt lat="43.94852" lon="7.1501">
        <ele>524</ele>
        <time>2018-06-20T18:35:53.008Z</time>
      </trkpt>
      <trkpt lat="43.94846" lon="7.15017">
        <ele>524</ele>
        <time>2018-06-20T18:35:54.008Z</time>
      </trkpt>
      <trkpt lat="43.9484" lon="7.15025">
        <ele>522</ele>
        <time>2018-06-20T18:35:55.008Z</time>
      </trkpt>
      <trkpt lat="43.94834" lon="7.15031">
        <ele>521</ele>
        <time>2018-06-20T18:35:56.008Z</time>
      </trkpt>
      <trkpt lat="43.94827" lon="7.15035">
        <ele>527</ele>
        <time>2018-06-20T18:35:57.008Z</time>
      </trkpt>
      <trkpt lat="43.94822" lon="7.15036">
        <ele>526</ele>
        <time>2018-06-20T18:35:58.008Z</time>
      </trkpt>
      <trkpt lat="43.94816" lon="7.15035">
        <ele>526</ele>
        <time>2018-06-20T18:35:59.008Z</time>
      </trkpt>
      <trkpt lat="43.9481" lon="7.15034">
        <ele>526</ele>
        <time>2018-06-20T18:36:00.008Z</time>
      </trkpt>
      <trkpt lat="43.94802" lon="7.15033">
        <ele>526</ele>
        <time>2018-06-20T18:36:01.008Z</time>
      </trkpt>
      <trkpt lat="43.94795" lon="7.15034">
        <ele>526</ele>
        <time>2018-06-20T18:36:02.008Z</time>
      </trkpt>
      <trkpt lat="43.94788" lon="7.15037">
        <ele>525</ele>
        <time>2018-06-20T18:36:03.008Z</time>
      </trkpt>
      <trkpt lat="43.94783" lon="7.15041">
        <ele>525</ele>
        <time>2018-06-20T18:36:04.008Z</time>
      </trkpt>
      <trkpt lat="43.94778" lon="7.15047">
        <ele>525</ele>
        <time>2018-06-20T18:36:05.008Z</time>
      </trkpt>
      <trkpt lat="43.94774" lon="7.15054">
        <ele>524</ele>
        <time>2018-06-20T18:36:06.008Z</time>
      </trkpt>
      <trkpt lat="43.94769" lon="7.15069">
        <ele>523</ele>
        <time>2018-06-20T18:36:08.008Z</time>
      </trkpt>
      <trkpt lat="43.9476" lon="7.1508">
        <ele>523</ele>
        <time>2018-06-20T18:36:10.008Z</time>
      </trkpt>
      <trkpt lat="43.9475" lon="7.15092">
        <ele>518</ele>
        <time>2018-06-20T18:36:12.008Z</time>
      </trkpt>
      <trkpt lat="43.94745" lon="7.15097">
        <ele>520</ele>
        <time>2018-06-20T18:36:13.008Z</time>
      </trkpt>
      <trkpt lat="43.94739" lon="7.151">
        <ele>519</ele>
        <time>2018-06-20T18:36:14.008Z</time>
      </trkpt>
      <trkpt lat="43.94733" lon="7.15102">
        <ele>519</ele>
        <time>2018-06-20T18:36:15.008Z</time>
      </trkpt>
      <trkpt lat="43.9472" lon="7.15104">
        <ele>519</ele>
        <time>2018-06-20T18:36:17.008Z</time>
      </trkpt>
      <trkpt lat="43.94713" lon="7.15106">
        <ele>519</ele>
        <time>2018-06-20T18:36:18.008Z</time>
      </trkpt>
      <trkpt lat="43.94706" lon="7.15109">
        <ele>519</ele>
        <time>2018-06-20T18:36:19.008Z</time>
      </trkpt>
      <trkpt lat="43.94699" lon="7.15113">
        <ele>519</ele>
        <time>2018-06-20T18:36:20.008Z</time>
      </trkpt>
      <trkpt lat="43.94689" lon="7.15114">
        <ele>519</ele>
        <time>2018-06-20T18:36:22.008Z</time>
      </trkpt>
      <trkpt lat="43.94681" lon="7.15118">
        <ele>519</ele>
        <time>2018-06-20T18:36:24.008Z</time>
      </trkpt>
      <trkpt lat="43.94676" lon="7.15125">
        <ele>519</ele>
        <time>2018-06-20T18:36:26.008Z</time>
      </trkpt>
      <trkpt lat="43.94674" lon="7.15133">
        <ele>518</ele>
        <time>2018-06-20T18:36:28.008Z</time>
      </trkpt>
      <trkpt lat="43.94675" lon="7.1514">
        <ele>518</ele>
        <time>2018-06-20T18:36:30.008Z</time>
      </trkpt>
      <trkpt lat="43.94678" lon="7.15146">
        <ele>518</ele>
        <time>2018-06-20T18:36:32.008Z</time>
      </trkpt>
      <trkpt lat="43.94682" lon="7.15153">
        <ele>518</ele>
        <time>2018-06-20T18:36:34.008Z</time>
      </trkpt>
      <trkpt lat="43.94684" lon="7.15156">
        <ele>518</ele>
        <time>2018-06-20T18:36:35.008Z</time>
      </trkpt>
      <trkpt lat="43.94687" lon="7.15158">
        <ele>518</ele>
        <time>2018-06-20T18:36:36.008Z</time>
      </trkpt>
      <trkpt lat="43.9469" lon="7.15161">
        <ele>518</ele>
        <time>2018-06-20T18:36:37.008Z</time>
      </trkpt>
      <trkpt lat="43.94694" lon="7.15163">
        <ele>517</ele>
        <time>2018-06-20T18:36:38.008Z</time>
      </trkpt>
      <trkpt lat="43.94697" lon="7.15167">
        <ele>517</ele>
        <time>2018-06-20T18:36:39.008Z</time>
      </trkpt>
      <trkpt lat="43.947" lon="7.1517">
        <ele>507</ele>
        <time>2018-06-20T18:36:40.008Z</time>
      </trkpt>
      <trkpt lat="43.94703" lon="7.15172">
        <ele>507</ele>
        <time>2018-06-20T18:36:41.008Z</time>
      </trkpt>
      <trkpt lat="43.94707" lon="7.15174">
        <ele>506</ele>
        <time>2018-06-20T18:36:42.008Z</time>
      </trkpt>
      <trkpt lat="43.94711" lon="7.15173">
        <ele>506</ele>
        <time>2018-06-20T18:36:43.008Z</time>
      </trkpt>
      <trkpt lat="43.94715" lon="7.15172">
        <ele>505</ele>
        <time>2018-06-20T18:36:44.008Z</time>
      </trkpt>
      <trkpt lat="43.9472" lon="7.15169">
        <ele>505</ele>
        <time>2018-06-20T18:36:45.008Z</time>
      </trkpt>
      <trkpt lat="43.94724" lon="7.15166">
        <ele>514</ele>
        <time>2018-06-20T18:36:46.008Z</time>
      </trkpt>
      <trkpt lat="43.94729" lon="7.15163">
        <ele>514</ele>
        <time>2018-06-20T18:36:47.008Z</time>
      </trkpt>
      <trkpt lat="43.94735" lon="7.15159">
        <ele>513</ele>
        <time>2018-06-20T18:36:48.008Z</time>
      </trkpt>
      <trkpt lat="43.9474" lon="7.15156">
        <ele>513</ele>
        <time>2018-06-20T18:36:49.008Z</time>
      </trkpt>
      <trkpt lat="43.94751" lon="7.15148">
        <ele>509</ele>
        <time>2018-06-20T18:36:51.008Z</time>
      </trkpt>
      <trkpt lat="43.94757" lon="7.15144">
        <ele>509</ele>
        <time>2018-06-20T18:36:52.008Z</time>
      </trkpt>
      <trkpt lat="43.94762" lon="7.15138">
        <ele>509</ele>
        <time>2018-06-20T18:36:53.008Z</time>
      </trkpt>
      <trkpt lat="43.94767" lon="7.15132">
        <ele>509</ele>
        <time>2018-06-20T18:36:54.008Z</time>
      </trkpt>
      <trkpt lat="43.94771" lon="7.15125">
        <ele>510</ele>
        <time>2018-06-20T18:36:55.008Z</time>
      </trkpt>
      <trkpt lat="43.94776" lon="7.15118">
        <ele>511</ele>
        <time>2018-06-20T18:36:56.008Z</time>
      </trkpt>
      <trkpt lat="43.9478" lon="7.15112">
        <ele>511</ele>
        <time>2018-06-20T18:36:57.008Z</time>
      </trkpt>
      <trkpt lat="43.94784" lon="7.15106">
        <ele>511</ele>
        <time>2018-06-20T18:36:58.008Z</time>
      </trkpt>
      <trkpt lat="43.94788" lon="7.151">
        <ele>512</ele>
        <time>2018-06-20T18:36:59.008Z</time>
      </trkpt>
      <trkpt lat="43.94793" lon="7.15094">
        <ele>512</ele>
        <time>2018-06-20T18:37:00.008Z</time>
      </trkpt>
      <trkpt lat="43.94798" lon="7.15089">
        <ele>512</ele>
        <time>2018-06-20T18:37:01.008Z</time>
      </trkpt>
      <trkpt lat="43.94803" lon="7.15084">
        <ele>512</ele>
        <time>2018-06-20T18:37:02.008Z</time>
      </trkpt>
      <trkpt lat="43.9481" lon="7.15081">
        <ele>521</ele>
        <time>2018-06-20T18:37:03.008Z</time>
      </trkpt>
      <trkpt lat="43.94817" lon="7.15079">
        <ele>521</ele>
        <time>2018-06-20T18:37:04.008Z</time>
      </trkpt>
      <trkpt lat="43.94823" lon="7.15077">
        <ele>520</ele>
        <time>2018-06-20T18:37:05.008Z</time>
      </trkpt>
      <trkpt lat="43.9483" lon="7.15075">
        <ele>519</ele>
        <time>2018-06-20T18:37:06.008Z</time>
      </trkpt>
      <trkpt lat="43.94837" lon="7.15075">
        <ele>516</ele>
        <time>2018-06-20T18:37:07.008Z</time>
      </trkpt>
      <trkpt lat="43.94842" lon="7.15075">
        <ele>516</ele>
        <time>2018-06-20T18:37:08.008Z</time>
      </trkpt>
      <trkpt lat="43.94847" lon="7.15075">
        <ele>515</ele>
        <time>2018-06-20T18:37:09.008Z</time>
      </trkpt>
      <trkpt lat="43.94851" lon="7.15076">
        <ele>515</ele>
        <time>2018-06-20T18:37:10.008Z</time>
      </trkpt>
      <trkpt lat="43.94854" lon="7.15076">
        <ele>515</ele>
        <time>2018-06-20T18:37:11.008Z</time>
      </trkpt>
      <trkpt lat="43.94857" lon="7.15078">
        <ele>514</ele>
        <time>2018-06-20T18:37:20.008Z</time>
      </trkpt>
      <trkpt lat="43.94863" lon="7.15079">
        <ele>513</ele>
        <time>2018-06-20T18:37:25.008Z</time>
      </trkpt>
      <trkpt lat="43.9487" lon="7.15083">
        <ele>512</ele>
        <time>2018-06-20T18:37:35.008Z</time>
      </trkpt>
      <trkpt lat="43.94878" lon="7.15084">
        <ele>495</ele>
        <time>2018-06-20T18:37:38.008Z</time>
      </trkpt>
      <trkpt lat="43.94891" lon="7.15082">
        <ele>507</ele>
        <time>2018-06-20T18:37:42.008Z</time>
      </trkpt>
      <trkpt lat="43.94904" lon="7.15078">
        <ele>503</ele>
        <time>2018-06-20T18:37:45.008Z</time>
      </trkpt>
      <trkpt lat="43.94914" lon="7.15068">
        <ele>503</ele>
        <time>2018-06-20T18:37:48.008Z</time>
      </trkpt>
      <trkpt lat="43.9492" lon="7.15049">
        <ele>495</ele>
        <time>2018-06-20T18:37:51.008Z</time>
      </trkpt>
      <trkpt lat="43.94929" lon="7.15036">
        <ele>497</ele>
        <time>2018-06-20T18:37:54.008Z</time>
      </trkpt>
      <trkpt lat="43.94941" lon="7.15036">
        <ele>495</ele>
        <time>2018-06-20T18:37:57.008Z</time>
      </trkpt>
      <trkpt lat="43.94951" lon="7.15045">
        <ele>493</ele>
        <time>2018-06-20T18:37:59.008Z</time>
      </trkpt>
      <trkpt lat="43.94959" lon="7.15056">
        <ele>490</ele>
        <time>2018-06-20T18:38:01.008Z</time>
      </trkpt>
      <trkpt lat="43.94968" lon="7.15065">
        <ele>488</ele>
        <time>2018-06-20T18:38:03.008Z</time>
      </trkpt>
      <trkpt lat="43.94979" lon="7.15065">
        <ele>485</ele>
        <time>2018-06-20T18:38:05.008Z</time>
      </trkpt>
      <trkpt lat="43.94995" lon="7.15057">
        <ele>484</ele>
        <time>2018-06-20T18:38:07.008Z</time>
      </trkpt>
      <trkpt lat="43.9501" lon="7.1505">
        <ele>474</ele>
        <time>2018-06-20T18:38:09.008Z</time>
      </trkpt>
      <trkpt lat="43.95024" lon="7.1504">
        <ele>475</ele>
        <time>2018-06-20T18:38:11.008Z</time>
      </trkpt>
      <trkpt lat="43.95036" lon="7.15032">
        <ele>475</ele>
        <time>2018-06-20T18:38:13.008Z</time>
      </trkpt>
      <trkpt lat="43.95049" lon="7.15033">
        <ele>474</ele>
        <time>2018-06-20T18:38:15.008Z</time>
      </trkpt>
      <trkpt lat="43.95062" lon="7.15042">
        <ele>472</ele>
        <time>2018-06-20T18:38:17.008Z</time>
      </trkpt>
      <trkpt lat="43.95075" lon="7.15052">
        <ele>469</ele>
        <time>2018-06-20T18:38:19.008Z</time>
      </trkpt>
      <trkpt lat="43.95089" lon="7.15053">
        <ele>460</ele>
        <time>2018-06-20T18:38:21.008Z</time>
      </trkpt>
      <trkpt lat="43.95101" lon="7.15054">
        <ele>460</ele>
        <time>2018-06-20T18:38:23.008Z</time>
      </trkpt>
      <trkpt lat="43.95112" lon="7.15052">
        <ele>460</ele>
        <time>2018-06-20T18:38:26.008Z</time>
      </trkpt>
      <trkpt lat="43.95121" lon="7.15048">
        <ele>460</ele>
        <time>2018-06-20T18:38:30.008Z</time>
      </trkpt>
      <trkpt lat="43.95134" lon="7.15047">
        <ele>460</ele>
        <time>2018-06-20T18:38:33.008Z</time>
      </trkpt>
      <trkpt lat="43.95145" lon="7.15054">
        <ele>458</ele>
        <time>2018-06-20T18:38:35.008Z</time>
      </trkpt>
      <trkpt lat="43.95151" lon="7.15063">
        <ele>455</ele>
        <time>2018-06-20T18:38:37.008Z</time>
      </trkpt>
      <trkpt lat="43.95145" lon="7.15072">
        <ele>454</ele>
        <time>2018-06-20T18:38:40.008Z</time>
      </trkpt>
      <trkpt lat="43.95138" lon="7.15079">
        <ele>455</ele>
        <time>2018-06-20T18:38:47.008Z</time>
      </trkpt>
      <trkpt lat="43.95143" lon="7.15083">
        <ele>454</ele>
        <time>2018-06-20T18:39:03.008Z</time>
      </trkpt>
      <trkpt lat="43.9515" lon="7.15084">
        <ele>440</ele>
        <time>2018-06-20T18:39:06.008Z</time>
      </trkpt>
      <trkpt lat="43.95158" lon="7.15082">
        <ele>449</ele>
        <time>2018-06-20T18:39:09.008Z</time>
      </trkpt>
      <trkpt lat="43.95168" lon="7.15096">
        <ele>437</ele>
        <time>2018-06-20T18:39:20.008Z</time>
      </trkpt>
      <trkpt lat="43.95179" lon="7.15095">
        <ele>435</ele>
        <time>2018-06-20T18:39:24.008Z</time>
      </trkpt>
      <trkpt lat="43.95185" lon="7.15092">
        <ele>434</ele>
        <time>2018-06-20T18:39:27.008Z</time>
      </trkpt>
      <trkpt lat="43.95181" lon="7.151">
        <ele>434</ele>
        <time>2018-06-20T18:39:30.008Z</time>
      </trkpt>
      <trkpt lat="43.95174" lon="7.15107">
        <ele>433</ele>
        <time>2018-06-20T18:39:33.008Z</time>
      </trkpt>
      <trkpt lat="43.95165" lon="7.15114">
        <ele>435</ele>
        <time>2018-06-20T18:39:37.008Z</time>
      </trkpt>
      <trkpt lat="43.95172" lon="7.1512">
        <ele>429</ele>
        <time>2018-06-20T18:39:41.008Z</time>
      </trkpt>
      <trkpt lat="43.9518" lon="7.15116">
        <ele>429</ele>
        <time>2018-06-20T18:39:44.008Z</time>
      </trkpt>
      <trkpt lat="43.95187" lon="7.15117">
        <ele>429</ele>
        <time>2018-06-20T18:39:49.008Z</time>
      </trkpt>
      <trkpt lat="43.95182" lon="7.15125">
        <ele>427</ele>
        <time>2018-06-20T18:39:52.008Z</time>
      </trkpt>
      <trkpt lat="43.95178" lon="7.15138">
        <ele>425</ele>
        <time>2018-06-20T18:40:01.008Z</time>
      </trkpt>
      <trkpt lat="43.95169" lon="7.15142">
        <ele>424</ele>
        <time>2018-06-20T18:40:04.008Z</time>
      </trkpt>
      <trkpt lat="43.95161" lon="7.15146">
        <ele>427</ele>
        <time>2018-06-20T18:40:07.008Z</time>
      </trkpt>
      <trkpt lat="43.95152" lon="7.15151">
        <ele>427</ele>
        <time>2018-06-20T18:40:11.008Z</time>
      </trkpt>
      <trkpt lat="43.95142" lon="7.15156">
        <ele>428</ele>
        <time>2018-06-20T18:40:14.008Z</time>
      </trkpt>
      <trkpt lat="43.95134" lon="7.15166">
        <ele>428</ele>
        <time>2018-06-20T18:40:17.008Z</time>
      </trkpt>
      <trkpt lat="43.95133" lon="7.15184">
        <ele>410</ele>
        <time>2018-06-20T18:40:20.008Z</time>
      </trkpt>
      <trkpt lat="43.95133" lon="7.15196">
        <ele>408</ele>
        <time>2018-06-20T18:40:23.008Z</time>
      </trkpt>
      <trkpt lat="43.95134" lon="7.1521">
        <ele>406</ele>
        <time>2018-06-20T18:40:33.008Z</time>
      </trkpt>
      <trkpt lat="43.95139" lon="7.15221">
        <ele>404</ele>
        <time>2018-06-20T18:40:37.008Z</time>
      </trkpt>
      <trkpt lat="43.95148" lon="7.15225">
        <ele>402</ele>
        <time>2018-06-20T18:40:40.008Z</time>
      </trkpt>
      <trkpt lat="43.95155" lon="7.15234">
        <ele>399</ele>
        <time>2018-06-20T18:40:45.008Z</time>
      </trkpt>
      <trkpt lat="43.95154" lon="7.15248">
        <ele>396</ele>
        <time>2018-06-20T18:40:51.008Z</time>
      </trkpt>
      <trkpt lat="43.95161" lon="7.15258">
        <ele>386</ele>
        <time>2018-06-20T18:40:54.008Z</time>
      </trkpt>
      <trkpt lat="43.95167" lon="7.1527">
        <ele>381</ele>
        <time>2018-06-20T18:40:58.008Z</time>
      </trkpt>
      <trkpt lat="43.95178" lon="7.15277">
        <ele>379</ele>
        <time>2018-06-20T18:41:01.008Z</time>
      </trkpt>
      <trkpt lat="43.9518" lon="7.15292">
        <ele>376</ele>
        <time>2018-06-20T18:41:08.008Z</time>
      </trkpt>
      <trkpt lat="43.95192" lon="7.15292">
        <ele>376</ele>
        <time>2018-06-20T18:41:12.008Z</time>
      </trkpt>
      <trkpt lat="43.95201" lon="7.15299">
        <ele>375</ele>
        <time>2018-06-20T18:41:15.008Z</time>
      </trkpt>
      <trkpt lat="43.95207" lon="7.15312">
        <ele>373</ele>
        <time>2018-06-20T18:41:18.008Z</time>
      </trkpt>
      <trkpt lat="43.95212" lon="7.15325">
        <ele>372</ele>
        <time>2018-06-20T18:41:21.008Z</time>
      </trkpt>
      <trkpt lat="43.9522" lon="7.15334">
        <ele>355</ele>
        <time>2018-06-20T18:41:24.008Z</time>
      </trkpt>
      <trkpt lat="43.95218" lon="7.15342">
        <ele>354</ele>
        <time>2018-06-20T18:41:27.008Z</time>
      </trkpt>
      <trkpt lat="43.95214" lon="7.15347">
        <ele>353</ele>
        <time>2018-06-20T18:41:29.008Z</time>
      </trkpt>
      <trkpt lat="43.95214" lon="7.15354">
        <ele>352</ele>
        <time>2018-06-20T18:41:31.008Z</time>
      </trkpt>
      <trkpt lat="43.95218" lon="7.15362">
        <ele>351</ele>
        <time>2018-06-20T18:41:33.008Z</time>
      </trkpt>
      <trkpt lat="43.95224" lon="7.15364">
        <ele>351</ele>
        <time>2018-06-20T18:41:35.008Z</time>
      </trkpt>
      <trkpt lat="43.95232" lon="7.15362">
        <ele>352</ele>
        <time>2018-06-20T18:41:37.008Z</time>
      </trkpt>
      <trkpt lat="43.95238" lon="7.15357">
        <ele>354</ele>
        <time>2018-06-20T18:41:39.008Z</time>
      </trkpt>
      <trkpt lat="43.95242" lon="7.1535">
        <ele>356</ele>
        <time>2018-06-20T18:41:41.008Z</time>
      </trkpt>
      <trkpt lat="43.95243" lon="7.15339">
        <ele>360</ele>
        <time>2018-06-20T18:41:44.008Z</time>
      </trkpt>
      <trkpt lat="43.95245" lon="7.1535">
        <ele>357</ele>
        <time>2018-06-20T18:41:48.008Z</time>
      </trkpt>
      <trkpt lat="43.95245" lon="7.15362">
        <ele>353</ele>
        <time>2018-06-20T18:41:50.008Z</time>
      </trkpt>
      <trkpt lat="43.95243" lon="7.15374">
        <ele>350</ele>
        <time>2018-06-20T18:41:52.008Z</time>
      </trkpt>
      <trkpt lat="43.95254" lon="7.15375">
        <ele>349</ele>
        <time>2018-06-20T18:42:02.008Z</time>
      </trkpt>
      <trkpt lat="43.95253" lon="7.15391">
        <ele>345</ele>
        <time>2018-06-20T18:42:11.008Z</time>
      </trkpt>
      <trkpt lat="43.95263" lon="7.15389">
        <ele>346</ele>
        <time>2018-06-20T18:42:19.008Z</time>
      </trkpt>
      <trkpt lat="43.95263" lon="7.15404">
        <ele>343</ele>
        <time>2018-06-20T18:42:24.008Z</time>
      </trkpt>
      <trkpt lat="43.95273" lon="7.15402">
        <ele>344</ele>
        <time>2018-06-20T18:42:28.008Z</time>
      </trkpt>
      <trkpt lat="43.9527" lon="7.15415">
        <ele>343</ele>
        <time>2018-06-20T18:42:33.008Z</time>
      </trkpt>
      <trkpt lat="43.9528" lon="7.1541">
        <ele>344</ele>
        <time>2018-06-20T18:42:38.008Z</time>
      </trkpt>
      <trkpt lat="43.95281" lon="7.1542">
        <ele>327</ele>
        <time>2018-06-20T18:42:43.008Z</time>
      </trkpt>
      <trkpt lat="43.95275" lon="7.15431">
        <ele>326</ele>
        <time>2018-06-20T18:42:46.008Z</time>
      </trkpt>
      <trkpt lat="43.95278" lon="7.15443">
        <ele>324</ele>
        <time>2018-06-20T18:42:51.008Z</time>
      </trkpt>
      <trkpt lat="43.9527" lon="7.1545">
        <ele>323</ele>
        <time>2018-06-20T18:42:54.008Z</time>
      </trkpt>
      <trkpt lat="43.95262" lon="7.15454">
        <ele>322</ele>
        <time>2018-06-20T18:42:57.008Z</time>
      </trkpt>
      <trkpt lat="43.95253" lon="7.15451">
        <ele>323</ele>
        <time>2018-06-20T18:43:00.008Z</time>
      </trkpt>
      <trkpt lat="43.95254" lon="7.1546">
        <ele>321</ele>
        <time>2018-06-20T18:43:03.008Z</time>
      </trkpt>
      <trkpt lat="43.9526" lon="7.15469">
        <ele>319</ele>
        <time>2018-06-20T18:43:06.008Z</time>
      </trkpt>
      <trkpt lat="43.95261" lon="7.15481">
        <ele>316</ele>
        <time>2018-06-20T18:43:10.008Z</time>
      </trkpt>
      <trkpt lat="43.95253" lon="7.15483">
        <ele>315</ele>
        <time>2018-06-20T18:43:13.008Z</time>
      </trkpt>
      <trkpt lat="43.95246" lon="7.15481">
        <ele>315</ele>
        <time>2018-06-20T18:43:15.008Z</time>
      </trkpt>
      <trkpt lat="43.9524" lon="7.1548">
        <ele>316</ele>
        <time>2018-06-20T18:43:17.008Z</time>
      </trkpt>
      <trkpt lat="43.95231" lon="7.1549">
        <ele>315</ele>
        <time>2018-06-20T18:43:20.008Z</time>
      </trkpt>
      <trkpt lat="43.95227" lon="7.15499">
        <ele>314</ele>
        <time>2018-06-20T18:43:22.008Z</time>
      </trkpt>
      <trkpt lat="43.95226" lon="7.15511">
        <ele>301</ele>
        <time>2018-06-20T18:43:25.008Z</time>
      </trkpt>
      <trkpt lat="43.95232" lon="7.15524">
        <ele>299</ele>
        <time>2018-06-20T18:43:28.008Z</time>
      </trkpt>
      <trkpt lat="43.95234" lon="7.15529">
        <ele>299</ele>
        <time>2018-06-20T18:43:29.008Z</time>
      </trkpt>
      <trkpt lat="43.95237" lon="7.15535">
        <ele>298</ele>
        <time>2018-06-20T18:43:30.008Z</time>
      </trkpt>
      <trkpt lat="43.95242" lon="7.15545">
        <ele>295</ele>
        <time>2018-06-20T18:43:32.008Z</time>
      </trkpt>
      <trkpt lat="43.95247" lon="7.15552">
        <ele>294</ele>
        <time>2018-06-20T18:43:34.008Z</time>
      </trkpt>
      <trkpt lat="43.95255" lon="7.15552">
        <ele>292</ele>
        <time>2018-06-20T18:43:36.008Z</time>
      </trkpt>
      <trkpt lat="43.95268" lon="7.15548">
        <ele>293</ele>
        <time>2018-06-20T18:43:39.008Z</time>
      </trkpt>
      <trkpt lat="43.95277" lon="7.15533">
        <ele>295</ele>
        <time>2018-06-20T18:43:42.008Z</time>
      </trkpt>
      <trkpt lat="43.95285" lon="7.15529">
        <ele>296</ele>
        <time>2018-06-20T18:43:46.008Z</time>
      </trkpt>
      <trkpt lat="43.9528" lon="7.15545">
        <ele>293</ele>
        <time>2018-06-20T18:43:50.008Z</time>
      </trkpt>
      <trkpt lat="43.95275" lon="7.1556">
        <ele>291</ele>
        <time>2018-06-20T18:43:53.008Z</time>
      </trkpt>
      <trkpt lat="43.95263" lon="7.15568">
        <ele>289</ele>
        <time>2018-06-20T18:43:56.008Z</time>
      </trkpt>
      <trkpt lat="43.95254" lon="7.15574">
        <ele>286</ele>
        <time>2018-06-20T18:43:58.008Z</time>
      </trkpt>
      <trkpt lat="43.95244" lon="7.15578">
        <ele>286</ele>
        <time>2018-06-20T18:44:00.008Z</time>
      </trkpt>
      <trkpt lat="43.95236" lon="7.15582">
        <ele>288</ele>
        <time>2018-06-20T18:44:02.008Z</time>
      </trkpt>
      <trkpt lat="43.95229" lon="7.15585">
        <ele>281</ele>
        <time>2018-06-20T18:44:04.008Z</time>
      </trkpt>
      <trkpt lat="43.95222" lon="7.15588">
        <ele>281</ele>
        <time>2018-06-20T18:44:06.008Z</time>
      </trkpt>
      <trkpt lat="43.95214" lon="7.15592">
        <ele>281</ele>
        <time>2018-06-20T18:44:08.008Z</time>
      </trkpt>
      <trkpt lat="43.95206" lon="7.15598">
        <ele>281</ele>
        <time>2018-06-20T18:44:10.008Z</time>
      </trkpt>
      <trkpt lat="43.95198" lon="7.15603">
        <ele>281</ele>
        <time>2018-06-20T18:44:12.008Z</time>
      </trkpt>
      <trkpt lat="43.9519" lon="7.15608">
        <ele>282</ele>
        <time>2018-06-20T18:44:14.008Z</time>
      </trkpt>
      <trkpt lat="43.9518" lon="7.15613">
        <ele>282</ele>
        <time>2018-06-20T18:44:17.008Z</time>
      </trkpt>
      <trkpt lat="43.95172" lon="7.15606">
        <ele>283</ele>
        <time>2018-06-20T18:44:21.008Z</time>
      </trkpt>
      <trkpt lat="43.95168" lon="7.15613">
        <ele>282</ele>
        <time>2018-06-20T18:44:34.008Z</time>
      </trkpt>
      <trkpt lat="43.95166" lon="7.15622">
        <ele>290</ele>
        <time>2018-06-20T18:44:42.008Z</time>
      </trkpt>
      <trkpt lat="43.95166" lon="7.15633">
        <ele>288</ele>
        <time>2018-06-20T18:44:52.008Z</time>
      </trkpt>
      <trkpt lat="43.95161" lon="7.15641">
        <ele>287</ele>
        <time>2018-06-20T18:44:56.008Z</time>
      </trkpt>
      <trkpt lat="43.95155" lon="7.15647">
        <ele>286</ele>
        <time>2018-06-20T18:44:59.008Z</time>
      </trkpt>
      <trkpt lat="43.95148" lon="7.15654">
        <ele>286</ele>
        <time>2018-06-20T18:45:02.008Z</time>
      </trkpt>
      <trkpt lat="43.95142" lon="7.15667">
        <ele>276</ele>
        <time>2018-06-20T18:45:06.008Z</time>
      </trkpt>
      <trkpt lat="43.95138" lon="7.15677">
        <ele>276</ele>
        <time>2018-06-20T18:45:09.008Z</time>
      </trkpt>
      <trkpt lat="43.95136" lon="7.15688">
        <ele>275</ele>
        <time>2018-06-20T18:45:13.008Z</time>
      </trkpt>
      <trkpt lat="43.95134" lon="7.15694">
        <ele>275</ele>
        <time>2018-06-20T18:45:15.008Z</time>
      </trkpt>
      <trkpt lat="43.95126" lon="7.15701">
        <ele>275</ele>
        <time>2018-06-20T18:45:18.008Z</time>
      </trkpt>
      <trkpt lat="43.95117" lon="7.15708">
        <ele>275</ele>
        <time>2018-06-20T18:45:21.008Z</time>
      </trkpt>
      <trkpt lat="43.9511" lon="7.15714">
        <ele>275</ele>
        <time>2018-06-20T18:45:23.008Z</time>
      </trkpt>
      <trkpt lat="43.95104" lon="7.15719">
        <ele>274</ele>
        <time>2018-06-20T18:45:25.008Z</time>
      </trkpt>
      <trkpt lat="43.95095" lon="7.15727">
        <ele>273</ele>
        <time>2018-06-20T18:45:28.008Z</time>
      </trkpt>
      <trkpt lat="43.95088" lon="7.15736">
        <ele>272</ele>
        <time>2018-06-20T18:45:31.008Z</time>
      </trkpt>
      <trkpt lat="43.95079" lon="7.15745">
        <ele>272</ele>
        <time>2018-06-20T18:45:34.008Z</time>
      </trkpt>
      <trkpt lat="43.95073" lon="7.15752">
        <ele>268</ele>
        <time>2018-06-20T18:45:36.008Z</time>
      </trkpt>
      <trkpt lat="43.95066" lon="7.15758">
        <ele>267</ele>
        <time>2018-06-20T18:45:38.008Z</time>
      </trkpt>
      <trkpt lat="43.95058" lon="7.15763">
        <ele>266</ele>
        <time>2018-06-20T18:45:40.008Z</time>
      </trkpt>
      <trkpt lat="43.9505" lon="7.15766">
        <ele>266</ele>
        <time>2018-06-20T18:45:42.008Z</time>
      </trkpt>
      <trkpt lat="43.95042" lon="7.15768">
        <ele>267</ele>
        <time>2018-06-20T18:45:44.008Z</time>
      </trkpt>
      <trkpt lat="43.95035" lon="7.1577">
        <ele>267</ele>
        <time>2018-06-20T18:45:46.008Z</time>
      </trkpt>
      <trkpt lat="43.95027" lon="7.15772">
        <ele>267</ele>
        <time>2018-06-20T18:45:48.008Z</time>
      </trkpt>
      <trkpt lat="43.9502" lon="7.15774">
        <ele>267</ele>
        <time>2018-06-20T18:45:50.008Z</time>
      </trkpt>
      <trkpt lat="43.95014" lon="7.15776">
        <ele>268</ele>
        <time>2018-06-20T18:45:52.008Z</time>
      </trkpt>
      <trkpt lat="43.95004" lon="7.15781">
        <ele>267</ele>
        <time>2018-06-20T18:45:55.008Z</time>
      </trkpt>
      <trkpt lat="43.94996" lon="7.15787">
        <ele>270</ele>
        <time>2018-06-20T18:45:58.008Z</time>
      </trkpt>
      <trkpt lat="43.94989" lon="7.15796">
        <ele>269</ele>
        <time>2018-06-20T18:46:00.008Z</time>
      </trkpt>
      <trkpt lat="43.94984" lon="7.15809">
        <ele>268</ele>
        <time>2018-06-20T18:46:02.008Z</time>
      </trkpt>
      <trkpt lat="43.94981" lon="7.15822">
        <ele>266</ele>
        <time>2018-06-20T18:46:04.008Z</time>
      </trkpt>
      <trkpt lat="43.94975" lon="7.15833">
        <ele>266</ele>
        <time>2018-06-20T18:46:06.008Z</time>
      </trkpt>
      <trkpt lat="43.94966" lon="7.15841">
        <ele>258</ele>
        <time>2018-06-20T18:46:08.008Z</time>
      </trkpt>
      <trkpt lat="43.94955" lon="7.15845">
        <ele>258</ele>
        <time>2018-06-20T18:46:10.008Z</time>
      </trkpt>
      <trkpt lat="43.94943" lon="7.15836">
        <ele>260</ele>
        <time>2018-06-20T18:46:13.008Z</time>
      </trkpt>
      <trkpt lat="43.94939" lon="7.15822">
        <ele>269</ele>
        <time>2018-06-20T18:46:15.008Z</time>
      </trkpt>
      <trkpt lat="43.94928" lon="7.15822">
        <ele>268</ele>
        <time>2018-06-20T18:46:19.008Z</time>
      </trkpt>
      <trkpt lat="43.94925" lon="7.15835">
        <ele>263</ele>
        <time>2018-06-20T18:46:23.008Z</time>
      </trkpt>
      <trkpt lat="43.94918" lon="7.1585">
        <ele>261</ele>
        <time>2018-06-20T18:46:27.008Z</time>
      </trkpt>
      <trkpt lat="43.9491" lon="7.15865">
        <ele>263</ele>
        <time>2018-06-20T18:46:30.008Z</time>
      </trkpt>
      <trkpt lat="43.94898" lon="7.15876">
        <ele>262</ele>
        <time>2018-06-20T18:46:33.008Z</time>
      </trkpt>
      <trkpt lat="43.9489" lon="7.15882">
        <ele>262</ele>
        <time>2018-06-20T18:46:35.008Z</time>
      </trkpt>
      <trkpt lat="43.94882" lon="7.15887">
        <ele>262</ele>
        <time>2018-06-20T18:46:37.008Z</time>
      </trkpt>
      <trkpt lat="43.94874" lon="7.15893">
        <ele>261</ele>
        <time>2018-06-20T18:46:39.008Z</time>
      </trkpt>
      <trkpt lat="43.94867" lon="7.15897">
        <ele>261</ele>
        <time>2018-06-20T18:46:41.008Z</time>
      </trkpt>
      <trkpt lat="43.9486" lon="7.15902">
        <ele>260</ele>
        <time>2018-06-20T18:46:43.008Z</time>
      </trkpt>
      <trkpt lat="43.94852" lon="7.15903">
        <ele>260</ele>
        <time>2018-06-20T18:46:45.008Z</time>
      </trkpt>
      <trkpt lat="43.94843" lon="7.15902">
        <ele>259</ele>
        <time>2018-06-20T18:46:47.008Z</time>
      </trkpt>
      <trkpt lat="43.94834" lon="7.15907">
        <ele>257</ele>
        <time>2018-06-20T18:46:49.008Z</time>
      </trkpt>
      <trkpt lat="43.94824" lon="7.15914">
        <ele>259</ele>
        <time>2018-06-20T18:46:51.008Z</time>
      </trkpt>
      <trkpt lat="43.94814" lon="7.15919">
        <ele>252</ele>
        <time>2018-06-20T18:46:53.008Z</time>
      </trkpt>
      <trkpt lat="43.94804" lon="7.15922">
        <ele>252</ele>
        <time>2018-06-20T18:46:55.008Z</time>
      </trkpt>
      <trkpt lat="43.94796" lon="7.15935">
        <ele>252</ele>
        <time>2018-06-20T18:46:58.008Z</time>
      </trkpt>
      <trkpt lat="43.94797" lon="7.15954">
        <ele>252</ele>
        <time>2018-06-20T18:47:01.008Z</time>
      </trkpt>
      <trkpt lat="43.948" lon="7.15968">
        <ele>251</ele>
        <time>2018-06-20T18:47:05.008Z</time>
      </trkpt>
      <trkpt lat="43.94801" lon="7.1598">
        <ele>251</ele>
        <time>2018-06-20T18:47:07.008Z</time>
      </trkpt>
      <trkpt lat="43.94799" lon="7.15989">
        <ele>251</ele>
        <time>2018-06-20T18:47:09.008Z</time>
      </trkpt>
      <trkpt lat="43.94795" lon="7.15993">
        <ele>251</ele>
        <time>2018-06-20T18:47:11.008Z</time>
      </trkpt>
      <trkpt lat="43.948" lon="7.16002">
        <ele>257</ele>
        <time>2018-06-20T18:47:32.008Z</time>
      </trkpt>
      <trkpt lat="43.94794" lon="7.16004">
        <ele>257</ele>
        <time>2018-06-20T18:47:41.008Z</time>
      </trkpt>
      <trkpt lat="43.94791" lon="7.15999">
        <ele>251</ele>
        <time>2018-06-20T18:48:13.008Z</time>
      </trkpt>
      <trkpt lat="43.94793" lon="7.16002">
        <ele>257</ele>
        <time>2018-06-20T18:48:38.008Z</time>
      </trkpt>
      <trkpt lat="43.94788" lon="7.16006">
        <ele>257</ele>
        <time>2018-06-20T18:48:51.008Z</time>
      </trkpt>
      <trkpt lat="43.94781" lon="7.16008">
        <ele>256</ele>
        <time>2018-06-20T18:48:57.008Z</time>
      </trkpt>
      <trkpt lat="43.94775" lon="7.16009">
        <ele>256</ele>
        <time>2018-06-20T18:49:02.008Z</time>
      </trkpt>
      <trkpt lat="43.94767" lon="7.16013">
        <ele>255</ele>
        <time>2018-06-20T18:49:08.008Z</time>
      </trkpt>
      <trkpt lat="43.9476" lon="7.16017">
        <ele>255</ele>
        <time>2018-06-20T18:49:11.008Z</time>
      </trkpt>
      <trkpt lat="43.94754" lon="7.1602">
        <ele>255</ele>
        <time>2018-06-20T18:49:13.008Z</time>
      </trkpt>
      <trkpt lat="43.94749" lon="7.16025">
        <ele>252</ele>
        <time>2018-06-20T18:49:15.008Z</time>
      </trkpt>
      <trkpt lat="43.94743" lon="7.16028">
        <ele>253</ele>
        <time>2018-06-20T18:49:17.008Z</time>
      </trkpt>
      <trkpt lat="43.94737" lon="7.16032">
        <ele>253</ele>
        <time>2018-06-20T18:49:19.008Z</time>
      </trkpt>
      <trkpt lat="43.94731" lon="7.16036">
        <ele>254</ele>
        <time>2018-06-20T18:49:21.008Z</time>
      </trkpt>
      <trkpt lat="43.94725" lon="7.16039">
        <ele>254</ele>
        <time>2018-06-20T18:49:23.008Z</time>
      </trkpt>
      <trkpt lat="43.94713" lon="7.16046">
        <ele>254</ele>
        <time>2018-06-20T18:49:27.008Z</time>
      </trkpt>
      <trkpt lat="43.94702" lon="7.16052">
        <ele>253</ele>
        <time>2018-06-20T18:49:31.008Z</time>
      </trkpt>
      <trkpt lat="43.94695" lon="7.16057">
        <ele>253</ele>
        <time>2018-06-20T18:49:34.008Z</time>
      </trkpt>
      <trkpt lat="43.9469" lon="7.1606">
        <ele>253</ele>
        <time>2018-06-20T18:49:36.008Z</time>
      </trkpt>
      <trkpt lat="43.94687" lon="7.16066">
        <ele>253</ele>
        <time>2018-06-20T18:49:38.008Z</time>
      </trkpt>
      <trkpt lat="43.94682" lon="7.1607">
        <ele>253</ele>
        <time>2018-06-20T18:49:40.008Z</time>
      </trkpt>
      <trkpt lat="43.94678" lon="7.16076">
        <ele>252</ele>
        <time>2018-06-20T18:49:42.008Z</time>
      </trkpt>
      <trkpt lat="43.94672" lon="7.16084">
        <ele>255</ele>
        <time>2018-06-20T18:49:45.008Z</time>
      </trkpt>
      <trkpt lat="43.94666" lon="7.16094">
        <ele>252</ele>
        <time>2018-06-20T18:49:48.008Z</time>
      </trkpt>
      <trkpt lat="43.94661" lon="7.16101">
        <ele>253</ele>
        <time>2018-06-20T18:49:50.008Z</time>
      </trkpt>
      <trkpt lat="43.94656" lon="7.16108">
        <ele>254</ele>
        <time>2018-06-20T18:49:52.008Z</time>
      </trkpt>
      <trkpt lat="43.94653" lon="7.16111">
        <ele>254</ele>
        <time>2018-06-20T18:49:53.008Z</time>
      </trkpt>
      <trkpt lat="43.94651" lon="7.16113">
        <ele>254</ele>
        <time>2018-06-20T18:49:54.008Z</time>
      </trkpt>
      <trkpt lat="43.94652" lon="7.16115">
        <ele>255</ele>
        <time>2018-06-20T18:50:04.008Z</time>
      </trkpt>
    </trkseg>
  </trk>
</gpx>